<?xml version="1.0" encoding="UTF-8" standalone="no" ?>
<gpx xmlns="http://www.topografix.com/GPX/1/1" xmlns:xsi="http://www.w3.org/2001/XMLSchema-instance" xsi:schemaLocation="http://www.topografix.com/GPX/1/1 http://www.topografix.com/GPX/1/1/gpx.xsd" version="1.1" creator="VisuGPX - https://www.visugpx.com">
  <metadata>
    <name>SO-NE-St Léger St Pazanne Machecoul St Hubert St Philbert La Chevrolière Pont St Martin St Aignan</name>
    <desc><![CDATA[SO-NE-St Léger St Pazanne Machecoul St Hubert St Philbert La Chevrolière Pont St Martin St Aignan]]></desc>
  </metadata>
  <trk>
    <name><![CDATA[2021-08-09 17:06 +02:00]]></name>
    <trkseg>
      <trkpt lat="47.16778" lon="-1.62659">
        <ele>75</ele>
        <time>2021-08-09T15:06:08.000Z</time>
      </trkpt>
      <trkpt lat="47.16775" lon="-1.62674">
        <ele>72</ele>
        <time>2021-08-09T15:07:52.000Z</time>
      </trkpt>
      <trkpt lat="47.16762" lon="-1.62673">
        <ele>73</ele>
        <time>2021-08-09T15:07:55.000Z</time>
      </trkpt>
      <trkpt lat="47.1675" lon="-1.62671">
        <ele>73</ele>
        <time>2021-08-09T15:07:57.000Z</time>
      </trkpt>
      <trkpt lat="47.16739" lon="-1.62678">
        <ele>73</ele>
        <time>2021-08-09T15:07:59.000Z</time>
      </trkpt>
      <trkpt lat="47.16729" lon="-1.62684">
        <ele>72</ele>
        <time>2021-08-09T15:08:01.000Z</time>
      </trkpt>
      <trkpt lat="47.1672" lon="-1.62693">
        <ele>72</ele>
        <time>2021-08-09T15:08:03.000Z</time>
      </trkpt>
      <trkpt lat="47.1672" lon="-1.62708">
        <ele>72</ele>
        <time>2021-08-09T15:08:05.000Z</time>
      </trkpt>
      <trkpt lat="47.16728" lon="-1.62722">
        <ele>72</ele>
        <time>2021-08-09T15:08:07.000Z</time>
      </trkpt>
      <trkpt lat="47.16735" lon="-1.62735">
        <ele>72</ele>
        <time>2021-08-09T15:08:09.000Z</time>
      </trkpt>
      <trkpt lat="47.16744" lon="-1.62748">
        <ele>72</ele>
        <time>2021-08-09T15:08:11.000Z</time>
      </trkpt>
      <trkpt lat="47.16754" lon="-1.62761">
        <ele>72</ele>
        <time>2021-08-09T15:08:13.000Z</time>
      </trkpt>
      <trkpt lat="47.16765" lon="-1.62771">
        <ele>72</ele>
        <time>2021-08-09T15:08:15.000Z</time>
      </trkpt>
      <trkpt lat="47.16776" lon="-1.62782">
        <ele>72</ele>
        <time>2021-08-09T15:08:17.000Z</time>
      </trkpt>
      <trkpt lat="47.16788" lon="-1.62792">
        <ele>72</ele>
        <time>2021-08-09T15:08:19.000Z</time>
      </trkpt>
      <trkpt lat="47.16799" lon="-1.62803">
        <ele>72</ele>
        <time>2021-08-09T15:08:21.000Z</time>
      </trkpt>
      <trkpt lat="47.1681" lon="-1.62812">
        <ele>73</ele>
        <time>2021-08-09T15:08:23.000Z</time>
      </trkpt>
      <trkpt lat="47.1682" lon="-1.62823">
        <ele>73</ele>
        <time>2021-08-09T15:08:25.000Z</time>
      </trkpt>
      <trkpt lat="47.16831" lon="-1.62833">
        <ele>73</ele>
        <time>2021-08-09T15:08:27.000Z</time>
      </trkpt>
      <trkpt lat="47.16842" lon="-1.62843">
        <ele>73</ele>
        <time>2021-08-09T15:08:29.000Z</time>
      </trkpt>
      <trkpt lat="47.16852" lon="-1.62854">
        <ele>74</ele>
        <time>2021-08-09T15:08:31.000Z</time>
      </trkpt>
      <trkpt lat="47.16862" lon="-1.62864">
        <ele>74</ele>
        <time>2021-08-09T15:08:33.000Z</time>
      </trkpt>
      <trkpt lat="47.16872" lon="-1.62876">
        <ele>74</ele>
        <time>2021-08-09T15:08:35.000Z</time>
      </trkpt>
      <trkpt lat="47.1688" lon="-1.62889">
        <ele>75</ele>
        <time>2021-08-09T15:08:37.000Z</time>
      </trkpt>
      <trkpt lat="47.16886" lon="-1.62905">
        <ele>75</ele>
        <time>2021-08-09T15:08:39.000Z</time>
      </trkpt>
      <trkpt lat="47.1689" lon="-1.62921">
        <ele>75</ele>
        <time>2021-08-09T15:08:41.000Z</time>
      </trkpt>
      <trkpt lat="47.16892" lon="-1.62938">
        <ele>76</ele>
        <time>2021-08-09T15:08:43.000Z</time>
      </trkpt>
      <trkpt lat="47.16893" lon="-1.62956">
        <ele>76</ele>
        <time>2021-08-09T15:08:45.000Z</time>
      </trkpt>
      <trkpt lat="47.16893" lon="-1.62974">
        <ele>76</ele>
        <time>2021-08-09T15:08:47.000Z</time>
      </trkpt>
      <trkpt lat="47.16891" lon="-1.62991">
        <ele>76</ele>
        <time>2021-08-09T15:08:49.000Z</time>
      </trkpt>
      <trkpt lat="47.16889" lon="-1.63009">
        <ele>76</ele>
        <time>2021-08-09T15:08:51.000Z</time>
      </trkpt>
      <trkpt lat="47.16888" lon="-1.63027">
        <ele>76</ele>
        <time>2021-08-09T15:08:53.000Z</time>
      </trkpt>
      <trkpt lat="47.16888" lon="-1.63045">
        <ele>76</ele>
        <time>2021-08-09T15:08:55.000Z</time>
      </trkpt>
      <trkpt lat="47.16889" lon="-1.63063">
        <ele>76</ele>
        <time>2021-08-09T15:08:57.000Z</time>
      </trkpt>
      <trkpt lat="47.16891" lon="-1.63081">
        <ele>77</ele>
        <time>2021-08-09T15:08:59.000Z</time>
      </trkpt>
      <trkpt lat="47.16894" lon="-1.63098">
        <ele>77</ele>
        <time>2021-08-09T15:09:01.000Z</time>
      </trkpt>
      <trkpt lat="47.16898" lon="-1.63116">
        <ele>77</ele>
        <time>2021-08-09T15:09:03.000Z</time>
      </trkpt>
      <trkpt lat="47.16903" lon="-1.63132">
        <ele>77</ele>
        <time>2021-08-09T15:09:05.000Z</time>
      </trkpt>
      <trkpt lat="47.16909" lon="-1.63147">
        <ele>77</ele>
        <time>2021-08-09T15:09:07.000Z</time>
      </trkpt>
      <trkpt lat="47.16915" lon="-1.63162">
        <ele>78</ele>
        <time>2021-08-09T15:09:09.000Z</time>
      </trkpt>
      <trkpt lat="47.16921" lon="-1.63176">
        <ele>78</ele>
        <time>2021-08-09T15:09:11.000Z</time>
      </trkpt>
      <trkpt lat="47.16928" lon="-1.6319">
        <ele>78</ele>
        <time>2021-08-09T15:09:13.000Z</time>
      </trkpt>
      <trkpt lat="47.16935" lon="-1.63203">
        <ele>79</ele>
        <time>2021-08-09T15:09:15.000Z</time>
      </trkpt>
      <trkpt lat="47.16943" lon="-1.63213">
        <ele>79</ele>
        <time>2021-08-09T15:09:17.000Z</time>
      </trkpt>
      <trkpt lat="47.16954" lon="-1.63229">
        <ele>79</ele>
        <time>2021-08-09T15:09:20.000Z</time>
      </trkpt>
      <trkpt lat="47.16963" lon="-1.63242">
        <ele>79</ele>
        <time>2021-08-09T15:09:23.000Z</time>
      </trkpt>
      <trkpt lat="47.1697" lon="-1.63253">
        <ele>79</ele>
        <time>2021-08-09T15:09:26.000Z</time>
      </trkpt>
      <trkpt lat="47.16964" lon="-1.63265">
        <ele>79</ele>
        <time>2021-08-09T15:09:28.000Z</time>
      </trkpt>
      <trkpt lat="47.16956" lon="-1.63278">
        <ele>79</ele>
        <time>2021-08-09T15:09:30.000Z</time>
      </trkpt>
      <trkpt lat="47.16948" lon="-1.63294">
        <ele>79</ele>
        <time>2021-08-09T15:09:32.000Z</time>
      </trkpt>
      <trkpt lat="47.16939" lon="-1.63308">
        <ele>80</ele>
        <time>2021-08-09T15:09:34.000Z</time>
      </trkpt>
      <trkpt lat="47.1693" lon="-1.63321">
        <ele>80</ele>
        <time>2021-08-09T15:09:36.000Z</time>
      </trkpt>
      <trkpt lat="47.16921" lon="-1.63334">
        <ele>80</ele>
        <time>2021-08-09T15:09:38.000Z</time>
      </trkpt>
      <trkpt lat="47.16912" lon="-1.63348">
        <ele>80</ele>
        <time>2021-08-09T15:09:40.000Z</time>
      </trkpt>
      <trkpt lat="47.16902" lon="-1.63361">
        <ele>80</ele>
        <time>2021-08-09T15:09:42.000Z</time>
      </trkpt>
      <trkpt lat="47.16894" lon="-1.63375">
        <ele>80</ele>
        <time>2021-08-09T15:09:44.000Z</time>
      </trkpt>
      <trkpt lat="47.16885" lon="-1.63389">
        <ele>80</ele>
        <time>2021-08-09T15:09:46.000Z</time>
      </trkpt>
      <trkpt lat="47.16876" lon="-1.63403">
        <ele>80</ele>
        <time>2021-08-09T15:09:48.000Z</time>
      </trkpt>
      <trkpt lat="47.16868" lon="-1.63417">
        <ele>80</ele>
        <time>2021-08-09T15:09:50.000Z</time>
      </trkpt>
      <trkpt lat="47.1686" lon="-1.6343">
        <ele>80</ele>
        <time>2021-08-09T15:09:52.000Z</time>
      </trkpt>
      <trkpt lat="47.16852" lon="-1.63444">
        <ele>80</ele>
        <time>2021-08-09T15:09:54.000Z</time>
      </trkpt>
      <trkpt lat="47.16844" lon="-1.63458">
        <ele>80</ele>
        <time>2021-08-09T15:09:56.000Z</time>
      </trkpt>
      <trkpt lat="47.16835" lon="-1.63473">
        <ele>80</ele>
        <time>2021-08-09T15:09:58.000Z</time>
      </trkpt>
      <trkpt lat="47.16827" lon="-1.63487">
        <ele>80</ele>
        <time>2021-08-09T15:10:00.000Z</time>
      </trkpt>
      <trkpt lat="47.16819" lon="-1.63501">
        <ele>80</ele>
        <time>2021-08-09T15:10:02.000Z</time>
      </trkpt>
      <trkpt lat="47.1681" lon="-1.63515">
        <ele>80</ele>
        <time>2021-08-09T15:10:04.000Z</time>
      </trkpt>
      <trkpt lat="47.16802" lon="-1.63529">
        <ele>80</ele>
        <time>2021-08-09T15:10:06.000Z</time>
      </trkpt>
      <trkpt lat="47.16794" lon="-1.63543">
        <ele>80</ele>
        <time>2021-08-09T15:10:08.000Z</time>
      </trkpt>
      <trkpt lat="47.16786" lon="-1.63558">
        <ele>81</ele>
        <time>2021-08-09T15:10:10.000Z</time>
      </trkpt>
      <trkpt lat="47.16778" lon="-1.63573">
        <ele>81</ele>
        <time>2021-08-09T15:10:12.000Z</time>
      </trkpt>
      <trkpt lat="47.16769" lon="-1.63587">
        <ele>81</ele>
        <time>2021-08-09T15:10:14.000Z</time>
      </trkpt>
      <trkpt lat="47.16761" lon="-1.63601">
        <ele>80</ele>
        <time>2021-08-09T15:10:16.000Z</time>
      </trkpt>
      <trkpt lat="47.16753" lon="-1.63615">
        <ele>80</ele>
        <time>2021-08-09T15:10:18.000Z</time>
      </trkpt>
      <trkpt lat="47.16746" lon="-1.63628">
        <ele>80</ele>
        <time>2021-08-09T15:10:20.000Z</time>
      </trkpt>
      <trkpt lat="47.1675" lon="-1.63643">
        <ele>80</ele>
        <time>2021-08-09T15:10:22.000Z</time>
      </trkpt>
      <trkpt lat="47.16763" lon="-1.63646">
        <ele>80</ele>
        <time>2021-08-09T15:10:24.000Z</time>
      </trkpt>
      <trkpt lat="47.16775" lon="-1.63651">
        <ele>80</ele>
        <time>2021-08-09T15:10:26.000Z</time>
      </trkpt>
      <trkpt lat="47.16787" lon="-1.63655">
        <ele>80</ele>
        <time>2021-08-09T15:10:28.000Z</time>
      </trkpt>
      <trkpt lat="47.168" lon="-1.6366">
        <ele>80</ele>
        <time>2021-08-09T15:10:30.000Z</time>
      </trkpt>
      <trkpt lat="47.16813" lon="-1.63665">
        <ele>80</ele>
        <time>2021-08-09T15:10:32.000Z</time>
      </trkpt>
      <trkpt lat="47.16826" lon="-1.6367">
        <ele>80</ele>
        <time>2021-08-09T15:10:34.000Z</time>
      </trkpt>
      <trkpt lat="47.16839" lon="-1.63675">
        <ele>80</ele>
        <time>2021-08-09T15:10:36.000Z</time>
      </trkpt>
      <trkpt lat="47.16853" lon="-1.6368">
        <ele>80</ele>
        <time>2021-08-09T15:10:38.000Z</time>
      </trkpt>
      <trkpt lat="47.16866" lon="-1.63684">
        <ele>80</ele>
        <time>2021-08-09T15:10:40.000Z</time>
      </trkpt>
      <trkpt lat="47.16879" lon="-1.63689">
        <ele>80</ele>
        <time>2021-08-09T15:10:42.000Z</time>
      </trkpt>
      <trkpt lat="47.16892" lon="-1.63694">
        <ele>80</ele>
        <time>2021-08-09T15:10:44.000Z</time>
      </trkpt>
      <trkpt lat="47.16905" lon="-1.63699">
        <ele>80</ele>
        <time>2021-08-09T15:10:46.000Z</time>
      </trkpt>
      <trkpt lat="47.16919" lon="-1.63704">
        <ele>80</ele>
        <time>2021-08-09T15:10:48.000Z</time>
      </trkpt>
      <trkpt lat="47.16932" lon="-1.63709">
        <ele>80</ele>
        <time>2021-08-09T15:10:50.000Z</time>
      </trkpt>
      <trkpt lat="47.16946" lon="-1.63715">
        <ele>79</ele>
        <time>2021-08-09T15:10:52.000Z</time>
      </trkpt>
      <trkpt lat="47.16959" lon="-1.6372">
        <ele>80</ele>
        <time>2021-08-09T15:10:54.000Z</time>
      </trkpt>
      <trkpt lat="47.16972" lon="-1.63724">
        <ele>79</ele>
        <time>2021-08-09T15:10:56.000Z</time>
      </trkpt>
      <trkpt lat="47.16985" lon="-1.63729">
        <ele>79</ele>
        <time>2021-08-09T15:10:58.000Z</time>
      </trkpt>
      <trkpt lat="47.16998" lon="-1.63734">
        <ele>79</ele>
        <time>2021-08-09T15:11:00.000Z</time>
      </trkpt>
      <trkpt lat="47.17012" lon="-1.63738">
        <ele>79</ele>
        <time>2021-08-09T15:11:02.000Z</time>
      </trkpt>
      <trkpt lat="47.17025" lon="-1.63744">
        <ele>79</ele>
        <time>2021-08-09T15:11:04.000Z</time>
      </trkpt>
      <trkpt lat="47.17038" lon="-1.63749">
        <ele>80</ele>
        <time>2021-08-09T15:11:06.000Z</time>
      </trkpt>
      <trkpt lat="47.1705" lon="-1.63756">
        <ele>79</ele>
        <time>2021-08-09T15:11:08.000Z</time>
      </trkpt>
      <trkpt lat="47.17061" lon="-1.63768">
        <ele>80</ele>
        <time>2021-08-09T15:11:10.000Z</time>
      </trkpt>
      <trkpt lat="47.17069" lon="-1.63784">
        <ele>80</ele>
        <time>2021-08-09T15:11:12.000Z</time>
      </trkpt>
      <trkpt lat="47.17074" lon="-1.63802">
        <ele>80</ele>
        <time>2021-08-09T15:11:14.000Z</time>
      </trkpt>
      <trkpt lat="47.1708" lon="-1.6382">
        <ele>80</ele>
        <time>2021-08-09T15:11:16.000Z</time>
      </trkpt>
      <trkpt lat="47.17086" lon="-1.63837">
        <ele>80</ele>
        <time>2021-08-09T15:11:18.000Z</time>
      </trkpt>
      <trkpt lat="47.17092" lon="-1.63854">
        <ele>80</ele>
        <time>2021-08-09T15:11:20.000Z</time>
      </trkpt>
      <trkpt lat="47.17098" lon="-1.63872">
        <ele>80</ele>
        <time>2021-08-09T15:11:22.000Z</time>
      </trkpt>
      <trkpt lat="47.17104" lon="-1.63889">
        <ele>80</ele>
        <time>2021-08-09T15:11:24.000Z</time>
      </trkpt>
      <trkpt lat="47.1711" lon="-1.63905">
        <ele>80</ele>
        <time>2021-08-09T15:11:26.000Z</time>
      </trkpt>
      <trkpt lat="47.17116" lon="-1.63921">
        <ele>80</ele>
        <time>2021-08-09T15:11:28.000Z</time>
      </trkpt>
      <trkpt lat="47.17124" lon="-1.63934">
        <ele>80</ele>
        <time>2021-08-09T15:11:30.000Z</time>
      </trkpt>
      <trkpt lat="47.17133" lon="-1.6394">
        <ele>80</ele>
        <time>2021-08-09T15:11:32.000Z</time>
      </trkpt>
      <trkpt lat="47.1714" lon="-1.63955">
        <ele>81</ele>
        <time>2021-08-09T15:11:35.000Z</time>
      </trkpt>
      <trkpt lat="47.1714" lon="-1.63973">
        <ele>81</ele>
        <time>2021-08-09T15:11:37.000Z</time>
      </trkpt>
      <trkpt lat="47.1714" lon="-1.63991">
        <ele>80</ele>
        <time>2021-08-09T15:11:39.000Z</time>
      </trkpt>
      <trkpt lat="47.17138" lon="-1.6401">
        <ele>80</ele>
        <time>2021-08-09T15:11:41.000Z</time>
      </trkpt>
      <trkpt lat="47.17136" lon="-1.6403">
        <ele>80</ele>
        <time>2021-08-09T15:11:43.000Z</time>
      </trkpt>
      <trkpt lat="47.17134" lon="-1.64049">
        <ele>80</ele>
        <time>2021-08-09T15:11:45.000Z</time>
      </trkpt>
      <trkpt lat="47.17132" lon="-1.64068">
        <ele>80</ele>
        <time>2021-08-09T15:11:47.000Z</time>
      </trkpt>
      <trkpt lat="47.1713" lon="-1.64088">
        <ele>80</ele>
        <time>2021-08-09T15:11:49.000Z</time>
      </trkpt>
      <trkpt lat="47.17127" lon="-1.64108">
        <ele>80</ele>
        <time>2021-08-09T15:11:51.000Z</time>
      </trkpt>
      <trkpt lat="47.17126" lon="-1.64127">
        <ele>80</ele>
        <time>2021-08-09T15:11:53.000Z</time>
      </trkpt>
      <trkpt lat="47.17124" lon="-1.64145">
        <ele>80</ele>
        <time>2021-08-09T15:11:55.000Z</time>
      </trkpt>
      <trkpt lat="47.17122" lon="-1.64165">
        <ele>80</ele>
        <time>2021-08-09T15:11:57.000Z</time>
      </trkpt>
      <trkpt lat="47.1712" lon="-1.64184">
        <ele>80</ele>
        <time>2021-08-09T15:11:59.000Z</time>
      </trkpt>
      <trkpt lat="47.17117" lon="-1.64203">
        <ele>81</ele>
        <time>2021-08-09T15:12:01.000Z</time>
      </trkpt>
      <trkpt lat="47.17115" lon="-1.64223">
        <ele>81</ele>
        <time>2021-08-09T15:12:03.000Z</time>
      </trkpt>
      <trkpt lat="47.17113" lon="-1.64241">
        <ele>81</ele>
        <time>2021-08-09T15:12:05.000Z</time>
      </trkpt>
      <trkpt lat="47.17111" lon="-1.6426">
        <ele>81</ele>
        <time>2021-08-09T15:12:07.000Z</time>
      </trkpt>
      <trkpt lat="47.17109" lon="-1.6428">
        <ele>81</ele>
        <time>2021-08-09T15:12:09.000Z</time>
      </trkpt>
      <trkpt lat="47.17107" lon="-1.64299">
        <ele>81</ele>
        <time>2021-08-09T15:12:11.000Z</time>
      </trkpt>
      <trkpt lat="47.17105" lon="-1.64319">
        <ele>81</ele>
        <time>2021-08-09T15:12:13.000Z</time>
      </trkpt>
      <trkpt lat="47.17103" lon="-1.64338">
        <ele>80</ele>
        <time>2021-08-09T15:12:15.000Z</time>
      </trkpt>
      <trkpt lat="47.17101" lon="-1.64358">
        <ele>80</ele>
        <time>2021-08-09T15:12:17.000Z</time>
      </trkpt>
      <trkpt lat="47.171" lon="-1.64377">
        <ele>80</ele>
        <time>2021-08-09T15:12:19.000Z</time>
      </trkpt>
      <trkpt lat="47.17098" lon="-1.64396">
        <ele>81</ele>
        <time>2021-08-09T15:12:21.000Z</time>
      </trkpt>
      <trkpt lat="47.17097" lon="-1.64417">
        <ele>81</ele>
        <time>2021-08-09T15:12:23.000Z</time>
      </trkpt>
      <trkpt lat="47.17095" lon="-1.64437">
        <ele>80</ele>
        <time>2021-08-09T15:12:25.000Z</time>
      </trkpt>
      <trkpt lat="47.17094" lon="-1.64456">
        <ele>80</ele>
        <time>2021-08-09T15:12:27.000Z</time>
      </trkpt>
      <trkpt lat="47.17093" lon="-1.64477">
        <ele>80</ele>
        <time>2021-08-09T15:12:29.000Z</time>
      </trkpt>
      <trkpt lat="47.17092" lon="-1.64497">
        <ele>80</ele>
        <time>2021-08-09T15:12:31.000Z</time>
      </trkpt>
      <trkpt lat="47.17091" lon="-1.64518">
        <ele>80</ele>
        <time>2021-08-09T15:12:33.000Z</time>
      </trkpt>
      <trkpt lat="47.1709" lon="-1.64539">
        <ele>79</ele>
        <time>2021-08-09T15:12:35.000Z</time>
      </trkpt>
      <trkpt lat="47.1709" lon="-1.64559">
        <ele>79</ele>
        <time>2021-08-09T15:12:37.000Z</time>
      </trkpt>
      <trkpt lat="47.17089" lon="-1.6458">
        <ele>79</ele>
        <time>2021-08-09T15:12:39.000Z</time>
      </trkpt>
      <trkpt lat="47.17089" lon="-1.64601">
        <ele>78</ele>
        <time>2021-08-09T15:12:41.000Z</time>
      </trkpt>
      <trkpt lat="47.17089" lon="-1.64621">
        <ele>79</ele>
        <time>2021-08-09T15:12:43.000Z</time>
      </trkpt>
      <trkpt lat="47.17089" lon="-1.64641">
        <ele>79</ele>
        <time>2021-08-09T15:12:45.000Z</time>
      </trkpt>
      <trkpt lat="47.17089" lon="-1.64661">
        <ele>78</ele>
        <time>2021-08-09T15:12:47.000Z</time>
      </trkpt>
      <trkpt lat="47.1709" lon="-1.64681">
        <ele>78</ele>
        <time>2021-08-09T15:12:49.000Z</time>
      </trkpt>
      <trkpt lat="47.17091" lon="-1.64701">
        <ele>78</ele>
        <time>2021-08-09T15:12:51.000Z</time>
      </trkpt>
      <trkpt lat="47.17091" lon="-1.6472">
        <ele>78</ele>
        <time>2021-08-09T15:12:53.000Z</time>
      </trkpt>
      <trkpt lat="47.17092" lon="-1.6474">
        <ele>78</ele>
        <time>2021-08-09T15:12:55.000Z</time>
      </trkpt>
      <trkpt lat="47.17092" lon="-1.64758">
        <ele>79</ele>
        <time>2021-08-09T15:12:57.000Z</time>
      </trkpt>
      <trkpt lat="47.17093" lon="-1.64777">
        <ele>79</ele>
        <time>2021-08-09T15:12:59.000Z</time>
      </trkpt>
      <trkpt lat="47.17094" lon="-1.64796">
        <ele>79</ele>
        <time>2021-08-09T15:13:01.000Z</time>
      </trkpt>
      <trkpt lat="47.17095" lon="-1.64815">
        <ele>78</ele>
        <time>2021-08-09T15:13:03.000Z</time>
      </trkpt>
      <trkpt lat="47.17097" lon="-1.64835">
        <ele>78</ele>
        <time>2021-08-09T15:13:05.000Z</time>
      </trkpt>
      <trkpt lat="47.17098" lon="-1.64855">
        <ele>78</ele>
        <time>2021-08-09T15:13:07.000Z</time>
      </trkpt>
      <trkpt lat="47.17099" lon="-1.64874">
        <ele>78</ele>
        <time>2021-08-09T15:13:09.000Z</time>
      </trkpt>
      <trkpt lat="47.17101" lon="-1.64894">
        <ele>78</ele>
        <time>2021-08-09T15:13:11.000Z</time>
      </trkpt>
      <trkpt lat="47.17102" lon="-1.64913">
        <ele>78</ele>
        <time>2021-08-09T15:13:13.000Z</time>
      </trkpt>
      <trkpt lat="47.17104" lon="-1.64932">
        <ele>79</ele>
        <time>2021-08-09T15:13:15.000Z</time>
      </trkpt>
      <trkpt lat="47.17105" lon="-1.6495">
        <ele>78</ele>
        <time>2021-08-09T15:13:17.000Z</time>
      </trkpt>
      <trkpt lat="47.17107" lon="-1.64968">
        <ele>78</ele>
        <time>2021-08-09T15:13:19.000Z</time>
      </trkpt>
      <trkpt lat="47.17108" lon="-1.64987">
        <ele>79</ele>
        <time>2021-08-09T15:13:21.000Z</time>
      </trkpt>
      <trkpt lat="47.1711" lon="-1.65006">
        <ele>79</ele>
        <time>2021-08-09T15:13:23.000Z</time>
      </trkpt>
      <trkpt lat="47.17112" lon="-1.65025">
        <ele>79</ele>
        <time>2021-08-09T15:13:25.000Z</time>
      </trkpt>
      <trkpt lat="47.17112" lon="-1.65043">
        <ele>79</ele>
        <time>2021-08-09T15:13:27.000Z</time>
      </trkpt>
      <trkpt lat="47.17114" lon="-1.65062">
        <ele>79</ele>
        <time>2021-08-09T15:13:29.000Z</time>
      </trkpt>
      <trkpt lat="47.17115" lon="-1.65081">
        <ele>79</ele>
        <time>2021-08-09T15:13:31.000Z</time>
      </trkpt>
      <trkpt lat="47.17116" lon="-1.65099">
        <ele>79</ele>
        <time>2021-08-09T15:13:33.000Z</time>
      </trkpt>
      <trkpt lat="47.17117" lon="-1.65118">
        <ele>79</ele>
        <time>2021-08-09T15:13:35.000Z</time>
      </trkpt>
      <trkpt lat="47.17118" lon="-1.65136">
        <ele>79</ele>
        <time>2021-08-09T15:13:37.000Z</time>
      </trkpt>
      <trkpt lat="47.1712" lon="-1.65155">
        <ele>79</ele>
        <time>2021-08-09T15:13:39.000Z</time>
      </trkpt>
      <trkpt lat="47.17121" lon="-1.65173">
        <ele>79</ele>
        <time>2021-08-09T15:13:41.000Z</time>
      </trkpt>
      <trkpt lat="47.17122" lon="-1.65191">
        <ele>79</ele>
        <time>2021-08-09T15:13:43.000Z</time>
      </trkpt>
      <trkpt lat="47.17124" lon="-1.65209">
        <ele>80</ele>
        <time>2021-08-09T15:13:45.000Z</time>
      </trkpt>
      <trkpt lat="47.17124" lon="-1.65226">
        <ele>80</ele>
        <time>2021-08-09T15:13:47.000Z</time>
      </trkpt>
      <trkpt lat="47.17125" lon="-1.65244">
        <ele>80</ele>
        <time>2021-08-09T15:13:49.000Z</time>
      </trkpt>
      <trkpt lat="47.17128" lon="-1.65261">
        <ele>80</ele>
        <time>2021-08-09T15:13:51.000Z</time>
      </trkpt>
      <trkpt lat="47.17134" lon="-1.65277">
        <ele>81</ele>
        <time>2021-08-09T15:13:53.000Z</time>
      </trkpt>
      <trkpt lat="47.17138" lon="-1.65293">
        <ele>81</ele>
        <time>2021-08-09T15:13:55.000Z</time>
      </trkpt>
      <trkpt lat="47.17139" lon="-1.65311">
        <ele>82</ele>
        <time>2021-08-09T15:13:57.000Z</time>
      </trkpt>
      <trkpt lat="47.17134" lon="-1.65327">
        <ele>82</ele>
        <time>2021-08-09T15:13:59.000Z</time>
      </trkpt>
      <trkpt lat="47.17126" lon="-1.6534">
        <ele>82</ele>
        <time>2021-08-09T15:14:01.000Z</time>
      </trkpt>
      <trkpt lat="47.1712" lon="-1.65356">
        <ele>82</ele>
        <time>2021-08-09T15:14:03.000Z</time>
      </trkpt>
      <trkpt lat="47.17121" lon="-1.65374">
        <ele>82</ele>
        <time>2021-08-09T15:14:05.000Z</time>
      </trkpt>
      <trkpt lat="47.17121" lon="-1.65391">
        <ele>82</ele>
        <time>2021-08-09T15:14:07.000Z</time>
      </trkpt>
      <trkpt lat="47.17121" lon="-1.65408">
        <ele>83</ele>
        <time>2021-08-09T15:14:09.000Z</time>
      </trkpt>
      <trkpt lat="47.17121" lon="-1.65424">
        <ele>83</ele>
        <time>2021-08-09T15:14:11.000Z</time>
      </trkpt>
      <trkpt lat="47.17121" lon="-1.65439">
        <ele>83</ele>
        <time>2021-08-09T15:14:13.000Z</time>
      </trkpt>
      <trkpt lat="47.1712" lon="-1.65454">
        <ele>84</ele>
        <time>2021-08-09T15:14:15.000Z</time>
      </trkpt>
      <trkpt lat="47.17119" lon="-1.65468">
        <ele>84</ele>
        <time>2021-08-09T15:14:17.000Z</time>
      </trkpt>
      <trkpt lat="47.17117" lon="-1.65483">
        <ele>85</ele>
        <time>2021-08-09T15:14:19.000Z</time>
      </trkpt>
      <trkpt lat="47.17114" lon="-1.65497">
        <ele>85</ele>
        <time>2021-08-09T15:14:21.000Z</time>
      </trkpt>
      <trkpt lat="47.17111" lon="-1.6551">
        <ele>86</ele>
        <time>2021-08-09T15:14:23.000Z</time>
      </trkpt>
      <trkpt lat="47.17106" lon="-1.65523">
        <ele>86</ele>
        <time>2021-08-09T15:14:25.000Z</time>
      </trkpt>
      <trkpt lat="47.17101" lon="-1.65536">
        <ele>86</ele>
        <time>2021-08-09T15:14:27.000Z</time>
      </trkpt>
      <trkpt lat="47.17095" lon="-1.65548">
        <ele>87</ele>
        <time>2021-08-09T15:14:29.000Z</time>
      </trkpt>
      <trkpt lat="47.17089" lon="-1.65559">
        <ele>87</ele>
        <time>2021-08-09T15:14:31.000Z</time>
      </trkpt>
      <trkpt lat="47.17082" lon="-1.6557">
        <ele>88</ele>
        <time>2021-08-09T15:14:33.000Z</time>
      </trkpt>
      <trkpt lat="47.17076" lon="-1.65582">
        <ele>88</ele>
        <time>2021-08-09T15:14:35.000Z</time>
      </trkpt>
      <trkpt lat="47.1707" lon="-1.65594">
        <ele>88</ele>
        <time>2021-08-09T15:14:37.000Z</time>
      </trkpt>
      <trkpt lat="47.17063" lon="-1.65605">
        <ele>88</ele>
        <time>2021-08-09T15:14:39.000Z</time>
      </trkpt>
      <trkpt lat="47.17056" lon="-1.65618">
        <ele>87</ele>
        <time>2021-08-09T15:14:41.000Z</time>
      </trkpt>
      <trkpt lat="47.17048" lon="-1.65631">
        <ele>87</ele>
        <time>2021-08-09T15:14:43.000Z</time>
      </trkpt>
      <trkpt lat="47.17041" lon="-1.65645">
        <ele>87</ele>
        <time>2021-08-09T15:14:45.000Z</time>
      </trkpt>
      <trkpt lat="47.17033" lon="-1.65659">
        <ele>86</ele>
        <time>2021-08-09T15:14:47.000Z</time>
      </trkpt>
      <trkpt lat="47.17025" lon="-1.65675">
        <ele>86</ele>
        <time>2021-08-09T15:14:49.000Z</time>
      </trkpt>
      <trkpt lat="47.17017" lon="-1.65692">
        <ele>85</ele>
        <time>2021-08-09T15:14:51.000Z</time>
      </trkpt>
      <trkpt lat="47.17011" lon="-1.65709">
        <ele>85</ele>
        <time>2021-08-09T15:14:53.000Z</time>
      </trkpt>
      <trkpt lat="47.17007" lon="-1.65728">
        <ele>85</ele>
        <time>2021-08-09T15:14:55.000Z</time>
      </trkpt>
      <trkpt lat="47.17005" lon="-1.65747">
        <ele>85</ele>
        <time>2021-08-09T15:14:57.000Z</time>
      </trkpt>
      <trkpt lat="47.16998" lon="-1.65763">
        <ele>85</ele>
        <time>2021-08-09T15:14:59.000Z</time>
      </trkpt>
      <trkpt lat="47.16986" lon="-1.65771">
        <ele>84</ele>
        <time>2021-08-09T15:15:01.000Z</time>
      </trkpt>
      <trkpt lat="47.16973" lon="-1.65778">
        <ele>84</ele>
        <time>2021-08-09T15:15:03.000Z</time>
      </trkpt>
      <trkpt lat="47.16962" lon="-1.65789">
        <ele>83</ele>
        <time>2021-08-09T15:15:05.000Z</time>
      </trkpt>
      <trkpt lat="47.16953" lon="-1.65805">
        <ele>83</ele>
        <time>2021-08-09T15:15:07.000Z</time>
      </trkpt>
      <trkpt lat="47.16945" lon="-1.65821">
        <ele>83</ele>
        <time>2021-08-09T15:15:09.000Z</time>
      </trkpt>
      <trkpt lat="47.16938" lon="-1.65837">
        <ele>83</ele>
        <time>2021-08-09T15:15:11.000Z</time>
      </trkpt>
      <trkpt lat="47.16929" lon="-1.65854">
        <ele>82</ele>
        <time>2021-08-09T15:15:13.000Z</time>
      </trkpt>
      <trkpt lat="47.16921" lon="-1.6587">
        <ele>82</ele>
        <time>2021-08-09T15:15:15.000Z</time>
      </trkpt>
      <trkpt lat="47.16913" lon="-1.65886">
        <ele>82</ele>
        <time>2021-08-09T15:15:17.000Z</time>
      </trkpt>
      <trkpt lat="47.16906" lon="-1.65903">
        <ele>82</ele>
        <time>2021-08-09T15:15:19.000Z</time>
      </trkpt>
      <trkpt lat="47.16898" lon="-1.65919">
        <ele>82</ele>
        <time>2021-08-09T15:15:21.000Z</time>
      </trkpt>
      <trkpt lat="47.1689" lon="-1.65935">
        <ele>82</ele>
        <time>2021-08-09T15:15:23.000Z</time>
      </trkpt>
      <trkpt lat="47.16883" lon="-1.65952">
        <ele>81</ele>
        <time>2021-08-09T15:15:25.000Z</time>
      </trkpt>
      <trkpt lat="47.16876" lon="-1.65969">
        <ele>81</ele>
        <time>2021-08-09T15:15:27.000Z</time>
      </trkpt>
      <trkpt lat="47.1687" lon="-1.65987">
        <ele>81</ele>
        <time>2021-08-09T15:15:29.000Z</time>
      </trkpt>
      <trkpt lat="47.16865" lon="-1.66005">
        <ele>81</ele>
        <time>2021-08-09T15:15:31.000Z</time>
      </trkpt>
      <trkpt lat="47.1686" lon="-1.66023">
        <ele>81</ele>
        <time>2021-08-09T15:15:33.000Z</time>
      </trkpt>
      <trkpt lat="47.16856" lon="-1.66042">
        <ele>81</ele>
        <time>2021-08-09T15:15:35.000Z</time>
      </trkpt>
      <trkpt lat="47.16852" lon="-1.66061">
        <ele>80</ele>
        <time>2021-08-09T15:15:37.000Z</time>
      </trkpt>
      <trkpt lat="47.1685" lon="-1.6608">
        <ele>80</ele>
        <time>2021-08-09T15:15:39.000Z</time>
      </trkpt>
      <trkpt lat="47.16848" lon="-1.661">
        <ele>80</ele>
        <time>2021-08-09T15:15:41.000Z</time>
      </trkpt>
      <trkpt lat="47.16847" lon="-1.6612">
        <ele>80</ele>
        <time>2021-08-09T15:15:43.000Z</time>
      </trkpt>
      <trkpt lat="47.16847" lon="-1.66139">
        <ele>81</ele>
        <time>2021-08-09T15:15:45.000Z</time>
      </trkpt>
      <trkpt lat="47.16847" lon="-1.6616">
        <ele>80</ele>
        <time>2021-08-09T15:15:47.000Z</time>
      </trkpt>
      <trkpt lat="47.16848" lon="-1.66179">
        <ele>81</ele>
        <time>2021-08-09T15:15:49.000Z</time>
      </trkpt>
      <trkpt lat="47.1685" lon="-1.662">
        <ele>81</ele>
        <time>2021-08-09T15:15:51.000Z</time>
      </trkpt>
      <trkpt lat="47.16851" lon="-1.66219">
        <ele>81</ele>
        <time>2021-08-09T15:15:53.000Z</time>
      </trkpt>
      <trkpt lat="47.16853" lon="-1.66239">
        <ele>81</ele>
        <time>2021-08-09T15:15:55.000Z</time>
      </trkpt>
      <trkpt lat="47.16854" lon="-1.66258">
        <ele>81</ele>
        <time>2021-08-09T15:15:57.000Z</time>
      </trkpt>
      <trkpt lat="47.16855" lon="-1.66278">
        <ele>81</ele>
        <time>2021-08-09T15:15:59.000Z</time>
      </trkpt>
      <trkpt lat="47.16856" lon="-1.66296">
        <ele>81</ele>
        <time>2021-08-09T15:16:01.000Z</time>
      </trkpt>
      <trkpt lat="47.16858" lon="-1.66316">
        <ele>81</ele>
        <time>2021-08-09T15:16:03.000Z</time>
      </trkpt>
      <trkpt lat="47.16859" lon="-1.66335">
        <ele>81</ele>
        <time>2021-08-09T15:16:05.000Z</time>
      </trkpt>
      <trkpt lat="47.16861" lon="-1.66353">
        <ele>81</ele>
        <time>2021-08-09T15:16:07.000Z</time>
      </trkpt>
      <trkpt lat="47.16864" lon="-1.66372">
        <ele>81</ele>
        <time>2021-08-09T15:16:09.000Z</time>
      </trkpt>
      <trkpt lat="47.16866" lon="-1.66391">
        <ele>81</ele>
        <time>2021-08-09T15:16:11.000Z</time>
      </trkpt>
      <trkpt lat="47.16868" lon="-1.6641">
        <ele>81</ele>
        <time>2021-08-09T15:16:13.000Z</time>
      </trkpt>
      <trkpt lat="47.1687" lon="-1.6643">
        <ele>81</ele>
        <time>2021-08-09T15:16:15.000Z</time>
      </trkpt>
      <trkpt lat="47.16872" lon="-1.66449">
        <ele>82</ele>
        <time>2021-08-09T15:16:17.000Z</time>
      </trkpt>
      <trkpt lat="47.16874" lon="-1.66468">
        <ele>82</ele>
        <time>2021-08-09T15:16:19.000Z</time>
      </trkpt>
      <trkpt lat="47.16876" lon="-1.66486">
        <ele>82</ele>
        <time>2021-08-09T15:16:21.000Z</time>
      </trkpt>
      <trkpt lat="47.16878" lon="-1.66504">
        <ele>83</ele>
        <time>2021-08-09T15:16:23.000Z</time>
      </trkpt>
      <trkpt lat="47.1688" lon="-1.66523">
        <ele>83</ele>
        <time>2021-08-09T15:16:25.000Z</time>
      </trkpt>
      <trkpt lat="47.16882" lon="-1.66543">
        <ele>83</ele>
        <time>2021-08-09T15:16:27.000Z</time>
      </trkpt>
      <trkpt lat="47.16884" lon="-1.66562">
        <ele>82</ele>
        <time>2021-08-09T15:16:29.000Z</time>
      </trkpt>
      <trkpt lat="47.16887" lon="-1.66581">
        <ele>82</ele>
        <time>2021-08-09T15:16:31.000Z</time>
      </trkpt>
      <trkpt lat="47.16888" lon="-1.666">
        <ele>82</ele>
        <time>2021-08-09T15:16:33.000Z</time>
      </trkpt>
      <trkpt lat="47.1689" lon="-1.66619">
        <ele>82</ele>
        <time>2021-08-09T15:16:35.000Z</time>
      </trkpt>
      <trkpt lat="47.16892" lon="-1.66637">
        <ele>82</ele>
        <time>2021-08-09T15:16:37.000Z</time>
      </trkpt>
      <trkpt lat="47.16893" lon="-1.66657">
        <ele>82</ele>
        <time>2021-08-09T15:16:39.000Z</time>
      </trkpt>
      <trkpt lat="47.16893" lon="-1.66676">
        <ele>82</ele>
        <time>2021-08-09T15:16:41.000Z</time>
      </trkpt>
      <trkpt lat="47.16891" lon="-1.66695">
        <ele>82</ele>
        <time>2021-08-09T15:16:43.000Z</time>
      </trkpt>
      <trkpt lat="47.16886" lon="-1.66714">
        <ele>82</ele>
        <time>2021-08-09T15:16:45.000Z</time>
      </trkpt>
      <trkpt lat="47.1688" lon="-1.66732">
        <ele>81</ele>
        <time>2021-08-09T15:16:47.000Z</time>
      </trkpt>
      <trkpt lat="47.16872" lon="-1.66748">
        <ele>82</ele>
        <time>2021-08-09T15:16:49.000Z</time>
      </trkpt>
      <trkpt lat="47.16865" lon="-1.66764">
        <ele>82</ele>
        <time>2021-08-09T15:16:51.000Z</time>
      </trkpt>
      <trkpt lat="47.16856" lon="-1.66781">
        <ele>82</ele>
        <time>2021-08-09T15:16:53.000Z</time>
      </trkpt>
      <trkpt lat="47.16848" lon="-1.66797">
        <ele>81</ele>
        <time>2021-08-09T15:16:55.000Z</time>
      </trkpt>
      <trkpt lat="47.16839" lon="-1.66813">
        <ele>81</ele>
        <time>2021-08-09T15:16:57.000Z</time>
      </trkpt>
      <trkpt lat="47.16831" lon="-1.6683">
        <ele>81</ele>
        <time>2021-08-09T15:16:59.000Z</time>
      </trkpt>
      <trkpt lat="47.16822" lon="-1.66845">
        <ele>81</ele>
        <time>2021-08-09T15:17:01.000Z</time>
      </trkpt>
      <trkpt lat="47.16813" lon="-1.66862">
        <ele>81</ele>
        <time>2021-08-09T15:17:03.000Z</time>
      </trkpt>
      <trkpt lat="47.16805" lon="-1.66876">
        <ele>81</ele>
        <time>2021-08-09T15:17:05.000Z</time>
      </trkpt>
      <trkpt lat="47.16794" lon="-1.6689">
        <ele>82</ele>
        <time>2021-08-09T15:17:07.000Z</time>
      </trkpt>
      <trkpt lat="47.16783" lon="-1.66901">
        <ele>82</ele>
        <time>2021-08-09T15:17:09.000Z</time>
      </trkpt>
      <trkpt lat="47.16772" lon="-1.6691">
        <ele>82</ele>
        <time>2021-08-09T15:17:11.000Z</time>
      </trkpt>
      <trkpt lat="47.16759" lon="-1.66915">
        <ele>82</ele>
        <time>2021-08-09T15:17:13.000Z</time>
      </trkpt>
      <trkpt lat="47.16746" lon="-1.66919">
        <ele>82</ele>
        <time>2021-08-09T15:17:15.000Z</time>
      </trkpt>
      <trkpt lat="47.16733" lon="-1.66924">
        <ele>82</ele>
        <time>2021-08-09T15:17:17.000Z</time>
      </trkpt>
      <trkpt lat="47.1672" lon="-1.66927">
        <ele>82</ele>
        <time>2021-08-09T15:17:19.000Z</time>
      </trkpt>
      <trkpt lat="47.16706" lon="-1.66931">
        <ele>82</ele>
        <time>2021-08-09T15:17:21.000Z</time>
      </trkpt>
      <trkpt lat="47.16693" lon="-1.66939">
        <ele>82</ele>
        <time>2021-08-09T15:17:23.000Z</time>
      </trkpt>
      <trkpt lat="47.16681" lon="-1.6695">
        <ele>84</ele>
        <time>2021-08-09T15:17:25.000Z</time>
      </trkpt>
      <trkpt lat="47.16671" lon="-1.66967">
        <ele>83</ele>
        <time>2021-08-09T15:17:27.000Z</time>
      </trkpt>
      <trkpt lat="47.16664" lon="-1.66988">
        <ele>83</ele>
        <time>2021-08-09T15:17:29.000Z</time>
      </trkpt>
      <trkpt lat="47.1666" lon="-1.67008">
        <ele>83</ele>
        <time>2021-08-09T15:17:31.000Z</time>
      </trkpt>
      <trkpt lat="47.16656" lon="-1.67028">
        <ele>83</ele>
        <time>2021-08-09T15:17:33.000Z</time>
      </trkpt>
      <trkpt lat="47.16652" lon="-1.67047">
        <ele>82</ele>
        <time>2021-08-09T15:17:35.000Z</time>
      </trkpt>
      <trkpt lat="47.16649" lon="-1.67066">
        <ele>82</ele>
        <time>2021-08-09T15:17:37.000Z</time>
      </trkpt>
      <trkpt lat="47.16645" lon="-1.67085">
        <ele>82</ele>
        <time>2021-08-09T15:17:39.000Z</time>
      </trkpt>
      <trkpt lat="47.16642" lon="-1.67103">
        <ele>82</ele>
        <time>2021-08-09T15:17:41.000Z</time>
      </trkpt>
      <trkpt lat="47.16637" lon="-1.67122">
        <ele>81</ele>
        <time>2021-08-09T15:17:43.000Z</time>
      </trkpt>
      <trkpt lat="47.16633" lon="-1.67141">
        <ele>81</ele>
        <time>2021-08-09T15:17:45.000Z</time>
      </trkpt>
      <trkpt lat="47.16629" lon="-1.6716">
        <ele>81</ele>
        <time>2021-08-09T15:17:47.000Z</time>
      </trkpt>
      <trkpt lat="47.16626" lon="-1.6718">
        <ele>81</ele>
        <time>2021-08-09T15:17:49.000Z</time>
      </trkpt>
      <trkpt lat="47.16622" lon="-1.67198">
        <ele>81</ele>
        <time>2021-08-09T15:17:51.000Z</time>
      </trkpt>
      <trkpt lat="47.16619" lon="-1.67215">
        <ele>80</ele>
        <time>2021-08-09T15:17:53.000Z</time>
      </trkpt>
      <trkpt lat="47.16616" lon="-1.67231">
        <ele>80</ele>
        <time>2021-08-09T15:17:55.000Z</time>
      </trkpt>
      <trkpt lat="47.16613" lon="-1.67246">
        <ele>80</ele>
        <time>2021-08-09T15:17:57.000Z</time>
      </trkpt>
      <trkpt lat="47.1661" lon="-1.67259">
        <ele>79</ele>
        <time>2021-08-09T15:18:02.000Z</time>
      </trkpt>
      <trkpt lat="47.16606" lon="-1.67272">
        <ele>79</ele>
        <time>2021-08-09T15:18:11.000Z</time>
      </trkpt>
      <trkpt lat="47.166" lon="-1.67285">
        <ele>79</ele>
        <time>2021-08-09T15:18:13.000Z</time>
      </trkpt>
      <trkpt lat="47.16593" lon="-1.673">
        <ele>80</ele>
        <time>2021-08-09T15:18:15.000Z</time>
      </trkpt>
      <trkpt lat="47.16587" lon="-1.67316">
        <ele>79</ele>
        <time>2021-08-09T15:18:17.000Z</time>
      </trkpt>
      <trkpt lat="47.16579" lon="-1.6733">
        <ele>79</ele>
        <time>2021-08-09T15:18:19.000Z</time>
      </trkpt>
      <trkpt lat="47.16572" lon="-1.67346">
        <ele>79</ele>
        <time>2021-08-09T15:18:21.000Z</time>
      </trkpt>
      <trkpt lat="47.16565" lon="-1.67361">
        <ele>79</ele>
        <time>2021-08-09T15:18:23.000Z</time>
      </trkpt>
      <trkpt lat="47.16556" lon="-1.67374">
        <ele>79</ele>
        <time>2021-08-09T15:18:25.000Z</time>
      </trkpt>
      <trkpt lat="47.16546" lon="-1.67389">
        <ele>79</ele>
        <time>2021-08-09T15:18:27.000Z</time>
      </trkpt>
      <trkpt lat="47.16537" lon="-1.67402">
        <ele>79</ele>
        <time>2021-08-09T15:18:29.000Z</time>
      </trkpt>
      <trkpt lat="47.16528" lon="-1.67416">
        <ele>79</ele>
        <time>2021-08-09T15:18:31.000Z</time>
      </trkpt>
      <trkpt lat="47.16518" lon="-1.6743">
        <ele>79</ele>
        <time>2021-08-09T15:18:33.000Z</time>
      </trkpt>
      <trkpt lat="47.16509" lon="-1.67445">
        <ele>78</ele>
        <time>2021-08-09T15:18:35.000Z</time>
      </trkpt>
      <trkpt lat="47.16501" lon="-1.6746">
        <ele>79</ele>
        <time>2021-08-09T15:18:37.000Z</time>
      </trkpt>
      <trkpt lat="47.16492" lon="-1.67476">
        <ele>78</ele>
        <time>2021-08-09T15:18:39.000Z</time>
      </trkpt>
      <trkpt lat="47.16483" lon="-1.67491">
        <ele>78</ele>
        <time>2021-08-09T15:18:41.000Z</time>
      </trkpt>
      <trkpt lat="47.16475" lon="-1.67507">
        <ele>79</ele>
        <time>2021-08-09T15:18:43.000Z</time>
      </trkpt>
      <trkpt lat="47.16466" lon="-1.67522">
        <ele>79</ele>
        <time>2021-08-09T15:18:45.000Z</time>
      </trkpt>
      <trkpt lat="47.16458" lon="-1.67536">
        <ele>79</ele>
        <time>2021-08-09T15:18:47.000Z</time>
      </trkpt>
      <trkpt lat="47.1645" lon="-1.67551">
        <ele>80</ele>
        <time>2021-08-09T15:18:49.000Z</time>
      </trkpt>
      <trkpt lat="47.16442" lon="-1.67566">
        <ele>80</ele>
        <time>2021-08-09T15:18:51.000Z</time>
      </trkpt>
      <trkpt lat="47.16435" lon="-1.67581">
        <ele>80</ele>
        <time>2021-08-09T15:18:53.000Z</time>
      </trkpt>
      <trkpt lat="47.16427" lon="-1.67597">
        <ele>79</ele>
        <time>2021-08-09T15:18:55.000Z</time>
      </trkpt>
      <trkpt lat="47.1642" lon="-1.67613">
        <ele>79</ele>
        <time>2021-08-09T15:18:57.000Z</time>
      </trkpt>
      <trkpt lat="47.16413" lon="-1.67628">
        <ele>79</ele>
        <time>2021-08-09T15:18:59.000Z</time>
      </trkpt>
      <trkpt lat="47.16405" lon="-1.67644">
        <ele>79</ele>
        <time>2021-08-09T15:19:01.000Z</time>
      </trkpt>
      <trkpt lat="47.16397" lon="-1.67659">
        <ele>79</ele>
        <time>2021-08-09T15:19:03.000Z</time>
      </trkpt>
      <trkpt lat="47.1639" lon="-1.67674">
        <ele>79</ele>
        <time>2021-08-09T15:19:05.000Z</time>
      </trkpt>
      <trkpt lat="47.16382" lon="-1.6769">
        <ele>79</ele>
        <time>2021-08-09T15:19:07.000Z</time>
      </trkpt>
      <trkpt lat="47.16374" lon="-1.67704">
        <ele>79</ele>
        <time>2021-08-09T15:19:09.000Z</time>
      </trkpt>
      <trkpt lat="47.16365" lon="-1.67718">
        <ele>78</ele>
        <time>2021-08-09T15:19:11.000Z</time>
      </trkpt>
      <trkpt lat="47.16358" lon="-1.67733">
        <ele>79</ele>
        <time>2021-08-09T15:19:13.000Z</time>
      </trkpt>
      <trkpt lat="47.1635" lon="-1.67748">
        <ele>79</ele>
        <time>2021-08-09T15:19:15.000Z</time>
      </trkpt>
      <trkpt lat="47.16343" lon="-1.67762">
        <ele>79</ele>
        <time>2021-08-09T15:19:17.000Z</time>
      </trkpt>
      <trkpt lat="47.16336" lon="-1.67778">
        <ele>80</ele>
        <time>2021-08-09T15:19:19.000Z</time>
      </trkpt>
      <trkpt lat="47.16328" lon="-1.67792">
        <ele>80</ele>
        <time>2021-08-09T15:19:21.000Z</time>
      </trkpt>
      <trkpt lat="47.16319" lon="-1.67806">
        <ele>80</ele>
        <time>2021-08-09T15:19:23.000Z</time>
      </trkpt>
      <trkpt lat="47.16311" lon="-1.6782">
        <ele>80</ele>
        <time>2021-08-09T15:19:25.000Z</time>
      </trkpt>
      <trkpt lat="47.16302" lon="-1.67834">
        <ele>80</ele>
        <time>2021-08-09T15:19:27.000Z</time>
      </trkpt>
      <trkpt lat="47.16294" lon="-1.67849">
        <ele>80</ele>
        <time>2021-08-09T15:19:29.000Z</time>
      </trkpt>
      <trkpt lat="47.16286" lon="-1.67864">
        <ele>80</ele>
        <time>2021-08-09T15:19:31.000Z</time>
      </trkpt>
      <trkpt lat="47.16278" lon="-1.67878">
        <ele>80</ele>
        <time>2021-08-09T15:19:33.000Z</time>
      </trkpt>
      <trkpt lat="47.1627" lon="-1.67892">
        <ele>80</ele>
        <time>2021-08-09T15:19:35.000Z</time>
      </trkpt>
      <trkpt lat="47.16262" lon="-1.67906">
        <ele>81</ele>
        <time>2021-08-09T15:19:37.000Z</time>
      </trkpt>
      <trkpt lat="47.16255" lon="-1.67919">
        <ele>80</ele>
        <time>2021-08-09T15:19:39.000Z</time>
      </trkpt>
      <trkpt lat="47.16247" lon="-1.67932">
        <ele>80</ele>
        <time>2021-08-09T15:19:41.000Z</time>
      </trkpt>
      <trkpt lat="47.16238" lon="-1.67944">
        <ele>80</ele>
        <time>2021-08-09T15:19:43.000Z</time>
      </trkpt>
      <trkpt lat="47.1623" lon="-1.67956">
        <ele>80</ele>
        <time>2021-08-09T15:19:45.000Z</time>
      </trkpt>
      <trkpt lat="47.16225" lon="-1.6797">
        <ele>80</ele>
        <time>2021-08-09T15:19:47.000Z</time>
      </trkpt>
      <trkpt lat="47.1622" lon="-1.67986">
        <ele>80</ele>
        <time>2021-08-09T15:19:49.000Z</time>
      </trkpt>
      <trkpt lat="47.16209" lon="-1.67996">
        <ele>79</ele>
        <time>2021-08-09T15:19:51.000Z</time>
      </trkpt>
      <trkpt lat="47.16198" lon="-1.68003">
        <ele>78</ele>
        <time>2021-08-09T15:19:53.000Z</time>
      </trkpt>
      <trkpt lat="47.16188" lon="-1.68016">
        <ele>79</ele>
        <time>2021-08-09T15:19:55.000Z</time>
      </trkpt>
      <trkpt lat="47.16179" lon="-1.68029">
        <ele>79</ele>
        <time>2021-08-09T15:19:57.000Z</time>
      </trkpt>
      <trkpt lat="47.1617" lon="-1.68043">
        <ele>79</ele>
        <time>2021-08-09T15:19:59.000Z</time>
      </trkpt>
      <trkpt lat="47.16162" lon="-1.68055">
        <ele>79</ele>
        <time>2021-08-09T15:20:01.000Z</time>
      </trkpt>
      <trkpt lat="47.16154" lon="-1.68069">
        <ele>79</ele>
        <time>2021-08-09T15:20:03.000Z</time>
      </trkpt>
      <trkpt lat="47.16147" lon="-1.68085">
        <ele>79</ele>
        <time>2021-08-09T15:20:05.000Z</time>
      </trkpt>
      <trkpt lat="47.16142" lon="-1.68101">
        <ele>79</ele>
        <time>2021-08-09T15:20:07.000Z</time>
      </trkpt>
      <trkpt lat="47.16138" lon="-1.68119">
        <ele>79</ele>
        <time>2021-08-09T15:20:09.000Z</time>
      </trkpt>
      <trkpt lat="47.16134" lon="-1.68136">
        <ele>79</ele>
        <time>2021-08-09T15:20:11.000Z</time>
      </trkpt>
      <trkpt lat="47.1613" lon="-1.68153">
        <ele>79</ele>
        <time>2021-08-09T15:20:13.000Z</time>
      </trkpt>
      <trkpt lat="47.16126" lon="-1.6817">
        <ele>79</ele>
        <time>2021-08-09T15:20:15.000Z</time>
      </trkpt>
      <trkpt lat="47.16121" lon="-1.68187">
        <ele>78</ele>
        <time>2021-08-09T15:20:17.000Z</time>
      </trkpt>
      <trkpt lat="47.16116" lon="-1.68204">
        <ele>79</ele>
        <time>2021-08-09T15:20:19.000Z</time>
      </trkpt>
      <trkpt lat="47.16112" lon="-1.68222">
        <ele>79</ele>
        <time>2021-08-09T15:20:21.000Z</time>
      </trkpt>
      <trkpt lat="47.16107" lon="-1.68239">
        <ele>79</ele>
        <time>2021-08-09T15:20:23.000Z</time>
      </trkpt>
      <trkpt lat="47.16101" lon="-1.68256">
        <ele>80</ele>
        <time>2021-08-09T15:20:25.000Z</time>
      </trkpt>
      <trkpt lat="47.161" lon="-1.6828">
        <ele>79</ele>
        <time>2021-08-09T15:20:27.000Z</time>
      </trkpt>
      <trkpt lat="47.16097" lon="-1.68302">
        <ele>78</ele>
        <time>2021-08-09T15:20:29.000Z</time>
      </trkpt>
      <trkpt lat="47.16095" lon="-1.68322">
        <ele>78</ele>
        <time>2021-08-09T15:20:31.000Z</time>
      </trkpt>
      <trkpt lat="47.16092" lon="-1.68342">
        <ele>78</ele>
        <time>2021-08-09T15:20:33.000Z</time>
      </trkpt>
      <trkpt lat="47.16089" lon="-1.68363">
        <ele>78</ele>
        <time>2021-08-09T15:20:35.000Z</time>
      </trkpt>
      <trkpt lat="47.16085" lon="-1.68382">
        <ele>78</ele>
        <time>2021-08-09T15:20:37.000Z</time>
      </trkpt>
      <trkpt lat="47.16081" lon="-1.684">
        <ele>78</ele>
        <time>2021-08-09T15:20:39.000Z</time>
      </trkpt>
      <trkpt lat="47.16078" lon="-1.68418">
        <ele>77</ele>
        <time>2021-08-09T15:20:41.000Z</time>
      </trkpt>
      <trkpt lat="47.16074" lon="-1.68437">
        <ele>77</ele>
        <time>2021-08-09T15:20:43.000Z</time>
      </trkpt>
      <trkpt lat="47.16069" lon="-1.68455">
        <ele>77</ele>
        <time>2021-08-09T15:20:45.000Z</time>
      </trkpt>
      <trkpt lat="47.16066" lon="-1.68474">
        <ele>77</ele>
        <time>2021-08-09T15:20:47.000Z</time>
      </trkpt>
      <trkpt lat="47.16063" lon="-1.68493">
        <ele>77</ele>
        <time>2021-08-09T15:20:49.000Z</time>
      </trkpt>
      <trkpt lat="47.1606" lon="-1.68512">
        <ele>77</ele>
        <time>2021-08-09T15:20:51.000Z</time>
      </trkpt>
      <trkpt lat="47.16058" lon="-1.68531">
        <ele>76</ele>
        <time>2021-08-09T15:20:53.000Z</time>
      </trkpt>
      <trkpt lat="47.16055" lon="-1.68549">
        <ele>76</ele>
        <time>2021-08-09T15:20:55.000Z</time>
      </trkpt>
      <trkpt lat="47.16052" lon="-1.68567">
        <ele>76</ele>
        <time>2021-08-09T15:20:57.000Z</time>
      </trkpt>
      <trkpt lat="47.1605" lon="-1.68586">
        <ele>76</ele>
        <time>2021-08-09T15:20:59.000Z</time>
      </trkpt>
      <trkpt lat="47.16047" lon="-1.68605">
        <ele>76</ele>
        <time>2021-08-09T15:21:01.000Z</time>
      </trkpt>
      <trkpt lat="47.16046" lon="-1.68623">
        <ele>76</ele>
        <time>2021-08-09T15:21:03.000Z</time>
      </trkpt>
      <trkpt lat="47.16045" lon="-1.68642">
        <ele>76</ele>
        <time>2021-08-09T15:21:05.000Z</time>
      </trkpt>
      <trkpt lat="47.16044" lon="-1.68661">
        <ele>76</ele>
        <time>2021-08-09T15:21:07.000Z</time>
      </trkpt>
      <trkpt lat="47.16045" lon="-1.68679">
        <ele>76</ele>
        <time>2021-08-09T15:21:09.000Z</time>
      </trkpt>
      <trkpt lat="47.16046" lon="-1.68697">
        <ele>77</ele>
        <time>2021-08-09T15:21:11.000Z</time>
      </trkpt>
      <trkpt lat="47.16048" lon="-1.68714">
        <ele>77</ele>
        <time>2021-08-09T15:21:13.000Z</time>
      </trkpt>
      <trkpt lat="47.1605" lon="-1.68732">
        <ele>77</ele>
        <time>2021-08-09T15:21:15.000Z</time>
      </trkpt>
      <trkpt lat="47.16053" lon="-1.6875">
        <ele>78</ele>
        <time>2021-08-09T15:21:17.000Z</time>
      </trkpt>
      <trkpt lat="47.16057" lon="-1.68766">
        <ele>78</ele>
        <time>2021-08-09T15:21:19.000Z</time>
      </trkpt>
      <trkpt lat="47.16061" lon="-1.68781">
        <ele>79</ele>
        <time>2021-08-09T15:21:21.000Z</time>
      </trkpt>
      <trkpt lat="47.16065" lon="-1.68798">
        <ele>79</ele>
        <time>2021-08-09T15:21:23.000Z</time>
      </trkpt>
      <trkpt lat="47.16069" lon="-1.68813">
        <ele>80</ele>
        <time>2021-08-09T15:21:25.000Z</time>
      </trkpt>
      <trkpt lat="47.16074" lon="-1.68829">
        <ele>80</ele>
        <time>2021-08-09T15:21:27.000Z</time>
      </trkpt>
      <trkpt lat="47.16079" lon="-1.68845">
        <ele>80</ele>
        <time>2021-08-09T15:21:29.000Z</time>
      </trkpt>
      <trkpt lat="47.16083" lon="-1.68861">
        <ele>79</ele>
        <time>2021-08-09T15:21:31.000Z</time>
      </trkpt>
      <trkpt lat="47.16088" lon="-1.68877">
        <ele>79</ele>
        <time>2021-08-09T15:21:33.000Z</time>
      </trkpt>
      <trkpt lat="47.16093" lon="-1.68892">
        <ele>79</ele>
        <time>2021-08-09T15:21:35.000Z</time>
      </trkpt>
      <trkpt lat="47.16097" lon="-1.68909">
        <ele>79</ele>
        <time>2021-08-09T15:21:37.000Z</time>
      </trkpt>
      <trkpt lat="47.16102" lon="-1.68926">
        <ele>79</ele>
        <time>2021-08-09T15:21:39.000Z</time>
      </trkpt>
      <trkpt lat="47.16107" lon="-1.68943">
        <ele>78</ele>
        <time>2021-08-09T15:21:41.000Z</time>
      </trkpt>
      <trkpt lat="47.16113" lon="-1.68962">
        <ele>78</ele>
        <time>2021-08-09T15:21:43.000Z</time>
      </trkpt>
      <trkpt lat="47.16121" lon="-1.68989">
        <ele>77</ele>
        <time>2021-08-09T15:21:46.000Z</time>
      </trkpt>
      <trkpt lat="47.16127" lon="-1.69009">
        <ele>76</ele>
        <time>2021-08-09T15:21:48.000Z</time>
      </trkpt>
      <trkpt lat="47.16134" lon="-1.69039">
        <ele>76</ele>
        <time>2021-08-09T15:21:51.000Z</time>
      </trkpt>
      <trkpt lat="47.16137" lon="-1.6906">
        <ele>76</ele>
        <time>2021-08-09T15:21:53.000Z</time>
      </trkpt>
      <trkpt lat="47.1614" lon="-1.69081">
        <ele>76</ele>
        <time>2021-08-09T15:21:55.000Z</time>
      </trkpt>
      <trkpt lat="47.16142" lon="-1.69102">
        <ele>76</ele>
        <time>2021-08-09T15:21:57.000Z</time>
      </trkpt>
      <trkpt lat="47.16144" lon="-1.69123">
        <ele>76</ele>
        <time>2021-08-09T15:21:59.000Z</time>
      </trkpt>
      <trkpt lat="47.16145" lon="-1.69144">
        <ele>75</ele>
        <time>2021-08-09T15:22:01.000Z</time>
      </trkpt>
      <trkpt lat="47.16146" lon="-1.69177">
        <ele>75</ele>
        <time>2021-08-09T15:22:04.000Z</time>
      </trkpt>
      <trkpt lat="47.16144" lon="-1.69199">
        <ele>74</ele>
        <time>2021-08-09T15:22:06.000Z</time>
      </trkpt>
      <trkpt lat="47.16143" lon="-1.6922">
        <ele>74</ele>
        <time>2021-08-09T15:22:08.000Z</time>
      </trkpt>
      <trkpt lat="47.1614" lon="-1.69253">
        <ele>73</ele>
        <time>2021-08-09T15:22:11.000Z</time>
      </trkpt>
      <trkpt lat="47.16138" lon="-1.69273">
        <ele>73</ele>
        <time>2021-08-09T15:22:13.000Z</time>
      </trkpt>
      <trkpt lat="47.16135" lon="-1.69293">
        <ele>73</ele>
        <time>2021-08-09T15:22:15.000Z</time>
      </trkpt>
      <trkpt lat="47.16131" lon="-1.69313">
        <ele>73</ele>
        <time>2021-08-09T15:22:17.000Z</time>
      </trkpt>
      <trkpt lat="47.16128" lon="-1.69332">
        <ele>74</ele>
        <time>2021-08-09T15:22:19.000Z</time>
      </trkpt>
      <trkpt lat="47.16126" lon="-1.69352">
        <ele>74</ele>
        <time>2021-08-09T15:22:21.000Z</time>
      </trkpt>
      <trkpt lat="47.16123" lon="-1.69371">
        <ele>74</ele>
        <time>2021-08-09T15:22:23.000Z</time>
      </trkpt>
      <trkpt lat="47.16121" lon="-1.6939">
        <ele>74</ele>
        <time>2021-08-09T15:22:25.000Z</time>
      </trkpt>
      <trkpt lat="47.1612" lon="-1.69409">
        <ele>74</ele>
        <time>2021-08-09T15:22:27.000Z</time>
      </trkpt>
      <trkpt lat="47.16119" lon="-1.69427">
        <ele>74</ele>
        <time>2021-08-09T15:22:29.000Z</time>
      </trkpt>
      <trkpt lat="47.16118" lon="-1.69445">
        <ele>74</ele>
        <time>2021-08-09T15:22:31.000Z</time>
      </trkpt>
      <trkpt lat="47.16116" lon="-1.69463">
        <ele>74</ele>
        <time>2021-08-09T15:22:33.000Z</time>
      </trkpt>
      <trkpt lat="47.16115" lon="-1.69481">
        <ele>74</ele>
        <time>2021-08-09T15:22:35.000Z</time>
      </trkpt>
      <trkpt lat="47.16113" lon="-1.69499">
        <ele>74</ele>
        <time>2021-08-09T15:22:37.000Z</time>
      </trkpt>
      <trkpt lat="47.16111" lon="-1.69518">
        <ele>75</ele>
        <time>2021-08-09T15:22:39.000Z</time>
      </trkpt>
      <trkpt lat="47.1611" lon="-1.69536">
        <ele>75</ele>
        <time>2021-08-09T15:22:41.000Z</time>
      </trkpt>
      <trkpt lat="47.16109" lon="-1.69555">
        <ele>75</ele>
        <time>2021-08-09T15:22:43.000Z</time>
      </trkpt>
      <trkpt lat="47.16107" lon="-1.69574">
        <ele>75</ele>
        <time>2021-08-09T15:22:45.000Z</time>
      </trkpt>
      <trkpt lat="47.16106" lon="-1.69593">
        <ele>75</ele>
        <time>2021-08-09T15:22:47.000Z</time>
      </trkpt>
      <trkpt lat="47.16105" lon="-1.69612">
        <ele>75</ele>
        <time>2021-08-09T15:22:49.000Z</time>
      </trkpt>
      <trkpt lat="47.16103" lon="-1.69631">
        <ele>75</ele>
        <time>2021-08-09T15:22:51.000Z</time>
      </trkpt>
      <trkpt lat="47.16102" lon="-1.6965">
        <ele>75</ele>
        <time>2021-08-09T15:22:53.000Z</time>
      </trkpt>
      <trkpt lat="47.161" lon="-1.69669">
        <ele>75</ele>
        <time>2021-08-09T15:22:55.000Z</time>
      </trkpt>
      <trkpt lat="47.16099" lon="-1.69688">
        <ele>75</ele>
        <time>2021-08-09T15:22:57.000Z</time>
      </trkpt>
      <trkpt lat="47.16098" lon="-1.69707">
        <ele>76</ele>
        <time>2021-08-09T15:22:59.000Z</time>
      </trkpt>
      <trkpt lat="47.16097" lon="-1.69726">
        <ele>76</ele>
        <time>2021-08-09T15:23:01.000Z</time>
      </trkpt>
      <trkpt lat="47.16095" lon="-1.69745">
        <ele>76</ele>
        <time>2021-08-09T15:23:03.000Z</time>
      </trkpt>
      <trkpt lat="47.16094" lon="-1.69764">
        <ele>76</ele>
        <time>2021-08-09T15:23:05.000Z</time>
      </trkpt>
      <trkpt lat="47.16093" lon="-1.69782">
        <ele>76</ele>
        <time>2021-08-09T15:23:07.000Z</time>
      </trkpt>
      <trkpt lat="47.16092" lon="-1.69801">
        <ele>76</ele>
        <time>2021-08-09T15:23:09.000Z</time>
      </trkpt>
      <trkpt lat="47.16091" lon="-1.6982">
        <ele>77</ele>
        <time>2021-08-09T15:23:11.000Z</time>
      </trkpt>
      <trkpt lat="47.1609" lon="-1.6984">
        <ele>77</ele>
        <time>2021-08-09T15:23:13.000Z</time>
      </trkpt>
      <trkpt lat="47.16088" lon="-1.69859">
        <ele>77</ele>
        <time>2021-08-09T15:23:15.000Z</time>
      </trkpt>
      <trkpt lat="47.16086" lon="-1.69877">
        <ele>78</ele>
        <time>2021-08-09T15:23:17.000Z</time>
      </trkpt>
      <trkpt lat="47.16085" lon="-1.69896">
        <ele>78</ele>
        <time>2021-08-09T15:23:19.000Z</time>
      </trkpt>
      <trkpt lat="47.16084" lon="-1.69916">
        <ele>78</ele>
        <time>2021-08-09T15:23:21.000Z</time>
      </trkpt>
      <trkpt lat="47.16082" lon="-1.69936">
        <ele>77</ele>
        <time>2021-08-09T15:23:23.000Z</time>
      </trkpt>
      <trkpt lat="47.16081" lon="-1.69956">
        <ele>77</ele>
        <time>2021-08-09T15:23:25.000Z</time>
      </trkpt>
      <trkpt lat="47.1608" lon="-1.69976">
        <ele>77</ele>
        <time>2021-08-09T15:23:27.000Z</time>
      </trkpt>
      <trkpt lat="47.16078" lon="-1.69996">
        <ele>77</ele>
        <time>2021-08-09T15:23:29.000Z</time>
      </trkpt>
      <trkpt lat="47.16077" lon="-1.70016">
        <ele>77</ele>
        <time>2021-08-09T15:23:31.000Z</time>
      </trkpt>
      <trkpt lat="47.16076" lon="-1.70036">
        <ele>76</ele>
        <time>2021-08-09T15:23:33.000Z</time>
      </trkpt>
      <trkpt lat="47.16075" lon="-1.70056">
        <ele>76</ele>
        <time>2021-08-09T15:23:35.000Z</time>
      </trkpt>
      <trkpt lat="47.16074" lon="-1.70076">
        <ele>76</ele>
        <time>2021-08-09T15:23:37.000Z</time>
      </trkpt>
      <trkpt lat="47.16072" lon="-1.70096">
        <ele>76</ele>
        <time>2021-08-09T15:23:39.000Z</time>
      </trkpt>
      <trkpt lat="47.16068" lon="-1.70116">
        <ele>77</ele>
        <time>2021-08-09T15:23:41.000Z</time>
      </trkpt>
      <trkpt lat="47.16064" lon="-1.70134">
        <ele>76</ele>
        <time>2021-08-09T15:23:43.000Z</time>
      </trkpt>
      <trkpt lat="47.16058" lon="-1.70152">
        <ele>76</ele>
        <time>2021-08-09T15:23:45.000Z</time>
      </trkpt>
      <trkpt lat="47.16051" lon="-1.70168">
        <ele>76</ele>
        <time>2021-08-09T15:23:47.000Z</time>
      </trkpt>
      <trkpt lat="47.16044" lon="-1.70183">
        <ele>76</ele>
        <time>2021-08-09T15:23:49.000Z</time>
      </trkpt>
      <trkpt lat="47.16037" lon="-1.70198">
        <ele>77</ele>
        <time>2021-08-09T15:23:51.000Z</time>
      </trkpt>
      <trkpt lat="47.16029" lon="-1.70213">
        <ele>76</ele>
        <time>2021-08-09T15:23:53.000Z</time>
      </trkpt>
      <trkpt lat="47.16022" lon="-1.70229">
        <ele>75</ele>
        <time>2021-08-09T15:23:55.000Z</time>
      </trkpt>
      <trkpt lat="47.16015" lon="-1.70244">
        <ele>76</ele>
        <time>2021-08-09T15:23:57.000Z</time>
      </trkpt>
      <trkpt lat="47.16009" lon="-1.70262">
        <ele>76</ele>
        <time>2021-08-09T15:23:59.000Z</time>
      </trkpt>
      <trkpt lat="47.16002" lon="-1.70278">
        <ele>77</ele>
        <time>2021-08-09T15:24:01.000Z</time>
      </trkpt>
      <trkpt lat="47.15996" lon="-1.70293">
        <ele>77</ele>
        <time>2021-08-09T15:24:03.000Z</time>
      </trkpt>
      <trkpt lat="47.15989" lon="-1.7031">
        <ele>77</ele>
        <time>2021-08-09T15:24:05.000Z</time>
      </trkpt>
      <trkpt lat="47.15982" lon="-1.70326">
        <ele>77</ele>
        <time>2021-08-09T15:24:07.000Z</time>
      </trkpt>
      <trkpt lat="47.15976" lon="-1.70342">
        <ele>77</ele>
        <time>2021-08-09T15:24:09.000Z</time>
      </trkpt>
      <trkpt lat="47.15969" lon="-1.70357">
        <ele>78</ele>
        <time>2021-08-09T15:24:11.000Z</time>
      </trkpt>
      <trkpt lat="47.15962" lon="-1.70373">
        <ele>78</ele>
        <time>2021-08-09T15:24:13.000Z</time>
      </trkpt>
      <trkpt lat="47.15954" lon="-1.70389">
        <ele>78</ele>
        <time>2021-08-09T15:24:15.000Z</time>
      </trkpt>
      <trkpt lat="47.15947" lon="-1.70405">
        <ele>77</ele>
        <time>2021-08-09T15:24:17.000Z</time>
      </trkpt>
      <trkpt lat="47.1594" lon="-1.70421">
        <ele>76</ele>
        <time>2021-08-09T15:24:19.000Z</time>
      </trkpt>
      <trkpt lat="47.15933" lon="-1.70436">
        <ele>76</ele>
        <time>2021-08-09T15:24:21.000Z</time>
      </trkpt>
      <trkpt lat="47.15926" lon="-1.70451">
        <ele>76</ele>
        <time>2021-08-09T15:24:23.000Z</time>
      </trkpt>
      <trkpt lat="47.15918" lon="-1.70467">
        <ele>76</ele>
        <time>2021-08-09T15:24:25.000Z</time>
      </trkpt>
      <trkpt lat="47.15911" lon="-1.70481">
        <ele>75</ele>
        <time>2021-08-09T15:24:27.000Z</time>
      </trkpt>
      <trkpt lat="47.15903" lon="-1.70497">
        <ele>75</ele>
        <time>2021-08-09T15:24:29.000Z</time>
      </trkpt>
      <trkpt lat="47.15896" lon="-1.70514">
        <ele>74</ele>
        <time>2021-08-09T15:24:31.000Z</time>
      </trkpt>
      <trkpt lat="47.1589" lon="-1.7053">
        <ele>74</ele>
        <time>2021-08-09T15:24:33.000Z</time>
      </trkpt>
      <trkpt lat="47.15886" lon="-1.70546">
        <ele>74</ele>
        <time>2021-08-09T15:24:35.000Z</time>
      </trkpt>
      <trkpt lat="47.15882" lon="-1.70563">
        <ele>74</ele>
        <time>2021-08-09T15:24:37.000Z</time>
      </trkpt>
      <trkpt lat="47.15877" lon="-1.70579">
        <ele>75</ele>
        <time>2021-08-09T15:24:39.000Z</time>
      </trkpt>
      <trkpt lat="47.15872" lon="-1.70596">
        <ele>75</ele>
        <time>2021-08-09T15:24:41.000Z</time>
      </trkpt>
      <trkpt lat="47.15867" lon="-1.70612">
        <ele>74</ele>
        <time>2021-08-09T15:24:43.000Z</time>
      </trkpt>
      <trkpt lat="47.15862" lon="-1.70629">
        <ele>74</ele>
        <time>2021-08-09T15:24:45.000Z</time>
      </trkpt>
      <trkpt lat="47.15857" lon="-1.70646">
        <ele>74</ele>
        <time>2021-08-09T15:24:47.000Z</time>
      </trkpt>
      <trkpt lat="47.15851" lon="-1.70662">
        <ele>74</ele>
        <time>2021-08-09T15:24:49.000Z</time>
      </trkpt>
      <trkpt lat="47.15845" lon="-1.70677">
        <ele>74</ele>
        <time>2021-08-09T15:24:51.000Z</time>
      </trkpt>
      <trkpt lat="47.15838" lon="-1.70693">
        <ele>74</ele>
        <time>2021-08-09T15:24:53.000Z</time>
      </trkpt>
      <trkpt lat="47.15831" lon="-1.70708">
        <ele>74</ele>
        <time>2021-08-09T15:24:55.000Z</time>
      </trkpt>
      <trkpt lat="47.15824" lon="-1.70722">
        <ele>74</ele>
        <time>2021-08-09T15:24:57.000Z</time>
      </trkpt>
      <trkpt lat="47.15817" lon="-1.70737">
        <ele>74</ele>
        <time>2021-08-09T15:24:59.000Z</time>
      </trkpt>
      <trkpt lat="47.1581" lon="-1.70752">
        <ele>74</ele>
        <time>2021-08-09T15:25:01.000Z</time>
      </trkpt>
      <trkpt lat="47.15803" lon="-1.70768">
        <ele>75</ele>
        <time>2021-08-09T15:25:03.000Z</time>
      </trkpt>
      <trkpt lat="47.15796" lon="-1.70784">
        <ele>75</ele>
        <time>2021-08-09T15:25:05.000Z</time>
      </trkpt>
      <trkpt lat="47.15789" lon="-1.70799">
        <ele>75</ele>
        <time>2021-08-09T15:25:07.000Z</time>
      </trkpt>
      <trkpt lat="47.15781" lon="-1.70814">
        <ele>75</ele>
        <time>2021-08-09T15:25:09.000Z</time>
      </trkpt>
      <trkpt lat="47.15774" lon="-1.70829">
        <ele>75</ele>
        <time>2021-08-09T15:25:11.000Z</time>
      </trkpt>
      <trkpt lat="47.15766" lon="-1.70844">
        <ele>75</ele>
        <time>2021-08-09T15:25:13.000Z</time>
      </trkpt>
      <trkpt lat="47.15759" lon="-1.70858">
        <ele>75</ele>
        <time>2021-08-09T15:25:15.000Z</time>
      </trkpt>
      <trkpt lat="47.15751" lon="-1.70872">
        <ele>75</ele>
        <time>2021-08-09T15:25:17.000Z</time>
      </trkpt>
      <trkpt lat="47.15743" lon="-1.70887">
        <ele>75</ele>
        <time>2021-08-09T15:25:19.000Z</time>
      </trkpt>
      <trkpt lat="47.15734" lon="-1.70901">
        <ele>75</ele>
        <time>2021-08-09T15:25:21.000Z</time>
      </trkpt>
      <trkpt lat="47.15726" lon="-1.70915">
        <ele>75</ele>
        <time>2021-08-09T15:25:23.000Z</time>
      </trkpt>
      <trkpt lat="47.15719" lon="-1.70929">
        <ele>75</ele>
        <time>2021-08-09T15:25:25.000Z</time>
      </trkpt>
      <trkpt lat="47.15711" lon="-1.70943">
        <ele>74</ele>
        <time>2021-08-09T15:25:27.000Z</time>
      </trkpt>
      <trkpt lat="47.15703" lon="-1.70958">
        <ele>74</ele>
        <time>2021-08-09T15:25:29.000Z</time>
      </trkpt>
      <trkpt lat="47.15696" lon="-1.70973">
        <ele>74</ele>
        <time>2021-08-09T15:25:31.000Z</time>
      </trkpt>
      <trkpt lat="47.1569" lon="-1.70987">
        <ele>74</ele>
        <time>2021-08-09T15:25:33.000Z</time>
      </trkpt>
      <trkpt lat="47.15684" lon="-1.71002">
        <ele>74</ele>
        <time>2021-08-09T15:25:35.000Z</time>
      </trkpt>
      <trkpt lat="47.15677" lon="-1.71017">
        <ele>75</ele>
        <time>2021-08-09T15:25:37.000Z</time>
      </trkpt>
      <trkpt lat="47.1567" lon="-1.71031">
        <ele>75</ele>
        <time>2021-08-09T15:25:39.000Z</time>
      </trkpt>
      <trkpt lat="47.15664" lon="-1.71043">
        <ele>75</ele>
        <time>2021-08-09T15:25:41.000Z</time>
      </trkpt>
      <trkpt lat="47.15658" lon="-1.71055">
        <ele>75</ele>
        <time>2021-08-09T15:25:43.000Z</time>
      </trkpt>
      <trkpt lat="47.15653" lon="-1.71066">
        <ele>75</ele>
        <time>2021-08-09T15:25:46.000Z</time>
      </trkpt>
      <trkpt lat="47.15643" lon="-1.71069">
        <ele>75</ele>
        <time>2021-08-09T15:25:48.000Z</time>
      </trkpt>
      <trkpt lat="47.15633" lon="-1.71076">
        <ele>75</ele>
        <time>2021-08-09T15:25:50.000Z</time>
      </trkpt>
      <trkpt lat="47.15626" lon="-1.71091">
        <ele>74</ele>
        <time>2021-08-09T15:25:52.000Z</time>
      </trkpt>
      <trkpt lat="47.15618" lon="-1.71106">
        <ele>74</ele>
        <time>2021-08-09T15:25:54.000Z</time>
      </trkpt>
      <trkpt lat="47.1561" lon="-1.7112">
        <ele>74</ele>
        <time>2021-08-09T15:25:56.000Z</time>
      </trkpt>
      <trkpt lat="47.15601" lon="-1.71135">
        <ele>74</ele>
        <time>2021-08-09T15:25:58.000Z</time>
      </trkpt>
      <trkpt lat="47.15593" lon="-1.7115">
        <ele>75</ele>
        <time>2021-08-09T15:26:00.000Z</time>
      </trkpt>
      <trkpt lat="47.15585" lon="-1.71163">
        <ele>75</ele>
        <time>2021-08-09T15:26:02.000Z</time>
      </trkpt>
      <trkpt lat="47.15577" lon="-1.71177">
        <ele>75</ele>
        <time>2021-08-09T15:26:04.000Z</time>
      </trkpt>
      <trkpt lat="47.15569" lon="-1.7119">
        <ele>75</ele>
        <time>2021-08-09T15:26:06.000Z</time>
      </trkpt>
      <trkpt lat="47.15561" lon="-1.71205">
        <ele>75</ele>
        <time>2021-08-09T15:26:08.000Z</time>
      </trkpt>
      <trkpt lat="47.15553" lon="-1.71221">
        <ele>75</ele>
        <time>2021-08-09T15:26:10.000Z</time>
      </trkpt>
      <trkpt lat="47.15547" lon="-1.71236">
        <ele>75</ele>
        <time>2021-08-09T15:26:12.000Z</time>
      </trkpt>
      <trkpt lat="47.1554" lon="-1.71252">
        <ele>75</ele>
        <time>2021-08-09T15:26:14.000Z</time>
      </trkpt>
      <trkpt lat="47.15534" lon="-1.71268">
        <ele>75</ele>
        <time>2021-08-09T15:26:16.000Z</time>
      </trkpt>
      <trkpt lat="47.15527" lon="-1.71284">
        <ele>75</ele>
        <time>2021-08-09T15:26:18.000Z</time>
      </trkpt>
      <trkpt lat="47.15519" lon="-1.713">
        <ele>75</ele>
        <time>2021-08-09T15:26:20.000Z</time>
      </trkpt>
      <trkpt lat="47.15511" lon="-1.71317">
        <ele>75</ele>
        <time>2021-08-09T15:26:22.000Z</time>
      </trkpt>
      <trkpt lat="47.15502" lon="-1.71332">
        <ele>75</ele>
        <time>2021-08-09T15:26:24.000Z</time>
      </trkpt>
      <trkpt lat="47.15494" lon="-1.71347">
        <ele>75</ele>
        <time>2021-08-09T15:26:26.000Z</time>
      </trkpt>
      <trkpt lat="47.15484" lon="-1.71361">
        <ele>75</ele>
        <time>2021-08-09T15:26:28.000Z</time>
      </trkpt>
      <trkpt lat="47.15475" lon="-1.71374">
        <ele>75</ele>
        <time>2021-08-09T15:26:30.000Z</time>
      </trkpt>
      <trkpt lat="47.15465" lon="-1.71387">
        <ele>75</ele>
        <time>2021-08-09T15:26:32.000Z</time>
      </trkpt>
      <trkpt lat="47.15454" lon="-1.71399">
        <ele>75</ele>
        <time>2021-08-09T15:26:34.000Z</time>
      </trkpt>
      <trkpt lat="47.15443" lon="-1.7141">
        <ele>75</ele>
        <time>2021-08-09T15:26:36.000Z</time>
      </trkpt>
      <trkpt lat="47.15432" lon="-1.71421">
        <ele>75</ele>
        <time>2021-08-09T15:26:38.000Z</time>
      </trkpt>
      <trkpt lat="47.15421" lon="-1.71431">
        <ele>75</ele>
        <time>2021-08-09T15:26:40.000Z</time>
      </trkpt>
      <trkpt lat="47.1541" lon="-1.71441">
        <ele>74</ele>
        <time>2021-08-09T15:26:42.000Z</time>
      </trkpt>
      <trkpt lat="47.15399" lon="-1.71451">
        <ele>74</ele>
        <time>2021-08-09T15:26:44.000Z</time>
      </trkpt>
      <trkpt lat="47.15387" lon="-1.71461">
        <ele>74</ele>
        <time>2021-08-09T15:26:46.000Z</time>
      </trkpt>
      <trkpt lat="47.15376" lon="-1.7147">
        <ele>74</ele>
        <time>2021-08-09T15:26:48.000Z</time>
      </trkpt>
      <trkpt lat="47.15364" lon="-1.7148">
        <ele>73</ele>
        <time>2021-08-09T15:26:50.000Z</time>
      </trkpt>
      <trkpt lat="47.15353" lon="-1.71492">
        <ele>73</ele>
        <time>2021-08-09T15:26:52.000Z</time>
      </trkpt>
      <trkpt lat="47.15343" lon="-1.71503">
        <ele>73</ele>
        <time>2021-08-09T15:26:54.000Z</time>
      </trkpt>
      <trkpt lat="47.15332" lon="-1.71515">
        <ele>73</ele>
        <time>2021-08-09T15:26:56.000Z</time>
      </trkpt>
      <trkpt lat="47.15322" lon="-1.71526">
        <ele>73</ele>
        <time>2021-08-09T15:26:58.000Z</time>
      </trkpt>
      <trkpt lat="47.15311" lon="-1.71538">
        <ele>73</ele>
        <time>2021-08-09T15:27:00.000Z</time>
      </trkpt>
      <trkpt lat="47.153" lon="-1.7155">
        <ele>72</ele>
        <time>2021-08-09T15:27:02.000Z</time>
      </trkpt>
      <trkpt lat="47.15289" lon="-1.71562">
        <ele>72</ele>
        <time>2021-08-09T15:27:04.000Z</time>
      </trkpt>
      <trkpt lat="47.15279" lon="-1.71574">
        <ele>72</ele>
        <time>2021-08-09T15:27:06.000Z</time>
      </trkpt>
      <trkpt lat="47.15268" lon="-1.71585">
        <ele>72</ele>
        <time>2021-08-09T15:27:08.000Z</time>
      </trkpt>
      <trkpt lat="47.15257" lon="-1.71598">
        <ele>72</ele>
        <time>2021-08-09T15:27:10.000Z</time>
      </trkpt>
      <trkpt lat="47.15248" lon="-1.71611">
        <ele>72</ele>
        <time>2021-08-09T15:27:12.000Z</time>
      </trkpt>
      <trkpt lat="47.15239" lon="-1.71623">
        <ele>71</ele>
        <time>2021-08-09T15:27:14.000Z</time>
      </trkpt>
      <trkpt lat="47.15226" lon="-1.7162">
        <ele>72</ele>
        <time>2021-08-09T15:27:16.000Z</time>
      </trkpt>
      <trkpt lat="47.15213" lon="-1.7161">
        <ele>71</ele>
        <time>2021-08-09T15:27:18.000Z</time>
      </trkpt>
      <trkpt lat="47.15202" lon="-1.71602">
        <ele>72</ele>
        <time>2021-08-09T15:27:20.000Z</time>
      </trkpt>
      <trkpt lat="47.15191" lon="-1.71593">
        <ele>72</ele>
        <time>2021-08-09T15:27:22.000Z</time>
      </trkpt>
      <trkpt lat="47.15179" lon="-1.71584">
        <ele>72</ele>
        <time>2021-08-09T15:27:24.000Z</time>
      </trkpt>
      <trkpt lat="47.15167" lon="-1.71575">
        <ele>73</ele>
        <time>2021-08-09T15:27:26.000Z</time>
      </trkpt>
      <trkpt lat="47.15155" lon="-1.71566">
        <ele>73</ele>
        <time>2021-08-09T15:27:28.000Z</time>
      </trkpt>
      <trkpt lat="47.15143" lon="-1.71557">
        <ele>72</ele>
        <time>2021-08-09T15:27:30.000Z</time>
      </trkpt>
      <trkpt lat="47.15131" lon="-1.71548">
        <ele>72</ele>
        <time>2021-08-09T15:27:32.000Z</time>
      </trkpt>
      <trkpt lat="47.15119" lon="-1.71538">
        <ele>72</ele>
        <time>2021-08-09T15:27:34.000Z</time>
      </trkpt>
      <trkpt lat="47.15108" lon="-1.71529">
        <ele>72</ele>
        <time>2021-08-09T15:27:36.000Z</time>
      </trkpt>
      <trkpt lat="47.15098" lon="-1.71518">
        <ele>72</ele>
        <time>2021-08-09T15:27:38.000Z</time>
      </trkpt>
      <trkpt lat="47.15087" lon="-1.71508">
        <ele>73</ele>
        <time>2021-08-09T15:27:40.000Z</time>
      </trkpt>
      <trkpt lat="47.15076" lon="-1.71497">
        <ele>73</ele>
        <time>2021-08-09T15:27:42.000Z</time>
      </trkpt>
      <trkpt lat="47.15064" lon="-1.71485">
        <ele>73</ele>
        <time>2021-08-09T15:27:44.000Z</time>
      </trkpt>
      <trkpt lat="47.15053" lon="-1.71474">
        <ele>73</ele>
        <time>2021-08-09T15:27:46.000Z</time>
      </trkpt>
      <trkpt lat="47.15042" lon="-1.71463">
        <ele>73</ele>
        <time>2021-08-09T15:27:48.000Z</time>
      </trkpt>
      <trkpt lat="47.15031" lon="-1.71452">
        <ele>73</ele>
        <time>2021-08-09T15:27:50.000Z</time>
      </trkpt>
      <trkpt lat="47.1502" lon="-1.71441">
        <ele>72</ele>
        <time>2021-08-09T15:27:52.000Z</time>
      </trkpt>
      <trkpt lat="47.15009" lon="-1.7143">
        <ele>73</ele>
        <time>2021-08-09T15:27:54.000Z</time>
      </trkpt>
      <trkpt lat="47.14998" lon="-1.71419">
        <ele>73</ele>
        <time>2021-08-09T15:27:56.000Z</time>
      </trkpt>
      <trkpt lat="47.14987" lon="-1.71409">
        <ele>73</ele>
        <time>2021-08-09T15:27:58.000Z</time>
      </trkpt>
      <trkpt lat="47.14976" lon="-1.71398">
        <ele>73</ele>
        <time>2021-08-09T15:28:00.000Z</time>
      </trkpt>
      <trkpt lat="47.14965" lon="-1.71387">
        <ele>74</ele>
        <time>2021-08-09T15:28:02.000Z</time>
      </trkpt>
      <trkpt lat="47.14954" lon="-1.71376">
        <ele>74</ele>
        <time>2021-08-09T15:28:04.000Z</time>
      </trkpt>
      <trkpt lat="47.14944" lon="-1.71364">
        <ele>74</ele>
        <time>2021-08-09T15:28:06.000Z</time>
      </trkpt>
      <trkpt lat="47.14934" lon="-1.71352">
        <ele>74</ele>
        <time>2021-08-09T15:28:08.000Z</time>
      </trkpt>
      <trkpt lat="47.14924" lon="-1.7134">
        <ele>75</ele>
        <time>2021-08-09T15:28:10.000Z</time>
      </trkpt>
      <trkpt lat="47.14914" lon="-1.71328">
        <ele>75</ele>
        <time>2021-08-09T15:28:12.000Z</time>
      </trkpt>
      <trkpt lat="47.14905" lon="-1.71315">
        <ele>75</ele>
        <time>2021-08-09T15:28:14.000Z</time>
      </trkpt>
      <trkpt lat="47.14895" lon="-1.71303">
        <ele>75</ele>
        <time>2021-08-09T15:28:16.000Z</time>
      </trkpt>
      <trkpt lat="47.14884" lon="-1.71292">
        <ele>75</ele>
        <time>2021-08-09T15:28:18.000Z</time>
      </trkpt>
      <trkpt lat="47.14873" lon="-1.71282">
        <ele>75</ele>
        <time>2021-08-09T15:28:20.000Z</time>
      </trkpt>
      <trkpt lat="47.14862" lon="-1.71271">
        <ele>75</ele>
        <time>2021-08-09T15:28:22.000Z</time>
      </trkpt>
      <trkpt lat="47.14853" lon="-1.71257">
        <ele>75</ele>
        <time>2021-08-09T15:28:24.000Z</time>
      </trkpt>
      <trkpt lat="47.14845" lon="-1.7124">
        <ele>75</ele>
        <time>2021-08-09T15:28:26.000Z</time>
      </trkpt>
      <trkpt lat="47.14838" lon="-1.71222">
        <ele>75</ele>
        <time>2021-08-09T15:28:28.000Z</time>
      </trkpt>
      <trkpt lat="47.14831" lon="-1.71204">
        <ele>75</ele>
        <time>2021-08-09T15:28:30.000Z</time>
      </trkpt>
      <trkpt lat="47.14825" lon="-1.71186">
        <ele>76</ele>
        <time>2021-08-09T15:28:32.000Z</time>
      </trkpt>
      <trkpt lat="47.14818" lon="-1.71168">
        <ele>76</ele>
        <time>2021-08-09T15:28:34.000Z</time>
      </trkpt>
      <trkpt lat="47.14812" lon="-1.7115">
        <ele>76</ele>
        <time>2021-08-09T15:28:36.000Z</time>
      </trkpt>
      <trkpt lat="47.14804" lon="-1.71133">
        <ele>76</ele>
        <time>2021-08-09T15:28:38.000Z</time>
      </trkpt>
      <trkpt lat="47.14796" lon="-1.71116">
        <ele>76</ele>
        <time>2021-08-09T15:28:40.000Z</time>
      </trkpt>
      <trkpt lat="47.14788" lon="-1.71099">
        <ele>76</ele>
        <time>2021-08-09T15:28:42.000Z</time>
      </trkpt>
      <trkpt lat="47.14781" lon="-1.71081">
        <ele>76</ele>
        <time>2021-08-09T15:28:44.000Z</time>
      </trkpt>
      <trkpt lat="47.14774" lon="-1.71063">
        <ele>76</ele>
        <time>2021-08-09T15:28:46.000Z</time>
      </trkpt>
      <trkpt lat="47.14768" lon="-1.71044">
        <ele>75</ele>
        <time>2021-08-09T15:28:48.000Z</time>
      </trkpt>
      <trkpt lat="47.14762" lon="-1.71025">
        <ele>76</ele>
        <time>2021-08-09T15:28:50.000Z</time>
      </trkpt>
      <trkpt lat="47.14757" lon="-1.71007">
        <ele>76</ele>
        <time>2021-08-09T15:28:52.000Z</time>
      </trkpt>
      <trkpt lat="47.14752" lon="-1.70989">
        <ele>76</ele>
        <time>2021-08-09T15:28:54.000Z</time>
      </trkpt>
      <trkpt lat="47.14742" lon="-1.7098">
        <ele>75</ele>
        <time>2021-08-09T15:28:56.000Z</time>
      </trkpt>
      <trkpt lat="47.1473" lon="-1.7099">
        <ele>75</ele>
        <time>2021-08-09T15:28:58.000Z</time>
      </trkpt>
      <trkpt lat="47.14721" lon="-1.71003">
        <ele>74</ele>
        <time>2021-08-09T15:29:00.000Z</time>
      </trkpt>
      <trkpt lat="47.14714" lon="-1.7102">
        <ele>74</ele>
        <time>2021-08-09T15:29:02.000Z</time>
      </trkpt>
      <trkpt lat="47.14713" lon="-1.71039">
        <ele>75</ele>
        <time>2021-08-09T15:29:04.000Z</time>
      </trkpt>
      <trkpt lat="47.14714" lon="-1.7106">
        <ele>75</ele>
        <time>2021-08-09T15:29:06.000Z</time>
      </trkpt>
      <trkpt lat="47.14717" lon="-1.71078">
        <ele>75</ele>
        <time>2021-08-09T15:29:08.000Z</time>
      </trkpt>
      <trkpt lat="47.1472" lon="-1.71097">
        <ele>76</ele>
        <time>2021-08-09T15:29:10.000Z</time>
      </trkpt>
      <trkpt lat="47.14723" lon="-1.71116">
        <ele>76</ele>
        <time>2021-08-09T15:29:12.000Z</time>
      </trkpt>
      <trkpt lat="47.14725" lon="-1.71135">
        <ele>76</ele>
        <time>2021-08-09T15:29:14.000Z</time>
      </trkpt>
      <trkpt lat="47.14728" lon="-1.71155">
        <ele>76</ele>
        <time>2021-08-09T15:29:16.000Z</time>
      </trkpt>
      <trkpt lat="47.14732" lon="-1.71174">
        <ele>76</ele>
        <time>2021-08-09T15:29:18.000Z</time>
      </trkpt>
      <trkpt lat="47.14736" lon="-1.71193">
        <ele>76</ele>
        <time>2021-08-09T15:29:20.000Z</time>
      </trkpt>
      <trkpt lat="47.14742" lon="-1.71211">
        <ele>76</ele>
        <time>2021-08-09T15:29:22.000Z</time>
      </trkpt>
      <trkpt lat="47.14747" lon="-1.71229">
        <ele>77</ele>
        <time>2021-08-09T15:29:24.000Z</time>
      </trkpt>
      <trkpt lat="47.14752" lon="-1.71247">
        <ele>77</ele>
        <time>2021-08-09T15:29:26.000Z</time>
      </trkpt>
      <trkpt lat="47.14757" lon="-1.71266">
        <ele>77</ele>
        <time>2021-08-09T15:29:28.000Z</time>
      </trkpt>
      <trkpt lat="47.14761" lon="-1.71284">
        <ele>78</ele>
        <time>2021-08-09T15:29:30.000Z</time>
      </trkpt>
      <trkpt lat="47.14765" lon="-1.71302">
        <ele>77</ele>
        <time>2021-08-09T15:29:32.000Z</time>
      </trkpt>
      <trkpt lat="47.14769" lon="-1.71321">
        <ele>78</ele>
        <time>2021-08-09T15:29:34.000Z</time>
      </trkpt>
      <trkpt lat="47.14771" lon="-1.71341">
        <ele>77</ele>
        <time>2021-08-09T15:29:36.000Z</time>
      </trkpt>
      <trkpt lat="47.14773" lon="-1.7136">
        <ele>78</ele>
        <time>2021-08-09T15:29:38.000Z</time>
      </trkpt>
      <trkpt lat="47.14776" lon="-1.71379">
        <ele>78</ele>
        <time>2021-08-09T15:29:40.000Z</time>
      </trkpt>
      <trkpt lat="47.14779" lon="-1.71398">
        <ele>78</ele>
        <time>2021-08-09T15:29:42.000Z</time>
      </trkpt>
      <trkpt lat="47.14781" lon="-1.71417">
        <ele>78</ele>
        <time>2021-08-09T15:29:44.000Z</time>
      </trkpt>
      <trkpt lat="47.14784" lon="-1.71435">
        <ele>78</ele>
        <time>2021-08-09T15:29:46.000Z</time>
      </trkpt>
      <trkpt lat="47.14786" lon="-1.71454">
        <ele>78</ele>
        <time>2021-08-09T15:29:48.000Z</time>
      </trkpt>
      <trkpt lat="47.14789" lon="-1.71473">
        <ele>78</ele>
        <time>2021-08-09T15:29:50.000Z</time>
      </trkpt>
      <trkpt lat="47.14792" lon="-1.71493">
        <ele>78</ele>
        <time>2021-08-09T15:29:52.000Z</time>
      </trkpt>
      <trkpt lat="47.14794" lon="-1.71512">
        <ele>78</ele>
        <time>2021-08-09T15:29:54.000Z</time>
      </trkpt>
      <trkpt lat="47.14795" lon="-1.7153">
        <ele>78</ele>
        <time>2021-08-09T15:29:56.000Z</time>
      </trkpt>
      <trkpt lat="47.14795" lon="-1.71549">
        <ele>78</ele>
        <time>2021-08-09T15:29:58.000Z</time>
      </trkpt>
      <trkpt lat="47.14794" lon="-1.71569">
        <ele>78</ele>
        <time>2021-08-09T15:30:00.000Z</time>
      </trkpt>
      <trkpt lat="47.14792" lon="-1.71588">
        <ele>77</ele>
        <time>2021-08-09T15:30:02.000Z</time>
      </trkpt>
      <trkpt lat="47.14789" lon="-1.71607">
        <ele>78</ele>
        <time>2021-08-09T15:30:04.000Z</time>
      </trkpt>
      <trkpt lat="47.14786" lon="-1.71626">
        <ele>77</ele>
        <time>2021-08-09T15:30:06.000Z</time>
      </trkpt>
      <trkpt lat="47.14783" lon="-1.71644">
        <ele>77</ele>
        <time>2021-08-09T15:30:08.000Z</time>
      </trkpt>
      <trkpt lat="47.14779" lon="-1.71663">
        <ele>77</ele>
        <time>2021-08-09T15:30:10.000Z</time>
      </trkpt>
      <trkpt lat="47.14776" lon="-1.7168">
        <ele>77</ele>
        <time>2021-08-09T15:30:12.000Z</time>
      </trkpt>
      <trkpt lat="47.14773" lon="-1.71698">
        <ele>78</ele>
        <time>2021-08-09T15:30:14.000Z</time>
      </trkpt>
      <trkpt lat="47.1477" lon="-1.71717">
        <ele>78</ele>
        <time>2021-08-09T15:30:16.000Z</time>
      </trkpt>
      <trkpt lat="47.14767" lon="-1.71735">
        <ele>78</ele>
        <time>2021-08-09T15:30:18.000Z</time>
      </trkpt>
      <trkpt lat="47.14764" lon="-1.71753">
        <ele>78</ele>
        <time>2021-08-09T15:30:20.000Z</time>
      </trkpt>
      <trkpt lat="47.14759" lon="-1.7177">
        <ele>77</ele>
        <time>2021-08-09T15:30:22.000Z</time>
      </trkpt>
      <trkpt lat="47.14753" lon="-1.71786">
        <ele>77</ele>
        <time>2021-08-09T15:30:24.000Z</time>
      </trkpt>
      <trkpt lat="47.14745" lon="-1.718">
        <ele>77</ele>
        <time>2021-08-09T15:30:26.000Z</time>
      </trkpt>
      <trkpt lat="47.14735" lon="-1.7181">
        <ele>76</ele>
        <time>2021-08-09T15:30:28.000Z</time>
      </trkpt>
      <trkpt lat="47.14724" lon="-1.71819">
        <ele>76</ele>
        <time>2021-08-09T15:30:30.000Z</time>
      </trkpt>
      <trkpt lat="47.14712" lon="-1.71827">
        <ele>76</ele>
        <time>2021-08-09T15:30:32.000Z</time>
      </trkpt>
      <trkpt lat="47.147" lon="-1.71833">
        <ele>76</ele>
        <time>2021-08-09T15:30:34.000Z</time>
      </trkpt>
      <trkpt lat="47.14687" lon="-1.71839">
        <ele>76</ele>
        <time>2021-08-09T15:30:36.000Z</time>
      </trkpt>
      <trkpt lat="47.14674" lon="-1.71845">
        <ele>76</ele>
        <time>2021-08-09T15:30:38.000Z</time>
      </trkpt>
      <trkpt lat="47.14661" lon="-1.7185">
        <ele>76</ele>
        <time>2021-08-09T15:30:40.000Z</time>
      </trkpt>
      <trkpt lat="47.14648" lon="-1.71854">
        <ele>76</ele>
        <time>2021-08-09T15:30:42.000Z</time>
      </trkpt>
      <trkpt lat="47.14634" lon="-1.71855">
        <ele>75</ele>
        <time>2021-08-09T15:30:44.000Z</time>
      </trkpt>
      <trkpt lat="47.14621" lon="-1.71855">
        <ele>75</ele>
        <time>2021-08-09T15:30:46.000Z</time>
      </trkpt>
      <trkpt lat="47.14607" lon="-1.71852">
        <ele>76</ele>
        <time>2021-08-09T15:30:48.000Z</time>
      </trkpt>
      <trkpt lat="47.14593" lon="-1.71848">
        <ele>76</ele>
        <time>2021-08-09T15:30:50.000Z</time>
      </trkpt>
      <trkpt lat="47.14579" lon="-1.71842">
        <ele>76</ele>
        <time>2021-08-09T15:30:52.000Z</time>
      </trkpt>
      <trkpt lat="47.14567" lon="-1.71836">
        <ele>75</ele>
        <time>2021-08-09T15:30:54.000Z</time>
      </trkpt>
      <trkpt lat="47.14553" lon="-1.7183">
        <ele>75</ele>
        <time>2021-08-09T15:30:56.000Z</time>
      </trkpt>
      <trkpt lat="47.1454" lon="-1.71824">
        <ele>75</ele>
        <time>2021-08-09T15:30:58.000Z</time>
      </trkpt>
      <trkpt lat="47.14527" lon="-1.71818">
        <ele>75</ele>
        <time>2021-08-09T15:31:00.000Z</time>
      </trkpt>
      <trkpt lat="47.14514" lon="-1.71811">
        <ele>75</ele>
        <time>2021-08-09T15:31:02.000Z</time>
      </trkpt>
      <trkpt lat="47.14501" lon="-1.71805">
        <ele>75</ele>
        <time>2021-08-09T15:31:04.000Z</time>
      </trkpt>
      <trkpt lat="47.14487" lon="-1.71799">
        <ele>75</ele>
        <time>2021-08-09T15:31:06.000Z</time>
      </trkpt>
      <trkpt lat="47.14474" lon="-1.71793">
        <ele>75</ele>
        <time>2021-08-09T15:31:08.000Z</time>
      </trkpt>
      <trkpt lat="47.14461" lon="-1.71787">
        <ele>75</ele>
        <time>2021-08-09T15:31:10.000Z</time>
      </trkpt>
      <trkpt lat="47.14448" lon="-1.71783">
        <ele>74</ele>
        <time>2021-08-09T15:31:12.000Z</time>
      </trkpt>
      <trkpt lat="47.14434" lon="-1.71781">
        <ele>74</ele>
        <time>2021-08-09T15:31:14.000Z</time>
      </trkpt>
      <trkpt lat="47.1442" lon="-1.7178">
        <ele>74</ele>
        <time>2021-08-09T15:31:16.000Z</time>
      </trkpt>
      <trkpt lat="47.14406" lon="-1.71781">
        <ele>74</ele>
        <time>2021-08-09T15:31:18.000Z</time>
      </trkpt>
      <trkpt lat="47.14393" lon="-1.71784">
        <ele>73</ele>
        <time>2021-08-09T15:31:20.000Z</time>
      </trkpt>
      <trkpt lat="47.14379" lon="-1.71788">
        <ele>73</ele>
        <time>2021-08-09T15:31:22.000Z</time>
      </trkpt>
      <trkpt lat="47.14366" lon="-1.71792">
        <ele>73</ele>
        <time>2021-08-09T15:31:24.000Z</time>
      </trkpt>
      <trkpt lat="47.14352" lon="-1.71797">
        <ele>73</ele>
        <time>2021-08-09T15:31:26.000Z</time>
      </trkpt>
      <trkpt lat="47.14339" lon="-1.71802">
        <ele>73</ele>
        <time>2021-08-09T15:31:28.000Z</time>
      </trkpt>
      <trkpt lat="47.14326" lon="-1.71806">
        <ele>73</ele>
        <time>2021-08-09T15:31:30.000Z</time>
      </trkpt>
      <trkpt lat="47.14312" lon="-1.7181">
        <ele>72</ele>
        <time>2021-08-09T15:31:32.000Z</time>
      </trkpt>
      <trkpt lat="47.14299" lon="-1.71814">
        <ele>71</ele>
        <time>2021-08-09T15:31:34.000Z</time>
      </trkpt>
      <trkpt lat="47.14285" lon="-1.71818">
        <ele>71</ele>
        <time>2021-08-09T15:31:36.000Z</time>
      </trkpt>
      <trkpt lat="47.14272" lon="-1.71822">
        <ele>71</ele>
        <time>2021-08-09T15:31:38.000Z</time>
      </trkpt>
      <trkpt lat="47.14259" lon="-1.71826">
        <ele>70</ele>
        <time>2021-08-09T15:31:40.000Z</time>
      </trkpt>
      <trkpt lat="47.14246" lon="-1.7183">
        <ele>70</ele>
        <time>2021-08-09T15:31:42.000Z</time>
      </trkpt>
      <trkpt lat="47.14233" lon="-1.71834">
        <ele>70</ele>
        <time>2021-08-09T15:31:44.000Z</time>
      </trkpt>
      <trkpt lat="47.14219" lon="-1.71839">
        <ele>69</ele>
        <time>2021-08-09T15:31:46.000Z</time>
      </trkpt>
      <trkpt lat="47.14206" lon="-1.71843">
        <ele>69</ele>
        <time>2021-08-09T15:31:48.000Z</time>
      </trkpt>
      <trkpt lat="47.14193" lon="-1.71847">
        <ele>69</ele>
        <time>2021-08-09T15:31:50.000Z</time>
      </trkpt>
      <trkpt lat="47.1418" lon="-1.71852">
        <ele>68</ele>
        <time>2021-08-09T15:31:52.000Z</time>
      </trkpt>
      <trkpt lat="47.14166" lon="-1.71856">
        <ele>68</ele>
        <time>2021-08-09T15:31:54.000Z</time>
      </trkpt>
      <trkpt lat="47.14152" lon="-1.71861">
        <ele>67</ele>
        <time>2021-08-09T15:31:56.000Z</time>
      </trkpt>
      <trkpt lat="47.14137" lon="-1.71866">
        <ele>67</ele>
        <time>2021-08-09T15:31:58.000Z</time>
      </trkpt>
      <trkpt lat="47.14121" lon="-1.71871">
        <ele>65</ele>
        <time>2021-08-09T15:32:00.000Z</time>
      </trkpt>
      <trkpt lat="47.14106" lon="-1.71877">
        <ele>64</ele>
        <time>2021-08-09T15:32:02.000Z</time>
      </trkpt>
      <trkpt lat="47.14089" lon="-1.71882">
        <ele>63</ele>
        <time>2021-08-09T15:32:04.000Z</time>
      </trkpt>
      <trkpt lat="47.14072" lon="-1.71887">
        <ele>62</ele>
        <time>2021-08-09T15:32:06.000Z</time>
      </trkpt>
      <trkpt lat="47.14055" lon="-1.71892">
        <ele>61</ele>
        <time>2021-08-09T15:32:08.000Z</time>
      </trkpt>
      <trkpt lat="47.14038" lon="-1.71898">
        <ele>61</ele>
        <time>2021-08-09T15:32:10.000Z</time>
      </trkpt>
      <trkpt lat="47.14021" lon="-1.71903">
        <ele>60</ele>
        <time>2021-08-09T15:32:12.000Z</time>
      </trkpt>
      <trkpt lat="47.14003" lon="-1.71899">
        <ele>58</ele>
        <time>2021-08-09T15:32:14.000Z</time>
      </trkpt>
      <trkpt lat="47.13993" lon="-1.71896">
        <ele>57</ele>
        <time>2021-08-09T15:32:15.000Z</time>
      </trkpt>
      <trkpt lat="47.13984" lon="-1.71896">
        <ele>57</ele>
        <time>2021-08-09T15:32:16.000Z</time>
      </trkpt>
      <trkpt lat="47.1397" lon="-1.71904">
        <ele>56</ele>
        <time>2021-08-09T15:32:18.000Z</time>
      </trkpt>
      <trkpt lat="47.13967" lon="-1.71925">
        <ele>56</ele>
        <time>2021-08-09T15:32:20.000Z</time>
      </trkpt>
      <trkpt lat="47.13967" lon="-1.71947">
        <ele>57</ele>
        <time>2021-08-09T15:32:22.000Z</time>
      </trkpt>
      <trkpt lat="47.1396" lon="-1.71964">
        <ele>57</ele>
        <time>2021-08-09T15:32:24.000Z</time>
      </trkpt>
      <trkpt lat="47.13947" lon="-1.71974">
        <ele>58</ele>
        <time>2021-08-09T15:32:26.000Z</time>
      </trkpt>
      <trkpt lat="47.13935" lon="-1.71981">
        <ele>58</ele>
        <time>2021-08-09T15:32:28.000Z</time>
      </trkpt>
      <trkpt lat="47.13922" lon="-1.71987">
        <ele>59</ele>
        <time>2021-08-09T15:32:30.000Z</time>
      </trkpt>
      <trkpt lat="47.1391" lon="-1.71993">
        <ele>60</ele>
        <time>2021-08-09T15:32:32.000Z</time>
      </trkpt>
      <trkpt lat="47.13898" lon="-1.71999">
        <ele>60</ele>
        <time>2021-08-09T15:32:34.000Z</time>
      </trkpt>
      <trkpt lat="47.13886" lon="-1.72006">
        <ele>60</ele>
        <time>2021-08-09T15:32:36.000Z</time>
      </trkpt>
      <trkpt lat="47.13875" lon="-1.72017">
        <ele>60</ele>
        <time>2021-08-09T15:32:38.000Z</time>
      </trkpt>
      <trkpt lat="47.13865" lon="-1.72028">
        <ele>60</ele>
        <time>2021-08-09T15:32:40.000Z</time>
      </trkpt>
      <trkpt lat="47.13857" lon="-1.72043">
        <ele>60</ele>
        <time>2021-08-09T15:32:42.000Z</time>
      </trkpt>
      <trkpt lat="47.13848" lon="-1.72057">
        <ele>60</ele>
        <time>2021-08-09T15:32:44.000Z</time>
      </trkpt>
      <trkpt lat="47.13839" lon="-1.72071">
        <ele>61</ele>
        <time>2021-08-09T15:32:46.000Z</time>
      </trkpt>
      <trkpt lat="47.13831" lon="-1.72085">
        <ele>61</ele>
        <time>2021-08-09T15:32:48.000Z</time>
      </trkpt>
      <trkpt lat="47.13823" lon="-1.72098">
        <ele>61</ele>
        <time>2021-08-09T15:32:50.000Z</time>
      </trkpt>
      <trkpt lat="47.13814" lon="-1.72112">
        <ele>62</ele>
        <time>2021-08-09T15:32:52.000Z</time>
      </trkpt>
      <trkpt lat="47.13806" lon="-1.72126">
        <ele>62</ele>
        <time>2021-08-09T15:32:54.000Z</time>
      </trkpt>
      <trkpt lat="47.13798" lon="-1.7214">
        <ele>62</ele>
        <time>2021-08-09T15:32:56.000Z</time>
      </trkpt>
      <trkpt lat="47.13789" lon="-1.72154">
        <ele>63</ele>
        <time>2021-08-09T15:32:58.000Z</time>
      </trkpt>
      <trkpt lat="47.13781" lon="-1.72167">
        <ele>63</ele>
        <time>2021-08-09T15:33:00.000Z</time>
      </trkpt>
      <trkpt lat="47.13774" lon="-1.7218">
        <ele>64</ele>
        <time>2021-08-09T15:33:02.000Z</time>
      </trkpt>
      <trkpt lat="47.13766" lon="-1.72194">
        <ele>64</ele>
        <time>2021-08-09T15:33:04.000Z</time>
      </trkpt>
      <trkpt lat="47.13758" lon="-1.72207">
        <ele>65</ele>
        <time>2021-08-09T15:33:06.000Z</time>
      </trkpt>
      <trkpt lat="47.13751" lon="-1.72222">
        <ele>65</ele>
        <time>2021-08-09T15:33:08.000Z</time>
      </trkpt>
      <trkpt lat="47.13744" lon="-1.72237">
        <ele>66</ele>
        <time>2021-08-09T15:33:10.000Z</time>
      </trkpt>
      <trkpt lat="47.1374" lon="-1.72254">
        <ele>66</ele>
        <time>2021-08-09T15:33:12.000Z</time>
      </trkpt>
      <trkpt lat="47.13738" lon="-1.7227">
        <ele>67</ele>
        <time>2021-08-09T15:33:14.000Z</time>
      </trkpt>
      <trkpt lat="47.13735" lon="-1.72288">
        <ele>68</ele>
        <time>2021-08-09T15:33:16.000Z</time>
      </trkpt>
      <trkpt lat="47.13732" lon="-1.72306">
        <ele>68</ele>
        <time>2021-08-09T15:33:18.000Z</time>
      </trkpt>
      <trkpt lat="47.1373" lon="-1.72323">
        <ele>68</ele>
        <time>2021-08-09T15:33:20.000Z</time>
      </trkpt>
      <trkpt lat="47.13728" lon="-1.7234">
        <ele>68</ele>
        <time>2021-08-09T15:33:22.000Z</time>
      </trkpt>
      <trkpt lat="47.13725" lon="-1.72355">
        <ele>69</ele>
        <time>2021-08-09T15:33:24.000Z</time>
      </trkpt>
      <trkpt lat="47.13722" lon="-1.72371">
        <ele>69</ele>
        <time>2021-08-09T15:33:26.000Z</time>
      </trkpt>
      <trkpt lat="47.13717" lon="-1.72387">
        <ele>70</ele>
        <time>2021-08-09T15:33:28.000Z</time>
      </trkpt>
      <trkpt lat="47.13713" lon="-1.72403">
        <ele>70</ele>
        <time>2021-08-09T15:33:30.000Z</time>
      </trkpt>
      <trkpt lat="47.13709" lon="-1.72419">
        <ele>71</ele>
        <time>2021-08-09T15:33:32.000Z</time>
      </trkpt>
      <trkpt lat="47.13705" lon="-1.72435">
        <ele>71</ele>
        <time>2021-08-09T15:33:34.000Z</time>
      </trkpt>
      <trkpt lat="47.137" lon="-1.72452">
        <ele>71</ele>
        <time>2021-08-09T15:33:36.000Z</time>
      </trkpt>
      <trkpt lat="47.13696" lon="-1.72468">
        <ele>71</ele>
        <time>2021-08-09T15:33:38.000Z</time>
      </trkpt>
      <trkpt lat="47.13691" lon="-1.72485">
        <ele>71</ele>
        <time>2021-08-09T15:33:40.000Z</time>
      </trkpt>
      <trkpt lat="47.13686" lon="-1.72502">
        <ele>71</ele>
        <time>2021-08-09T15:33:42.000Z</time>
      </trkpt>
      <trkpt lat="47.13682" lon="-1.7252">
        <ele>71</ele>
        <time>2021-08-09T15:33:44.000Z</time>
      </trkpt>
      <trkpt lat="47.1368" lon="-1.72538">
        <ele>72</ele>
        <time>2021-08-09T15:33:46.000Z</time>
      </trkpt>
      <trkpt lat="47.13679" lon="-1.72557">
        <ele>72</ele>
        <time>2021-08-09T15:33:48.000Z</time>
      </trkpt>
      <trkpt lat="47.13679" lon="-1.72574">
        <ele>72</ele>
        <time>2021-08-09T15:33:50.000Z</time>
      </trkpt>
      <trkpt lat="47.13679" lon="-1.72592">
        <ele>72</ele>
        <time>2021-08-09T15:33:52.000Z</time>
      </trkpt>
      <trkpt lat="47.13678" lon="-1.72609">
        <ele>73</ele>
        <time>2021-08-09T15:33:54.000Z</time>
      </trkpt>
      <trkpt lat="47.13676" lon="-1.72626">
        <ele>73</ele>
        <time>2021-08-09T15:33:56.000Z</time>
      </trkpt>
      <trkpt lat="47.13673" lon="-1.72643">
        <ele>73</ele>
        <time>2021-08-09T15:33:58.000Z</time>
      </trkpt>
      <trkpt lat="47.13671" lon="-1.7266">
        <ele>73</ele>
        <time>2021-08-09T15:34:00.000Z</time>
      </trkpt>
      <trkpt lat="47.13667" lon="-1.72677">
        <ele>74</ele>
        <time>2021-08-09T15:34:02.000Z</time>
      </trkpt>
      <trkpt lat="47.13665" lon="-1.72693">
        <ele>74</ele>
        <time>2021-08-09T15:34:04.000Z</time>
      </trkpt>
      <trkpt lat="47.13663" lon="-1.72709">
        <ele>73</ele>
        <time>2021-08-09T15:34:06.000Z</time>
      </trkpt>
      <trkpt lat="47.13662" lon="-1.72726">
        <ele>73</ele>
        <time>2021-08-09T15:34:08.000Z</time>
      </trkpt>
      <trkpt lat="47.13661" lon="-1.72742">
        <ele>72</ele>
        <time>2021-08-09T15:34:10.000Z</time>
      </trkpt>
      <trkpt lat="47.13659" lon="-1.72758">
        <ele>73</ele>
        <time>2021-08-09T15:34:12.000Z</time>
      </trkpt>
      <trkpt lat="47.13658" lon="-1.72774">
        <ele>73</ele>
        <time>2021-08-09T15:34:14.000Z</time>
      </trkpt>
      <trkpt lat="47.13657" lon="-1.72792">
        <ele>72</ele>
        <time>2021-08-09T15:34:16.000Z</time>
      </trkpt>
      <trkpt lat="47.13656" lon="-1.72808">
        <ele>72</ele>
        <time>2021-08-09T15:34:18.000Z</time>
      </trkpt>
      <trkpt lat="47.13655" lon="-1.72824">
        <ele>71</ele>
        <time>2021-08-09T15:34:20.000Z</time>
      </trkpt>
      <trkpt lat="47.13653" lon="-1.72843">
        <ele>71</ele>
        <time>2021-08-09T15:34:22.000Z</time>
      </trkpt>
      <trkpt lat="47.13651" lon="-1.72863">
        <ele>71</ele>
        <time>2021-08-09T15:34:24.000Z</time>
      </trkpt>
      <trkpt lat="47.13649" lon="-1.72884">
        <ele>70</ele>
        <time>2021-08-09T15:34:26.000Z</time>
      </trkpt>
      <trkpt lat="47.13647" lon="-1.72907">
        <ele>69</ele>
        <time>2021-08-09T15:34:28.000Z</time>
      </trkpt>
      <trkpt lat="47.13645" lon="-1.7293">
        <ele>68</ele>
        <time>2021-08-09T15:34:30.000Z</time>
      </trkpt>
      <trkpt lat="47.13643" lon="-1.72954">
        <ele>67</ele>
        <time>2021-08-09T15:34:32.000Z</time>
      </trkpt>
      <trkpt lat="47.13642" lon="-1.72978">
        <ele>66</ele>
        <time>2021-08-09T15:34:34.000Z</time>
      </trkpt>
      <trkpt lat="47.1364" lon="-1.73002">
        <ele>65</ele>
        <time>2021-08-09T15:34:36.000Z</time>
      </trkpt>
      <trkpt lat="47.13635" lon="-1.73026">
        <ele>64</ele>
        <time>2021-08-09T15:34:38.000Z</time>
      </trkpt>
      <trkpt lat="47.13624" lon="-1.73046">
        <ele>64</ele>
        <time>2021-08-09T15:34:40.000Z</time>
      </trkpt>
      <trkpt lat="47.13609" lon="-1.7306">
        <ele>63</ele>
        <time>2021-08-09T15:34:42.000Z</time>
      </trkpt>
      <trkpt lat="47.13594" lon="-1.73074">
        <ele>63</ele>
        <time>2021-08-09T15:34:44.000Z</time>
      </trkpt>
      <trkpt lat="47.13579" lon="-1.73086">
        <ele>63</ele>
        <time>2021-08-09T15:34:46.000Z</time>
      </trkpt>
      <trkpt lat="47.13566" lon="-1.731">
        <ele>62</ele>
        <time>2021-08-09T15:34:48.000Z</time>
      </trkpt>
      <trkpt lat="47.13553" lon="-1.73113">
        <ele>61</ele>
        <time>2021-08-09T15:34:50.000Z</time>
      </trkpt>
      <trkpt lat="47.13539" lon="-1.73127">
        <ele>61</ele>
        <time>2021-08-09T15:34:52.000Z</time>
      </trkpt>
      <trkpt lat="47.13527" lon="-1.73143">
        <ele>60</ele>
        <time>2021-08-09T15:34:54.000Z</time>
      </trkpt>
      <trkpt lat="47.13517" lon="-1.73161">
        <ele>59</ele>
        <time>2021-08-09T15:34:56.000Z</time>
      </trkpt>
      <trkpt lat="47.13511" lon="-1.73183">
        <ele>58</ele>
        <time>2021-08-09T15:34:58.000Z</time>
      </trkpt>
      <trkpt lat="47.13509" lon="-1.73208">
        <ele>58</ele>
        <time>2021-08-09T15:35:00.000Z</time>
      </trkpt>
      <trkpt lat="47.13507" lon="-1.73233">
        <ele>58</ele>
        <time>2021-08-09T15:35:02.000Z</time>
      </trkpt>
      <trkpt lat="47.13504" lon="-1.73257">
        <ele>58</ele>
        <time>2021-08-09T15:35:04.000Z</time>
      </trkpt>
      <trkpt lat="47.13502" lon="-1.73282">
        <ele>57</ele>
        <time>2021-08-09T15:35:06.000Z</time>
      </trkpt>
      <trkpt lat="47.13505" lon="-1.73305">
        <ele>57</ele>
        <time>2021-08-09T15:35:08.000Z</time>
      </trkpt>
      <trkpt lat="47.13511" lon="-1.73327">
        <ele>58</ele>
        <time>2021-08-09T15:35:10.000Z</time>
      </trkpt>
      <trkpt lat="47.13516" lon="-1.73347">
        <ele>58</ele>
        <time>2021-08-09T15:35:12.000Z</time>
      </trkpt>
      <trkpt lat="47.13522" lon="-1.73364">
        <ele>59</ele>
        <time>2021-08-09T15:35:14.000Z</time>
      </trkpt>
      <trkpt lat="47.13528" lon="-1.73381">
        <ele>61</ele>
        <time>2021-08-09T15:35:16.000Z</time>
      </trkpt>
      <trkpt lat="47.13534" lon="-1.73398">
        <ele>61</ele>
        <time>2021-08-09T15:35:18.000Z</time>
      </trkpt>
      <trkpt lat="47.13539" lon="-1.73416">
        <ele>61</ele>
        <time>2021-08-09T15:35:20.000Z</time>
      </trkpt>
      <trkpt lat="47.13544" lon="-1.73434">
        <ele>61</ele>
        <time>2021-08-09T15:35:22.000Z</time>
      </trkpt>
      <trkpt lat="47.13549" lon="-1.7345">
        <ele>61</ele>
        <time>2021-08-09T15:35:24.000Z</time>
      </trkpt>
      <trkpt lat="47.13555" lon="-1.73469">
        <ele>62</ele>
        <time>2021-08-09T15:35:26.000Z</time>
      </trkpt>
      <trkpt lat="47.1356" lon="-1.73487">
        <ele>62</ele>
        <time>2021-08-09T15:35:28.000Z</time>
      </trkpt>
      <trkpt lat="47.13568" lon="-1.73515">
        <ele>62</ele>
        <time>2021-08-09T15:35:31.000Z</time>
      </trkpt>
      <trkpt lat="47.13573" lon="-1.73534">
        <ele>62</ele>
        <time>2021-08-09T15:35:33.000Z</time>
      </trkpt>
      <trkpt lat="47.13579" lon="-1.73553">
        <ele>62</ele>
        <time>2021-08-09T15:35:35.000Z</time>
      </trkpt>
      <trkpt lat="47.13585" lon="-1.73571">
        <ele>62</ele>
        <time>2021-08-09T15:35:37.000Z</time>
      </trkpt>
      <trkpt lat="47.13591" lon="-1.73588">
        <ele>62</ele>
        <time>2021-08-09T15:35:39.000Z</time>
      </trkpt>
      <trkpt lat="47.13598" lon="-1.73605">
        <ele>62</ele>
        <time>2021-08-09T15:35:41.000Z</time>
      </trkpt>
      <trkpt lat="47.13604" lon="-1.73623">
        <ele>62</ele>
        <time>2021-08-09T15:35:43.000Z</time>
      </trkpt>
      <trkpt lat="47.1361" lon="-1.73641">
        <ele>62</ele>
        <time>2021-08-09T15:35:45.000Z</time>
      </trkpt>
      <trkpt lat="47.13616" lon="-1.73659">
        <ele>61</ele>
        <time>2021-08-09T15:35:47.000Z</time>
      </trkpt>
      <trkpt lat="47.13623" lon="-1.73677">
        <ele>61</ele>
        <time>2021-08-09T15:35:49.000Z</time>
      </trkpt>
      <trkpt lat="47.13628" lon="-1.73696">
        <ele>60</ele>
        <time>2021-08-09T15:35:51.000Z</time>
      </trkpt>
      <trkpt lat="47.13632" lon="-1.73714">
        <ele>61</ele>
        <time>2021-08-09T15:35:53.000Z</time>
      </trkpt>
      <trkpt lat="47.13635" lon="-1.73734">
        <ele>61</ele>
        <time>2021-08-09T15:35:55.000Z</time>
      </trkpt>
      <trkpt lat="47.13636" lon="-1.73754">
        <ele>62</ele>
        <time>2021-08-09T15:35:57.000Z</time>
      </trkpt>
      <trkpt lat="47.13637" lon="-1.73776">
        <ele>61</ele>
        <time>2021-08-09T15:35:59.000Z</time>
      </trkpt>
      <trkpt lat="47.13639" lon="-1.738">
        <ele>60</ele>
        <time>2021-08-09T15:36:01.000Z</time>
      </trkpt>
      <trkpt lat="47.13641" lon="-1.73823">
        <ele>60</ele>
        <time>2021-08-09T15:36:03.000Z</time>
      </trkpt>
      <trkpt lat="47.13642" lon="-1.73846">
        <ele>60</ele>
        <time>2021-08-09T15:36:05.000Z</time>
      </trkpt>
      <trkpt lat="47.13644" lon="-1.73868">
        <ele>59</ele>
        <time>2021-08-09T15:36:07.000Z</time>
      </trkpt>
      <trkpt lat="47.13646" lon="-1.73889">
        <ele>58</ele>
        <time>2021-08-09T15:36:09.000Z</time>
      </trkpt>
      <trkpt lat="47.13646" lon="-1.73908">
        <ele>59</ele>
        <time>2021-08-09T15:36:11.000Z</time>
      </trkpt>
      <trkpt lat="47.13647" lon="-1.73928">
        <ele>59</ele>
        <time>2021-08-09T15:36:13.000Z</time>
      </trkpt>
      <trkpt lat="47.13648" lon="-1.73947">
        <ele>60</ele>
        <time>2021-08-09T15:36:15.000Z</time>
      </trkpt>
      <trkpt lat="47.13649" lon="-1.73967">
        <ele>60</ele>
        <time>2021-08-09T15:36:17.000Z</time>
      </trkpt>
      <trkpt lat="47.13648" lon="-1.73986">
        <ele>61</ele>
        <time>2021-08-09T15:36:19.000Z</time>
      </trkpt>
      <trkpt lat="47.13647" lon="-1.74006">
        <ele>61</ele>
        <time>2021-08-09T15:36:21.000Z</time>
      </trkpt>
      <trkpt lat="47.13645" lon="-1.74025">
        <ele>62</ele>
        <time>2021-08-09T15:36:23.000Z</time>
      </trkpt>
      <trkpt lat="47.13643" lon="-1.74045">
        <ele>62</ele>
        <time>2021-08-09T15:36:25.000Z</time>
      </trkpt>
      <trkpt lat="47.13642" lon="-1.74064">
        <ele>63</ele>
        <time>2021-08-09T15:36:27.000Z</time>
      </trkpt>
      <trkpt lat="47.13642" lon="-1.74083">
        <ele>63</ele>
        <time>2021-08-09T15:36:29.000Z</time>
      </trkpt>
      <trkpt lat="47.13642" lon="-1.74102">
        <ele>64</ele>
        <time>2021-08-09T15:36:31.000Z</time>
      </trkpt>
      <trkpt lat="47.13643" lon="-1.7412">
        <ele>64</ele>
        <time>2021-08-09T15:36:33.000Z</time>
      </trkpt>
      <trkpt lat="47.13646" lon="-1.74138">
        <ele>64</ele>
        <time>2021-08-09T15:36:35.000Z</time>
      </trkpt>
      <trkpt lat="47.13649" lon="-1.74156">
        <ele>64</ele>
        <time>2021-08-09T15:36:37.000Z</time>
      </trkpt>
      <trkpt lat="47.13653" lon="-1.74173">
        <ele>64</ele>
        <time>2021-08-09T15:36:39.000Z</time>
      </trkpt>
      <trkpt lat="47.13657" lon="-1.74191">
        <ele>64</ele>
        <time>2021-08-09T15:36:41.000Z</time>
      </trkpt>
      <trkpt lat="47.13662" lon="-1.74208">
        <ele>64</ele>
        <time>2021-08-09T15:36:43.000Z</time>
      </trkpt>
      <trkpt lat="47.13666" lon="-1.74226">
        <ele>64</ele>
        <time>2021-08-09T15:36:45.000Z</time>
      </trkpt>
      <trkpt lat="47.1367" lon="-1.74245">
        <ele>64</ele>
        <time>2021-08-09T15:36:47.000Z</time>
      </trkpt>
      <trkpt lat="47.13676" lon="-1.74262">
        <ele>63</ele>
        <time>2021-08-09T15:36:49.000Z</time>
      </trkpt>
      <trkpt lat="47.13681" lon="-1.74281">
        <ele>63</ele>
        <time>2021-08-09T15:36:51.000Z</time>
      </trkpt>
      <trkpt lat="47.13688" lon="-1.74299">
        <ele>62</ele>
        <time>2021-08-09T15:36:53.000Z</time>
      </trkpt>
      <trkpt lat="47.13693" lon="-1.74318">
        <ele>62</ele>
        <time>2021-08-09T15:36:55.000Z</time>
      </trkpt>
      <trkpt lat="47.13695" lon="-1.7434">
        <ele>61</ele>
        <time>2021-08-09T15:36:57.000Z</time>
      </trkpt>
      <trkpt lat="47.13696" lon="-1.74363">
        <ele>60</ele>
        <time>2021-08-09T15:36:59.000Z</time>
      </trkpt>
      <trkpt lat="47.13696" lon="-1.74387">
        <ele>59</ele>
        <time>2021-08-09T15:37:01.000Z</time>
      </trkpt>
      <trkpt lat="47.13697" lon="-1.74411">
        <ele>58</ele>
        <time>2021-08-09T15:37:03.000Z</time>
      </trkpt>
      <trkpt lat="47.13697" lon="-1.74436">
        <ele>58</ele>
        <time>2021-08-09T15:37:05.000Z</time>
      </trkpt>
      <trkpt lat="47.13693" lon="-1.74459">
        <ele>57</ele>
        <time>2021-08-09T15:37:07.000Z</time>
      </trkpt>
      <trkpt lat="47.1368" lon="-1.74476">
        <ele>56</ele>
        <time>2021-08-09T15:37:09.000Z</time>
      </trkpt>
      <trkpt lat="47.13665" lon="-1.74489">
        <ele>56</ele>
        <time>2021-08-09T15:37:11.000Z</time>
      </trkpt>
      <trkpt lat="47.13652" lon="-1.74502">
        <ele>56</ele>
        <time>2021-08-09T15:37:13.000Z</time>
      </trkpt>
      <trkpt lat="47.1364" lon="-1.74515">
        <ele>55</ele>
        <time>2021-08-09T15:37:15.000Z</time>
      </trkpt>
      <trkpt lat="47.13628" lon="-1.74525">
        <ele>55</ele>
        <time>2021-08-09T15:37:17.000Z</time>
      </trkpt>
      <trkpt lat="47.13617" lon="-1.74537">
        <ele>55</ele>
        <time>2021-08-09T15:37:19.000Z</time>
      </trkpt>
      <trkpt lat="47.13605" lon="-1.7455">
        <ele>54</ele>
        <time>2021-08-09T15:37:21.000Z</time>
      </trkpt>
      <trkpt lat="47.13593" lon="-1.74563">
        <ele>53</ele>
        <time>2021-08-09T15:37:23.000Z</time>
      </trkpt>
      <trkpt lat="47.13579" lon="-1.74576">
        <ele>52</ele>
        <time>2021-08-09T15:37:25.000Z</time>
      </trkpt>
      <trkpt lat="47.13565" lon="-1.74589">
        <ele>52</ele>
        <time>2021-08-09T15:37:27.000Z</time>
      </trkpt>
      <trkpt lat="47.13552" lon="-1.74602">
        <ele>51</ele>
        <time>2021-08-09T15:37:29.000Z</time>
      </trkpt>
      <trkpt lat="47.1354" lon="-1.74614">
        <ele>51</ele>
        <time>2021-08-09T15:37:31.000Z</time>
      </trkpt>
      <trkpt lat="47.13527" lon="-1.74627">
        <ele>51</ele>
        <time>2021-08-09T15:37:33.000Z</time>
      </trkpt>
      <trkpt lat="47.13515" lon="-1.74638">
        <ele>52</ele>
        <time>2021-08-09T15:37:35.000Z</time>
      </trkpt>
      <trkpt lat="47.13505" lon="-1.74649">
        <ele>53</ele>
        <time>2021-08-09T15:37:37.000Z</time>
      </trkpt>
      <trkpt lat="47.13497" lon="-1.74662">
        <ele>54</ele>
        <time>2021-08-09T15:37:39.000Z</time>
      </trkpt>
      <trkpt lat="47.13491" lon="-1.74676">
        <ele>54</ele>
        <time>2021-08-09T15:37:41.000Z</time>
      </trkpt>
      <trkpt lat="47.13486" lon="-1.7469">
        <ele>55</ele>
        <time>2021-08-09T15:37:43.000Z</time>
      </trkpt>
      <trkpt lat="47.13483" lon="-1.74704">
        <ele>56</ele>
        <time>2021-08-09T15:37:45.000Z</time>
      </trkpt>
      <trkpt lat="47.13477" lon="-1.74718">
        <ele>57</ele>
        <time>2021-08-09T15:37:47.000Z</time>
      </trkpt>
      <trkpt lat="47.1347" lon="-1.74729">
        <ele>57</ele>
        <time>2021-08-09T15:37:49.000Z</time>
      </trkpt>
      <trkpt lat="47.13462" lon="-1.74738">
        <ele>58</ele>
        <time>2021-08-09T15:37:51.000Z</time>
      </trkpt>
      <trkpt lat="47.13453" lon="-1.74747">
        <ele>58</ele>
        <time>2021-08-09T15:37:53.000Z</time>
      </trkpt>
      <trkpt lat="47.13443" lon="-1.74753">
        <ele>58</ele>
        <time>2021-08-09T15:37:55.000Z</time>
      </trkpt>
      <trkpt lat="47.13433" lon="-1.7476">
        <ele>58</ele>
        <time>2021-08-09T15:37:57.000Z</time>
      </trkpt>
      <trkpt lat="47.13424" lon="-1.74766">
        <ele>58</ele>
        <time>2021-08-09T15:37:59.000Z</time>
      </trkpt>
      <trkpt lat="47.13416" lon="-1.74774">
        <ele>59</ele>
        <time>2021-08-09T15:38:01.000Z</time>
      </trkpt>
      <trkpt lat="47.13407" lon="-1.74785">
        <ele>58</ele>
        <time>2021-08-09T15:38:03.000Z</time>
      </trkpt>
      <trkpt lat="47.13397" lon="-1.74796">
        <ele>59</ele>
        <time>2021-08-09T15:38:05.000Z</time>
      </trkpt>
      <trkpt lat="47.13389" lon="-1.74808">
        <ele>59</ele>
        <time>2021-08-09T15:38:07.000Z</time>
      </trkpt>
      <trkpt lat="47.13383" lon="-1.74823">
        <ele>59</ele>
        <time>2021-08-09T15:38:09.000Z</time>
      </trkpt>
      <trkpt lat="47.13379" lon="-1.74837">
        <ele>60</ele>
        <time>2021-08-09T15:38:11.000Z</time>
      </trkpt>
      <trkpt lat="47.13376" lon="-1.74853">
        <ele>61</ele>
        <time>2021-08-09T15:38:13.000Z</time>
      </trkpt>
      <trkpt lat="47.13372" lon="-1.74869">
        <ele>61</ele>
        <time>2021-08-09T15:38:15.000Z</time>
      </trkpt>
      <trkpt lat="47.13368" lon="-1.74885">
        <ele>62</ele>
        <time>2021-08-09T15:38:17.000Z</time>
      </trkpt>
      <trkpt lat="47.13363" lon="-1.749">
        <ele>63</ele>
        <time>2021-08-09T15:38:19.000Z</time>
      </trkpt>
      <trkpt lat="47.13358" lon="-1.74915">
        <ele>63</ele>
        <time>2021-08-09T15:38:21.000Z</time>
      </trkpt>
      <trkpt lat="47.13352" lon="-1.74929">
        <ele>63</ele>
        <time>2021-08-09T15:38:23.000Z</time>
      </trkpt>
      <trkpt lat="47.13345" lon="-1.74942">
        <ele>63</ele>
        <time>2021-08-09T15:38:25.000Z</time>
      </trkpt>
      <trkpt lat="47.13339" lon="-1.74955">
        <ele>63</ele>
        <time>2021-08-09T15:38:27.000Z</time>
      </trkpt>
      <trkpt lat="47.13333" lon="-1.74967">
        <ele>63</ele>
        <time>2021-08-09T15:38:29.000Z</time>
      </trkpt>
      <trkpt lat="47.13326" lon="-1.74979">
        <ele>63</ele>
        <time>2021-08-09T15:38:31.000Z</time>
      </trkpt>
      <trkpt lat="47.13319" lon="-1.74991">
        <ele>63</ele>
        <time>2021-08-09T15:38:33.000Z</time>
      </trkpt>
      <trkpt lat="47.1331" lon="-1.75">
        <ele>64</ele>
        <time>2021-08-09T15:38:35.000Z</time>
      </trkpt>
      <trkpt lat="47.13301" lon="-1.75009">
        <ele>64</ele>
        <time>2021-08-09T15:38:37.000Z</time>
      </trkpt>
      <trkpt lat="47.13292" lon="-1.75017">
        <ele>65</ele>
        <time>2021-08-09T15:38:39.000Z</time>
      </trkpt>
      <trkpt lat="47.13282" lon="-1.75025">
        <ele>65</ele>
        <time>2021-08-09T15:38:41.000Z</time>
      </trkpt>
      <trkpt lat="47.13271" lon="-1.75034">
        <ele>65</ele>
        <time>2021-08-09T15:38:43.000Z</time>
      </trkpt>
      <trkpt lat="47.13261" lon="-1.75041">
        <ele>66</ele>
        <time>2021-08-09T15:38:45.000Z</time>
      </trkpt>
      <trkpt lat="47.13252" lon="-1.75048">
        <ele>66</ele>
        <time>2021-08-09T15:38:47.000Z</time>
      </trkpt>
      <trkpt lat="47.13242" lon="-1.75057">
        <ele>66</ele>
        <time>2021-08-09T15:38:49.000Z</time>
      </trkpt>
      <trkpt lat="47.13233" lon="-1.75066">
        <ele>66</ele>
        <time>2021-08-09T15:38:51.000Z</time>
      </trkpt>
      <trkpt lat="47.13225" lon="-1.75075">
        <ele>67</ele>
        <time>2021-08-09T15:38:53.000Z</time>
      </trkpt>
      <trkpt lat="47.13217" lon="-1.75085">
        <ele>67</ele>
        <time>2021-08-09T15:38:55.000Z</time>
      </trkpt>
      <trkpt lat="47.1321" lon="-1.75097">
        <ele>67</ele>
        <time>2021-08-09T15:38:57.000Z</time>
      </trkpt>
      <trkpt lat="47.13203" lon="-1.75108">
        <ele>68</ele>
        <time>2021-08-09T15:38:59.000Z</time>
      </trkpt>
      <trkpt lat="47.13196" lon="-1.75119">
        <ele>68</ele>
        <time>2021-08-09T15:39:01.000Z</time>
      </trkpt>
      <trkpt lat="47.13188" lon="-1.75131">
        <ele>68</ele>
        <time>2021-08-09T15:39:03.000Z</time>
      </trkpt>
      <trkpt lat="47.13182" lon="-1.75144">
        <ele>68</ele>
        <time>2021-08-09T15:39:05.000Z</time>
      </trkpt>
      <trkpt lat="47.13177" lon="-1.75158">
        <ele>69</ele>
        <time>2021-08-09T15:39:07.000Z</time>
      </trkpt>
      <trkpt lat="47.13172" lon="-1.75172">
        <ele>69</ele>
        <time>2021-08-09T15:39:09.000Z</time>
      </trkpt>
      <trkpt lat="47.13167" lon="-1.75186">
        <ele>70</ele>
        <time>2021-08-09T15:39:11.000Z</time>
      </trkpt>
      <trkpt lat="47.13162" lon="-1.75201">
        <ele>70</ele>
        <time>2021-08-09T15:39:13.000Z</time>
      </trkpt>
      <trkpt lat="47.13159" lon="-1.75216">
        <ele>70</ele>
        <time>2021-08-09T15:39:15.000Z</time>
      </trkpt>
      <trkpt lat="47.13156" lon="-1.75231">
        <ele>71</ele>
        <time>2021-08-09T15:39:17.000Z</time>
      </trkpt>
      <trkpt lat="47.13153" lon="-1.75246">
        <ele>71</ele>
        <time>2021-08-09T15:39:19.000Z</time>
      </trkpt>
      <trkpt lat="47.13151" lon="-1.75264">
        <ele>72</ele>
        <time>2021-08-09T15:39:22.000Z</time>
      </trkpt>
      <trkpt lat="47.13151" lon="-1.75278">
        <ele>72</ele>
        <time>2021-08-09T15:39:24.000Z</time>
      </trkpt>
      <trkpt lat="47.1315" lon="-1.75294">
        <ele>72</ele>
        <time>2021-08-09T15:39:26.000Z</time>
      </trkpt>
      <trkpt lat="47.13144" lon="-1.7531">
        <ele>72</ele>
        <time>2021-08-09T15:39:28.000Z</time>
      </trkpt>
      <trkpt lat="47.13139" lon="-1.75324">
        <ele>72</ele>
        <time>2021-08-09T15:39:30.000Z</time>
      </trkpt>
      <trkpt lat="47.13135" lon="-1.7534">
        <ele>73</ele>
        <time>2021-08-09T15:39:32.000Z</time>
      </trkpt>
      <trkpt lat="47.13132" lon="-1.75356">
        <ele>73</ele>
        <time>2021-08-09T15:39:34.000Z</time>
      </trkpt>
      <trkpt lat="47.13129" lon="-1.75371">
        <ele>74</ele>
        <time>2021-08-09T15:39:36.000Z</time>
      </trkpt>
      <trkpt lat="47.13126" lon="-1.75386">
        <ele>75</ele>
        <time>2021-08-09T15:39:38.000Z</time>
      </trkpt>
      <trkpt lat="47.13122" lon="-1.75401">
        <ele>75</ele>
        <time>2021-08-09T15:39:40.000Z</time>
      </trkpt>
      <trkpt lat="47.13118" lon="-1.75414">
        <ele>76</ele>
        <time>2021-08-09T15:39:42.000Z</time>
      </trkpt>
      <trkpt lat="47.13117" lon="-1.75429">
        <ele>76</ele>
        <time>2021-08-09T15:39:44.000Z</time>
      </trkpt>
      <trkpt lat="47.13115" lon="-1.75445">
        <ele>77</ele>
        <time>2021-08-09T15:39:46.000Z</time>
      </trkpt>
      <trkpt lat="47.13111" lon="-1.7546">
        <ele>77</ele>
        <time>2021-08-09T15:39:48.000Z</time>
      </trkpt>
      <trkpt lat="47.1311" lon="-1.75478">
        <ele>76</ele>
        <time>2021-08-09T15:39:50.000Z</time>
      </trkpt>
      <trkpt lat="47.13109" lon="-1.75495">
        <ele>77</ele>
        <time>2021-08-09T15:39:52.000Z</time>
      </trkpt>
      <trkpt lat="47.13107" lon="-1.75511">
        <ele>78</ele>
        <time>2021-08-09T15:39:54.000Z</time>
      </trkpt>
      <trkpt lat="47.13104" lon="-1.75527">
        <ele>79</ele>
        <time>2021-08-09T15:39:56.000Z</time>
      </trkpt>
      <trkpt lat="47.13101" lon="-1.75543">
        <ele>79</ele>
        <time>2021-08-09T15:39:58.000Z</time>
      </trkpt>
      <trkpt lat="47.13098" lon="-1.75559">
        <ele>79</ele>
        <time>2021-08-09T15:40:00.000Z</time>
      </trkpt>
      <trkpt lat="47.13095" lon="-1.75575">
        <ele>79</ele>
        <time>2021-08-09T15:40:02.000Z</time>
      </trkpt>
      <trkpt lat="47.13092" lon="-1.75591">
        <ele>80</ele>
        <time>2021-08-09T15:40:04.000Z</time>
      </trkpt>
      <trkpt lat="47.13089" lon="-1.75607">
        <ele>79</ele>
        <time>2021-08-09T15:40:06.000Z</time>
      </trkpt>
      <trkpt lat="47.13086" lon="-1.75623">
        <ele>79</ele>
        <time>2021-08-09T15:40:08.000Z</time>
      </trkpt>
      <trkpt lat="47.13084" lon="-1.7564">
        <ele>79</ele>
        <time>2021-08-09T15:40:10.000Z</time>
      </trkpt>
      <trkpt lat="47.1308" lon="-1.75657">
        <ele>79</ele>
        <time>2021-08-09T15:40:12.000Z</time>
      </trkpt>
      <trkpt lat="47.13077" lon="-1.75674">
        <ele>79</ele>
        <time>2021-08-09T15:40:14.000Z</time>
      </trkpt>
      <trkpt lat="47.13074" lon="-1.75691">
        <ele>79</ele>
        <time>2021-08-09T15:40:16.000Z</time>
      </trkpt>
      <trkpt lat="47.1307" lon="-1.75706">
        <ele>80</ele>
        <time>2021-08-09T15:40:18.000Z</time>
      </trkpt>
      <trkpt lat="47.13065" lon="-1.75721">
        <ele>79</ele>
        <time>2021-08-09T15:40:20.000Z</time>
      </trkpt>
      <trkpt lat="47.13059" lon="-1.75735">
        <ele>79</ele>
        <time>2021-08-09T15:40:22.000Z</time>
      </trkpt>
      <trkpt lat="47.13052" lon="-1.75748">
        <ele>80</ele>
        <time>2021-08-09T15:40:24.000Z</time>
      </trkpt>
      <trkpt lat="47.13045" lon="-1.7576">
        <ele>80</ele>
        <time>2021-08-09T15:40:26.000Z</time>
      </trkpt>
      <trkpt lat="47.13037" lon="-1.75772">
        <ele>80</ele>
        <time>2021-08-09T15:40:28.000Z</time>
      </trkpt>
      <trkpt lat="47.13029" lon="-1.75784">
        <ele>79</ele>
        <time>2021-08-09T15:40:30.000Z</time>
      </trkpt>
      <trkpt lat="47.13021" lon="-1.75796">
        <ele>79</ele>
        <time>2021-08-09T15:40:32.000Z</time>
      </trkpt>
      <trkpt lat="47.13014" lon="-1.75809">
        <ele>79</ele>
        <time>2021-08-09T15:40:34.000Z</time>
      </trkpt>
      <trkpt lat="47.13009" lon="-1.75824">
        <ele>79</ele>
        <time>2021-08-09T15:40:36.000Z</time>
      </trkpt>
      <trkpt lat="47.13009" lon="-1.75842">
        <ele>79</ele>
        <time>2021-08-09T15:40:38.000Z</time>
      </trkpt>
      <trkpt lat="47.13011" lon="-1.7586">
        <ele>79</ele>
        <time>2021-08-09T15:40:40.000Z</time>
      </trkpt>
      <trkpt lat="47.13011" lon="-1.75877">
        <ele>79</ele>
        <time>2021-08-09T15:40:42.000Z</time>
      </trkpt>
      <trkpt lat="47.13009" lon="-1.75893">
        <ele>80</ele>
        <time>2021-08-09T15:40:44.000Z</time>
      </trkpt>
      <trkpt lat="47.13005" lon="-1.75909">
        <ele>80</ele>
        <time>2021-08-09T15:40:46.000Z</time>
      </trkpt>
      <trkpt lat="47.13001" lon="-1.75924">
        <ele>81</ele>
        <time>2021-08-09T15:40:48.000Z</time>
      </trkpt>
      <trkpt lat="47.12998" lon="-1.7594">
        <ele>81</ele>
        <time>2021-08-09T15:40:50.000Z</time>
      </trkpt>
      <trkpt lat="47.12996" lon="-1.75956">
        <ele>81</ele>
        <time>2021-08-09T15:40:52.000Z</time>
      </trkpt>
      <trkpt lat="47.12993" lon="-1.75972">
        <ele>81</ele>
        <time>2021-08-09T15:40:54.000Z</time>
      </trkpt>
      <trkpt lat="47.1299" lon="-1.75989">
        <ele>82</ele>
        <time>2021-08-09T15:40:56.000Z</time>
      </trkpt>
      <trkpt lat="47.12989" lon="-1.76005">
        <ele>82</ele>
        <time>2021-08-09T15:40:58.000Z</time>
      </trkpt>
      <trkpt lat="47.12987" lon="-1.76021">
        <ele>82</ele>
        <time>2021-08-09T15:41:00.000Z</time>
      </trkpt>
      <trkpt lat="47.12986" lon="-1.76038">
        <ele>82</ele>
        <time>2021-08-09T15:41:02.000Z</time>
      </trkpt>
      <trkpt lat="47.12986" lon="-1.76054">
        <ele>82</ele>
        <time>2021-08-09T15:41:04.000Z</time>
      </trkpt>
      <trkpt lat="47.12986" lon="-1.76071">
        <ele>82</ele>
        <time>2021-08-09T15:41:06.000Z</time>
      </trkpt>
      <trkpt lat="47.12986" lon="-1.76087">
        <ele>82</ele>
        <time>2021-08-09T15:41:08.000Z</time>
      </trkpt>
      <trkpt lat="47.12988" lon="-1.76102">
        <ele>83</ele>
        <time>2021-08-09T15:41:10.000Z</time>
      </trkpt>
      <trkpt lat="47.1299" lon="-1.76118">
        <ele>83</ele>
        <time>2021-08-09T15:41:12.000Z</time>
      </trkpt>
      <trkpt lat="47.12994" lon="-1.76133">
        <ele>83</ele>
        <time>2021-08-09T15:41:14.000Z</time>
      </trkpt>
      <trkpt lat="47.12997" lon="-1.76148">
        <ele>83</ele>
        <time>2021-08-09T15:41:16.000Z</time>
      </trkpt>
      <trkpt lat="47.13001" lon="-1.76163">
        <ele>83</ele>
        <time>2021-08-09T15:41:18.000Z</time>
      </trkpt>
      <trkpt lat="47.13005" lon="-1.76178">
        <ele>83</ele>
        <time>2021-08-09T15:41:20.000Z</time>
      </trkpt>
      <trkpt lat="47.13009" lon="-1.76194">
        <ele>83</ele>
        <time>2021-08-09T15:41:22.000Z</time>
      </trkpt>
      <trkpt lat="47.13014" lon="-1.7621">
        <ele>83</ele>
        <time>2021-08-09T15:41:24.000Z</time>
      </trkpt>
      <trkpt lat="47.13018" lon="-1.76226">
        <ele>83</ele>
        <time>2021-08-09T15:41:26.000Z</time>
      </trkpt>
      <trkpt lat="47.13022" lon="-1.76242">
        <ele>83</ele>
        <time>2021-08-09T15:41:28.000Z</time>
      </trkpt>
      <trkpt lat="47.13025" lon="-1.76258">
        <ele>83</ele>
        <time>2021-08-09T15:41:30.000Z</time>
      </trkpt>
      <trkpt lat="47.13029" lon="-1.76274">
        <ele>82</ele>
        <time>2021-08-09T15:41:32.000Z</time>
      </trkpt>
      <trkpt lat="47.13032" lon="-1.76291">
        <ele>82</ele>
        <time>2021-08-09T15:41:34.000Z</time>
      </trkpt>
      <trkpt lat="47.13035" lon="-1.76307">
        <ele>82</ele>
        <time>2021-08-09T15:41:36.000Z</time>
      </trkpt>
      <trkpt lat="47.13038" lon="-1.76324">
        <ele>82</ele>
        <time>2021-08-09T15:41:38.000Z</time>
      </trkpt>
      <trkpt lat="47.13042" lon="-1.7634">
        <ele>82</ele>
        <time>2021-08-09T15:41:40.000Z</time>
      </trkpt>
      <trkpt lat="47.13045" lon="-1.76357">
        <ele>82</ele>
        <time>2021-08-09T15:41:42.000Z</time>
      </trkpt>
      <trkpt lat="47.13048" lon="-1.76374">
        <ele>81</ele>
        <time>2021-08-09T15:41:44.000Z</time>
      </trkpt>
      <trkpt lat="47.1305" lon="-1.7639">
        <ele>82</ele>
        <time>2021-08-09T15:41:46.000Z</time>
      </trkpt>
      <trkpt lat="47.13052" lon="-1.76406">
        <ele>82</ele>
        <time>2021-08-09T15:41:48.000Z</time>
      </trkpt>
      <trkpt lat="47.13053" lon="-1.76423">
        <ele>82</ele>
        <time>2021-08-09T15:41:50.000Z</time>
      </trkpt>
      <trkpt lat="47.13055" lon="-1.7644">
        <ele>82</ele>
        <time>2021-08-09T15:41:52.000Z</time>
      </trkpt>
      <trkpt lat="47.13055" lon="-1.76457">
        <ele>81</ele>
        <time>2021-08-09T15:41:54.000Z</time>
      </trkpt>
      <trkpt lat="47.13057" lon="-1.76475">
        <ele>81</ele>
        <time>2021-08-09T15:41:56.000Z</time>
      </trkpt>
      <trkpt lat="47.13058" lon="-1.76492">
        <ele>81</ele>
        <time>2021-08-09T15:41:58.000Z</time>
      </trkpt>
      <trkpt lat="47.13059" lon="-1.76509">
        <ele>81</ele>
        <time>2021-08-09T15:42:00.000Z</time>
      </trkpt>
      <trkpt lat="47.13059" lon="-1.76527">
        <ele>80</ele>
        <time>2021-08-09T15:42:02.000Z</time>
      </trkpt>
      <trkpt lat="47.1306" lon="-1.76544">
        <ele>81</ele>
        <time>2021-08-09T15:42:04.000Z</time>
      </trkpt>
      <trkpt lat="47.13062" lon="-1.76561">
        <ele>81</ele>
        <time>2021-08-09T15:42:06.000Z</time>
      </trkpt>
      <trkpt lat="47.13063" lon="-1.76578">
        <ele>81</ele>
        <time>2021-08-09T15:42:08.000Z</time>
      </trkpt>
      <trkpt lat="47.13064" lon="-1.76594">
        <ele>81</ele>
        <time>2021-08-09T15:42:10.000Z</time>
      </trkpt>
      <trkpt lat="47.13065" lon="-1.76611">
        <ele>81</ele>
        <time>2021-08-09T15:42:12.000Z</time>
      </trkpt>
      <trkpt lat="47.13066" lon="-1.76627">
        <ele>81</ele>
        <time>2021-08-09T15:42:14.000Z</time>
      </trkpt>
      <trkpt lat="47.13069" lon="-1.76644">
        <ele>81</ele>
        <time>2021-08-09T15:42:16.000Z</time>
      </trkpt>
      <trkpt lat="47.13071" lon="-1.76659">
        <ele>82</ele>
        <time>2021-08-09T15:42:18.000Z</time>
      </trkpt>
      <trkpt lat="47.13073" lon="-1.76676">
        <ele>82</ele>
        <time>2021-08-09T15:42:20.000Z</time>
      </trkpt>
      <trkpt lat="47.13072" lon="-1.76694">
        <ele>82</ele>
        <time>2021-08-09T15:42:22.000Z</time>
      </trkpt>
      <trkpt lat="47.13069" lon="-1.76711">
        <ele>82</ele>
        <time>2021-08-09T15:42:24.000Z</time>
      </trkpt>
      <trkpt lat="47.13067" lon="-1.76728">
        <ele>82</ele>
        <time>2021-08-09T15:42:26.000Z</time>
      </trkpt>
      <trkpt lat="47.13065" lon="-1.76745">
        <ele>82</ele>
        <time>2021-08-09T15:42:28.000Z</time>
      </trkpt>
      <trkpt lat="47.13063" lon="-1.76762">
        <ele>82</ele>
        <time>2021-08-09T15:42:30.000Z</time>
      </trkpt>
      <trkpt lat="47.13061" lon="-1.7678">
        <ele>82</ele>
        <time>2021-08-09T15:42:32.000Z</time>
      </trkpt>
      <trkpt lat="47.13059" lon="-1.76797">
        <ele>82</ele>
        <time>2021-08-09T15:42:34.000Z</time>
      </trkpt>
      <trkpt lat="47.13057" lon="-1.76814">
        <ele>82</ele>
        <time>2021-08-09T15:42:36.000Z</time>
      </trkpt>
      <trkpt lat="47.13055" lon="-1.76831">
        <ele>82</ele>
        <time>2021-08-09T15:42:38.000Z</time>
      </trkpt>
      <trkpt lat="47.13053" lon="-1.76848">
        <ele>82</ele>
        <time>2021-08-09T15:42:40.000Z</time>
      </trkpt>
      <trkpt lat="47.13051" lon="-1.76865">
        <ele>83</ele>
        <time>2021-08-09T15:42:42.000Z</time>
      </trkpt>
      <trkpt lat="47.13049" lon="-1.76883">
        <ele>83</ele>
        <time>2021-08-09T15:42:44.000Z</time>
      </trkpt>
      <trkpt lat="47.13047" lon="-1.769">
        <ele>83</ele>
        <time>2021-08-09T15:42:46.000Z</time>
      </trkpt>
      <trkpt lat="47.13046" lon="-1.76917">
        <ele>83</ele>
        <time>2021-08-09T15:42:48.000Z</time>
      </trkpt>
      <trkpt lat="47.13044" lon="-1.76934">
        <ele>83</ele>
        <time>2021-08-09T15:42:50.000Z</time>
      </trkpt>
      <trkpt lat="47.13043" lon="-1.76951">
        <ele>83</ele>
        <time>2021-08-09T15:42:52.000Z</time>
      </trkpt>
      <trkpt lat="47.13043" lon="-1.76968">
        <ele>83</ele>
        <time>2021-08-09T15:42:54.000Z</time>
      </trkpt>
      <trkpt lat="47.13042" lon="-1.76986">
        <ele>84</ele>
        <time>2021-08-09T15:42:56.000Z</time>
      </trkpt>
      <trkpt lat="47.13041" lon="-1.77003">
        <ele>84</ele>
        <time>2021-08-09T15:42:58.000Z</time>
      </trkpt>
      <trkpt lat="47.1304" lon="-1.77019">
        <ele>84</ele>
        <time>2021-08-09T15:43:00.000Z</time>
      </trkpt>
      <trkpt lat="47.13039" lon="-1.77036">
        <ele>84</ele>
        <time>2021-08-09T15:43:02.000Z</time>
      </trkpt>
      <trkpt lat="47.13037" lon="-1.77054">
        <ele>84</ele>
        <time>2021-08-09T15:43:04.000Z</time>
      </trkpt>
      <trkpt lat="47.13036" lon="-1.77071">
        <ele>84</ele>
        <time>2021-08-09T15:43:06.000Z</time>
      </trkpt>
      <trkpt lat="47.13034" lon="-1.77087">
        <ele>85</ele>
        <time>2021-08-09T15:43:08.000Z</time>
      </trkpt>
      <trkpt lat="47.13032" lon="-1.77104">
        <ele>85</ele>
        <time>2021-08-09T15:43:10.000Z</time>
      </trkpt>
      <trkpt lat="47.13029" lon="-1.77121">
        <ele>84</ele>
        <time>2021-08-09T15:43:12.000Z</time>
      </trkpt>
      <trkpt lat="47.13027" lon="-1.77138">
        <ele>84</ele>
        <time>2021-08-09T15:43:14.000Z</time>
      </trkpt>
      <trkpt lat="47.13025" lon="-1.77155">
        <ele>84</ele>
        <time>2021-08-09T15:43:16.000Z</time>
      </trkpt>
      <trkpt lat="47.13021" lon="-1.77172">
        <ele>84</ele>
        <time>2021-08-09T15:43:18.000Z</time>
      </trkpt>
      <trkpt lat="47.13017" lon="-1.77188">
        <ele>84</ele>
        <time>2021-08-09T15:43:20.000Z</time>
      </trkpt>
      <trkpt lat="47.13013" lon="-1.77204">
        <ele>84</ele>
        <time>2021-08-09T15:43:22.000Z</time>
      </trkpt>
      <trkpt lat="47.13009" lon="-1.77221">
        <ele>85</ele>
        <time>2021-08-09T15:43:24.000Z</time>
      </trkpt>
      <trkpt lat="47.13004" lon="-1.77238">
        <ele>85</ele>
        <time>2021-08-09T15:43:26.000Z</time>
      </trkpt>
      <trkpt lat="47.12999" lon="-1.77255">
        <ele>85</ele>
        <time>2021-08-09T15:43:28.000Z</time>
      </trkpt>
      <trkpt lat="47.12994" lon="-1.77272">
        <ele>85</ele>
        <time>2021-08-09T15:43:30.000Z</time>
      </trkpt>
      <trkpt lat="47.12989" lon="-1.77289">
        <ele>85</ele>
        <time>2021-08-09T15:43:32.000Z</time>
      </trkpt>
      <trkpt lat="47.12982" lon="-1.77306">
        <ele>85</ele>
        <time>2021-08-09T15:43:34.000Z</time>
      </trkpt>
      <trkpt lat="47.12976" lon="-1.77323">
        <ele>85</ele>
        <time>2021-08-09T15:43:36.000Z</time>
      </trkpt>
      <trkpt lat="47.12969" lon="-1.7734">
        <ele>85</ele>
        <time>2021-08-09T15:43:38.000Z</time>
      </trkpt>
      <trkpt lat="47.12963" lon="-1.77356">
        <ele>85</ele>
        <time>2021-08-09T15:43:40.000Z</time>
      </trkpt>
      <trkpt lat="47.12956" lon="-1.77373">
        <ele>85</ele>
        <time>2021-08-09T15:43:42.000Z</time>
      </trkpt>
      <trkpt lat="47.1295" lon="-1.77389">
        <ele>85</ele>
        <time>2021-08-09T15:43:44.000Z</time>
      </trkpt>
      <trkpt lat="47.12943" lon="-1.77406">
        <ele>85</ele>
        <time>2021-08-09T15:43:46.000Z</time>
      </trkpt>
      <trkpt lat="47.12935" lon="-1.77423">
        <ele>84</ele>
        <time>2021-08-09T15:43:48.000Z</time>
      </trkpt>
      <trkpt lat="47.12929" lon="-1.77439">
        <ele>84</ele>
        <time>2021-08-09T15:43:50.000Z</time>
      </trkpt>
      <trkpt lat="47.12924" lon="-1.77457">
        <ele>84</ele>
        <time>2021-08-09T15:43:52.000Z</time>
      </trkpt>
      <trkpt lat="47.12919" lon="-1.77474">
        <ele>85</ele>
        <time>2021-08-09T15:43:54.000Z</time>
      </trkpt>
      <trkpt lat="47.12914" lon="-1.77492">
        <ele>85</ele>
        <time>2021-08-09T15:43:56.000Z</time>
      </trkpt>
      <trkpt lat="47.12909" lon="-1.77509">
        <ele>85</ele>
        <time>2021-08-09T15:43:58.000Z</time>
      </trkpt>
      <trkpt lat="47.12905" lon="-1.77527">
        <ele>85</ele>
        <time>2021-08-09T15:44:00.000Z</time>
      </trkpt>
      <trkpt lat="47.12901" lon="-1.77544">
        <ele>86</ele>
        <time>2021-08-09T15:44:02.000Z</time>
      </trkpt>
      <trkpt lat="47.12896" lon="-1.77562">
        <ele>85</ele>
        <time>2021-08-09T15:44:04.000Z</time>
      </trkpt>
      <trkpt lat="47.12891" lon="-1.7758">
        <ele>86</ele>
        <time>2021-08-09T15:44:06.000Z</time>
      </trkpt>
      <trkpt lat="47.12887" lon="-1.77598">
        <ele>86</ele>
        <time>2021-08-09T15:44:08.000Z</time>
      </trkpt>
      <trkpt lat="47.12882" lon="-1.77616">
        <ele>85</ele>
        <time>2021-08-09T15:44:10.000Z</time>
      </trkpt>
      <trkpt lat="47.12878" lon="-1.77634">
        <ele>86</ele>
        <time>2021-08-09T15:44:12.000Z</time>
      </trkpt>
      <trkpt lat="47.12873" lon="-1.77651">
        <ele>86</ele>
        <time>2021-08-09T15:44:14.000Z</time>
      </trkpt>
      <trkpt lat="47.12869" lon="-1.77668">
        <ele>87</ele>
        <time>2021-08-09T15:44:16.000Z</time>
      </trkpt>
      <trkpt lat="47.12867" lon="-1.77686">
        <ele>87</ele>
        <time>2021-08-09T15:44:18.000Z</time>
      </trkpt>
      <trkpt lat="47.12863" lon="-1.77705">
        <ele>87</ele>
        <time>2021-08-09T15:44:20.000Z</time>
      </trkpt>
      <trkpt lat="47.12858" lon="-1.77723">
        <ele>87</ele>
        <time>2021-08-09T15:44:22.000Z</time>
      </trkpt>
      <trkpt lat="47.12853" lon="-1.77742">
        <ele>86</ele>
        <time>2021-08-09T15:44:24.000Z</time>
      </trkpt>
      <trkpt lat="47.12847" lon="-1.77759">
        <ele>86</ele>
        <time>2021-08-09T15:44:26.000Z</time>
      </trkpt>
      <trkpt lat="47.1284" lon="-1.77776">
        <ele>85</ele>
        <time>2021-08-09T15:44:28.000Z</time>
      </trkpt>
      <trkpt lat="47.12833" lon="-1.77794">
        <ele>85</ele>
        <time>2021-08-09T15:44:30.000Z</time>
      </trkpt>
      <trkpt lat="47.12826" lon="-1.77812">
        <ele>85</ele>
        <time>2021-08-09T15:44:32.000Z</time>
      </trkpt>
      <trkpt lat="47.1282" lon="-1.7783">
        <ele>84</ele>
        <time>2021-08-09T15:44:34.000Z</time>
      </trkpt>
      <trkpt lat="47.12812" lon="-1.77848">
        <ele>85</ele>
        <time>2021-08-09T15:44:36.000Z</time>
      </trkpt>
      <trkpt lat="47.12806" lon="-1.77865">
        <ele>85</ele>
        <time>2021-08-09T15:44:38.000Z</time>
      </trkpt>
      <trkpt lat="47.12801" lon="-1.77883">
        <ele>84</ele>
        <time>2021-08-09T15:44:40.000Z</time>
      </trkpt>
      <trkpt lat="47.12796" lon="-1.77901">
        <ele>85</ele>
        <time>2021-08-09T15:44:42.000Z</time>
      </trkpt>
      <trkpt lat="47.1279" lon="-1.77918">
        <ele>85</ele>
        <time>2021-08-09T15:44:44.000Z</time>
      </trkpt>
      <trkpt lat="47.12785" lon="-1.77936">
        <ele>84</ele>
        <time>2021-08-09T15:44:46.000Z</time>
      </trkpt>
      <trkpt lat="47.1278" lon="-1.77954">
        <ele>85</ele>
        <time>2021-08-09T15:44:48.000Z</time>
      </trkpt>
      <trkpt lat="47.12775" lon="-1.77972">
        <ele>85</ele>
        <time>2021-08-09T15:44:50.000Z</time>
      </trkpt>
      <trkpt lat="47.1277" lon="-1.7799">
        <ele>85</ele>
        <time>2021-08-09T15:44:52.000Z</time>
      </trkpt>
      <trkpt lat="47.12765" lon="-1.78007">
        <ele>85</ele>
        <time>2021-08-09T15:44:54.000Z</time>
      </trkpt>
      <trkpt lat="47.12759" lon="-1.78024">
        <ele>84</ele>
        <time>2021-08-09T15:44:56.000Z</time>
      </trkpt>
      <trkpt lat="47.12753" lon="-1.78041">
        <ele>84</ele>
        <time>2021-08-09T15:44:58.000Z</time>
      </trkpt>
      <trkpt lat="47.12745" lon="-1.78055">
        <ele>84</ele>
        <time>2021-08-09T15:45:00.000Z</time>
      </trkpt>
      <trkpt lat="47.12736" lon="-1.78068">
        <ele>84</ele>
        <time>2021-08-09T15:45:02.000Z</time>
      </trkpt>
      <trkpt lat="47.12727" lon="-1.78082">
        <ele>84</ele>
        <time>2021-08-09T15:45:04.000Z</time>
      </trkpt>
      <trkpt lat="47.12717" lon="-1.78096">
        <ele>84</ele>
        <time>2021-08-09T15:45:06.000Z</time>
      </trkpt>
      <trkpt lat="47.12706" lon="-1.78109">
        <ele>84</ele>
        <time>2021-08-09T15:45:08.000Z</time>
      </trkpt>
      <trkpt lat="47.12697" lon="-1.78123">
        <ele>83</ele>
        <time>2021-08-09T15:45:10.000Z</time>
      </trkpt>
      <trkpt lat="47.12687" lon="-1.78136">
        <ele>83</ele>
        <time>2021-08-09T15:45:12.000Z</time>
      </trkpt>
      <trkpt lat="47.12677" lon="-1.7815">
        <ele>83</ele>
        <time>2021-08-09T15:45:14.000Z</time>
      </trkpt>
      <trkpt lat="47.12668" lon="-1.78165">
        <ele>83</ele>
        <time>2021-08-09T15:45:16.000Z</time>
      </trkpt>
      <trkpt lat="47.12657" lon="-1.78178">
        <ele>83</ele>
        <time>2021-08-09T15:45:18.000Z</time>
      </trkpt>
      <trkpt lat="47.12647" lon="-1.78192">
        <ele>82</ele>
        <time>2021-08-09T15:45:20.000Z</time>
      </trkpt>
      <trkpt lat="47.12638" lon="-1.78207">
        <ele>82</ele>
        <time>2021-08-09T15:45:22.000Z</time>
      </trkpt>
      <trkpt lat="47.1263" lon="-1.78222">
        <ele>82</ele>
        <time>2021-08-09T15:45:24.000Z</time>
      </trkpt>
      <trkpt lat="47.12623" lon="-1.78239">
        <ele>82</ele>
        <time>2021-08-09T15:45:26.000Z</time>
      </trkpt>
      <trkpt lat="47.12619" lon="-1.78258">
        <ele>82</ele>
        <time>2021-08-09T15:45:28.000Z</time>
      </trkpt>
      <trkpt lat="47.12616" lon="-1.78276">
        <ele>82</ele>
        <time>2021-08-09T15:45:30.000Z</time>
      </trkpt>
      <trkpt lat="47.12611" lon="-1.78294">
        <ele>82</ele>
        <time>2021-08-09T15:45:32.000Z</time>
      </trkpt>
      <trkpt lat="47.12607" lon="-1.78313">
        <ele>82</ele>
        <time>2021-08-09T15:45:34.000Z</time>
      </trkpt>
      <trkpt lat="47.12603" lon="-1.78331">
        <ele>82</ele>
        <time>2021-08-09T15:45:36.000Z</time>
      </trkpt>
      <trkpt lat="47.12598" lon="-1.78349">
        <ele>82</ele>
        <time>2021-08-09T15:45:38.000Z</time>
      </trkpt>
      <trkpt lat="47.12594" lon="-1.78367">
        <ele>82</ele>
        <time>2021-08-09T15:45:40.000Z</time>
      </trkpt>
      <trkpt lat="47.12591" lon="-1.78385">
        <ele>82</ele>
        <time>2021-08-09T15:45:42.000Z</time>
      </trkpt>
      <trkpt lat="47.12586" lon="-1.78403">
        <ele>82</ele>
        <time>2021-08-09T15:45:44.000Z</time>
      </trkpt>
      <trkpt lat="47.12582" lon="-1.7842">
        <ele>81</ele>
        <time>2021-08-09T15:45:46.000Z</time>
      </trkpt>
      <trkpt lat="47.12578" lon="-1.78438">
        <ele>81</ele>
        <time>2021-08-09T15:45:48.000Z</time>
      </trkpt>
      <trkpt lat="47.12573" lon="-1.78457">
        <ele>81</ele>
        <time>2021-08-09T15:45:50.000Z</time>
      </trkpt>
      <trkpt lat="47.12569" lon="-1.78475">
        <ele>81</ele>
        <time>2021-08-09T15:45:52.000Z</time>
      </trkpt>
      <trkpt lat="47.12565" lon="-1.78494">
        <ele>81</ele>
        <time>2021-08-09T15:45:54.000Z</time>
      </trkpt>
      <trkpt lat="47.1256" lon="-1.78512">
        <ele>81</ele>
        <time>2021-08-09T15:45:56.000Z</time>
      </trkpt>
      <trkpt lat="47.12556" lon="-1.7853">
        <ele>81</ele>
        <time>2021-08-09T15:45:58.000Z</time>
      </trkpt>
      <trkpt lat="47.12552" lon="-1.78549">
        <ele>80</ele>
        <time>2021-08-09T15:46:00.000Z</time>
      </trkpt>
      <trkpt lat="47.12547" lon="-1.78567">
        <ele>81</ele>
        <time>2021-08-09T15:46:02.000Z</time>
      </trkpt>
      <trkpt lat="47.12543" lon="-1.78586">
        <ele>81</ele>
        <time>2021-08-09T15:46:04.000Z</time>
      </trkpt>
      <trkpt lat="47.12538" lon="-1.78605">
        <ele>80</ele>
        <time>2021-08-09T15:46:06.000Z</time>
      </trkpt>
      <trkpt lat="47.12533" lon="-1.78623">
        <ele>80</ele>
        <time>2021-08-09T15:46:08.000Z</time>
      </trkpt>
      <trkpt lat="47.12527" lon="-1.7864">
        <ele>80</ele>
        <time>2021-08-09T15:46:10.000Z</time>
      </trkpt>
      <trkpt lat="47.12521" lon="-1.78658">
        <ele>80</ele>
        <time>2021-08-09T15:46:12.000Z</time>
      </trkpt>
      <trkpt lat="47.12515" lon="-1.78675">
        <ele>80</ele>
        <time>2021-08-09T15:46:14.000Z</time>
      </trkpt>
      <trkpt lat="47.12508" lon="-1.78692">
        <ele>80</ele>
        <time>2021-08-09T15:46:16.000Z</time>
      </trkpt>
      <trkpt lat="47.12502" lon="-1.7871">
        <ele>80</ele>
        <time>2021-08-09T15:46:18.000Z</time>
      </trkpt>
      <trkpt lat="47.12497" lon="-1.78728">
        <ele>80</ele>
        <time>2021-08-09T15:46:20.000Z</time>
      </trkpt>
      <trkpt lat="47.12493" lon="-1.78747">
        <ele>80</ele>
        <time>2021-08-09T15:46:22.000Z</time>
      </trkpt>
      <trkpt lat="47.12488" lon="-1.78765">
        <ele>80</ele>
        <time>2021-08-09T15:46:24.000Z</time>
      </trkpt>
      <trkpt lat="47.12483" lon="-1.78784">
        <ele>80</ele>
        <time>2021-08-09T15:46:26.000Z</time>
      </trkpt>
      <trkpt lat="47.12479" lon="-1.78803">
        <ele>80</ele>
        <time>2021-08-09T15:46:28.000Z</time>
      </trkpt>
      <trkpt lat="47.12475" lon="-1.78822">
        <ele>80</ele>
        <time>2021-08-09T15:46:30.000Z</time>
      </trkpt>
      <trkpt lat="47.12472" lon="-1.78841">
        <ele>79</ele>
        <time>2021-08-09T15:46:32.000Z</time>
      </trkpt>
      <trkpt lat="47.1247" lon="-1.78861">
        <ele>79</ele>
        <time>2021-08-09T15:46:34.000Z</time>
      </trkpt>
      <trkpt lat="47.12469" lon="-1.78881">
        <ele>80</ele>
        <time>2021-08-09T15:46:36.000Z</time>
      </trkpt>
      <trkpt lat="47.12467" lon="-1.78901">
        <ele>79</ele>
        <time>2021-08-09T15:46:38.000Z</time>
      </trkpt>
      <trkpt lat="47.12464" lon="-1.78921">
        <ele>79</ele>
        <time>2021-08-09T15:46:40.000Z</time>
      </trkpt>
      <trkpt lat="47.12461" lon="-1.7894">
        <ele>79</ele>
        <time>2021-08-09T15:46:42.000Z</time>
      </trkpt>
      <trkpt lat="47.12456" lon="-1.78959">
        <ele>79</ele>
        <time>2021-08-09T15:46:44.000Z</time>
      </trkpt>
      <trkpt lat="47.12451" lon="-1.78977">
        <ele>79</ele>
        <time>2021-08-09T15:46:46.000Z</time>
      </trkpt>
      <trkpt lat="47.12446" lon="-1.78995">
        <ele>79</ele>
        <time>2021-08-09T15:46:48.000Z</time>
      </trkpt>
      <trkpt lat="47.12441" lon="-1.79014">
        <ele>79</ele>
        <time>2021-08-09T15:46:50.000Z</time>
      </trkpt>
      <trkpt lat="47.12437" lon="-1.79032">
        <ele>79</ele>
        <time>2021-08-09T15:46:52.000Z</time>
      </trkpt>
      <trkpt lat="47.12433" lon="-1.7905">
        <ele>79</ele>
        <time>2021-08-09T15:46:54.000Z</time>
      </trkpt>
      <trkpt lat="47.12429" lon="-1.79068">
        <ele>79</ele>
        <time>2021-08-09T15:46:56.000Z</time>
      </trkpt>
      <trkpt lat="47.12426" lon="-1.79087">
        <ele>79</ele>
        <time>2021-08-09T15:46:58.000Z</time>
      </trkpt>
      <trkpt lat="47.12423" lon="-1.79106">
        <ele>80</ele>
        <time>2021-08-09T15:47:00.000Z</time>
      </trkpt>
      <trkpt lat="47.1242" lon="-1.79124">
        <ele>80</ele>
        <time>2021-08-09T15:47:02.000Z</time>
      </trkpt>
      <trkpt lat="47.12419" lon="-1.79142">
        <ele>80</ele>
        <time>2021-08-09T15:47:04.000Z</time>
      </trkpt>
      <trkpt lat="47.1242" lon="-1.79162">
        <ele>80</ele>
        <time>2021-08-09T15:47:06.000Z</time>
      </trkpt>
      <trkpt lat="47.12422" lon="-1.7918">
        <ele>80</ele>
        <time>2021-08-09T15:47:08.000Z</time>
      </trkpt>
      <trkpt lat="47.12424" lon="-1.79199">
        <ele>80</ele>
        <time>2021-08-09T15:47:10.000Z</time>
      </trkpt>
      <trkpt lat="47.12425" lon="-1.79218">
        <ele>80</ele>
        <time>2021-08-09T15:47:12.000Z</time>
      </trkpt>
      <trkpt lat="47.12426" lon="-1.79237">
        <ele>80</ele>
        <time>2021-08-09T15:47:14.000Z</time>
      </trkpt>
      <trkpt lat="47.12425" lon="-1.79256">
        <ele>80</ele>
        <time>2021-08-09T15:47:16.000Z</time>
      </trkpt>
      <trkpt lat="47.12422" lon="-1.79273">
        <ele>80</ele>
        <time>2021-08-09T15:47:18.000Z</time>
      </trkpt>
      <trkpt lat="47.12416" lon="-1.79289">
        <ele>79</ele>
        <time>2021-08-09T15:47:20.000Z</time>
      </trkpt>
      <trkpt lat="47.12409" lon="-1.79305">
        <ele>79</ele>
        <time>2021-08-09T15:47:22.000Z</time>
      </trkpt>
      <trkpt lat="47.12401" lon="-1.79321">
        <ele>79</ele>
        <time>2021-08-09T15:47:24.000Z</time>
      </trkpt>
      <trkpt lat="47.12394" lon="-1.79337">
        <ele>80</ele>
        <time>2021-08-09T15:47:26.000Z</time>
      </trkpt>
      <trkpt lat="47.12386" lon="-1.79353">
        <ele>80</ele>
        <time>2021-08-09T15:47:28.000Z</time>
      </trkpt>
      <trkpt lat="47.12378" lon="-1.79368">
        <ele>80</ele>
        <time>2021-08-09T15:47:30.000Z</time>
      </trkpt>
      <trkpt lat="47.12371" lon="-1.79384">
        <ele>80</ele>
        <time>2021-08-09T15:47:32.000Z</time>
      </trkpt>
      <trkpt lat="47.12365" lon="-1.794">
        <ele>80</ele>
        <time>2021-08-09T15:47:34.000Z</time>
      </trkpt>
      <trkpt lat="47.1236" lon="-1.79416">
        <ele>80</ele>
        <time>2021-08-09T15:47:36.000Z</time>
      </trkpt>
      <trkpt lat="47.12355" lon="-1.79433">
        <ele>80</ele>
        <time>2021-08-09T15:47:38.000Z</time>
      </trkpt>
      <trkpt lat="47.12351" lon="-1.79451">
        <ele>79</ele>
        <time>2021-08-09T15:47:40.000Z</time>
      </trkpt>
      <trkpt lat="47.12348" lon="-1.7947">
        <ele>79</ele>
        <time>2021-08-09T15:47:42.000Z</time>
      </trkpt>
      <trkpt lat="47.12346" lon="-1.79489">
        <ele>80</ele>
        <time>2021-08-09T15:47:44.000Z</time>
      </trkpt>
      <trkpt lat="47.12343" lon="-1.79508">
        <ele>80</ele>
        <time>2021-08-09T15:47:46.000Z</time>
      </trkpt>
      <trkpt lat="47.12341" lon="-1.79527">
        <ele>80</ele>
        <time>2021-08-09T15:47:48.000Z</time>
      </trkpt>
      <trkpt lat="47.12339" lon="-1.79545">
        <ele>80</ele>
        <time>2021-08-09T15:47:50.000Z</time>
      </trkpt>
      <trkpt lat="47.12335" lon="-1.79563">
        <ele>80</ele>
        <time>2021-08-09T15:47:52.000Z</time>
      </trkpt>
      <trkpt lat="47.12331" lon="-1.7958">
        <ele>80</ele>
        <time>2021-08-09T15:47:54.000Z</time>
      </trkpt>
      <trkpt lat="47.12322" lon="-1.79591">
        <ele>81</ele>
        <time>2021-08-09T15:47:56.000Z</time>
      </trkpt>
      <trkpt lat="47.1231" lon="-1.79595">
        <ele>81</ele>
        <time>2021-08-09T15:47:58.000Z</time>
      </trkpt>
      <trkpt lat="47.12298" lon="-1.79594">
        <ele>81</ele>
        <time>2021-08-09T15:48:00.000Z</time>
      </trkpt>
      <trkpt lat="47.12286" lon="-1.79594">
        <ele>81</ele>
        <time>2021-08-09T15:48:02.000Z</time>
      </trkpt>
      <trkpt lat="47.12274" lon="-1.79593">
        <ele>80</ele>
        <time>2021-08-09T15:48:04.000Z</time>
      </trkpt>
      <trkpt lat="47.12261" lon="-1.79594">
        <ele>79</ele>
        <time>2021-08-09T15:48:06.000Z</time>
      </trkpt>
      <trkpt lat="47.12248" lon="-1.79593">
        <ele>79</ele>
        <time>2021-08-09T15:48:08.000Z</time>
      </trkpt>
      <trkpt lat="47.12235" lon="-1.79593">
        <ele>79</ele>
        <time>2021-08-09T15:48:10.000Z</time>
      </trkpt>
      <trkpt lat="47.12223" lon="-1.79592">
        <ele>79</ele>
        <time>2021-08-09T15:48:12.000Z</time>
      </trkpt>
      <trkpt lat="47.12211" lon="-1.79593">
        <ele>80</ele>
        <time>2021-08-09T15:48:14.000Z</time>
      </trkpt>
      <trkpt lat="47.12199" lon="-1.79592">
        <ele>79</ele>
        <time>2021-08-09T15:48:16.000Z</time>
      </trkpt>
      <trkpt lat="47.12186" lon="-1.79591">
        <ele>79</ele>
        <time>2021-08-09T15:48:18.000Z</time>
      </trkpt>
      <trkpt lat="47.12174" lon="-1.79591">
        <ele>78</ele>
        <time>2021-08-09T15:48:20.000Z</time>
      </trkpt>
      <trkpt lat="47.12162" lon="-1.79592">
        <ele>78</ele>
        <time>2021-08-09T15:48:22.000Z</time>
      </trkpt>
      <trkpt lat="47.12143" lon="-1.79593">
        <ele>78</ele>
        <time>2021-08-09T15:48:25.000Z</time>
      </trkpt>
      <trkpt lat="47.1213" lon="-1.79593">
        <ele>78</ele>
        <time>2021-08-09T15:48:27.000Z</time>
      </trkpt>
      <trkpt lat="47.12111" lon="-1.79596">
        <ele>77</ele>
        <time>2021-08-09T15:48:30.000Z</time>
      </trkpt>
      <trkpt lat="47.12099" lon="-1.79599">
        <ele>77</ele>
        <time>2021-08-09T15:48:32.000Z</time>
      </trkpt>
      <trkpt lat="47.12087" lon="-1.79606">
        <ele>76</ele>
        <time>2021-08-09T15:48:34.000Z</time>
      </trkpt>
      <trkpt lat="47.12076" lon="-1.79617">
        <ele>76</ele>
        <time>2021-08-09T15:48:36.000Z</time>
      </trkpt>
      <trkpt lat="47.12066" lon="-1.79627">
        <ele>76</ele>
        <time>2021-08-09T15:48:38.000Z</time>
      </trkpt>
      <trkpt lat="47.12055" lon="-1.79637">
        <ele>76</ele>
        <time>2021-08-09T15:48:40.000Z</time>
      </trkpt>
      <trkpt lat="47.12045" lon="-1.79648">
        <ele>76</ele>
        <time>2021-08-09T15:48:42.000Z</time>
      </trkpt>
      <trkpt lat="47.12034" lon="-1.79658">
        <ele>75</ele>
        <time>2021-08-09T15:48:44.000Z</time>
      </trkpt>
      <trkpt lat="47.12024" lon="-1.79669">
        <ele>75</ele>
        <time>2021-08-09T15:48:46.000Z</time>
      </trkpt>
      <trkpt lat="47.12014" lon="-1.79679">
        <ele>75</ele>
        <time>2021-08-09T15:48:48.000Z</time>
      </trkpt>
      <trkpt lat="47.12004" lon="-1.79689">
        <ele>74</ele>
        <time>2021-08-09T15:48:50.000Z</time>
      </trkpt>
      <trkpt lat="47.11989" lon="-1.79705">
        <ele>74</ele>
        <time>2021-08-09T15:48:53.000Z</time>
      </trkpt>
      <trkpt lat="47.11978" lon="-1.79715">
        <ele>74</ele>
        <time>2021-08-09T15:48:55.000Z</time>
      </trkpt>
      <trkpt lat="47.11968" lon="-1.79727">
        <ele>74</ele>
        <time>2021-08-09T15:48:57.000Z</time>
      </trkpt>
      <trkpt lat="47.1196" lon="-1.79738">
        <ele>74</ele>
        <time>2021-08-09T15:48:59.000Z</time>
      </trkpt>
      <trkpt lat="47.1195" lon="-1.79749">
        <ele>74</ele>
        <time>2021-08-09T15:49:01.000Z</time>
      </trkpt>
      <trkpt lat="47.1194" lon="-1.79762">
        <ele>74</ele>
        <time>2021-08-09T15:49:03.000Z</time>
      </trkpt>
      <trkpt lat="47.11931" lon="-1.79774">
        <ele>74</ele>
        <time>2021-08-09T15:49:05.000Z</time>
      </trkpt>
      <trkpt lat="47.11921" lon="-1.79787">
        <ele>74</ele>
        <time>2021-08-09T15:49:07.000Z</time>
      </trkpt>
      <trkpt lat="47.11911" lon="-1.79799">
        <ele>74</ele>
        <time>2021-08-09T15:49:09.000Z</time>
      </trkpt>
      <trkpt lat="47.11901" lon="-1.79812">
        <ele>73</ele>
        <time>2021-08-09T15:49:11.000Z</time>
      </trkpt>
      <trkpt lat="47.11891" lon="-1.79823">
        <ele>73</ele>
        <time>2021-08-09T15:49:13.000Z</time>
      </trkpt>
      <trkpt lat="47.11881" lon="-1.79835">
        <ele>73</ele>
        <time>2021-08-09T15:49:15.000Z</time>
      </trkpt>
      <trkpt lat="47.11871" lon="-1.79846">
        <ele>73</ele>
        <time>2021-08-09T15:49:17.000Z</time>
      </trkpt>
      <trkpt lat="47.1186" lon="-1.79857">
        <ele>73</ele>
        <time>2021-08-09T15:49:19.000Z</time>
      </trkpt>
      <trkpt lat="47.1185" lon="-1.79868">
        <ele>72</ele>
        <time>2021-08-09T15:49:21.000Z</time>
      </trkpt>
      <trkpt lat="47.1184" lon="-1.79879">
        <ele>72</ele>
        <time>2021-08-09T15:49:23.000Z</time>
      </trkpt>
      <trkpt lat="47.11829" lon="-1.7989">
        <ele>72</ele>
        <time>2021-08-09T15:49:25.000Z</time>
      </trkpt>
      <trkpt lat="47.1182" lon="-1.79902">
        <ele>72</ele>
        <time>2021-08-09T15:49:27.000Z</time>
      </trkpt>
      <trkpt lat="47.11809" lon="-1.79912">
        <ele>72</ele>
        <time>2021-08-09T15:49:29.000Z</time>
      </trkpt>
      <trkpt lat="47.118" lon="-1.79924">
        <ele>72</ele>
        <time>2021-08-09T15:49:31.000Z</time>
      </trkpt>
      <trkpt lat="47.1179" lon="-1.79933">
        <ele>72</ele>
        <time>2021-08-09T15:49:33.000Z</time>
      </trkpt>
      <trkpt lat="47.11782" lon="-1.79943">
        <ele>72</ele>
        <time>2021-08-09T15:49:35.000Z</time>
      </trkpt>
      <trkpt lat="47.11773" lon="-1.79952">
        <ele>72</ele>
        <time>2021-08-09T15:49:37.000Z</time>
      </trkpt>
      <trkpt lat="47.11766" lon="-1.79962">
        <ele>72</ele>
        <time>2021-08-09T15:49:39.000Z</time>
      </trkpt>
      <trkpt lat="47.11755" lon="-1.79973">
        <ele>71</ele>
        <time>2021-08-09T15:49:42.000Z</time>
      </trkpt>
      <trkpt lat="47.11743" lon="-1.79974">
        <ele>72</ele>
        <time>2021-08-09T15:49:44.000Z</time>
      </trkpt>
      <trkpt lat="47.11731" lon="-1.79971">
        <ele>72</ele>
        <time>2021-08-09T15:49:46.000Z</time>
      </trkpt>
      <trkpt lat="47.11718" lon="-1.79969">
        <ele>72</ele>
        <time>2021-08-09T15:49:48.000Z</time>
      </trkpt>
      <trkpt lat="47.11705" lon="-1.79967">
        <ele>73</ele>
        <time>2021-08-09T15:49:50.000Z</time>
      </trkpt>
      <trkpt lat="47.11692" lon="-1.79966">
        <ele>73</ele>
        <time>2021-08-09T15:49:52.000Z</time>
      </trkpt>
      <trkpt lat="47.11679" lon="-1.79965">
        <ele>73</ele>
        <time>2021-08-09T15:49:54.000Z</time>
      </trkpt>
      <trkpt lat="47.11666" lon="-1.79962">
        <ele>73</ele>
        <time>2021-08-09T15:49:56.000Z</time>
      </trkpt>
      <trkpt lat="47.11654" lon="-1.7996">
        <ele>73</ele>
        <time>2021-08-09T15:49:58.000Z</time>
      </trkpt>
      <trkpt lat="47.11641" lon="-1.79959">
        <ele>73</ele>
        <time>2021-08-09T15:50:00.000Z</time>
      </trkpt>
      <trkpt lat="47.11628" lon="-1.79957">
        <ele>73</ele>
        <time>2021-08-09T15:50:02.000Z</time>
      </trkpt>
      <trkpt lat="47.11615" lon="-1.79954">
        <ele>73</ele>
        <time>2021-08-09T15:50:04.000Z</time>
      </trkpt>
      <trkpt lat="47.11602" lon="-1.79953">
        <ele>73</ele>
        <time>2021-08-09T15:50:06.000Z</time>
      </trkpt>
      <trkpt lat="47.11589" lon="-1.79952">
        <ele>73</ele>
        <time>2021-08-09T15:50:08.000Z</time>
      </trkpt>
      <trkpt lat="47.11575" lon="-1.79952">
        <ele>72</ele>
        <time>2021-08-09T15:50:10.000Z</time>
      </trkpt>
      <trkpt lat="47.11562" lon="-1.79955">
        <ele>72</ele>
        <time>2021-08-09T15:50:12.000Z</time>
      </trkpt>
      <trkpt lat="47.1155" lon="-1.7996">
        <ele>72</ele>
        <time>2021-08-09T15:50:14.000Z</time>
      </trkpt>
      <trkpt lat="47.11537" lon="-1.79968">
        <ele>72</ele>
        <time>2021-08-09T15:50:16.000Z</time>
      </trkpt>
      <trkpt lat="47.11526" lon="-1.79978">
        <ele>73</ele>
        <time>2021-08-09T15:50:18.000Z</time>
      </trkpt>
      <trkpt lat="47.11516" lon="-1.7999">
        <ele>72</ele>
        <time>2021-08-09T15:50:20.000Z</time>
      </trkpt>
      <trkpt lat="47.11507" lon="-1.80003">
        <ele>72</ele>
        <time>2021-08-09T15:50:22.000Z</time>
      </trkpt>
      <trkpt lat="47.11497" lon="-1.80016">
        <ele>72</ele>
        <time>2021-08-09T15:50:24.000Z</time>
      </trkpt>
      <trkpt lat="47.11487" lon="-1.80028">
        <ele>72</ele>
        <time>2021-08-09T15:50:26.000Z</time>
      </trkpt>
      <trkpt lat="47.11478" lon="-1.8004">
        <ele>72</ele>
        <time>2021-08-09T15:50:28.000Z</time>
      </trkpt>
      <trkpt lat="47.11468" lon="-1.80053">
        <ele>72</ele>
        <time>2021-08-09T15:50:30.000Z</time>
      </trkpt>
      <trkpt lat="47.11459" lon="-1.80065">
        <ele>72</ele>
        <time>2021-08-09T15:50:32.000Z</time>
      </trkpt>
      <trkpt lat="47.11449" lon="-1.80077">
        <ele>71</ele>
        <time>2021-08-09T15:50:34.000Z</time>
      </trkpt>
      <trkpt lat="47.1144" lon="-1.8009">
        <ele>71</ele>
        <time>2021-08-09T15:50:36.000Z</time>
      </trkpt>
      <trkpt lat="47.1143" lon="-1.80103">
        <ele>70</ele>
        <time>2021-08-09T15:50:38.000Z</time>
      </trkpt>
      <trkpt lat="47.11421" lon="-1.80116">
        <ele>70</ele>
        <time>2021-08-09T15:50:40.000Z</time>
      </trkpt>
      <trkpt lat="47.11411" lon="-1.80128">
        <ele>70</ele>
        <time>2021-08-09T15:50:42.000Z</time>
      </trkpt>
      <trkpt lat="47.11402" lon="-1.80141">
        <ele>69</ele>
        <time>2021-08-09T15:50:44.000Z</time>
      </trkpt>
      <trkpt lat="47.11393" lon="-1.80153">
        <ele>69</ele>
        <time>2021-08-09T15:50:46.000Z</time>
      </trkpt>
      <trkpt lat="47.11383" lon="-1.80165">
        <ele>69</ele>
        <time>2021-08-09T15:50:48.000Z</time>
      </trkpt>
      <trkpt lat="47.11374" lon="-1.80177">
        <ele>69</ele>
        <time>2021-08-09T15:50:50.000Z</time>
      </trkpt>
      <trkpt lat="47.11364" lon="-1.80189">
        <ele>69</ele>
        <time>2021-08-09T15:50:52.000Z</time>
      </trkpt>
      <trkpt lat="47.11354" lon="-1.80201">
        <ele>69</ele>
        <time>2021-08-09T15:50:54.000Z</time>
      </trkpt>
      <trkpt lat="47.11345" lon="-1.80215">
        <ele>68</ele>
        <time>2021-08-09T15:50:56.000Z</time>
      </trkpt>
      <trkpt lat="47.11337" lon="-1.80228">
        <ele>68</ele>
        <time>2021-08-09T15:50:58.000Z</time>
      </trkpt>
      <trkpt lat="47.11328" lon="-1.80241">
        <ele>68</ele>
        <time>2021-08-09T15:51:00.000Z</time>
      </trkpt>
      <trkpt lat="47.1132" lon="-1.80255">
        <ele>68</ele>
        <time>2021-08-09T15:51:02.000Z</time>
      </trkpt>
      <trkpt lat="47.11311" lon="-1.80268">
        <ele>68</ele>
        <time>2021-08-09T15:51:04.000Z</time>
      </trkpt>
      <trkpt lat="47.11301" lon="-1.80281">
        <ele>68</ele>
        <time>2021-08-09T15:51:06.000Z</time>
      </trkpt>
      <trkpt lat="47.11292" lon="-1.80294">
        <ele>68</ele>
        <time>2021-08-09T15:51:08.000Z</time>
      </trkpt>
      <trkpt lat="47.11281" lon="-1.80307">
        <ele>68</ele>
        <time>2021-08-09T15:51:10.000Z</time>
      </trkpt>
      <trkpt lat="47.11272" lon="-1.80321">
        <ele>67</ele>
        <time>2021-08-09T15:51:12.000Z</time>
      </trkpt>
      <trkpt lat="47.11262" lon="-1.80334">
        <ele>67</ele>
        <time>2021-08-09T15:51:14.000Z</time>
      </trkpt>
      <trkpt lat="47.11252" lon="-1.80347">
        <ele>67</ele>
        <time>2021-08-09T15:51:16.000Z</time>
      </trkpt>
      <trkpt lat="47.11242" lon="-1.8036">
        <ele>68</ele>
        <time>2021-08-09T15:51:18.000Z</time>
      </trkpt>
      <trkpt lat="47.11233" lon="-1.80373">
        <ele>68</ele>
        <time>2021-08-09T15:51:20.000Z</time>
      </trkpt>
      <trkpt lat="47.11223" lon="-1.80384">
        <ele>68</ele>
        <time>2021-08-09T15:51:22.000Z</time>
      </trkpt>
      <trkpt lat="47.11214" lon="-1.80396">
        <ele>68</ele>
        <time>2021-08-09T15:51:24.000Z</time>
      </trkpt>
      <trkpt lat="47.11203" lon="-1.80406">
        <ele>68</ele>
        <time>2021-08-09T15:51:26.000Z</time>
      </trkpt>
      <trkpt lat="47.11192" lon="-1.80417">
        <ele>68</ele>
        <time>2021-08-09T15:51:28.000Z</time>
      </trkpt>
      <trkpt lat="47.11182" lon="-1.80426">
        <ele>68</ele>
        <time>2021-08-09T15:51:30.000Z</time>
      </trkpt>
      <trkpt lat="47.11171" lon="-1.80434">
        <ele>68</ele>
        <time>2021-08-09T15:51:32.000Z</time>
      </trkpt>
      <trkpt lat="47.1116" lon="-1.80442">
        <ele>68</ele>
        <time>2021-08-09T15:51:34.000Z</time>
      </trkpt>
      <trkpt lat="47.11148" lon="-1.8045">
        <ele>68</ele>
        <time>2021-08-09T15:51:36.000Z</time>
      </trkpt>
      <trkpt lat="47.11137" lon="-1.80457">
        <ele>68</ele>
        <time>2021-08-09T15:51:38.000Z</time>
      </trkpt>
      <trkpt lat="47.11126" lon="-1.80464">
        <ele>68</ele>
        <time>2021-08-09T15:51:40.000Z</time>
      </trkpt>
      <trkpt lat="47.11114" lon="-1.80472">
        <ele>68</ele>
        <time>2021-08-09T15:51:42.000Z</time>
      </trkpt>
      <trkpt lat="47.11103" lon="-1.8048">
        <ele>67</ele>
        <time>2021-08-09T15:51:44.000Z</time>
      </trkpt>
      <trkpt lat="47.11092" lon="-1.80487">
        <ele>68</ele>
        <time>2021-08-09T15:51:46.000Z</time>
      </trkpt>
      <trkpt lat="47.11081" lon="-1.80494">
        <ele>68</ele>
        <time>2021-08-09T15:51:48.000Z</time>
      </trkpt>
      <trkpt lat="47.11069" lon="-1.80502">
        <ele>68</ele>
        <time>2021-08-09T15:51:50.000Z</time>
      </trkpt>
      <trkpt lat="47.11058" lon="-1.8051">
        <ele>68</ele>
        <time>2021-08-09T15:51:52.000Z</time>
      </trkpt>
      <trkpt lat="47.11047" lon="-1.80517">
        <ele>68</ele>
        <time>2021-08-09T15:51:54.000Z</time>
      </trkpt>
      <trkpt lat="47.11036" lon="-1.80525">
        <ele>68</ele>
        <time>2021-08-09T15:51:56.000Z</time>
      </trkpt>
      <trkpt lat="47.11023" lon="-1.80532">
        <ele>68</ele>
        <time>2021-08-09T15:51:58.000Z</time>
      </trkpt>
      <trkpt lat="47.11012" lon="-1.8054">
        <ele>68</ele>
        <time>2021-08-09T15:52:00.000Z</time>
      </trkpt>
      <trkpt lat="47.11" lon="-1.80547">
        <ele>68</ele>
        <time>2021-08-09T15:52:02.000Z</time>
      </trkpt>
      <trkpt lat="47.10988" lon="-1.80556">
        <ele>68</ele>
        <time>2021-08-09T15:52:04.000Z</time>
      </trkpt>
      <trkpt lat="47.10977" lon="-1.80563">
        <ele>67</ele>
        <time>2021-08-09T15:52:06.000Z</time>
      </trkpt>
      <trkpt lat="47.10964" lon="-1.80571">
        <ele>67</ele>
        <time>2021-08-09T15:52:08.000Z</time>
      </trkpt>
      <trkpt lat="47.10952" lon="-1.80579">
        <ele>66</ele>
        <time>2021-08-09T15:52:10.000Z</time>
      </trkpt>
      <trkpt lat="47.10941" lon="-1.80587">
        <ele>66</ele>
        <time>2021-08-09T15:52:12.000Z</time>
      </trkpt>
      <trkpt lat="47.10928" lon="-1.80595">
        <ele>66</ele>
        <time>2021-08-09T15:52:14.000Z</time>
      </trkpt>
      <trkpt lat="47.10918" lon="-1.80602">
        <ele>67</ele>
        <time>2021-08-09T15:52:16.000Z</time>
      </trkpt>
      <trkpt lat="47.10906" lon="-1.8061">
        <ele>67</ele>
        <time>2021-08-09T15:52:18.000Z</time>
      </trkpt>
      <trkpt lat="47.10894" lon="-1.80618">
        <ele>66</ele>
        <time>2021-08-09T15:52:20.000Z</time>
      </trkpt>
      <trkpt lat="47.10883" lon="-1.80625">
        <ele>66</ele>
        <time>2021-08-09T15:52:22.000Z</time>
      </trkpt>
      <trkpt lat="47.10871" lon="-1.80632">
        <ele>66</ele>
        <time>2021-08-09T15:52:24.000Z</time>
      </trkpt>
      <trkpt lat="47.10859" lon="-1.80637">
        <ele>67</ele>
        <time>2021-08-09T15:52:26.000Z</time>
      </trkpt>
      <trkpt lat="47.10847" lon="-1.80642">
        <ele>67</ele>
        <time>2021-08-09T15:52:28.000Z</time>
      </trkpt>
      <trkpt lat="47.10834" lon="-1.80646">
        <ele>67</ele>
        <time>2021-08-09T15:52:30.000Z</time>
      </trkpt>
      <trkpt lat="47.10821" lon="-1.80652">
        <ele>66</ele>
        <time>2021-08-09T15:52:32.000Z</time>
      </trkpt>
      <trkpt lat="47.10808" lon="-1.80657">
        <ele>66</ele>
        <time>2021-08-09T15:52:34.000Z</time>
      </trkpt>
      <trkpt lat="47.10795" lon="-1.80662">
        <ele>66</ele>
        <time>2021-08-09T15:52:36.000Z</time>
      </trkpt>
      <trkpt lat="47.10782" lon="-1.80666">
        <ele>67</ele>
        <time>2021-08-09T15:52:38.000Z</time>
      </trkpt>
      <trkpt lat="47.10769" lon="-1.8067">
        <ele>67</ele>
        <time>2021-08-09T15:52:40.000Z</time>
      </trkpt>
      <trkpt lat="47.10756" lon="-1.80675">
        <ele>67</ele>
        <time>2021-08-09T15:52:42.000Z</time>
      </trkpt>
      <trkpt lat="47.10743" lon="-1.80678">
        <ele>67</ele>
        <time>2021-08-09T15:52:44.000Z</time>
      </trkpt>
      <trkpt lat="47.1073" lon="-1.80681">
        <ele>67</ele>
        <time>2021-08-09T15:52:46.000Z</time>
      </trkpt>
      <trkpt lat="47.10717" lon="-1.80683">
        <ele>67</ele>
        <time>2021-08-09T15:52:48.000Z</time>
      </trkpt>
      <trkpt lat="47.10704" lon="-1.80684">
        <ele>67</ele>
        <time>2021-08-09T15:52:50.000Z</time>
      </trkpt>
      <trkpt lat="47.10691" lon="-1.80684">
        <ele>66</ele>
        <time>2021-08-09T15:52:52.000Z</time>
      </trkpt>
      <trkpt lat="47.10678" lon="-1.80686">
        <ele>67</ele>
        <time>2021-08-09T15:52:54.000Z</time>
      </trkpt>
      <trkpt lat="47.10664" lon="-1.80687">
        <ele>67</ele>
        <time>2021-08-09T15:52:56.000Z</time>
      </trkpt>
      <trkpt lat="47.10651" lon="-1.80689">
        <ele>67</ele>
        <time>2021-08-09T15:52:58.000Z</time>
      </trkpt>
      <trkpt lat="47.10638" lon="-1.80691">
        <ele>67</ele>
        <time>2021-08-09T15:53:00.000Z</time>
      </trkpt>
      <trkpt lat="47.10625" lon="-1.80694">
        <ele>67</ele>
        <time>2021-08-09T15:53:02.000Z</time>
      </trkpt>
      <trkpt lat="47.10613" lon="-1.80699">
        <ele>66</ele>
        <time>2021-08-09T15:53:04.000Z</time>
      </trkpt>
      <trkpt lat="47.106" lon="-1.80704">
        <ele>66</ele>
        <time>2021-08-09T15:53:06.000Z</time>
      </trkpt>
      <trkpt lat="47.10588" lon="-1.80712">
        <ele>65</ele>
        <time>2021-08-09T15:53:08.000Z</time>
      </trkpt>
      <trkpt lat="47.10576" lon="-1.80722">
        <ele>65</ele>
        <time>2021-08-09T15:53:10.000Z</time>
      </trkpt>
      <trkpt lat="47.10566" lon="-1.80733">
        <ele>65</ele>
        <time>2021-08-09T15:53:12.000Z</time>
      </trkpt>
      <trkpt lat="47.10557" lon="-1.80745">
        <ele>65</ele>
        <time>2021-08-09T15:53:14.000Z</time>
      </trkpt>
      <trkpt lat="47.10547" lon="-1.80757">
        <ele>65</ele>
        <time>2021-08-09T15:53:16.000Z</time>
      </trkpt>
      <trkpt lat="47.10537" lon="-1.80769">
        <ele>65</ele>
        <time>2021-08-09T15:53:18.000Z</time>
      </trkpt>
      <trkpt lat="47.10527" lon="-1.8078">
        <ele>65</ele>
        <time>2021-08-09T15:53:20.000Z</time>
      </trkpt>
      <trkpt lat="47.10519" lon="-1.80792">
        <ele>64</ele>
        <time>2021-08-09T15:53:22.000Z</time>
      </trkpt>
      <trkpt lat="47.10511" lon="-1.80804">
        <ele>65</ele>
        <time>2021-08-09T15:53:24.000Z</time>
      </trkpt>
      <trkpt lat="47.10499" lon="-1.80812">
        <ele>64</ele>
        <time>2021-08-09T15:53:26.000Z</time>
      </trkpt>
      <trkpt lat="47.10488" lon="-1.80821">
        <ele>64</ele>
        <time>2021-08-09T15:53:28.000Z</time>
      </trkpt>
      <trkpt lat="47.10477" lon="-1.80833">
        <ele>63</ele>
        <time>2021-08-09T15:53:30.000Z</time>
      </trkpt>
      <trkpt lat="47.10468" lon="-1.80847">
        <ele>63</ele>
        <time>2021-08-09T15:53:32.000Z</time>
      </trkpt>
      <trkpt lat="47.1046" lon="-1.80861">
        <ele>62</ele>
        <time>2021-08-09T15:53:34.000Z</time>
      </trkpt>
      <trkpt lat="47.10451" lon="-1.80875">
        <ele>63</ele>
        <time>2021-08-09T15:53:36.000Z</time>
      </trkpt>
      <trkpt lat="47.10444" lon="-1.80889">
        <ele>63</ele>
        <time>2021-08-09T15:53:38.000Z</time>
      </trkpt>
      <trkpt lat="47.10436" lon="-1.80903">
        <ele>63</ele>
        <time>2021-08-09T15:53:40.000Z</time>
      </trkpt>
      <trkpt lat="47.10427" lon="-1.80915">
        <ele>63</ele>
        <time>2021-08-09T15:53:42.000Z</time>
      </trkpt>
      <trkpt lat="47.10418" lon="-1.80927">
        <ele>63</ele>
        <time>2021-08-09T15:53:44.000Z</time>
      </trkpt>
      <trkpt lat="47.1041" lon="-1.80941">
        <ele>63</ele>
        <time>2021-08-09T15:53:46.000Z</time>
      </trkpt>
      <trkpt lat="47.10402" lon="-1.80954">
        <ele>63</ele>
        <time>2021-08-09T15:53:48.000Z</time>
      </trkpt>
      <trkpt lat="47.10394" lon="-1.80967">
        <ele>63</ele>
        <time>2021-08-09T15:53:50.000Z</time>
      </trkpt>
      <trkpt lat="47.10387" lon="-1.80979">
        <ele>63</ele>
        <time>2021-08-09T15:53:52.000Z</time>
      </trkpt>
      <trkpt lat="47.1038" lon="-1.80989">
        <ele>64</ele>
        <time>2021-08-09T15:53:54.000Z</time>
      </trkpt>
      <trkpt lat="47.10374" lon="-1.81001">
        <ele>64</ele>
        <time>2021-08-09T15:53:56.000Z</time>
      </trkpt>
      <trkpt lat="47.1037" lon="-1.81017">
        <ele>65</ele>
        <time>2021-08-09T15:53:58.000Z</time>
      </trkpt>
      <trkpt lat="47.10365" lon="-1.81031">
        <ele>66</ele>
        <time>2021-08-09T15:54:00.000Z</time>
      </trkpt>
      <trkpt lat="47.10358" lon="-1.81042">
        <ele>66</ele>
        <time>2021-08-09T15:54:02.000Z</time>
      </trkpt>
      <trkpt lat="47.10347" lon="-1.81034">
        <ele>66</ele>
        <time>2021-08-09T15:54:04.000Z</time>
      </trkpt>
      <trkpt lat="47.10339" lon="-1.81021">
        <ele>66</ele>
        <time>2021-08-09T15:54:06.000Z</time>
      </trkpt>
      <trkpt lat="47.10327" lon="-1.81014">
        <ele>66</ele>
        <time>2021-08-09T15:54:08.000Z</time>
      </trkpt>
      <trkpt lat="47.10313" lon="-1.81012">
        <ele>66</ele>
        <time>2021-08-09T15:54:10.000Z</time>
      </trkpt>
      <trkpt lat="47.10299" lon="-1.81009">
        <ele>66</ele>
        <time>2021-08-09T15:54:12.000Z</time>
      </trkpt>
      <trkpt lat="47.10285" lon="-1.81007">
        <ele>66</ele>
        <time>2021-08-09T15:54:14.000Z</time>
      </trkpt>
      <trkpt lat="47.1027" lon="-1.81006">
        <ele>66</ele>
        <time>2021-08-09T15:54:16.000Z</time>
      </trkpt>
      <trkpt lat="47.10256" lon="-1.81007">
        <ele>66</ele>
        <time>2021-08-09T15:54:18.000Z</time>
      </trkpt>
      <trkpt lat="47.10241" lon="-1.81008">
        <ele>65</ele>
        <time>2021-08-09T15:54:20.000Z</time>
      </trkpt>
      <trkpt lat="47.10227" lon="-1.81009">
        <ele>66</ele>
        <time>2021-08-09T15:54:22.000Z</time>
      </trkpt>
      <trkpt lat="47.10213" lon="-1.81006">
        <ele>66</ele>
        <time>2021-08-09T15:54:24.000Z</time>
      </trkpt>
      <trkpt lat="47.10199" lon="-1.81">
        <ele>66</ele>
        <time>2021-08-09T15:54:26.000Z</time>
      </trkpt>
      <trkpt lat="47.10185" lon="-1.80992">
        <ele>65</ele>
        <time>2021-08-09T15:54:28.000Z</time>
      </trkpt>
      <trkpt lat="47.10172" lon="-1.80985">
        <ele>63</ele>
        <time>2021-08-09T15:54:30.000Z</time>
      </trkpt>
      <trkpt lat="47.10159" lon="-1.80979">
        <ele>62</ele>
        <time>2021-08-09T15:54:32.000Z</time>
      </trkpt>
      <trkpt lat="47.10146" lon="-1.80973">
        <ele>62</ele>
        <time>2021-08-09T15:54:34.000Z</time>
      </trkpt>
      <trkpt lat="47.10134" lon="-1.80969">
        <ele>62</ele>
        <time>2021-08-09T15:54:36.000Z</time>
      </trkpt>
      <trkpt lat="47.10121" lon="-1.80968">
        <ele>61</ele>
        <time>2021-08-09T15:54:38.000Z</time>
      </trkpt>
      <trkpt lat="47.10107" lon="-1.8097">
        <ele>60</ele>
        <time>2021-08-09T15:54:40.000Z</time>
      </trkpt>
      <trkpt lat="47.10093" lon="-1.8097">
        <ele>60</ele>
        <time>2021-08-09T15:54:42.000Z</time>
      </trkpt>
      <trkpt lat="47.1008" lon="-1.8097">
        <ele>60</ele>
        <time>2021-08-09T15:54:44.000Z</time>
      </trkpt>
      <trkpt lat="47.10067" lon="-1.80969">
        <ele>60</ele>
        <time>2021-08-09T15:54:46.000Z</time>
      </trkpt>
      <trkpt lat="47.10054" lon="-1.80969">
        <ele>61</ele>
        <time>2021-08-09T15:54:48.000Z</time>
      </trkpt>
      <trkpt lat="47.10042" lon="-1.8097">
        <ele>61</ele>
        <time>2021-08-09T15:54:50.000Z</time>
      </trkpt>
      <trkpt lat="47.1003" lon="-1.80972">
        <ele>61</ele>
        <time>2021-08-09T15:54:52.000Z</time>
      </trkpt>
      <trkpt lat="47.10018" lon="-1.80974">
        <ele>61</ele>
        <time>2021-08-09T15:54:54.000Z</time>
      </trkpt>
      <trkpt lat="47.10005" lon="-1.80974">
        <ele>61</ele>
        <time>2021-08-09T15:54:56.000Z</time>
      </trkpt>
      <trkpt lat="47.09992" lon="-1.80975">
        <ele>62</ele>
        <time>2021-08-09T15:54:58.000Z</time>
      </trkpt>
      <trkpt lat="47.09981" lon="-1.80975">
        <ele>62</ele>
        <time>2021-08-09T15:55:00.000Z</time>
      </trkpt>
      <trkpt lat="47.09969" lon="-1.80975">
        <ele>62</ele>
        <time>2021-08-09T15:55:02.000Z</time>
      </trkpt>
      <trkpt lat="47.09957" lon="-1.80975">
        <ele>62</ele>
        <time>2021-08-09T15:55:04.000Z</time>
      </trkpt>
      <trkpt lat="47.09945" lon="-1.80976">
        <ele>62</ele>
        <time>2021-08-09T15:55:06.000Z</time>
      </trkpt>
      <trkpt lat="47.09933" lon="-1.80978">
        <ele>62</ele>
        <time>2021-08-09T15:55:08.000Z</time>
      </trkpt>
      <trkpt lat="47.09921" lon="-1.8098">
        <ele>63</ele>
        <time>2021-08-09T15:55:10.000Z</time>
      </trkpt>
      <trkpt lat="47.09909" lon="-1.80981">
        <ele>64</ele>
        <time>2021-08-09T15:55:12.000Z</time>
      </trkpt>
      <trkpt lat="47.09897" lon="-1.80982">
        <ele>65</ele>
        <time>2021-08-09T15:55:14.000Z</time>
      </trkpt>
      <trkpt lat="47.09885" lon="-1.80983">
        <ele>64</ele>
        <time>2021-08-09T15:55:16.000Z</time>
      </trkpt>
      <trkpt lat="47.09873" lon="-1.80984">
        <ele>65</ele>
        <time>2021-08-09T15:55:18.000Z</time>
      </trkpt>
      <trkpt lat="47.09861" lon="-1.80984">
        <ele>65</ele>
        <time>2021-08-09T15:55:20.000Z</time>
      </trkpt>
      <trkpt lat="47.09849" lon="-1.80985">
        <ele>65</ele>
        <time>2021-08-09T15:55:22.000Z</time>
      </trkpt>
      <trkpt lat="47.09837" lon="-1.80986">
        <ele>65</ele>
        <time>2021-08-09T15:55:24.000Z</time>
      </trkpt>
      <trkpt lat="47.09826" lon="-1.80986">
        <ele>66</ele>
        <time>2021-08-09T15:55:26.000Z</time>
      </trkpt>
      <trkpt lat="47.09816" lon="-1.80986">
        <ele>66</ele>
        <time>2021-08-09T15:55:28.000Z</time>
      </trkpt>
      <trkpt lat="47.09805" lon="-1.80987">
        <ele>66</ele>
        <time>2021-08-09T15:55:30.000Z</time>
      </trkpt>
      <trkpt lat="47.09793" lon="-1.80985">
        <ele>66</ele>
        <time>2021-08-09T15:55:32.000Z</time>
      </trkpt>
      <trkpt lat="47.09781" lon="-1.80983">
        <ele>66</ele>
        <time>2021-08-09T15:55:34.000Z</time>
      </trkpt>
      <trkpt lat="47.09768" lon="-1.80981">
        <ele>66</ele>
        <time>2021-08-09T15:55:36.000Z</time>
      </trkpt>
      <trkpt lat="47.09756" lon="-1.80978">
        <ele>66</ele>
        <time>2021-08-09T15:55:38.000Z</time>
      </trkpt>
      <trkpt lat="47.09743" lon="-1.80977">
        <ele>66</ele>
        <time>2021-08-09T15:55:40.000Z</time>
      </trkpt>
      <trkpt lat="47.09729" lon="-1.80975">
        <ele>65</ele>
        <time>2021-08-09T15:55:42.000Z</time>
      </trkpt>
      <trkpt lat="47.09717" lon="-1.80972">
        <ele>65</ele>
        <time>2021-08-09T15:55:44.000Z</time>
      </trkpt>
      <trkpt lat="47.09703" lon="-1.8097">
        <ele>65</ele>
        <time>2021-08-09T15:55:46.000Z</time>
      </trkpt>
      <trkpt lat="47.0969" lon="-1.80967">
        <ele>64</ele>
        <time>2021-08-09T15:55:48.000Z</time>
      </trkpt>
      <trkpt lat="47.09676" lon="-1.80964">
        <ele>64</ele>
        <time>2021-08-09T15:55:50.000Z</time>
      </trkpt>
      <trkpt lat="47.09662" lon="-1.80961">
        <ele>64</ele>
        <time>2021-08-09T15:55:52.000Z</time>
      </trkpt>
      <trkpt lat="47.09648" lon="-1.80958">
        <ele>64</ele>
        <time>2021-08-09T15:55:54.000Z</time>
      </trkpt>
      <trkpt lat="47.09634" lon="-1.80955">
        <ele>63</ele>
        <time>2021-08-09T15:55:56.000Z</time>
      </trkpt>
      <trkpt lat="47.09621" lon="-1.8095">
        <ele>63</ele>
        <time>2021-08-09T15:55:58.000Z</time>
      </trkpt>
      <trkpt lat="47.09608" lon="-1.80948">
        <ele>63</ele>
        <time>2021-08-09T15:56:00.000Z</time>
      </trkpt>
      <trkpt lat="47.09595" lon="-1.80944">
        <ele>63</ele>
        <time>2021-08-09T15:56:02.000Z</time>
      </trkpt>
      <trkpt lat="47.09582" lon="-1.8094">
        <ele>62</ele>
        <time>2021-08-09T15:56:04.000Z</time>
      </trkpt>
      <trkpt lat="47.09568" lon="-1.80938">
        <ele>62</ele>
        <time>2021-08-09T15:56:06.000Z</time>
      </trkpt>
      <trkpt lat="47.09555" lon="-1.80934">
        <ele>62</ele>
        <time>2021-08-09T15:56:08.000Z</time>
      </trkpt>
      <trkpt lat="47.09542" lon="-1.80931">
        <ele>61</ele>
        <time>2021-08-09T15:56:10.000Z</time>
      </trkpt>
      <trkpt lat="47.09528" lon="-1.80928">
        <ele>62</ele>
        <time>2021-08-09T15:56:12.000Z</time>
      </trkpt>
      <trkpt lat="47.09514" lon="-1.80924">
        <ele>62</ele>
        <time>2021-08-09T15:56:14.000Z</time>
      </trkpt>
      <trkpt lat="47.09501" lon="-1.80922">
        <ele>61</ele>
        <time>2021-08-09T15:56:16.000Z</time>
      </trkpt>
      <trkpt lat="47.09487" lon="-1.80923">
        <ele>61</ele>
        <time>2021-08-09T15:56:18.000Z</time>
      </trkpt>
      <trkpt lat="47.09474" lon="-1.80929">
        <ele>61</ele>
        <time>2021-08-09T15:56:20.000Z</time>
      </trkpt>
      <trkpt lat="47.0946" lon="-1.80936">
        <ele>61</ele>
        <time>2021-08-09T15:56:22.000Z</time>
      </trkpt>
      <trkpt lat="47.09447" lon="-1.80942">
        <ele>61</ele>
        <time>2021-08-09T15:56:24.000Z</time>
      </trkpt>
      <trkpt lat="47.09435" lon="-1.8095">
        <ele>61</ele>
        <time>2021-08-09T15:56:26.000Z</time>
      </trkpt>
      <trkpt lat="47.09422" lon="-1.80958">
        <ele>62</ele>
        <time>2021-08-09T15:56:28.000Z</time>
      </trkpt>
      <trkpt lat="47.09409" lon="-1.80966">
        <ele>61</ele>
        <time>2021-08-09T15:56:30.000Z</time>
      </trkpt>
      <trkpt lat="47.09397" lon="-1.80974">
        <ele>60</ele>
        <time>2021-08-09T15:56:32.000Z</time>
      </trkpt>
      <trkpt lat="47.09383" lon="-1.80982">
        <ele>61</ele>
        <time>2021-08-09T15:56:34.000Z</time>
      </trkpt>
      <trkpt lat="47.09369" lon="-1.8099">
        <ele>60</ele>
        <time>2021-08-09T15:56:36.000Z</time>
      </trkpt>
      <trkpt lat="47.09356" lon="-1.80998">
        <ele>59</ele>
        <time>2021-08-09T15:56:38.000Z</time>
      </trkpt>
      <trkpt lat="47.09341" lon="-1.81005">
        <ele>58</ele>
        <time>2021-08-09T15:56:40.000Z</time>
      </trkpt>
      <trkpt lat="47.09327" lon="-1.81014">
        <ele>58</ele>
        <time>2021-08-09T15:56:42.000Z</time>
      </trkpt>
      <trkpt lat="47.09314" lon="-1.81022">
        <ele>57</ele>
        <time>2021-08-09T15:56:44.000Z</time>
      </trkpt>
      <trkpt lat="47.093" lon="-1.8103">
        <ele>56</ele>
        <time>2021-08-09T15:56:46.000Z</time>
      </trkpt>
      <trkpt lat="47.09287" lon="-1.81039">
        <ele>56</ele>
        <time>2021-08-09T15:56:48.000Z</time>
      </trkpt>
      <trkpt lat="47.09273" lon="-1.81047">
        <ele>56</ele>
        <time>2021-08-09T15:56:50.000Z</time>
      </trkpt>
      <trkpt lat="47.09261" lon="-1.81055">
        <ele>56</ele>
        <time>2021-08-09T15:56:52.000Z</time>
      </trkpt>
      <trkpt lat="47.09248" lon="-1.81063">
        <ele>56</ele>
        <time>2021-08-09T15:56:54.000Z</time>
      </trkpt>
      <trkpt lat="47.09237" lon="-1.81072">
        <ele>55</ele>
        <time>2021-08-09T15:56:56.000Z</time>
      </trkpt>
      <trkpt lat="47.0923" lon="-1.81082">
        <ele>55</ele>
        <time>2021-08-09T15:56:58.000Z</time>
      </trkpt>
      <trkpt lat="47.09217" lon="-1.81083">
        <ele>55</ele>
        <time>2021-08-09T15:57:03.000Z</time>
      </trkpt>
      <trkpt lat="47.09208" lon="-1.81077">
        <ele>55</ele>
        <time>2021-08-09T15:57:05.000Z</time>
      </trkpt>
      <trkpt lat="47.09198" lon="-1.8107">
        <ele>55</ele>
        <time>2021-08-09T15:57:07.000Z</time>
      </trkpt>
      <trkpt lat="47.09188" lon="-1.81061">
        <ele>55</ele>
        <time>2021-08-09T15:57:09.000Z</time>
      </trkpt>
      <trkpt lat="47.09177" lon="-1.81053">
        <ele>55</ele>
        <time>2021-08-09T15:57:11.000Z</time>
      </trkpt>
      <trkpt lat="47.09168" lon="-1.81052">
        <ele>56</ele>
        <time>2021-08-09T15:57:13.000Z</time>
      </trkpt>
      <trkpt lat="47.09161" lon="-1.81068">
        <ele>56</ele>
        <time>2021-08-09T15:57:15.000Z</time>
      </trkpt>
      <trkpt lat="47.09153" lon="-1.81084">
        <ele>57</ele>
        <time>2021-08-09T15:57:17.000Z</time>
      </trkpt>
      <trkpt lat="47.09142" lon="-1.81098">
        <ele>56</ele>
        <time>2021-08-09T15:57:19.000Z</time>
      </trkpt>
      <trkpt lat="47.09129" lon="-1.81108">
        <ele>56</ele>
        <time>2021-08-09T15:57:21.000Z</time>
      </trkpt>
      <trkpt lat="47.09115" lon="-1.81113">
        <ele>57</ele>
        <time>2021-08-09T15:57:23.000Z</time>
      </trkpt>
      <trkpt lat="47.09102" lon="-1.81115">
        <ele>56</ele>
        <time>2021-08-09T15:57:25.000Z</time>
      </trkpt>
      <trkpt lat="47.09089" lon="-1.81117">
        <ele>56</ele>
        <time>2021-08-09T15:57:27.000Z</time>
      </trkpt>
      <trkpt lat="47.09076" lon="-1.8112">
        <ele>56</ele>
        <time>2021-08-09T15:57:29.000Z</time>
      </trkpt>
      <trkpt lat="47.09064" lon="-1.81129">
        <ele>56</ele>
        <time>2021-08-09T15:57:31.000Z</time>
      </trkpt>
      <trkpt lat="47.09055" lon="-1.81141">
        <ele>56</ele>
        <time>2021-08-09T15:57:33.000Z</time>
      </trkpt>
      <trkpt lat="47.09048" lon="-1.81156">
        <ele>56</ele>
        <time>2021-08-09T15:57:35.000Z</time>
      </trkpt>
      <trkpt lat="47.09043" lon="-1.81172">
        <ele>56</ele>
        <time>2021-08-09T15:57:37.000Z</time>
      </trkpt>
      <trkpt lat="47.09038" lon="-1.81189">
        <ele>56</ele>
        <time>2021-08-09T15:57:39.000Z</time>
      </trkpt>
      <trkpt lat="47.09034" lon="-1.81204">
        <ele>56</ele>
        <time>2021-08-09T15:57:41.000Z</time>
      </trkpt>
      <trkpt lat="47.09029" lon="-1.8122">
        <ele>57</ele>
        <time>2021-08-09T15:57:43.000Z</time>
      </trkpt>
      <trkpt lat="47.09023" lon="-1.81236">
        <ele>57</ele>
        <time>2021-08-09T15:57:45.000Z</time>
      </trkpt>
      <trkpt lat="47.09016" lon="-1.8125">
        <ele>57</ele>
        <time>2021-08-09T15:57:47.000Z</time>
      </trkpt>
      <trkpt lat="47.09007" lon="-1.81264">
        <ele>58</ele>
        <time>2021-08-09T15:57:49.000Z</time>
      </trkpt>
      <trkpt lat="47.08999" lon="-1.81276">
        <ele>59</ele>
        <time>2021-08-09T15:57:51.000Z</time>
      </trkpt>
      <trkpt lat="47.0899" lon="-1.81289">
        <ele>59</ele>
        <time>2021-08-09T15:57:53.000Z</time>
      </trkpt>
      <trkpt lat="47.0898" lon="-1.81302">
        <ele>59</ele>
        <time>2021-08-09T15:57:55.000Z</time>
      </trkpt>
      <trkpt lat="47.0897" lon="-1.81314">
        <ele>59</ele>
        <time>2021-08-09T15:57:57.000Z</time>
      </trkpt>
      <trkpt lat="47.08961" lon="-1.81328">
        <ele>60</ele>
        <time>2021-08-09T15:57:59.000Z</time>
      </trkpt>
      <trkpt lat="47.08952" lon="-1.8134">
        <ele>60</ele>
        <time>2021-08-09T15:58:01.000Z</time>
      </trkpt>
      <trkpt lat="47.08942" lon="-1.81352">
        <ele>60</ele>
        <time>2021-08-09T15:58:03.000Z</time>
      </trkpt>
      <trkpt lat="47.08932" lon="-1.81363">
        <ele>60</ele>
        <time>2021-08-09T15:58:05.000Z</time>
      </trkpt>
      <trkpt lat="47.08922" lon="-1.81373">
        <ele>60</ele>
        <time>2021-08-09T15:58:07.000Z</time>
      </trkpt>
      <trkpt lat="47.08911" lon="-1.81383">
        <ele>61</ele>
        <time>2021-08-09T15:58:09.000Z</time>
      </trkpt>
      <trkpt lat="47.08901" lon="-1.81394">
        <ele>61</ele>
        <time>2021-08-09T15:58:11.000Z</time>
      </trkpt>
      <trkpt lat="47.08891" lon="-1.81405">
        <ele>61</ele>
        <time>2021-08-09T15:58:13.000Z</time>
      </trkpt>
      <trkpt lat="47.08882" lon="-1.81418">
        <ele>62</ele>
        <time>2021-08-09T15:58:15.000Z</time>
      </trkpt>
      <trkpt lat="47.08873" lon="-1.81429">
        <ele>62</ele>
        <time>2021-08-09T15:58:17.000Z</time>
      </trkpt>
      <trkpt lat="47.08864" lon="-1.8144">
        <ele>62</ele>
        <time>2021-08-09T15:58:19.000Z</time>
      </trkpt>
      <trkpt lat="47.08855" lon="-1.81451">
        <ele>62</ele>
        <time>2021-08-09T15:58:21.000Z</time>
      </trkpt>
      <trkpt lat="47.08844" lon="-1.8146">
        <ele>62</ele>
        <time>2021-08-09T15:58:23.000Z</time>
      </trkpt>
      <trkpt lat="47.08835" lon="-1.81469">
        <ele>62</ele>
        <time>2021-08-09T15:58:25.000Z</time>
      </trkpt>
      <trkpt lat="47.08825" lon="-1.81477">
        <ele>62</ele>
        <time>2021-08-09T15:58:27.000Z</time>
      </trkpt>
      <trkpt lat="47.08815" lon="-1.81485">
        <ele>63</ele>
        <time>2021-08-09T15:58:29.000Z</time>
      </trkpt>
      <trkpt lat="47.08805" lon="-1.81493">
        <ele>63</ele>
        <time>2021-08-09T15:58:31.000Z</time>
      </trkpt>
      <trkpt lat="47.08796" lon="-1.81502">
        <ele>63</ele>
        <time>2021-08-09T15:58:33.000Z</time>
      </trkpt>
      <trkpt lat="47.08786" lon="-1.8151">
        <ele>64</ele>
        <time>2021-08-09T15:58:35.000Z</time>
      </trkpt>
      <trkpt lat="47.08775" lon="-1.81518">
        <ele>64</ele>
        <time>2021-08-09T15:58:37.000Z</time>
      </trkpt>
      <trkpt lat="47.08764" lon="-1.81528">
        <ele>64</ele>
        <time>2021-08-09T15:58:39.000Z</time>
      </trkpt>
      <trkpt lat="47.08755" lon="-1.81537">
        <ele>65</ele>
        <time>2021-08-09T15:58:41.000Z</time>
      </trkpt>
      <trkpt lat="47.08745" lon="-1.81547">
        <ele>66</ele>
        <time>2021-08-09T15:58:43.000Z</time>
      </trkpt>
      <trkpt lat="47.08736" lon="-1.81559">
        <ele>67</ele>
        <time>2021-08-09T15:58:45.000Z</time>
      </trkpt>
      <trkpt lat="47.08728" lon="-1.81574">
        <ele>67</ele>
        <time>2021-08-09T15:58:47.000Z</time>
      </trkpt>
      <trkpt lat="47.08721" lon="-1.81588">
        <ele>67</ele>
        <time>2021-08-09T15:58:49.000Z</time>
      </trkpt>
      <trkpt lat="47.08715" lon="-1.81603">
        <ele>67</ele>
        <time>2021-08-09T15:58:51.000Z</time>
      </trkpt>
      <trkpt lat="47.0871" lon="-1.8162">
        <ele>67</ele>
        <time>2021-08-09T15:58:53.000Z</time>
      </trkpt>
      <trkpt lat="47.08705" lon="-1.81635">
        <ele>67</ele>
        <time>2021-08-09T15:58:55.000Z</time>
      </trkpt>
      <trkpt lat="47.08699" lon="-1.81651">
        <ele>68</ele>
        <time>2021-08-09T15:58:57.000Z</time>
      </trkpt>
      <trkpt lat="47.08693" lon="-1.81666">
        <ele>68</ele>
        <time>2021-08-09T15:58:59.000Z</time>
      </trkpt>
      <trkpt lat="47.08685" lon="-1.81678">
        <ele>68</ele>
        <time>2021-08-09T15:59:01.000Z</time>
      </trkpt>
      <trkpt lat="47.08674" lon="-1.81686">
        <ele>68</ele>
        <time>2021-08-09T15:59:03.000Z</time>
      </trkpt>
      <trkpt lat="47.08663" lon="-1.81691">
        <ele>69</ele>
        <time>2021-08-09T15:59:05.000Z</time>
      </trkpt>
      <trkpt lat="47.08651" lon="-1.81694">
        <ele>69</ele>
        <time>2021-08-09T15:59:07.000Z</time>
      </trkpt>
      <trkpt lat="47.08639" lon="-1.81691">
        <ele>69</ele>
        <time>2021-08-09T15:59:09.000Z</time>
      </trkpt>
      <trkpt lat="47.08627" lon="-1.81688">
        <ele>70</ele>
        <time>2021-08-09T15:59:11.000Z</time>
      </trkpt>
      <trkpt lat="47.08615" lon="-1.81685">
        <ele>69</ele>
        <time>2021-08-09T15:59:13.000Z</time>
      </trkpt>
      <trkpt lat="47.08602" lon="-1.81682">
        <ele>70</ele>
        <time>2021-08-09T15:59:15.000Z</time>
      </trkpt>
      <trkpt lat="47.0859" lon="-1.81679">
        <ele>71</ele>
        <time>2021-08-09T15:59:17.000Z</time>
      </trkpt>
      <trkpt lat="47.08578" lon="-1.81676">
        <ele>71</ele>
        <time>2021-08-09T15:59:19.000Z</time>
      </trkpt>
      <trkpt lat="47.08565" lon="-1.81673">
        <ele>71</ele>
        <time>2021-08-09T15:59:21.000Z</time>
      </trkpt>
      <trkpt lat="47.08553" lon="-1.81669">
        <ele>71</ele>
        <time>2021-08-09T15:59:23.000Z</time>
      </trkpt>
      <trkpt lat="47.0854" lon="-1.81666">
        <ele>72</ele>
        <time>2021-08-09T15:59:25.000Z</time>
      </trkpt>
      <trkpt lat="47.08527" lon="-1.81664">
        <ele>72</ele>
        <time>2021-08-09T15:59:27.000Z</time>
      </trkpt>
      <trkpt lat="47.08515" lon="-1.81662">
        <ele>73</ele>
        <time>2021-08-09T15:59:29.000Z</time>
      </trkpt>
      <trkpt lat="47.08503" lon="-1.81661">
        <ele>72</ele>
        <time>2021-08-09T15:59:31.000Z</time>
      </trkpt>
      <trkpt lat="47.0849" lon="-1.81659">
        <ele>72</ele>
        <time>2021-08-09T15:59:33.000Z</time>
      </trkpt>
      <trkpt lat="47.08478" lon="-1.81657">
        <ele>72</ele>
        <time>2021-08-09T15:59:35.000Z</time>
      </trkpt>
      <trkpt lat="47.08466" lon="-1.81655">
        <ele>72</ele>
        <time>2021-08-09T15:59:37.000Z</time>
      </trkpt>
      <trkpt lat="47.08453" lon="-1.81653">
        <ele>72</ele>
        <time>2021-08-09T15:59:39.000Z</time>
      </trkpt>
      <trkpt lat="47.0844" lon="-1.81651">
        <ele>72</ele>
        <time>2021-08-09T15:59:41.000Z</time>
      </trkpt>
      <trkpt lat="47.08427" lon="-1.81649">
        <ele>72</ele>
        <time>2021-08-09T15:59:43.000Z</time>
      </trkpt>
      <trkpt lat="47.08415" lon="-1.81647">
        <ele>72</ele>
        <time>2021-08-09T15:59:45.000Z</time>
      </trkpt>
      <trkpt lat="47.08402" lon="-1.81646">
        <ele>72</ele>
        <time>2021-08-09T15:59:47.000Z</time>
      </trkpt>
      <trkpt lat="47.0839" lon="-1.81644">
        <ele>72</ele>
        <time>2021-08-09T15:59:49.000Z</time>
      </trkpt>
      <trkpt lat="47.08378" lon="-1.81643">
        <ele>72</ele>
        <time>2021-08-09T15:59:51.000Z</time>
      </trkpt>
      <trkpt lat="47.08365" lon="-1.81641">
        <ele>73</ele>
        <time>2021-08-09T15:59:53.000Z</time>
      </trkpt>
      <trkpt lat="47.08352" lon="-1.8164">
        <ele>73</ele>
        <time>2021-08-09T15:59:55.000Z</time>
      </trkpt>
      <trkpt lat="47.08339" lon="-1.81638">
        <ele>72</ele>
        <time>2021-08-09T15:59:57.000Z</time>
      </trkpt>
      <trkpt lat="47.08327" lon="-1.81637">
        <ele>72</ele>
        <time>2021-08-09T15:59:59.000Z</time>
      </trkpt>
      <trkpt lat="47.08315" lon="-1.81634">
        <ele>72</ele>
        <time>2021-08-09T16:00:01.000Z</time>
      </trkpt>
      <trkpt lat="47.08304" lon="-1.81632">
        <ele>72</ele>
        <time>2021-08-09T16:00:03.000Z</time>
      </trkpt>
      <trkpt lat="47.08292" lon="-1.81632">
        <ele>72</ele>
        <time>2021-08-09T16:00:05.000Z</time>
      </trkpt>
      <trkpt lat="47.08279" lon="-1.81634">
        <ele>72</ele>
        <time>2021-08-09T16:00:07.000Z</time>
      </trkpt>
      <trkpt lat="47.08267" lon="-1.81633">
        <ele>72</ele>
        <time>2021-08-09T16:00:09.000Z</time>
      </trkpt>
      <trkpt lat="47.08254" lon="-1.81632">
        <ele>72</ele>
        <time>2021-08-09T16:00:11.000Z</time>
      </trkpt>
      <trkpt lat="47.08241" lon="-1.81631">
        <ele>72</ele>
        <time>2021-08-09T16:00:13.000Z</time>
      </trkpt>
      <trkpt lat="47.08228" lon="-1.81631">
        <ele>72</ele>
        <time>2021-08-09T16:00:15.000Z</time>
      </trkpt>
      <trkpt lat="47.08214" lon="-1.8163">
        <ele>72</ele>
        <time>2021-08-09T16:00:17.000Z</time>
      </trkpt>
      <trkpt lat="47.08201" lon="-1.8163">
        <ele>72</ele>
        <time>2021-08-09T16:00:19.000Z</time>
      </trkpt>
      <trkpt lat="47.08188" lon="-1.81629">
        <ele>72</ele>
        <time>2021-08-09T16:00:21.000Z</time>
      </trkpt>
      <trkpt lat="47.08176" lon="-1.81628">
        <ele>71</ele>
        <time>2021-08-09T16:00:23.000Z</time>
      </trkpt>
      <trkpt lat="47.08162" lon="-1.81627">
        <ele>71</ele>
        <time>2021-08-09T16:00:25.000Z</time>
      </trkpt>
      <trkpt lat="47.08149" lon="-1.81626">
        <ele>71</ele>
        <time>2021-08-09T16:00:27.000Z</time>
      </trkpt>
      <trkpt lat="47.08136" lon="-1.81625">
        <ele>71</ele>
        <time>2021-08-09T16:00:29.000Z</time>
      </trkpt>
      <trkpt lat="47.08123" lon="-1.81623">
        <ele>71</ele>
        <time>2021-08-09T16:00:31.000Z</time>
      </trkpt>
      <trkpt lat="47.08109" lon="-1.81621">
        <ele>71</ele>
        <time>2021-08-09T16:00:33.000Z</time>
      </trkpt>
      <trkpt lat="47.08097" lon="-1.81618">
        <ele>71</ele>
        <time>2021-08-09T16:00:35.000Z</time>
      </trkpt>
      <trkpt lat="47.08084" lon="-1.81614">
        <ele>71</ele>
        <time>2021-08-09T16:00:37.000Z</time>
      </trkpt>
      <trkpt lat="47.08071" lon="-1.81609">
        <ele>71</ele>
        <time>2021-08-09T16:00:39.000Z</time>
      </trkpt>
      <trkpt lat="47.08058" lon="-1.81603">
        <ele>71</ele>
        <time>2021-08-09T16:00:41.000Z</time>
      </trkpt>
      <trkpt lat="47.08046" lon="-1.81596">
        <ele>71</ele>
        <time>2021-08-09T16:00:43.000Z</time>
      </trkpt>
      <trkpt lat="47.08033" lon="-1.81589">
        <ele>71</ele>
        <time>2021-08-09T16:00:45.000Z</time>
      </trkpt>
      <trkpt lat="47.0802" lon="-1.81582">
        <ele>71</ele>
        <time>2021-08-09T16:00:47.000Z</time>
      </trkpt>
      <trkpt lat="47.08007" lon="-1.81576">
        <ele>72</ele>
        <time>2021-08-09T16:00:49.000Z</time>
      </trkpt>
      <trkpt lat="47.07994" lon="-1.81569">
        <ele>72</ele>
        <time>2021-08-09T16:00:51.000Z</time>
      </trkpt>
      <trkpt lat="47.07981" lon="-1.81564">
        <ele>71</ele>
        <time>2021-08-09T16:00:53.000Z</time>
      </trkpt>
      <trkpt lat="47.07967" lon="-1.8156">
        <ele>70</ele>
        <time>2021-08-09T16:00:55.000Z</time>
      </trkpt>
      <trkpt lat="47.07953" lon="-1.81557">
        <ele>70</ele>
        <time>2021-08-09T16:00:57.000Z</time>
      </trkpt>
      <trkpt lat="47.07939" lon="-1.81556">
        <ele>71</ele>
        <time>2021-08-09T16:00:59.000Z</time>
      </trkpt>
      <trkpt lat="47.07925" lon="-1.81557">
        <ele>70</ele>
        <time>2021-08-09T16:01:01.000Z</time>
      </trkpt>
      <trkpt lat="47.07913" lon="-1.81558">
        <ele>70</ele>
        <time>2021-08-09T16:01:03.000Z</time>
      </trkpt>
      <trkpt lat="47.079" lon="-1.81559">
        <ele>70</ele>
        <time>2021-08-09T16:01:05.000Z</time>
      </trkpt>
      <trkpt lat="47.07886" lon="-1.8156">
        <ele>70</ele>
        <time>2021-08-09T16:01:07.000Z</time>
      </trkpt>
      <trkpt lat="47.07872" lon="-1.81561">
        <ele>70</ele>
        <time>2021-08-09T16:01:09.000Z</time>
      </trkpt>
      <trkpt lat="47.07858" lon="-1.81561">
        <ele>70</ele>
        <time>2021-08-09T16:01:11.000Z</time>
      </trkpt>
      <trkpt lat="47.07845" lon="-1.8156">
        <ele>70</ele>
        <time>2021-08-09T16:01:13.000Z</time>
      </trkpt>
      <trkpt lat="47.07832" lon="-1.81558">
        <ele>70</ele>
        <time>2021-08-09T16:01:15.000Z</time>
      </trkpt>
      <trkpt lat="47.07819" lon="-1.81556">
        <ele>70</ele>
        <time>2021-08-09T16:01:17.000Z</time>
      </trkpt>
      <trkpt lat="47.07806" lon="-1.81553">
        <ele>70</ele>
        <time>2021-08-09T16:01:19.000Z</time>
      </trkpt>
      <trkpt lat="47.07792" lon="-1.8155">
        <ele>71</ele>
        <time>2021-08-09T16:01:21.000Z</time>
      </trkpt>
      <trkpt lat="47.07779" lon="-1.81549">
        <ele>71</ele>
        <time>2021-08-09T16:01:23.000Z</time>
      </trkpt>
      <trkpt lat="47.07766" lon="-1.81548">
        <ele>71</ele>
        <time>2021-08-09T16:01:25.000Z</time>
      </trkpt>
      <trkpt lat="47.07752" lon="-1.81548">
        <ele>71</ele>
        <time>2021-08-09T16:01:27.000Z</time>
      </trkpt>
      <trkpt lat="47.07739" lon="-1.81547">
        <ele>71</ele>
        <time>2021-08-09T16:01:29.000Z</time>
      </trkpt>
      <trkpt lat="47.07726" lon="-1.81546">
        <ele>71</ele>
        <time>2021-08-09T16:01:31.000Z</time>
      </trkpt>
      <trkpt lat="47.07713" lon="-1.81545">
        <ele>71</ele>
        <time>2021-08-09T16:01:33.000Z</time>
      </trkpt>
      <trkpt lat="47.077" lon="-1.81545">
        <ele>71</ele>
        <time>2021-08-09T16:01:35.000Z</time>
      </trkpt>
      <trkpt lat="47.07686" lon="-1.81544">
        <ele>71</ele>
        <time>2021-08-09T16:01:37.000Z</time>
      </trkpt>
      <trkpt lat="47.07673" lon="-1.81543">
        <ele>71</ele>
        <time>2021-08-09T16:01:39.000Z</time>
      </trkpt>
      <trkpt lat="47.0766" lon="-1.8154">
        <ele>71</ele>
        <time>2021-08-09T16:01:41.000Z</time>
      </trkpt>
      <trkpt lat="47.07647" lon="-1.81537">
        <ele>71</ele>
        <time>2021-08-09T16:01:43.000Z</time>
      </trkpt>
      <trkpt lat="47.07633" lon="-1.81531">
        <ele>71</ele>
        <time>2021-08-09T16:01:45.000Z</time>
      </trkpt>
      <trkpt lat="47.07621" lon="-1.81522">
        <ele>71</ele>
        <time>2021-08-09T16:01:47.000Z</time>
      </trkpt>
      <trkpt lat="47.0761" lon="-1.81511">
        <ele>71</ele>
        <time>2021-08-09T16:01:49.000Z</time>
      </trkpt>
      <trkpt lat="47.07599" lon="-1.815">
        <ele>71</ele>
        <time>2021-08-09T16:01:51.000Z</time>
      </trkpt>
      <trkpt lat="47.07582" lon="-1.81483">
        <ele>71</ele>
        <time>2021-08-09T16:01:54.000Z</time>
      </trkpt>
      <trkpt lat="47.07566" lon="-1.81466">
        <ele>72</ele>
        <time>2021-08-09T16:01:57.000Z</time>
      </trkpt>
      <trkpt lat="47.07555" lon="-1.81455">
        <ele>72</ele>
        <time>2021-08-09T16:01:59.000Z</time>
      </trkpt>
      <trkpt lat="47.07537" lon="-1.81442">
        <ele>72</ele>
        <time>2021-08-09T16:02:02.000Z</time>
      </trkpt>
      <trkpt lat="47.07524" lon="-1.81441">
        <ele>71</ele>
        <time>2021-08-09T16:02:04.000Z</time>
      </trkpt>
      <trkpt lat="47.07511" lon="-1.81445">
        <ele>72</ele>
        <time>2021-08-09T16:02:06.000Z</time>
      </trkpt>
      <trkpt lat="47.07498" lon="-1.81453">
        <ele>72</ele>
        <time>2021-08-09T16:02:08.000Z</time>
      </trkpt>
      <trkpt lat="47.07485" lon="-1.81461">
        <ele>72</ele>
        <time>2021-08-09T16:02:10.000Z</time>
      </trkpt>
      <trkpt lat="47.07472" lon="-1.81469">
        <ele>72</ele>
        <time>2021-08-09T16:02:12.000Z</time>
      </trkpt>
      <trkpt lat="47.07459" lon="-1.81475">
        <ele>72</ele>
        <time>2021-08-09T16:02:14.000Z</time>
      </trkpt>
      <trkpt lat="47.07445" lon="-1.8148">
        <ele>71</ele>
        <time>2021-08-09T16:02:16.000Z</time>
      </trkpt>
      <trkpt lat="47.07431" lon="-1.81482">
        <ele>71</ele>
        <time>2021-08-09T16:02:18.000Z</time>
      </trkpt>
      <trkpt lat="47.07417" lon="-1.81482">
        <ele>71</ele>
        <time>2021-08-09T16:02:20.000Z</time>
      </trkpt>
      <trkpt lat="47.07404" lon="-1.81482">
        <ele>72</ele>
        <time>2021-08-09T16:02:22.000Z</time>
      </trkpt>
      <trkpt lat="47.0739" lon="-1.81484">
        <ele>71</ele>
        <time>2021-08-09T16:02:24.000Z</time>
      </trkpt>
      <trkpt lat="47.07377" lon="-1.81483">
        <ele>71</ele>
        <time>2021-08-09T16:02:26.000Z</time>
      </trkpt>
      <trkpt lat="47.07362" lon="-1.81481">
        <ele>71</ele>
        <time>2021-08-09T16:02:28.000Z</time>
      </trkpt>
      <trkpt lat="47.07348" lon="-1.81476">
        <ele>72</ele>
        <time>2021-08-09T16:02:30.000Z</time>
      </trkpt>
      <trkpt lat="47.07334" lon="-1.81469">
        <ele>72</ele>
        <time>2021-08-09T16:02:32.000Z</time>
      </trkpt>
      <trkpt lat="47.07321" lon="-1.81463">
        <ele>72</ele>
        <time>2021-08-09T16:02:34.000Z</time>
      </trkpt>
      <trkpt lat="47.07309" lon="-1.81457">
        <ele>72</ele>
        <time>2021-08-09T16:02:36.000Z</time>
      </trkpt>
      <trkpt lat="47.07296" lon="-1.81449">
        <ele>72</ele>
        <time>2021-08-09T16:02:38.000Z</time>
      </trkpt>
      <trkpt lat="47.07284" lon="-1.8144">
        <ele>72</ele>
        <time>2021-08-09T16:02:40.000Z</time>
      </trkpt>
      <trkpt lat="47.07272" lon="-1.81429">
        <ele>72</ele>
        <time>2021-08-09T16:02:42.000Z</time>
      </trkpt>
      <trkpt lat="47.07261" lon="-1.81416">
        <ele>73</ele>
        <time>2021-08-09T16:02:44.000Z</time>
      </trkpt>
      <trkpt lat="47.07249" lon="-1.81405">
        <ele>73</ele>
        <time>2021-08-09T16:02:46.000Z</time>
      </trkpt>
      <trkpt lat="47.07237" lon="-1.81394">
        <ele>74</ele>
        <time>2021-08-09T16:02:48.000Z</time>
      </trkpt>
      <trkpt lat="47.07225" lon="-1.81383">
        <ele>75</ele>
        <time>2021-08-09T16:02:50.000Z</time>
      </trkpt>
      <trkpt lat="47.07213" lon="-1.81372">
        <ele>75</ele>
        <time>2021-08-09T16:02:52.000Z</time>
      </trkpt>
      <trkpt lat="47.07202" lon="-1.81361">
        <ele>75</ele>
        <time>2021-08-09T16:02:54.000Z</time>
      </trkpt>
      <trkpt lat="47.07191" lon="-1.81351">
        <ele>75</ele>
        <time>2021-08-09T16:02:56.000Z</time>
      </trkpt>
      <trkpt lat="47.07179" lon="-1.81344">
        <ele>75</ele>
        <time>2021-08-09T16:02:58.000Z</time>
      </trkpt>
      <trkpt lat="47.07166" lon="-1.81347">
        <ele>74</ele>
        <time>2021-08-09T16:03:00.000Z</time>
      </trkpt>
      <trkpt lat="47.07154" lon="-1.81358">
        <ele>74</ele>
        <time>2021-08-09T16:03:02.000Z</time>
      </trkpt>
      <trkpt lat="47.07144" lon="-1.8137">
        <ele>74</ele>
        <time>2021-08-09T16:03:04.000Z</time>
      </trkpt>
      <trkpt lat="47.07134" lon="-1.81381">
        <ele>73</ele>
        <time>2021-08-09T16:03:06.000Z</time>
      </trkpt>
      <trkpt lat="47.07123" lon="-1.81393">
        <ele>74</ele>
        <time>2021-08-09T16:03:08.000Z</time>
      </trkpt>
      <trkpt lat="47.07113" lon="-1.81405">
        <ele>74</ele>
        <time>2021-08-09T16:03:10.000Z</time>
      </trkpt>
      <trkpt lat="47.07103" lon="-1.81419">
        <ele>75</ele>
        <time>2021-08-09T16:03:12.000Z</time>
      </trkpt>
      <trkpt lat="47.07093" lon="-1.81434">
        <ele>76</ele>
        <time>2021-08-09T16:03:14.000Z</time>
      </trkpt>
      <trkpt lat="47.07083" lon="-1.81448">
        <ele>77</ele>
        <time>2021-08-09T16:03:16.000Z</time>
      </trkpt>
      <trkpt lat="47.07074" lon="-1.81461">
        <ele>77</ele>
        <time>2021-08-09T16:03:18.000Z</time>
      </trkpt>
      <trkpt lat="47.07066" lon="-1.81474">
        <ele>77</ele>
        <time>2021-08-09T16:03:20.000Z</time>
      </trkpt>
      <trkpt lat="47.07059" lon="-1.81488">
        <ele>77</ele>
        <time>2021-08-09T16:03:22.000Z</time>
      </trkpt>
      <trkpt lat="47.07052" lon="-1.81504">
        <ele>77</ele>
        <time>2021-08-09T16:03:24.000Z</time>
      </trkpt>
      <trkpt lat="47.07045" lon="-1.8152">
        <ele>77</ele>
        <time>2021-08-09T16:03:26.000Z</time>
      </trkpt>
      <trkpt lat="47.07038" lon="-1.81534">
        <ele>77</ele>
        <time>2021-08-09T16:03:28.000Z</time>
      </trkpt>
      <trkpt lat="47.0703" lon="-1.81551">
        <ele>76</ele>
        <time>2021-08-09T16:03:30.000Z</time>
      </trkpt>
      <trkpt lat="47.07025" lon="-1.81568">
        <ele>76</ele>
        <time>2021-08-09T16:03:32.000Z</time>
      </trkpt>
      <trkpt lat="47.0702" lon="-1.81585">
        <ele>77</ele>
        <time>2021-08-09T16:03:34.000Z</time>
      </trkpt>
      <trkpt lat="47.07015" lon="-1.81602">
        <ele>77</ele>
        <time>2021-08-09T16:03:36.000Z</time>
      </trkpt>
      <trkpt lat="47.0701" lon="-1.81619">
        <ele>78</ele>
        <time>2021-08-09T16:03:38.000Z</time>
      </trkpt>
      <trkpt lat="47.07006" lon="-1.81634">
        <ele>78</ele>
        <time>2021-08-09T16:03:40.000Z</time>
      </trkpt>
      <trkpt lat="47.07001" lon="-1.81651">
        <ele>78</ele>
        <time>2021-08-09T16:03:42.000Z</time>
      </trkpt>
      <trkpt lat="47.06997" lon="-1.81668">
        <ele>78</ele>
        <time>2021-08-09T16:03:44.000Z</time>
      </trkpt>
      <trkpt lat="47.06992" lon="-1.81684">
        <ele>78</ele>
        <time>2021-08-09T16:03:46.000Z</time>
      </trkpt>
      <trkpt lat="47.06987" lon="-1.817">
        <ele>78</ele>
        <time>2021-08-09T16:03:48.000Z</time>
      </trkpt>
      <trkpt lat="47.06982" lon="-1.81715">
        <ele>78</ele>
        <time>2021-08-09T16:03:50.000Z</time>
      </trkpt>
      <trkpt lat="47.06976" lon="-1.8173">
        <ele>78</ele>
        <time>2021-08-09T16:03:52.000Z</time>
      </trkpt>
      <trkpt lat="47.0697" lon="-1.81745">
        <ele>79</ele>
        <time>2021-08-09T16:03:54.000Z</time>
      </trkpt>
      <trkpt lat="47.06963" lon="-1.81759">
        <ele>79</ele>
        <time>2021-08-09T16:03:56.000Z</time>
      </trkpt>
      <trkpt lat="47.06957" lon="-1.81774">
        <ele>79</ele>
        <time>2021-08-09T16:03:58.000Z</time>
      </trkpt>
      <trkpt lat="47.0695" lon="-1.81788">
        <ele>79</ele>
        <time>2021-08-09T16:04:00.000Z</time>
      </trkpt>
      <trkpt lat="47.06944" lon="-1.81803">
        <ele>79</ele>
        <time>2021-08-09T16:04:02.000Z</time>
      </trkpt>
      <trkpt lat="47.06938" lon="-1.81818">
        <ele>79</ele>
        <time>2021-08-09T16:04:04.000Z</time>
      </trkpt>
      <trkpt lat="47.06933" lon="-1.81833">
        <ele>79</ele>
        <time>2021-08-09T16:04:06.000Z</time>
      </trkpt>
      <trkpt lat="47.06926" lon="-1.81848">
        <ele>80</ele>
        <time>2021-08-09T16:04:08.000Z</time>
      </trkpt>
      <trkpt lat="47.0692" lon="-1.81862">
        <ele>80</ele>
        <time>2021-08-09T16:04:10.000Z</time>
      </trkpt>
      <trkpt lat="47.06914" lon="-1.81877">
        <ele>81</ele>
        <time>2021-08-09T16:04:12.000Z</time>
      </trkpt>
      <trkpt lat="47.06908" lon="-1.81892">
        <ele>81</ele>
        <time>2021-08-09T16:04:14.000Z</time>
      </trkpt>
      <trkpt lat="47.06902" lon="-1.81907">
        <ele>81</ele>
        <time>2021-08-09T16:04:16.000Z</time>
      </trkpt>
      <trkpt lat="47.06897" lon="-1.81922">
        <ele>81</ele>
        <time>2021-08-09T16:04:18.000Z</time>
      </trkpt>
      <trkpt lat="47.06893" lon="-1.81939">
        <ele>82</ele>
        <time>2021-08-09T16:04:20.000Z</time>
      </trkpt>
      <trkpt lat="47.06892" lon="-1.81955">
        <ele>82</ele>
        <time>2021-08-09T16:04:22.000Z</time>
      </trkpt>
      <trkpt lat="47.06892" lon="-1.81972">
        <ele>82</ele>
        <time>2021-08-09T16:04:24.000Z</time>
      </trkpt>
      <trkpt lat="47.06893" lon="-1.8199">
        <ele>83</ele>
        <time>2021-08-09T16:04:26.000Z</time>
      </trkpt>
      <trkpt lat="47.06895" lon="-1.82006">
        <ele>83</ele>
        <time>2021-08-09T16:04:28.000Z</time>
      </trkpt>
      <trkpt lat="47.06897" lon="-1.82023">
        <ele>83</ele>
        <time>2021-08-09T16:04:30.000Z</time>
      </trkpt>
      <trkpt lat="47.06898" lon="-1.8204">
        <ele>84</ele>
        <time>2021-08-09T16:04:32.000Z</time>
      </trkpt>
      <trkpt lat="47.069" lon="-1.82058">
        <ele>85</ele>
        <time>2021-08-09T16:04:34.000Z</time>
      </trkpt>
      <trkpt lat="47.06901" lon="-1.82076">
        <ele>85</ele>
        <time>2021-08-09T16:04:36.000Z</time>
      </trkpt>
      <trkpt lat="47.06903" lon="-1.82092">
        <ele>87</ele>
        <time>2021-08-09T16:04:38.000Z</time>
      </trkpt>
      <trkpt lat="47.06904" lon="-1.8211">
        <ele>87</ele>
        <time>2021-08-09T16:04:40.000Z</time>
      </trkpt>
      <trkpt lat="47.06905" lon="-1.82129">
        <ele>87</ele>
        <time>2021-08-09T16:04:42.000Z</time>
      </trkpt>
      <trkpt lat="47.06905" lon="-1.82147">
        <ele>87</ele>
        <time>2021-08-09T16:04:44.000Z</time>
      </trkpt>
      <trkpt lat="47.06905" lon="-1.82166">
        <ele>87</ele>
        <time>2021-08-09T16:04:46.000Z</time>
      </trkpt>
      <trkpt lat="47.06904" lon="-1.82184">
        <ele>87</ele>
        <time>2021-08-09T16:04:48.000Z</time>
      </trkpt>
      <trkpt lat="47.06904" lon="-1.82202">
        <ele>87</ele>
        <time>2021-08-09T16:04:50.000Z</time>
      </trkpt>
      <trkpt lat="47.06904" lon="-1.8222">
        <ele>86</ele>
        <time>2021-08-09T16:04:52.000Z</time>
      </trkpt>
      <trkpt lat="47.06903" lon="-1.82238">
        <ele>86</ele>
        <time>2021-08-09T16:04:54.000Z</time>
      </trkpt>
      <trkpt lat="47.06903" lon="-1.82256">
        <ele>86</ele>
        <time>2021-08-09T16:04:56.000Z</time>
      </trkpt>
      <trkpt lat="47.06902" lon="-1.82274">
        <ele>86</ele>
        <time>2021-08-09T16:04:58.000Z</time>
      </trkpt>
      <trkpt lat="47.069" lon="-1.82293">
        <ele>86</ele>
        <time>2021-08-09T16:05:00.000Z</time>
      </trkpt>
      <trkpt lat="47.06899" lon="-1.82311">
        <ele>86</ele>
        <time>2021-08-09T16:05:02.000Z</time>
      </trkpt>
      <trkpt lat="47.06897" lon="-1.82329">
        <ele>86</ele>
        <time>2021-08-09T16:05:04.000Z</time>
      </trkpt>
      <trkpt lat="47.06894" lon="-1.82348">
        <ele>86</ele>
        <time>2021-08-09T16:05:06.000Z</time>
      </trkpt>
      <trkpt lat="47.06892" lon="-1.82366">
        <ele>86</ele>
        <time>2021-08-09T16:05:08.000Z</time>
      </trkpt>
      <trkpt lat="47.06889" lon="-1.82383">
        <ele>87</ele>
        <time>2021-08-09T16:05:10.000Z</time>
      </trkpt>
      <trkpt lat="47.06887" lon="-1.82401">
        <ele>87</ele>
        <time>2021-08-09T16:05:12.000Z</time>
      </trkpt>
      <trkpt lat="47.06884" lon="-1.82419">
        <ele>87</ele>
        <time>2021-08-09T16:05:14.000Z</time>
      </trkpt>
      <trkpt lat="47.06882" lon="-1.82436">
        <ele>87</ele>
        <time>2021-08-09T16:05:16.000Z</time>
      </trkpt>
      <trkpt lat="47.06881" lon="-1.82454">
        <ele>87</ele>
        <time>2021-08-09T16:05:18.000Z</time>
      </trkpt>
      <trkpt lat="47.06881" lon="-1.82473">
        <ele>87</ele>
        <time>2021-08-09T16:05:20.000Z</time>
      </trkpt>
      <trkpt lat="47.06882" lon="-1.82491">
        <ele>86</ele>
        <time>2021-08-09T16:05:22.000Z</time>
      </trkpt>
      <trkpt lat="47.06883" lon="-1.8251">
        <ele>86</ele>
        <time>2021-08-09T16:05:24.000Z</time>
      </trkpt>
      <trkpt lat="47.06885" lon="-1.82528">
        <ele>85</ele>
        <time>2021-08-09T16:05:26.000Z</time>
      </trkpt>
      <trkpt lat="47.06887" lon="-1.82547">
        <ele>85</ele>
        <time>2021-08-09T16:05:28.000Z</time>
      </trkpt>
      <trkpt lat="47.06889" lon="-1.82565">
        <ele>86</ele>
        <time>2021-08-09T16:05:30.000Z</time>
      </trkpt>
      <trkpt lat="47.06891" lon="-1.82583">
        <ele>86</ele>
        <time>2021-08-09T16:05:32.000Z</time>
      </trkpt>
      <trkpt lat="47.06892" lon="-1.82603">
        <ele>86</ele>
        <time>2021-08-09T16:05:34.000Z</time>
      </trkpt>
      <trkpt lat="47.06893" lon="-1.82622">
        <ele>86</ele>
        <time>2021-08-09T16:05:36.000Z</time>
      </trkpt>
      <trkpt lat="47.06895" lon="-1.8264">
        <ele>86</ele>
        <time>2021-08-09T16:05:38.000Z</time>
      </trkpt>
      <trkpt lat="47.06896" lon="-1.82658">
        <ele>87</ele>
        <time>2021-08-09T16:05:40.000Z</time>
      </trkpt>
      <trkpt lat="47.06897" lon="-1.82677">
        <ele>88</ele>
        <time>2021-08-09T16:05:42.000Z</time>
      </trkpt>
      <trkpt lat="47.06897" lon="-1.82696">
        <ele>88</ele>
        <time>2021-08-09T16:05:44.000Z</time>
      </trkpt>
      <trkpt lat="47.06896" lon="-1.82715">
        <ele>87</ele>
        <time>2021-08-09T16:05:46.000Z</time>
      </trkpt>
      <trkpt lat="47.06895" lon="-1.82734">
        <ele>87</ele>
        <time>2021-08-09T16:05:48.000Z</time>
      </trkpt>
      <trkpt lat="47.06895" lon="-1.82753">
        <ele>86</ele>
        <time>2021-08-09T16:05:50.000Z</time>
      </trkpt>
      <trkpt lat="47.06895" lon="-1.82771">
        <ele>86</ele>
        <time>2021-08-09T16:05:52.000Z</time>
      </trkpt>
      <trkpt lat="47.06896" lon="-1.8279">
        <ele>86</ele>
        <time>2021-08-09T16:05:54.000Z</time>
      </trkpt>
      <trkpt lat="47.06897" lon="-1.82809">
        <ele>86</ele>
        <time>2021-08-09T16:05:56.000Z</time>
      </trkpt>
      <trkpt lat="47.06898" lon="-1.82827">
        <ele>86</ele>
        <time>2021-08-09T16:05:58.000Z</time>
      </trkpt>
      <trkpt lat="47.06899" lon="-1.82845">
        <ele>86</ele>
        <time>2021-08-09T16:06:00.000Z</time>
      </trkpt>
      <trkpt lat="47.069" lon="-1.82863">
        <ele>86</ele>
        <time>2021-08-09T16:06:02.000Z</time>
      </trkpt>
      <trkpt lat="47.06901" lon="-1.82883">
        <ele>86</ele>
        <time>2021-08-09T16:06:04.000Z</time>
      </trkpt>
      <trkpt lat="47.06902" lon="-1.82901">
        <ele>86</ele>
        <time>2021-08-09T16:06:06.000Z</time>
      </trkpt>
      <trkpt lat="47.06903" lon="-1.82921">
        <ele>86</ele>
        <time>2021-08-09T16:06:08.000Z</time>
      </trkpt>
      <trkpt lat="47.06904" lon="-1.8294">
        <ele>85</ele>
        <time>2021-08-09T16:06:10.000Z</time>
      </trkpt>
      <trkpt lat="47.06905" lon="-1.82959">
        <ele>85</ele>
        <time>2021-08-09T16:06:12.000Z</time>
      </trkpt>
      <trkpt lat="47.06906" lon="-1.82978">
        <ele>85</ele>
        <time>2021-08-09T16:06:14.000Z</time>
      </trkpt>
      <trkpt lat="47.06908" lon="-1.82996">
        <ele>85</ele>
        <time>2021-08-09T16:06:16.000Z</time>
      </trkpt>
      <trkpt lat="47.06911" lon="-1.83014">
        <ele>85</ele>
        <time>2021-08-09T16:06:18.000Z</time>
      </trkpt>
      <trkpt lat="47.06915" lon="-1.83028">
        <ele>85</ele>
        <time>2021-08-09T16:06:20.000Z</time>
      </trkpt>
      <trkpt lat="47.06906" lon="-1.8304">
        <ele>85</ele>
        <time>2021-08-09T16:06:23.000Z</time>
      </trkpt>
      <trkpt lat="47.06895" lon="-1.83039">
        <ele>85</ele>
        <time>2021-08-09T16:06:25.000Z</time>
      </trkpt>
      <trkpt lat="47.06883" lon="-1.83037">
        <ele>85</ele>
        <time>2021-08-09T16:06:27.000Z</time>
      </trkpt>
      <trkpt lat="47.0687" lon="-1.83036">
        <ele>85</ele>
        <time>2021-08-09T16:06:29.000Z</time>
      </trkpt>
      <trkpt lat="47.06857" lon="-1.83033">
        <ele>84</ele>
        <time>2021-08-09T16:06:31.000Z</time>
      </trkpt>
      <trkpt lat="47.06843" lon="-1.83032">
        <ele>84</ele>
        <time>2021-08-09T16:06:33.000Z</time>
      </trkpt>
      <trkpt lat="47.06829" lon="-1.83032">
        <ele>84</ele>
        <time>2021-08-09T16:06:35.000Z</time>
      </trkpt>
      <trkpt lat="47.06816" lon="-1.83032">
        <ele>84</ele>
        <time>2021-08-09T16:06:37.000Z</time>
      </trkpt>
      <trkpt lat="47.06802" lon="-1.83033">
        <ele>84</ele>
        <time>2021-08-09T16:06:39.000Z</time>
      </trkpt>
      <trkpt lat="47.06788" lon="-1.83036">
        <ele>83</ele>
        <time>2021-08-09T16:06:41.000Z</time>
      </trkpt>
      <trkpt lat="47.06774" lon="-1.83038">
        <ele>83</ele>
        <time>2021-08-09T16:06:43.000Z</time>
      </trkpt>
      <trkpt lat="47.0676" lon="-1.8304">
        <ele>83</ele>
        <time>2021-08-09T16:06:45.000Z</time>
      </trkpt>
      <trkpt lat="47.06746" lon="-1.83043">
        <ele>83</ele>
        <time>2021-08-09T16:06:47.000Z</time>
      </trkpt>
      <trkpt lat="47.06732" lon="-1.83045">
        <ele>83</ele>
        <time>2021-08-09T16:06:49.000Z</time>
      </trkpt>
      <trkpt lat="47.06718" lon="-1.83047">
        <ele>83</ele>
        <time>2021-08-09T16:06:51.000Z</time>
      </trkpt>
      <trkpt lat="47.06704" lon="-1.8305">
        <ele>83</ele>
        <time>2021-08-09T16:06:53.000Z</time>
      </trkpt>
      <trkpt lat="47.0669" lon="-1.83052">
        <ele>82</ele>
        <time>2021-08-09T16:06:55.000Z</time>
      </trkpt>
      <trkpt lat="47.06676" lon="-1.83056">
        <ele>82</ele>
        <time>2021-08-09T16:06:57.000Z</time>
      </trkpt>
      <trkpt lat="47.06662" lon="-1.83059">
        <ele>82</ele>
        <time>2021-08-09T16:06:59.000Z</time>
      </trkpt>
      <trkpt lat="47.06648" lon="-1.83063">
        <ele>82</ele>
        <time>2021-08-09T16:07:01.000Z</time>
      </trkpt>
      <trkpt lat="47.06634" lon="-1.83066">
        <ele>82</ele>
        <time>2021-08-09T16:07:03.000Z</time>
      </trkpt>
      <trkpt lat="47.0662" lon="-1.83069">
        <ele>82</ele>
        <time>2021-08-09T16:07:05.000Z</time>
      </trkpt>
      <trkpt lat="47.06606" lon="-1.83073">
        <ele>82</ele>
        <time>2021-08-09T16:07:07.000Z</time>
      </trkpt>
      <trkpt lat="47.06592" lon="-1.83077">
        <ele>83</ele>
        <time>2021-08-09T16:07:09.000Z</time>
      </trkpt>
      <trkpt lat="47.06579" lon="-1.8308">
        <ele>83</ele>
        <time>2021-08-09T16:07:11.000Z</time>
      </trkpt>
      <trkpt lat="47.06565" lon="-1.83084">
        <ele>83</ele>
        <time>2021-08-09T16:07:13.000Z</time>
      </trkpt>
      <trkpt lat="47.06552" lon="-1.83089">
        <ele>82</ele>
        <time>2021-08-09T16:07:15.000Z</time>
      </trkpt>
      <trkpt lat="47.06538" lon="-1.83094">
        <ele>82</ele>
        <time>2021-08-09T16:07:17.000Z</time>
      </trkpt>
      <trkpt lat="47.06525" lon="-1.831">
        <ele>82</ele>
        <time>2021-08-09T16:07:19.000Z</time>
      </trkpt>
      <trkpt lat="47.06512" lon="-1.83106">
        <ele>82</ele>
        <time>2021-08-09T16:07:21.000Z</time>
      </trkpt>
      <trkpt lat="47.06498" lon="-1.83111">
        <ele>83</ele>
        <time>2021-08-09T16:07:23.000Z</time>
      </trkpt>
      <trkpt lat="47.06485" lon="-1.83117">
        <ele>83</ele>
        <time>2021-08-09T16:07:25.000Z</time>
      </trkpt>
      <trkpt lat="47.06472" lon="-1.83123">
        <ele>83</ele>
        <time>2021-08-09T16:07:27.000Z</time>
      </trkpt>
      <trkpt lat="47.06458" lon="-1.83129">
        <ele>83</ele>
        <time>2021-08-09T16:07:29.000Z</time>
      </trkpt>
      <trkpt lat="47.06445" lon="-1.83136">
        <ele>83</ele>
        <time>2021-08-09T16:07:31.000Z</time>
      </trkpt>
      <trkpt lat="47.06431" lon="-1.83142">
        <ele>83</ele>
        <time>2021-08-09T16:07:33.000Z</time>
      </trkpt>
      <trkpt lat="47.06418" lon="-1.83147">
        <ele>83</ele>
        <time>2021-08-09T16:07:35.000Z</time>
      </trkpt>
      <trkpt lat="47.06405" lon="-1.83153">
        <ele>84</ele>
        <time>2021-08-09T16:07:37.000Z</time>
      </trkpt>
      <trkpt lat="47.06392" lon="-1.83159">
        <ele>84</ele>
        <time>2021-08-09T16:07:39.000Z</time>
      </trkpt>
      <trkpt lat="47.06379" lon="-1.83165">
        <ele>84</ele>
        <time>2021-08-09T16:07:41.000Z</time>
      </trkpt>
      <trkpt lat="47.06366" lon="-1.8317">
        <ele>84</ele>
        <time>2021-08-09T16:07:43.000Z</time>
      </trkpt>
      <trkpt lat="47.06353" lon="-1.83175">
        <ele>84</ele>
        <time>2021-08-09T16:07:45.000Z</time>
      </trkpt>
      <trkpt lat="47.0634" lon="-1.8318">
        <ele>84</ele>
        <time>2021-08-09T16:07:47.000Z</time>
      </trkpt>
      <trkpt lat="47.06327" lon="-1.83186">
        <ele>85</ele>
        <time>2021-08-09T16:07:49.000Z</time>
      </trkpt>
      <trkpt lat="47.06315" lon="-1.83191">
        <ele>85</ele>
        <time>2021-08-09T16:07:51.000Z</time>
      </trkpt>
      <trkpt lat="47.06302" lon="-1.83195">
        <ele>85</ele>
        <time>2021-08-09T16:07:53.000Z</time>
      </trkpt>
      <trkpt lat="47.06288" lon="-1.83198">
        <ele>85</ele>
        <time>2021-08-09T16:07:55.000Z</time>
      </trkpt>
      <trkpt lat="47.06275" lon="-1.832">
        <ele>85</ele>
        <time>2021-08-09T16:07:57.000Z</time>
      </trkpt>
      <trkpt lat="47.06262" lon="-1.83202">
        <ele>85</ele>
        <time>2021-08-09T16:07:59.000Z</time>
      </trkpt>
      <trkpt lat="47.06249" lon="-1.83202">
        <ele>85</ele>
        <time>2021-08-09T16:08:01.000Z</time>
      </trkpt>
      <trkpt lat="47.06236" lon="-1.83203">
        <ele>85</ele>
        <time>2021-08-09T16:08:03.000Z</time>
      </trkpt>
      <trkpt lat="47.06223" lon="-1.83205">
        <ele>85</ele>
        <time>2021-08-09T16:08:05.000Z</time>
      </trkpt>
      <trkpt lat="47.0621" lon="-1.83205">
        <ele>86</ele>
        <time>2021-08-09T16:08:07.000Z</time>
      </trkpt>
      <trkpt lat="47.06196" lon="-1.83205">
        <ele>86</ele>
        <time>2021-08-09T16:08:09.000Z</time>
      </trkpt>
      <trkpt lat="47.06183" lon="-1.83206">
        <ele>86</ele>
        <time>2021-08-09T16:08:11.000Z</time>
      </trkpt>
      <trkpt lat="47.0617" lon="-1.83207">
        <ele>86</ele>
        <time>2021-08-09T16:08:13.000Z</time>
      </trkpt>
      <trkpt lat="47.06157" lon="-1.83208">
        <ele>86</ele>
        <time>2021-08-09T16:08:15.000Z</time>
      </trkpt>
      <trkpt lat="47.06144" lon="-1.83208">
        <ele>86</ele>
        <time>2021-08-09T16:08:17.000Z</time>
      </trkpt>
      <trkpt lat="47.06131" lon="-1.83209">
        <ele>86</ele>
        <time>2021-08-09T16:08:19.000Z</time>
      </trkpt>
      <trkpt lat="47.06118" lon="-1.8321">
        <ele>86</ele>
        <time>2021-08-09T16:08:21.000Z</time>
      </trkpt>
      <trkpt lat="47.06104" lon="-1.8321">
        <ele>86</ele>
        <time>2021-08-09T16:08:23.000Z</time>
      </trkpt>
      <trkpt lat="47.0609" lon="-1.83211">
        <ele>86</ele>
        <time>2021-08-09T16:08:25.000Z</time>
      </trkpt>
      <trkpt lat="47.06077" lon="-1.83211">
        <ele>86</ele>
        <time>2021-08-09T16:08:27.000Z</time>
      </trkpt>
      <trkpt lat="47.06063" lon="-1.83212">
        <ele>86</ele>
        <time>2021-08-09T16:08:29.000Z</time>
      </trkpt>
      <trkpt lat="47.0605" lon="-1.83213">
        <ele>86</ele>
        <time>2021-08-09T16:08:31.000Z</time>
      </trkpt>
      <trkpt lat="47.06037" lon="-1.83213">
        <ele>86</ele>
        <time>2021-08-09T16:08:33.000Z</time>
      </trkpt>
      <trkpt lat="47.06024" lon="-1.83214">
        <ele>86</ele>
        <time>2021-08-09T16:08:35.000Z</time>
      </trkpt>
      <trkpt lat="47.0601" lon="-1.83214">
        <ele>86</ele>
        <time>2021-08-09T16:08:37.000Z</time>
      </trkpt>
      <trkpt lat="47.05997" lon="-1.83215">
        <ele>86</ele>
        <time>2021-08-09T16:08:39.000Z</time>
      </trkpt>
      <trkpt lat="47.05984" lon="-1.83217">
        <ele>85</ele>
        <time>2021-08-09T16:08:41.000Z</time>
      </trkpt>
      <trkpt lat="47.05972" lon="-1.83223">
        <ele>85</ele>
        <time>2021-08-09T16:08:43.000Z</time>
      </trkpt>
      <trkpt lat="47.05962" lon="-1.83236">
        <ele>85</ele>
        <time>2021-08-09T16:08:45.000Z</time>
      </trkpt>
      <trkpt lat="47.05952" lon="-1.8325">
        <ele>85</ele>
        <time>2021-08-09T16:08:47.000Z</time>
      </trkpt>
      <trkpt lat="47.05943" lon="-1.83264">
        <ele>85</ele>
        <time>2021-08-09T16:08:49.000Z</time>
      </trkpt>
      <trkpt lat="47.05933" lon="-1.83278">
        <ele>84</ele>
        <time>2021-08-09T16:08:51.000Z</time>
      </trkpt>
      <trkpt lat="47.05924" lon="-1.83292">
        <ele>85</ele>
        <time>2021-08-09T16:08:53.000Z</time>
      </trkpt>
      <trkpt lat="47.05915" lon="-1.83306">
        <ele>85</ele>
        <time>2021-08-09T16:08:55.000Z</time>
      </trkpt>
      <trkpt lat="47.05906" lon="-1.8332">
        <ele>85</ele>
        <time>2021-08-09T16:08:57.000Z</time>
      </trkpt>
      <trkpt lat="47.05897" lon="-1.83334">
        <ele>85</ele>
        <time>2021-08-09T16:08:59.000Z</time>
      </trkpt>
      <trkpt lat="47.05887" lon="-1.83348">
        <ele>85</ele>
        <time>2021-08-09T16:09:01.000Z</time>
      </trkpt>
      <trkpt lat="47.05878" lon="-1.83361">
        <ele>84</ele>
        <time>2021-08-09T16:09:03.000Z</time>
      </trkpt>
      <trkpt lat="47.05869" lon="-1.83375">
        <ele>84</ele>
        <time>2021-08-09T16:09:05.000Z</time>
      </trkpt>
      <trkpt lat="47.0586" lon="-1.83388">
        <ele>85</ele>
        <time>2021-08-09T16:09:07.000Z</time>
      </trkpt>
      <trkpt lat="47.05851" lon="-1.83401">
        <ele>84</ele>
        <time>2021-08-09T16:09:09.000Z</time>
      </trkpt>
      <trkpt lat="47.05842" lon="-1.83415">
        <ele>85</ele>
        <time>2021-08-09T16:09:11.000Z</time>
      </trkpt>
      <trkpt lat="47.05833" lon="-1.83428">
        <ele>85</ele>
        <time>2021-08-09T16:09:13.000Z</time>
      </trkpt>
      <trkpt lat="47.05823" lon="-1.83442">
        <ele>85</ele>
        <time>2021-08-09T16:09:15.000Z</time>
      </trkpt>
      <trkpt lat="47.05814" lon="-1.83456">
        <ele>85</ele>
        <time>2021-08-09T16:09:17.000Z</time>
      </trkpt>
      <trkpt lat="47.05805" lon="-1.83469">
        <ele>85</ele>
        <time>2021-08-09T16:09:19.000Z</time>
      </trkpt>
      <trkpt lat="47.05794" lon="-1.83482">
        <ele>86</ele>
        <time>2021-08-09T16:09:21.000Z</time>
      </trkpt>
      <trkpt lat="47.05784" lon="-1.83494">
        <ele>86</ele>
        <time>2021-08-09T16:09:23.000Z</time>
      </trkpt>
      <trkpt lat="47.05774" lon="-1.83507">
        <ele>86</ele>
        <time>2021-08-09T16:09:25.000Z</time>
      </trkpt>
      <trkpt lat="47.05763" lon="-1.83519">
        <ele>86</ele>
        <time>2021-08-09T16:09:27.000Z</time>
      </trkpt>
      <trkpt lat="47.05753" lon="-1.83532">
        <ele>85</ele>
        <time>2021-08-09T16:09:29.000Z</time>
      </trkpt>
      <trkpt lat="47.05743" lon="-1.83544">
        <ele>86</ele>
        <time>2021-08-09T16:09:31.000Z</time>
      </trkpt>
      <trkpt lat="47.05733" lon="-1.83556">
        <ele>86</ele>
        <time>2021-08-09T16:09:33.000Z</time>
      </trkpt>
      <trkpt lat="47.05724" lon="-1.83569">
        <ele>86</ele>
        <time>2021-08-09T16:09:35.000Z</time>
      </trkpt>
      <trkpt lat="47.05715" lon="-1.83585">
        <ele>86</ele>
        <time>2021-08-09T16:09:37.000Z</time>
      </trkpt>
      <trkpt lat="47.05707" lon="-1.836">
        <ele>85</ele>
        <time>2021-08-09T16:09:39.000Z</time>
      </trkpt>
      <trkpt lat="47.05699" lon="-1.83614">
        <ele>86</ele>
        <time>2021-08-09T16:09:41.000Z</time>
      </trkpt>
      <trkpt lat="47.0569" lon="-1.83629">
        <ele>86</ele>
        <time>2021-08-09T16:09:43.000Z</time>
      </trkpt>
      <trkpt lat="47.05681" lon="-1.83644">
        <ele>86</ele>
        <time>2021-08-09T16:09:45.000Z</time>
      </trkpt>
      <trkpt lat="47.05673" lon="-1.83659">
        <ele>86</ele>
        <time>2021-08-09T16:09:47.000Z</time>
      </trkpt>
      <trkpt lat="47.05664" lon="-1.83675">
        <ele>86</ele>
        <time>2021-08-09T16:09:49.000Z</time>
      </trkpt>
      <trkpt lat="47.05656" lon="-1.8369">
        <ele>87</ele>
        <time>2021-08-09T16:09:51.000Z</time>
      </trkpt>
      <trkpt lat="47.05648" lon="-1.83706">
        <ele>87</ele>
        <time>2021-08-09T16:09:53.000Z</time>
      </trkpt>
      <trkpt lat="47.05639" lon="-1.83721">
        <ele>86</ele>
        <time>2021-08-09T16:09:55.000Z</time>
      </trkpt>
      <trkpt lat="47.05631" lon="-1.83735">
        <ele>86</ele>
        <time>2021-08-09T16:09:57.000Z</time>
      </trkpt>
      <trkpt lat="47.05622" lon="-1.83751">
        <ele>86</ele>
        <time>2021-08-09T16:09:59.000Z</time>
      </trkpt>
      <trkpt lat="47.05613" lon="-1.83766">
        <ele>86</ele>
        <time>2021-08-09T16:10:01.000Z</time>
      </trkpt>
      <trkpt lat="47.05604" lon="-1.83782">
        <ele>86</ele>
        <time>2021-08-09T16:10:03.000Z</time>
      </trkpt>
      <trkpt lat="47.05595" lon="-1.83797">
        <ele>86</ele>
        <time>2021-08-09T16:10:05.000Z</time>
      </trkpt>
      <trkpt lat="47.05586" lon="-1.83813">
        <ele>86</ele>
        <time>2021-08-09T16:10:07.000Z</time>
      </trkpt>
      <trkpt lat="47.05578" lon="-1.8383">
        <ele>86</ele>
        <time>2021-08-09T16:10:09.000Z</time>
      </trkpt>
      <trkpt lat="47.05569" lon="-1.83846">
        <ele>86</ele>
        <time>2021-08-09T16:10:11.000Z</time>
      </trkpt>
      <trkpt lat="47.0556" lon="-1.83862">
        <ele>86</ele>
        <time>2021-08-09T16:10:13.000Z</time>
      </trkpt>
      <trkpt lat="47.05551" lon="-1.83878">
        <ele>87</ele>
        <time>2021-08-09T16:10:15.000Z</time>
      </trkpt>
      <trkpt lat="47.05542" lon="-1.83894">
        <ele>87</ele>
        <time>2021-08-09T16:10:17.000Z</time>
      </trkpt>
      <trkpt lat="47.05533" lon="-1.83909">
        <ele>86</ele>
        <time>2021-08-09T16:10:19.000Z</time>
      </trkpt>
      <trkpt lat="47.05525" lon="-1.83925">
        <ele>87</ele>
        <time>2021-08-09T16:10:21.000Z</time>
      </trkpt>
      <trkpt lat="47.05516" lon="-1.8394">
        <ele>87</ele>
        <time>2021-08-09T16:10:23.000Z</time>
      </trkpt>
      <trkpt lat="47.05507" lon="-1.83956">
        <ele>86</ele>
        <time>2021-08-09T16:10:25.000Z</time>
      </trkpt>
      <trkpt lat="47.05499" lon="-1.83973">
        <ele>86</ele>
        <time>2021-08-09T16:10:27.000Z</time>
      </trkpt>
      <trkpt lat="47.0549" lon="-1.83989">
        <ele>86</ele>
        <time>2021-08-09T16:10:29.000Z</time>
      </trkpt>
      <trkpt lat="47.05482" lon="-1.84004">
        <ele>86</ele>
        <time>2021-08-09T16:10:31.000Z</time>
      </trkpt>
      <trkpt lat="47.05474" lon="-1.8402">
        <ele>86</ele>
        <time>2021-08-09T16:10:33.000Z</time>
      </trkpt>
      <trkpt lat="47.05466" lon="-1.84036">
        <ele>86</ele>
        <time>2021-08-09T16:10:35.000Z</time>
      </trkpt>
      <trkpt lat="47.05458" lon="-1.84053">
        <ele>86</ele>
        <time>2021-08-09T16:10:37.000Z</time>
      </trkpt>
      <trkpt lat="47.0545" lon="-1.84069">
        <ele>86</ele>
        <time>2021-08-09T16:10:39.000Z</time>
      </trkpt>
      <trkpt lat="47.05442" lon="-1.84085">
        <ele>86</ele>
        <time>2021-08-09T16:10:41.000Z</time>
      </trkpt>
      <trkpt lat="47.05433" lon="-1.84101">
        <ele>86</ele>
        <time>2021-08-09T16:10:43.000Z</time>
      </trkpt>
      <trkpt lat="47.05426" lon="-1.84117">
        <ele>86</ele>
        <time>2021-08-09T16:10:45.000Z</time>
      </trkpt>
      <trkpt lat="47.05417" lon="-1.84133">
        <ele>86</ele>
        <time>2021-08-09T16:10:47.000Z</time>
      </trkpt>
      <trkpt lat="47.0541" lon="-1.84148">
        <ele>87</ele>
        <time>2021-08-09T16:10:49.000Z</time>
      </trkpt>
      <trkpt lat="47.05402" lon="-1.84164">
        <ele>86</ele>
        <time>2021-08-09T16:10:51.000Z</time>
      </trkpt>
      <trkpt lat="47.05394" lon="-1.84179">
        <ele>87</ele>
        <time>2021-08-09T16:10:53.000Z</time>
      </trkpt>
      <trkpt lat="47.05386" lon="-1.84195">
        <ele>87</ele>
        <time>2021-08-09T16:10:55.000Z</time>
      </trkpt>
      <trkpt lat="47.05378" lon="-1.84211">
        <ele>87</ele>
        <time>2021-08-09T16:10:57.000Z</time>
      </trkpt>
      <trkpt lat="47.0537" lon="-1.84228">
        <ele>87</ele>
        <time>2021-08-09T16:10:59.000Z</time>
      </trkpt>
      <trkpt lat="47.05361" lon="-1.84243">
        <ele>87</ele>
        <time>2021-08-09T16:11:01.000Z</time>
      </trkpt>
      <trkpt lat="47.05354" lon="-1.84259">
        <ele>87</ele>
        <time>2021-08-09T16:11:03.000Z</time>
      </trkpt>
      <trkpt lat="47.05346" lon="-1.84274">
        <ele>87</ele>
        <time>2021-08-09T16:11:05.000Z</time>
      </trkpt>
      <trkpt lat="47.05339" lon="-1.84289">
        <ele>88</ele>
        <time>2021-08-09T16:11:07.000Z</time>
      </trkpt>
      <trkpt lat="47.05331" lon="-1.84305">
        <ele>88</ele>
        <time>2021-08-09T16:11:09.000Z</time>
      </trkpt>
      <trkpt lat="47.05323" lon="-1.84321">
        <ele>88</ele>
        <time>2021-08-09T16:11:11.000Z</time>
      </trkpt>
      <trkpt lat="47.05315" lon="-1.84337">
        <ele>88</ele>
        <time>2021-08-09T16:11:13.000Z</time>
      </trkpt>
      <trkpt lat="47.05307" lon="-1.84353">
        <ele>88</ele>
        <time>2021-08-09T16:11:15.000Z</time>
      </trkpt>
      <trkpt lat="47.05299" lon="-1.84369">
        <ele>88</ele>
        <time>2021-08-09T16:11:17.000Z</time>
      </trkpt>
      <trkpt lat="47.05292" lon="-1.84385">
        <ele>87</ele>
        <time>2021-08-09T16:11:19.000Z</time>
      </trkpt>
      <trkpt lat="47.05284" lon="-1.84401">
        <ele>88</ele>
        <time>2021-08-09T16:11:21.000Z</time>
      </trkpt>
      <trkpt lat="47.05276" lon="-1.84416">
        <ele>88</ele>
        <time>2021-08-09T16:11:23.000Z</time>
      </trkpt>
      <trkpt lat="47.05268" lon="-1.84431">
        <ele>88</ele>
        <time>2021-08-09T16:11:25.000Z</time>
      </trkpt>
      <trkpt lat="47.0526" lon="-1.84447">
        <ele>88</ele>
        <time>2021-08-09T16:11:27.000Z</time>
      </trkpt>
      <trkpt lat="47.05253" lon="-1.84463">
        <ele>88</ele>
        <time>2021-08-09T16:11:29.000Z</time>
      </trkpt>
      <trkpt lat="47.05245" lon="-1.84478">
        <ele>88</ele>
        <time>2021-08-09T16:11:31.000Z</time>
      </trkpt>
      <trkpt lat="47.05237" lon="-1.84493">
        <ele>88</ele>
        <time>2021-08-09T16:11:33.000Z</time>
      </trkpt>
      <trkpt lat="47.0523" lon="-1.84508">
        <ele>88</ele>
        <time>2021-08-09T16:11:35.000Z</time>
      </trkpt>
      <trkpt lat="47.05222" lon="-1.84523">
        <ele>88</ele>
        <time>2021-08-09T16:11:37.000Z</time>
      </trkpt>
      <trkpt lat="47.05215" lon="-1.84536">
        <ele>88</ele>
        <time>2021-08-09T16:11:39.000Z</time>
      </trkpt>
      <trkpt lat="47.05203" lon="-1.84541">
        <ele>88</ele>
        <time>2021-08-09T16:11:42.000Z</time>
      </trkpt>
      <trkpt lat="47.05193" lon="-1.84533">
        <ele>89</ele>
        <time>2021-08-09T16:11:44.000Z</time>
      </trkpt>
      <trkpt lat="47.05185" lon="-1.84521">
        <ele>89</ele>
        <time>2021-08-09T16:11:46.000Z</time>
      </trkpt>
      <trkpt lat="47.05176" lon="-1.84508">
        <ele>89</ele>
        <time>2021-08-09T16:11:48.000Z</time>
      </trkpt>
      <trkpt lat="47.05166" lon="-1.84495">
        <ele>89</ele>
        <time>2021-08-09T16:11:50.000Z</time>
      </trkpt>
      <trkpt lat="47.05157" lon="-1.84481">
        <ele>89</ele>
        <time>2021-08-09T16:11:52.000Z</time>
      </trkpt>
      <trkpt lat="47.05148" lon="-1.84467">
        <ele>89</ele>
        <time>2021-08-09T16:11:54.000Z</time>
      </trkpt>
      <trkpt lat="47.05138" lon="-1.84453">
        <ele>89</ele>
        <time>2021-08-09T16:11:56.000Z</time>
      </trkpt>
      <trkpt lat="47.05129" lon="-1.84439">
        <ele>89</ele>
        <time>2021-08-09T16:11:58.000Z</time>
      </trkpt>
      <trkpt lat="47.0512" lon="-1.84425">
        <ele>89</ele>
        <time>2021-08-09T16:12:00.000Z</time>
      </trkpt>
      <trkpt lat="47.0511" lon="-1.84413">
        <ele>90</ele>
        <time>2021-08-09T16:12:02.000Z</time>
      </trkpt>
      <trkpt lat="47.051" lon="-1.84401">
        <ele>90</ele>
        <time>2021-08-09T16:12:04.000Z</time>
      </trkpt>
      <trkpt lat="47.05089" lon="-1.84388">
        <ele>90</ele>
        <time>2021-08-09T16:12:06.000Z</time>
      </trkpt>
      <trkpt lat="47.05077" lon="-1.84375">
        <ele>89</ele>
        <time>2021-08-09T16:12:08.000Z</time>
      </trkpt>
      <trkpt lat="47.05066" lon="-1.84362">
        <ele>90</ele>
        <time>2021-08-09T16:12:10.000Z</time>
      </trkpt>
      <trkpt lat="47.05054" lon="-1.8435">
        <ele>90</ele>
        <time>2021-08-09T16:12:12.000Z</time>
      </trkpt>
      <trkpt lat="47.05043" lon="-1.84338">
        <ele>89</ele>
        <time>2021-08-09T16:12:14.000Z</time>
      </trkpt>
      <trkpt lat="47.05032" lon="-1.84327">
        <ele>89</ele>
        <time>2021-08-09T16:12:16.000Z</time>
      </trkpt>
      <trkpt lat="47.05021" lon="-1.84315">
        <ele>89</ele>
        <time>2021-08-09T16:12:18.000Z</time>
      </trkpt>
      <trkpt lat="47.05008" lon="-1.84305">
        <ele>89</ele>
        <time>2021-08-09T16:12:20.000Z</time>
      </trkpt>
      <trkpt lat="47.04996" lon="-1.84296">
        <ele>89</ele>
        <time>2021-08-09T16:12:22.000Z</time>
      </trkpt>
      <trkpt lat="47.04984" lon="-1.84287">
        <ele>89</ele>
        <time>2021-08-09T16:12:24.000Z</time>
      </trkpt>
      <trkpt lat="47.04971" lon="-1.84276">
        <ele>89</ele>
        <time>2021-08-09T16:12:26.000Z</time>
      </trkpt>
      <trkpt lat="47.04959" lon="-1.84266">
        <ele>89</ele>
        <time>2021-08-09T16:12:28.000Z</time>
      </trkpt>
      <trkpt lat="47.04948" lon="-1.84255">
        <ele>89</ele>
        <time>2021-08-09T16:12:30.000Z</time>
      </trkpt>
      <trkpt lat="47.04937" lon="-1.84244">
        <ele>89</ele>
        <time>2021-08-09T16:12:32.000Z</time>
      </trkpt>
      <trkpt lat="47.04925" lon="-1.84232">
        <ele>90</ele>
        <time>2021-08-09T16:12:34.000Z</time>
      </trkpt>
      <trkpt lat="47.04914" lon="-1.8422">
        <ele>90</ele>
        <time>2021-08-09T16:12:36.000Z</time>
      </trkpt>
      <trkpt lat="47.04902" lon="-1.84209">
        <ele>90</ele>
        <time>2021-08-09T16:12:38.000Z</time>
      </trkpt>
      <trkpt lat="47.04891" lon="-1.84198">
        <ele>90</ele>
        <time>2021-08-09T16:12:40.000Z</time>
      </trkpt>
      <trkpt lat="47.04879" lon="-1.84185">
        <ele>90</ele>
        <time>2021-08-09T16:12:42.000Z</time>
      </trkpt>
      <trkpt lat="47.04867" lon="-1.84173">
        <ele>90</ele>
        <time>2021-08-09T16:12:44.000Z</time>
      </trkpt>
      <trkpt lat="47.04856" lon="-1.8416">
        <ele>90</ele>
        <time>2021-08-09T16:12:46.000Z</time>
      </trkpt>
      <trkpt lat="47.04845" lon="-1.84148">
        <ele>90</ele>
        <time>2021-08-09T16:12:48.000Z</time>
      </trkpt>
      <trkpt lat="47.04833" lon="-1.84135">
        <ele>89</ele>
        <time>2021-08-09T16:12:50.000Z</time>
      </trkpt>
      <trkpt lat="47.04822" lon="-1.84122">
        <ele>89</ele>
        <time>2021-08-09T16:12:52.000Z</time>
      </trkpt>
      <trkpt lat="47.04812" lon="-1.84108">
        <ele>88</ele>
        <time>2021-08-09T16:12:54.000Z</time>
      </trkpt>
      <trkpt lat="47.04801" lon="-1.84094">
        <ele>88</ele>
        <time>2021-08-09T16:12:56.000Z</time>
      </trkpt>
      <trkpt lat="47.04791" lon="-1.8408">
        <ele>88</ele>
        <time>2021-08-09T16:12:58.000Z</time>
      </trkpt>
      <trkpt lat="47.0478" lon="-1.84066">
        <ele>88</ele>
        <time>2021-08-09T16:13:00.000Z</time>
      </trkpt>
      <trkpt lat="47.0477" lon="-1.84052">
        <ele>88</ele>
        <time>2021-08-09T16:13:02.000Z</time>
      </trkpt>
      <trkpt lat="47.04759" lon="-1.84038">
        <ele>88</ele>
        <time>2021-08-09T16:13:04.000Z</time>
      </trkpt>
      <trkpt lat="47.04748" lon="-1.84025">
        <ele>88</ele>
        <time>2021-08-09T16:13:06.000Z</time>
      </trkpt>
      <trkpt lat="47.04736" lon="-1.84011">
        <ele>88</ele>
        <time>2021-08-09T16:13:08.000Z</time>
      </trkpt>
      <trkpt lat="47.04725" lon="-1.83998">
        <ele>88</ele>
        <time>2021-08-09T16:13:10.000Z</time>
      </trkpt>
      <trkpt lat="47.04714" lon="-1.83985">
        <ele>88</ele>
        <time>2021-08-09T16:13:12.000Z</time>
      </trkpt>
      <trkpt lat="47.04702" lon="-1.83971">
        <ele>88</ele>
        <time>2021-08-09T16:13:14.000Z</time>
      </trkpt>
      <trkpt lat="47.0469" lon="-1.83957">
        <ele>87</ele>
        <time>2021-08-09T16:13:16.000Z</time>
      </trkpt>
      <trkpt lat="47.04679" lon="-1.83944">
        <ele>87</ele>
        <time>2021-08-09T16:13:18.000Z</time>
      </trkpt>
      <trkpt lat="47.04668" lon="-1.8393">
        <ele>87</ele>
        <time>2021-08-09T16:13:20.000Z</time>
      </trkpt>
      <trkpt lat="47.04657" lon="-1.83916">
        <ele>86</ele>
        <time>2021-08-09T16:13:22.000Z</time>
      </trkpt>
      <trkpt lat="47.04646" lon="-1.83901">
        <ele>87</ele>
        <time>2021-08-09T16:13:24.000Z</time>
      </trkpt>
      <trkpt lat="47.04636" lon="-1.83885">
        <ele>86</ele>
        <time>2021-08-09T16:13:26.000Z</time>
      </trkpt>
      <trkpt lat="47.04626" lon="-1.8387">
        <ele>86</ele>
        <time>2021-08-09T16:13:28.000Z</time>
      </trkpt>
      <trkpt lat="47.04616" lon="-1.83855">
        <ele>86</ele>
        <time>2021-08-09T16:13:30.000Z</time>
      </trkpt>
      <trkpt lat="47.04604" lon="-1.83841">
        <ele>86</ele>
        <time>2021-08-09T16:13:32.000Z</time>
      </trkpt>
      <trkpt lat="47.04592" lon="-1.83829">
        <ele>87</ele>
        <time>2021-08-09T16:13:34.000Z</time>
      </trkpt>
      <trkpt lat="47.04578" lon="-1.8382">
        <ele>86</ele>
        <time>2021-08-09T16:13:36.000Z</time>
      </trkpt>
      <trkpt lat="47.04564" lon="-1.8381">
        <ele>86</ele>
        <time>2021-08-09T16:13:38.000Z</time>
      </trkpt>
      <trkpt lat="47.04551" lon="-1.83801">
        <ele>86</ele>
        <time>2021-08-09T16:13:40.000Z</time>
      </trkpt>
      <trkpt lat="47.04537" lon="-1.83791">
        <ele>86</ele>
        <time>2021-08-09T16:13:42.000Z</time>
      </trkpt>
      <trkpt lat="47.04524" lon="-1.83782">
        <ele>86</ele>
        <time>2021-08-09T16:13:44.000Z</time>
      </trkpt>
      <trkpt lat="47.04511" lon="-1.83773">
        <ele>86</ele>
        <time>2021-08-09T16:13:46.000Z</time>
      </trkpt>
      <trkpt lat="47.04498" lon="-1.83763">
        <ele>86</ele>
        <time>2021-08-09T16:13:48.000Z</time>
      </trkpt>
      <trkpt lat="47.04486" lon="-1.83753">
        <ele>86</ele>
        <time>2021-08-09T16:13:50.000Z</time>
      </trkpt>
      <trkpt lat="47.04473" lon="-1.83743">
        <ele>86</ele>
        <time>2021-08-09T16:13:52.000Z</time>
      </trkpt>
      <trkpt lat="47.0446" lon="-1.83733">
        <ele>87</ele>
        <time>2021-08-09T16:13:54.000Z</time>
      </trkpt>
      <trkpt lat="47.04448" lon="-1.83723">
        <ele>87</ele>
        <time>2021-08-09T16:13:56.000Z</time>
      </trkpt>
      <trkpt lat="47.04436" lon="-1.83712">
        <ele>87</ele>
        <time>2021-08-09T16:13:58.000Z</time>
      </trkpt>
      <trkpt lat="47.04424" lon="-1.83703">
        <ele>87</ele>
        <time>2021-08-09T16:14:00.000Z</time>
      </trkpt>
      <trkpt lat="47.0441" lon="-1.83694">
        <ele>86</ele>
        <time>2021-08-09T16:14:02.000Z</time>
      </trkpt>
      <trkpt lat="47.04398" lon="-1.83686">
        <ele>86</ele>
        <time>2021-08-09T16:14:04.000Z</time>
      </trkpt>
      <trkpt lat="47.04384" lon="-1.83677">
        <ele>86</ele>
        <time>2021-08-09T16:14:06.000Z</time>
      </trkpt>
      <trkpt lat="47.04371" lon="-1.8367">
        <ele>86</ele>
        <time>2021-08-09T16:14:08.000Z</time>
      </trkpt>
      <trkpt lat="47.04357" lon="-1.83665">
        <ele>86</ele>
        <time>2021-08-09T16:14:10.000Z</time>
      </trkpt>
      <trkpt lat="47.04343" lon="-1.83662">
        <ele>85</ele>
        <time>2021-08-09T16:14:12.000Z</time>
      </trkpt>
      <trkpt lat="47.04329" lon="-1.83659">
        <ele>85</ele>
        <time>2021-08-09T16:14:14.000Z</time>
      </trkpt>
      <trkpt lat="47.04314" lon="-1.83655">
        <ele>85</ele>
        <time>2021-08-09T16:14:16.000Z</time>
      </trkpt>
      <trkpt lat="47.043" lon="-1.83652">
        <ele>84</ele>
        <time>2021-08-09T16:14:18.000Z</time>
      </trkpt>
      <trkpt lat="47.04285" lon="-1.83648">
        <ele>83</ele>
        <time>2021-08-09T16:14:20.000Z</time>
      </trkpt>
      <trkpt lat="47.04272" lon="-1.83644">
        <ele>84</ele>
        <time>2021-08-09T16:14:22.000Z</time>
      </trkpt>
      <trkpt lat="47.04258" lon="-1.83641">
        <ele>83</ele>
        <time>2021-08-09T16:14:24.000Z</time>
      </trkpt>
      <trkpt lat="47.04244" lon="-1.83637">
        <ele>83</ele>
        <time>2021-08-09T16:14:26.000Z</time>
      </trkpt>
      <trkpt lat="47.04231" lon="-1.83631">
        <ele>83</ele>
        <time>2021-08-09T16:14:28.000Z</time>
      </trkpt>
      <trkpt lat="47.04218" lon="-1.83622">
        <ele>83</ele>
        <time>2021-08-09T16:14:30.000Z</time>
      </trkpt>
      <trkpt lat="47.04205" lon="-1.83613">
        <ele>83</ele>
        <time>2021-08-09T16:14:32.000Z</time>
      </trkpt>
      <trkpt lat="47.04192" lon="-1.83614">
        <ele>83</ele>
        <time>2021-08-09T16:14:34.000Z</time>
      </trkpt>
      <trkpt lat="47.04178" lon="-1.83612">
        <ele>84</ele>
        <time>2021-08-09T16:14:36.000Z</time>
      </trkpt>
      <trkpt lat="47.04165" lon="-1.83608">
        <ele>84</ele>
        <time>2021-08-09T16:14:38.000Z</time>
      </trkpt>
      <trkpt lat="47.04152" lon="-1.83601">
        <ele>84</ele>
        <time>2021-08-09T16:14:40.000Z</time>
      </trkpt>
      <trkpt lat="47.04133" lon="-1.83592">
        <ele>84</ele>
        <time>2021-08-09T16:14:43.000Z</time>
      </trkpt>
      <trkpt lat="47.0412" lon="-1.83585">
        <ele>84</ele>
        <time>2021-08-09T16:14:45.000Z</time>
      </trkpt>
      <trkpt lat="47.04107" lon="-1.83579">
        <ele>85</ele>
        <time>2021-08-09T16:14:47.000Z</time>
      </trkpt>
      <trkpt lat="47.04094" lon="-1.83575">
        <ele>85</ele>
        <time>2021-08-09T16:14:49.000Z</time>
      </trkpt>
      <trkpt lat="47.04081" lon="-1.83571">
        <ele>85</ele>
        <time>2021-08-09T16:14:51.000Z</time>
      </trkpt>
      <trkpt lat="47.04067" lon="-1.83569">
        <ele>85</ele>
        <time>2021-08-09T16:14:53.000Z</time>
      </trkpt>
      <trkpt lat="47.04054" lon="-1.83567">
        <ele>85</ele>
        <time>2021-08-09T16:14:55.000Z</time>
      </trkpt>
      <trkpt lat="47.0404" lon="-1.83565">
        <ele>85</ele>
        <time>2021-08-09T16:14:57.000Z</time>
      </trkpt>
      <trkpt lat="47.04027" lon="-1.83563">
        <ele>85</ele>
        <time>2021-08-09T16:14:59.000Z</time>
      </trkpt>
      <trkpt lat="47.04014" lon="-1.83562">
        <ele>85</ele>
        <time>2021-08-09T16:15:01.000Z</time>
      </trkpt>
      <trkpt lat="47.04" lon="-1.8356">
        <ele>85</ele>
        <time>2021-08-09T16:15:03.000Z</time>
      </trkpt>
      <trkpt lat="47.03986" lon="-1.83558">
        <ele>85</ele>
        <time>2021-08-09T16:15:05.000Z</time>
      </trkpt>
      <trkpt lat="47.03966" lon="-1.83555">
        <ele>85</ele>
        <time>2021-08-09T16:15:08.000Z</time>
      </trkpt>
      <trkpt lat="47.03952" lon="-1.83553">
        <ele>86</ele>
        <time>2021-08-09T16:15:10.000Z</time>
      </trkpt>
      <trkpt lat="47.03938" lon="-1.83551">
        <ele>86</ele>
        <time>2021-08-09T16:15:12.000Z</time>
      </trkpt>
      <trkpt lat="47.03923" lon="-1.83549">
        <ele>86</ele>
        <time>2021-08-09T16:15:14.000Z</time>
      </trkpt>
      <trkpt lat="47.03902" lon="-1.83546">
        <ele>85</ele>
        <time>2021-08-09T16:15:17.000Z</time>
      </trkpt>
      <trkpt lat="47.03888" lon="-1.83544">
        <ele>85</ele>
        <time>2021-08-09T16:15:19.000Z</time>
      </trkpt>
      <trkpt lat="47.03866" lon="-1.83541">
        <ele>85</ele>
        <time>2021-08-09T16:15:22.000Z</time>
      </trkpt>
      <trkpt lat="47.03852" lon="-1.8354">
        <ele>85</ele>
        <time>2021-08-09T16:15:24.000Z</time>
      </trkpt>
      <trkpt lat="47.03838" lon="-1.83538">
        <ele>86</ele>
        <time>2021-08-09T16:15:26.000Z</time>
      </trkpt>
      <trkpt lat="47.03823" lon="-1.83536">
        <ele>85</ele>
        <time>2021-08-09T16:15:28.000Z</time>
      </trkpt>
      <trkpt lat="47.03809" lon="-1.83535">
        <ele>85</ele>
        <time>2021-08-09T16:15:30.000Z</time>
      </trkpt>
      <trkpt lat="47.03795" lon="-1.83534">
        <ele>85</ele>
        <time>2021-08-09T16:15:32.000Z</time>
      </trkpt>
      <trkpt lat="47.0378" lon="-1.83534">
        <ele>85</ele>
        <time>2021-08-09T16:15:34.000Z</time>
      </trkpt>
      <trkpt lat="47.03766" lon="-1.83534">
        <ele>84</ele>
        <time>2021-08-09T16:15:36.000Z</time>
      </trkpt>
      <trkpt lat="47.03751" lon="-1.83534">
        <ele>85</ele>
        <time>2021-08-09T16:15:38.000Z</time>
      </trkpt>
      <trkpt lat="47.03737" lon="-1.83534">
        <ele>84</ele>
        <time>2021-08-09T16:15:40.000Z</time>
      </trkpt>
      <trkpt lat="47.03722" lon="-1.83534">
        <ele>84</ele>
        <time>2021-08-09T16:15:42.000Z</time>
      </trkpt>
      <trkpt lat="47.03708" lon="-1.83535">
        <ele>84</ele>
        <time>2021-08-09T16:15:44.000Z</time>
      </trkpt>
      <trkpt lat="47.03693" lon="-1.83535">
        <ele>84</ele>
        <time>2021-08-09T16:15:46.000Z</time>
      </trkpt>
      <trkpt lat="47.03679" lon="-1.83535">
        <ele>84</ele>
        <time>2021-08-09T16:15:48.000Z</time>
      </trkpt>
      <trkpt lat="47.03664" lon="-1.83535">
        <ele>83</ele>
        <time>2021-08-09T16:15:50.000Z</time>
      </trkpt>
      <trkpt lat="47.0365" lon="-1.83536">
        <ele>83</ele>
        <time>2021-08-09T16:15:52.000Z</time>
      </trkpt>
      <trkpt lat="47.03636" lon="-1.83536">
        <ele>83</ele>
        <time>2021-08-09T16:15:54.000Z</time>
      </trkpt>
      <trkpt lat="47.03622" lon="-1.83537">
        <ele>83</ele>
        <time>2021-08-09T16:15:56.000Z</time>
      </trkpt>
      <trkpt lat="47.03607" lon="-1.83537">
        <ele>83</ele>
        <time>2021-08-09T16:15:58.000Z</time>
      </trkpt>
      <trkpt lat="47.03593" lon="-1.83538">
        <ele>83</ele>
        <time>2021-08-09T16:16:00.000Z</time>
      </trkpt>
      <trkpt lat="47.03579" lon="-1.83538">
        <ele>83</ele>
        <time>2021-08-09T16:16:02.000Z</time>
      </trkpt>
      <trkpt lat="47.03564" lon="-1.83538">
        <ele>83</ele>
        <time>2021-08-09T16:16:04.000Z</time>
      </trkpt>
      <trkpt lat="47.03549" lon="-1.83538">
        <ele>82</ele>
        <time>2021-08-09T16:16:06.000Z</time>
      </trkpt>
      <trkpt lat="47.03534" lon="-1.83538">
        <ele>82</ele>
        <time>2021-08-09T16:16:08.000Z</time>
      </trkpt>
      <trkpt lat="47.03519" lon="-1.83538">
        <ele>82</ele>
        <time>2021-08-09T16:16:10.000Z</time>
      </trkpt>
      <trkpt lat="47.03504" lon="-1.83536">
        <ele>82</ele>
        <time>2021-08-09T16:16:12.000Z</time>
      </trkpt>
      <trkpt lat="47.03488" lon="-1.83534">
        <ele>82</ele>
        <time>2021-08-09T16:16:14.000Z</time>
      </trkpt>
      <trkpt lat="47.03473" lon="-1.83531">
        <ele>81</ele>
        <time>2021-08-09T16:16:16.000Z</time>
      </trkpt>
      <trkpt lat="47.03458" lon="-1.83527">
        <ele>81</ele>
        <time>2021-08-09T16:16:18.000Z</time>
      </trkpt>
      <trkpt lat="47.03443" lon="-1.83523">
        <ele>81</ele>
        <time>2021-08-09T16:16:20.000Z</time>
      </trkpt>
      <trkpt lat="47.03428" lon="-1.83518">
        <ele>80</ele>
        <time>2021-08-09T16:16:22.000Z</time>
      </trkpt>
      <trkpt lat="47.03413" lon="-1.83514">
        <ele>80</ele>
        <time>2021-08-09T16:16:24.000Z</time>
      </trkpt>
      <trkpt lat="47.03398" lon="-1.8351">
        <ele>80</ele>
        <time>2021-08-09T16:16:26.000Z</time>
      </trkpt>
      <trkpt lat="47.03383" lon="-1.83505">
        <ele>80</ele>
        <time>2021-08-09T16:16:28.000Z</time>
      </trkpt>
      <trkpt lat="47.03367" lon="-1.83501">
        <ele>80</ele>
        <time>2021-08-09T16:16:30.000Z</time>
      </trkpt>
      <trkpt lat="47.03352" lon="-1.83497">
        <ele>80</ele>
        <time>2021-08-09T16:16:32.000Z</time>
      </trkpt>
      <trkpt lat="47.03338" lon="-1.83493">
        <ele>79</ele>
        <time>2021-08-09T16:16:34.000Z</time>
      </trkpt>
      <trkpt lat="47.03323" lon="-1.83488">
        <ele>79</ele>
        <time>2021-08-09T16:16:36.000Z</time>
      </trkpt>
      <trkpt lat="47.03308" lon="-1.83484">
        <ele>80</ele>
        <time>2021-08-09T16:16:38.000Z</time>
      </trkpt>
      <trkpt lat="47.03293" lon="-1.8348">
        <ele>80</ele>
        <time>2021-08-09T16:16:40.000Z</time>
      </trkpt>
      <trkpt lat="47.03279" lon="-1.83476">
        <ele>80</ele>
        <time>2021-08-09T16:16:42.000Z</time>
      </trkpt>
      <trkpt lat="47.03264" lon="-1.83473">
        <ele>80</ele>
        <time>2021-08-09T16:16:44.000Z</time>
      </trkpt>
      <trkpt lat="47.03249" lon="-1.83468">
        <ele>80</ele>
        <time>2021-08-09T16:16:46.000Z</time>
      </trkpt>
      <trkpt lat="47.03234" lon="-1.83464">
        <ele>80</ele>
        <time>2021-08-09T16:16:48.000Z</time>
      </trkpt>
      <trkpt lat="47.03219" lon="-1.83459">
        <ele>79</ele>
        <time>2021-08-09T16:16:50.000Z</time>
      </trkpt>
      <trkpt lat="47.03205" lon="-1.83456">
        <ele>79</ele>
        <time>2021-08-09T16:16:52.000Z</time>
      </trkpt>
      <trkpt lat="47.03192" lon="-1.83452">
        <ele>79</ele>
        <time>2021-08-09T16:16:54.000Z</time>
      </trkpt>
      <trkpt lat="47.0318" lon="-1.8345">
        <ele>79</ele>
        <time>2021-08-09T16:16:56.000Z</time>
      </trkpt>
      <trkpt lat="47.03169" lon="-1.83453">
        <ele>79</ele>
        <time>2021-08-09T16:16:58.000Z</time>
      </trkpt>
      <trkpt lat="47.03161" lon="-1.83468">
        <ele>79</ele>
        <time>2021-08-09T16:17:00.000Z</time>
      </trkpt>
      <trkpt lat="47.03152" lon="-1.83484">
        <ele>79</ele>
        <time>2021-08-09T16:17:02.000Z</time>
      </trkpt>
      <trkpt lat="47.03137" lon="-1.83488">
        <ele>79</ele>
        <time>2021-08-09T16:17:04.000Z</time>
      </trkpt>
      <trkpt lat="47.03122" lon="-1.8349">
        <ele>79</ele>
        <time>2021-08-09T16:17:06.000Z</time>
      </trkpt>
      <trkpt lat="47.03106" lon="-1.83492">
        <ele>79</ele>
        <time>2021-08-09T16:17:08.000Z</time>
      </trkpt>
      <trkpt lat="47.03091" lon="-1.83494">
        <ele>79</ele>
        <time>2021-08-09T16:17:10.000Z</time>
      </trkpt>
      <trkpt lat="47.03075" lon="-1.83495">
        <ele>79</ele>
        <time>2021-08-09T16:17:12.000Z</time>
      </trkpt>
      <trkpt lat="47.0306" lon="-1.83497">
        <ele>79</ele>
        <time>2021-08-09T16:17:14.000Z</time>
      </trkpt>
      <trkpt lat="47.03044" lon="-1.83499">
        <ele>79</ele>
        <time>2021-08-09T16:17:16.000Z</time>
      </trkpt>
      <trkpt lat="47.03028" lon="-1.835">
        <ele>78</ele>
        <time>2021-08-09T16:17:18.000Z</time>
      </trkpt>
      <trkpt lat="47.03012" lon="-1.83501">
        <ele>78</ele>
        <time>2021-08-09T16:17:20.000Z</time>
      </trkpt>
      <trkpt lat="47.02996" lon="-1.83503">
        <ele>78</ele>
        <time>2021-08-09T16:17:22.000Z</time>
      </trkpt>
      <trkpt lat="47.0298" lon="-1.83506">
        <ele>78</ele>
        <time>2021-08-09T16:17:24.000Z</time>
      </trkpt>
      <trkpt lat="47.02964" lon="-1.83508">
        <ele>78</ele>
        <time>2021-08-09T16:17:26.000Z</time>
      </trkpt>
      <trkpt lat="47.02948" lon="-1.83509">
        <ele>78</ele>
        <time>2021-08-09T16:17:28.000Z</time>
      </trkpt>
      <trkpt lat="47.02931" lon="-1.83512">
        <ele>77</ele>
        <time>2021-08-09T16:17:30.000Z</time>
      </trkpt>
      <trkpt lat="47.02915" lon="-1.83515">
        <ele>77</ele>
        <time>2021-08-09T16:17:32.000Z</time>
      </trkpt>
      <trkpt lat="47.02899" lon="-1.83519">
        <ele>77</ele>
        <time>2021-08-09T16:17:34.000Z</time>
      </trkpt>
      <trkpt lat="47.02884" lon="-1.83524">
        <ele>77</ele>
        <time>2021-08-09T16:17:36.000Z</time>
      </trkpt>
      <trkpt lat="47.02869" lon="-1.83528">
        <ele>77</ele>
        <time>2021-08-09T16:17:38.000Z</time>
      </trkpt>
      <trkpt lat="47.02855" lon="-1.83534">
        <ele>77</ele>
        <time>2021-08-09T16:17:40.000Z</time>
      </trkpt>
      <trkpt lat="47.02841" lon="-1.83541">
        <ele>77</ele>
        <time>2021-08-09T16:17:42.000Z</time>
      </trkpt>
      <trkpt lat="47.02828" lon="-1.8355">
        <ele>77</ele>
        <time>2021-08-09T16:17:44.000Z</time>
      </trkpt>
      <trkpt lat="47.02816" lon="-1.83562">
        <ele>77</ele>
        <time>2021-08-09T16:17:46.000Z</time>
      </trkpt>
      <trkpt lat="47.02804" lon="-1.83575">
        <ele>77</ele>
        <time>2021-08-09T16:17:48.000Z</time>
      </trkpt>
      <trkpt lat="47.02792" lon="-1.83587">
        <ele>77</ele>
        <time>2021-08-09T16:17:50.000Z</time>
      </trkpt>
      <trkpt lat="47.02779" lon="-1.83596">
        <ele>77</ele>
        <time>2021-08-09T16:17:52.000Z</time>
      </trkpt>
      <trkpt lat="47.02765" lon="-1.83605">
        <ele>77</ele>
        <time>2021-08-09T16:17:54.000Z</time>
      </trkpt>
      <trkpt lat="47.0275" lon="-1.83611">
        <ele>77</ele>
        <time>2021-08-09T16:17:56.000Z</time>
      </trkpt>
      <trkpt lat="47.02735" lon="-1.83615">
        <ele>77</ele>
        <time>2021-08-09T16:17:58.000Z</time>
      </trkpt>
      <trkpt lat="47.02719" lon="-1.83616">
        <ele>76</ele>
        <time>2021-08-09T16:18:00.000Z</time>
      </trkpt>
      <trkpt lat="47.02704" lon="-1.83618">
        <ele>76</ele>
        <time>2021-08-09T16:18:02.000Z</time>
      </trkpt>
      <trkpt lat="47.02689" lon="-1.83618">
        <ele>76</ele>
        <time>2021-08-09T16:18:04.000Z</time>
      </trkpt>
      <trkpt lat="47.02675" lon="-1.83619">
        <ele>76</ele>
        <time>2021-08-09T16:18:06.000Z</time>
      </trkpt>
      <trkpt lat="47.02659" lon="-1.8362">
        <ele>76</ele>
        <time>2021-08-09T16:18:08.000Z</time>
      </trkpt>
      <trkpt lat="47.02644" lon="-1.83622">
        <ele>76</ele>
        <time>2021-08-09T16:18:10.000Z</time>
      </trkpt>
      <trkpt lat="47.02628" lon="-1.83622">
        <ele>77</ele>
        <time>2021-08-09T16:18:12.000Z</time>
      </trkpt>
      <trkpt lat="47.02613" lon="-1.83623">
        <ele>77</ele>
        <time>2021-08-09T16:18:14.000Z</time>
      </trkpt>
      <trkpt lat="47.02597" lon="-1.83625">
        <ele>76</ele>
        <time>2021-08-09T16:18:16.000Z</time>
      </trkpt>
      <trkpt lat="47.02582" lon="-1.83625">
        <ele>76</ele>
        <time>2021-08-09T16:18:18.000Z</time>
      </trkpt>
      <trkpt lat="47.02567" lon="-1.83626">
        <ele>76</ele>
        <time>2021-08-09T16:18:20.000Z</time>
      </trkpt>
      <trkpt lat="47.02553" lon="-1.83627">
        <ele>76</ele>
        <time>2021-08-09T16:18:22.000Z</time>
      </trkpt>
      <trkpt lat="47.02537" lon="-1.83629">
        <ele>75</ele>
        <time>2021-08-09T16:18:24.000Z</time>
      </trkpt>
      <trkpt lat="47.02521" lon="-1.83632">
        <ele>75</ele>
        <time>2021-08-09T16:18:26.000Z</time>
      </trkpt>
      <trkpt lat="47.02506" lon="-1.83636">
        <ele>75</ele>
        <time>2021-08-09T16:18:28.000Z</time>
      </trkpt>
      <trkpt lat="47.02491" lon="-1.83639">
        <ele>75</ele>
        <time>2021-08-09T16:18:30.000Z</time>
      </trkpt>
      <trkpt lat="47.02475" lon="-1.83642">
        <ele>75</ele>
        <time>2021-08-09T16:18:32.000Z</time>
      </trkpt>
      <trkpt lat="47.0246" lon="-1.83646">
        <ele>75</ele>
        <time>2021-08-09T16:18:34.000Z</time>
      </trkpt>
      <trkpt lat="47.02444" lon="-1.83649">
        <ele>75</ele>
        <time>2021-08-09T16:18:36.000Z</time>
      </trkpt>
      <trkpt lat="47.02429" lon="-1.83653">
        <ele>75</ele>
        <time>2021-08-09T16:18:38.000Z</time>
      </trkpt>
      <trkpt lat="47.02414" lon="-1.83655">
        <ele>75</ele>
        <time>2021-08-09T16:18:40.000Z</time>
      </trkpt>
      <trkpt lat="47.02399" lon="-1.83657">
        <ele>75</ele>
        <time>2021-08-09T16:18:42.000Z</time>
      </trkpt>
      <trkpt lat="47.02384" lon="-1.83658">
        <ele>75</ele>
        <time>2021-08-09T16:18:44.000Z</time>
      </trkpt>
      <trkpt lat="47.02369" lon="-1.83657">
        <ele>75</ele>
        <time>2021-08-09T16:18:46.000Z</time>
      </trkpt>
      <trkpt lat="47.02354" lon="-1.83656">
        <ele>75</ele>
        <time>2021-08-09T16:18:48.000Z</time>
      </trkpt>
      <trkpt lat="47.02338" lon="-1.83655">
        <ele>75</ele>
        <time>2021-08-09T16:18:50.000Z</time>
      </trkpt>
      <trkpt lat="47.02323" lon="-1.83655">
        <ele>74</ele>
        <time>2021-08-09T16:18:52.000Z</time>
      </trkpt>
      <trkpt lat="47.02307" lon="-1.83653">
        <ele>74</ele>
        <time>2021-08-09T16:18:54.000Z</time>
      </trkpt>
      <trkpt lat="47.02292" lon="-1.83653">
        <ele>74</ele>
        <time>2021-08-09T16:18:56.000Z</time>
      </trkpt>
      <trkpt lat="47.02277" lon="-1.83651">
        <ele>74</ele>
        <time>2021-08-09T16:18:58.000Z</time>
      </trkpt>
      <trkpt lat="47.02262" lon="-1.8365">
        <ele>74</ele>
        <time>2021-08-09T16:19:00.000Z</time>
      </trkpt>
      <trkpt lat="47.02246" lon="-1.83649">
        <ele>74</ele>
        <time>2021-08-09T16:19:02.000Z</time>
      </trkpt>
      <trkpt lat="47.02231" lon="-1.83647">
        <ele>74</ele>
        <time>2021-08-09T16:19:04.000Z</time>
      </trkpt>
      <trkpt lat="47.02215" lon="-1.83646">
        <ele>73</ele>
        <time>2021-08-09T16:19:06.000Z</time>
      </trkpt>
      <trkpt lat="47.022" lon="-1.83642">
        <ele>73</ele>
        <time>2021-08-09T16:19:08.000Z</time>
      </trkpt>
      <trkpt lat="47.02185" lon="-1.83637">
        <ele>72</ele>
        <time>2021-08-09T16:19:10.000Z</time>
      </trkpt>
      <trkpt lat="47.02171" lon="-1.8363">
        <ele>72</ele>
        <time>2021-08-09T16:19:12.000Z</time>
      </trkpt>
      <trkpt lat="47.02157" lon="-1.83622">
        <ele>72</ele>
        <time>2021-08-09T16:19:14.000Z</time>
      </trkpt>
      <trkpt lat="47.02143" lon="-1.83613">
        <ele>72</ele>
        <time>2021-08-09T16:19:16.000Z</time>
      </trkpt>
      <trkpt lat="47.02128" lon="-1.83604">
        <ele>71</ele>
        <time>2021-08-09T16:19:18.000Z</time>
      </trkpt>
      <trkpt lat="47.02114" lon="-1.83595">
        <ele>71</ele>
        <time>2021-08-09T16:19:20.000Z</time>
      </trkpt>
      <trkpt lat="47.021" lon="-1.83586">
        <ele>71</ele>
        <time>2021-08-09T16:19:22.000Z</time>
      </trkpt>
      <trkpt lat="47.02086" lon="-1.83578">
        <ele>71</ele>
        <time>2021-08-09T16:19:24.000Z</time>
      </trkpt>
      <trkpt lat="47.02071" lon="-1.8357">
        <ele>71</ele>
        <time>2021-08-09T16:19:26.000Z</time>
      </trkpt>
      <trkpt lat="47.02057" lon="-1.83561">
        <ele>71</ele>
        <time>2021-08-09T16:19:28.000Z</time>
      </trkpt>
      <trkpt lat="47.02043" lon="-1.83553">
        <ele>71</ele>
        <time>2021-08-09T16:19:30.000Z</time>
      </trkpt>
      <trkpt lat="47.0203" lon="-1.83545">
        <ele>71</ele>
        <time>2021-08-09T16:19:32.000Z</time>
      </trkpt>
      <trkpt lat="47.02017" lon="-1.83536">
        <ele>71</ele>
        <time>2021-08-09T16:19:34.000Z</time>
      </trkpt>
      <trkpt lat="47.02003" lon="-1.83528">
        <ele>71</ele>
        <time>2021-08-09T16:19:36.000Z</time>
      </trkpt>
      <trkpt lat="47.01989" lon="-1.8352">
        <ele>71</ele>
        <time>2021-08-09T16:19:38.000Z</time>
      </trkpt>
      <trkpt lat="47.01976" lon="-1.83512">
        <ele>70</ele>
        <time>2021-08-09T16:19:40.000Z</time>
      </trkpt>
      <trkpt lat="47.01962" lon="-1.83505">
        <ele>70</ele>
        <time>2021-08-09T16:19:42.000Z</time>
      </trkpt>
      <trkpt lat="47.01948" lon="-1.83499">
        <ele>69</ele>
        <time>2021-08-09T16:19:44.000Z</time>
      </trkpt>
      <trkpt lat="47.01932" lon="-1.83497">
        <ele>69</ele>
        <time>2021-08-09T16:19:46.000Z</time>
      </trkpt>
      <trkpt lat="47.01916" lon="-1.83499">
        <ele>68</ele>
        <time>2021-08-09T16:19:48.000Z</time>
      </trkpt>
      <trkpt lat="47.01899" lon="-1.83502">
        <ele>67</ele>
        <time>2021-08-09T16:19:50.000Z</time>
      </trkpt>
      <trkpt lat="47.01882" lon="-1.83506">
        <ele>66</ele>
        <time>2021-08-09T16:19:52.000Z</time>
      </trkpt>
      <trkpt lat="47.01865" lon="-1.8351">
        <ele>66</ele>
        <time>2021-08-09T16:19:54.000Z</time>
      </trkpt>
      <trkpt lat="47.01848" lon="-1.83514">
        <ele>65</ele>
        <time>2021-08-09T16:19:56.000Z</time>
      </trkpt>
      <trkpt lat="47.01831" lon="-1.83518">
        <ele>65</ele>
        <time>2021-08-09T16:19:58.000Z</time>
      </trkpt>
      <trkpt lat="47.01813" lon="-1.83522">
        <ele>64</ele>
        <time>2021-08-09T16:20:00.000Z</time>
      </trkpt>
      <trkpt lat="47.01796" lon="-1.83526">
        <ele>64</ele>
        <time>2021-08-09T16:20:02.000Z</time>
      </trkpt>
      <trkpt lat="47.0178" lon="-1.8353">
        <ele>63</ele>
        <time>2021-08-09T16:20:04.000Z</time>
      </trkpt>
      <trkpt lat="47.01763" lon="-1.83537">
        <ele>63</ele>
        <time>2021-08-09T16:20:06.000Z</time>
      </trkpt>
      <trkpt lat="47.01748" lon="-1.83549">
        <ele>62</ele>
        <time>2021-08-09T16:20:08.000Z</time>
      </trkpt>
      <trkpt lat="47.01736" lon="-1.83564">
        <ele>62</ele>
        <time>2021-08-09T16:20:10.000Z</time>
      </trkpt>
      <trkpt lat="47.01726" lon="-1.83582">
        <ele>62</ele>
        <time>2021-08-09T16:20:12.000Z</time>
      </trkpt>
      <trkpt lat="47.01717" lon="-1.836">
        <ele>61</ele>
        <time>2021-08-09T16:20:14.000Z</time>
      </trkpt>
      <trkpt lat="47.01708" lon="-1.83617">
        <ele>61</ele>
        <time>2021-08-09T16:20:16.000Z</time>
      </trkpt>
      <trkpt lat="47.01699" lon="-1.83634">
        <ele>61</ele>
        <time>2021-08-09T16:20:18.000Z</time>
      </trkpt>
      <trkpt lat="47.01689" lon="-1.8365">
        <ele>61</ele>
        <time>2021-08-09T16:20:20.000Z</time>
      </trkpt>
      <trkpt lat="47.01679" lon="-1.83666">
        <ele>61</ele>
        <time>2021-08-09T16:20:22.000Z</time>
      </trkpt>
      <trkpt lat="47.01668" lon="-1.8368">
        <ele>60</ele>
        <time>2021-08-09T16:20:24.000Z</time>
      </trkpt>
      <trkpt lat="47.01658" lon="-1.83694">
        <ele>60</ele>
        <time>2021-08-09T16:20:26.000Z</time>
      </trkpt>
      <trkpt lat="47.01646" lon="-1.83708">
        <ele>60</ele>
        <time>2021-08-09T16:20:28.000Z</time>
      </trkpt>
      <trkpt lat="47.01634" lon="-1.83723">
        <ele>60</ele>
        <time>2021-08-09T16:20:30.000Z</time>
      </trkpt>
      <trkpt lat="47.01621" lon="-1.83736">
        <ele>60</ele>
        <time>2021-08-09T16:20:32.000Z</time>
      </trkpt>
      <trkpt lat="47.01608" lon="-1.83751">
        <ele>60</ele>
        <time>2021-08-09T16:20:34.000Z</time>
      </trkpt>
      <trkpt lat="47.01596" lon="-1.83766">
        <ele>60</ele>
        <time>2021-08-09T16:20:36.000Z</time>
      </trkpt>
      <trkpt lat="47.01584" lon="-1.83781">
        <ele>60</ele>
        <time>2021-08-09T16:20:38.000Z</time>
      </trkpt>
      <trkpt lat="47.01571" lon="-1.83796">
        <ele>59</ele>
        <time>2021-08-09T16:20:40.000Z</time>
      </trkpt>
      <trkpt lat="47.01558" lon="-1.83812">
        <ele>59</ele>
        <time>2021-08-09T16:20:42.000Z</time>
      </trkpt>
      <trkpt lat="47.01546" lon="-1.83827">
        <ele>58</ele>
        <time>2021-08-09T16:20:44.000Z</time>
      </trkpt>
      <trkpt lat="47.01534" lon="-1.83843">
        <ele>58</ele>
        <time>2021-08-09T16:20:46.000Z</time>
      </trkpt>
      <trkpt lat="47.01522" lon="-1.8386">
        <ele>58</ele>
        <time>2021-08-09T16:20:48.000Z</time>
      </trkpt>
      <trkpt lat="47.01511" lon="-1.83878">
        <ele>58</ele>
        <time>2021-08-09T16:20:50.000Z</time>
      </trkpt>
      <trkpt lat="47.015" lon="-1.83895">
        <ele>58</ele>
        <time>2021-08-09T16:20:52.000Z</time>
      </trkpt>
      <trkpt lat="47.01488" lon="-1.83913">
        <ele>57</ele>
        <time>2021-08-09T16:20:54.000Z</time>
      </trkpt>
      <trkpt lat="47.01477" lon="-1.8393">
        <ele>57</ele>
        <time>2021-08-09T16:20:56.000Z</time>
      </trkpt>
      <trkpt lat="47.01464" lon="-1.83948">
        <ele>57</ele>
        <time>2021-08-09T16:20:58.000Z</time>
      </trkpt>
      <trkpt lat="47.01453" lon="-1.83965">
        <ele>56</ele>
        <time>2021-08-09T16:21:00.000Z</time>
      </trkpt>
      <trkpt lat="47.01442" lon="-1.83982">
        <ele>56</ele>
        <time>2021-08-09T16:21:02.000Z</time>
      </trkpt>
      <trkpt lat="47.01431" lon="-1.84">
        <ele>55</ele>
        <time>2021-08-09T16:21:04.000Z</time>
      </trkpt>
      <trkpt lat="47.0142" lon="-1.84017">
        <ele>55</ele>
        <time>2021-08-09T16:21:06.000Z</time>
      </trkpt>
      <trkpt lat="47.01409" lon="-1.84034">
        <ele>55</ele>
        <time>2021-08-09T16:21:08.000Z</time>
      </trkpt>
      <trkpt lat="47.01398" lon="-1.8405">
        <ele>54</ele>
        <time>2021-08-09T16:21:10.000Z</time>
      </trkpt>
      <trkpt lat="47.01386" lon="-1.84066">
        <ele>54</ele>
        <time>2021-08-09T16:21:12.000Z</time>
      </trkpt>
      <trkpt lat="47.01374" lon="-1.84082">
        <ele>54</ele>
        <time>2021-08-09T16:21:14.000Z</time>
      </trkpt>
      <trkpt lat="47.01362" lon="-1.84097">
        <ele>54</ele>
        <time>2021-08-09T16:21:16.000Z</time>
      </trkpt>
      <trkpt lat="47.01349" lon="-1.84112">
        <ele>54</ele>
        <time>2021-08-09T16:21:18.000Z</time>
      </trkpt>
      <trkpt lat="47.01337" lon="-1.84126">
        <ele>54</ele>
        <time>2021-08-09T16:21:20.000Z</time>
      </trkpt>
      <trkpt lat="47.01324" lon="-1.84139">
        <ele>54</ele>
        <time>2021-08-09T16:21:22.000Z</time>
      </trkpt>
      <trkpt lat="47.01311" lon="-1.84153">
        <ele>54</ele>
        <time>2021-08-09T16:21:24.000Z</time>
      </trkpt>
      <trkpt lat="47.01299" lon="-1.84167">
        <ele>54</ele>
        <time>2021-08-09T16:21:26.000Z</time>
      </trkpt>
      <trkpt lat="47.01286" lon="-1.8418">
        <ele>53</ele>
        <time>2021-08-09T16:21:28.000Z</time>
      </trkpt>
      <trkpt lat="47.01274" lon="-1.84194">
        <ele>54</ele>
        <time>2021-08-09T16:21:30.000Z</time>
      </trkpt>
      <trkpt lat="47.01263" lon="-1.84206">
        <ele>54</ele>
        <time>2021-08-09T16:21:32.000Z</time>
      </trkpt>
      <trkpt lat="47.01252" lon="-1.84218">
        <ele>54</ele>
        <time>2021-08-09T16:21:34.000Z</time>
      </trkpt>
      <trkpt lat="47.0124" lon="-1.8423">
        <ele>54</ele>
        <time>2021-08-09T16:21:36.000Z</time>
      </trkpt>
      <trkpt lat="47.01228" lon="-1.84243">
        <ele>54</ele>
        <time>2021-08-09T16:21:38.000Z</time>
      </trkpt>
      <trkpt lat="47.01216" lon="-1.84257">
        <ele>54</ele>
        <time>2021-08-09T16:21:40.000Z</time>
      </trkpt>
      <trkpt lat="47.01205" lon="-1.8427">
        <ele>53</ele>
        <time>2021-08-09T16:21:42.000Z</time>
      </trkpt>
      <trkpt lat="47.01193" lon="-1.84285">
        <ele>53</ele>
        <time>2021-08-09T16:21:44.000Z</time>
      </trkpt>
      <trkpt lat="47.01184" lon="-1.84302">
        <ele>53</ele>
        <time>2021-08-09T16:21:46.000Z</time>
      </trkpt>
      <trkpt lat="47.01176" lon="-1.84322">
        <ele>53</ele>
        <time>2021-08-09T16:21:48.000Z</time>
      </trkpt>
      <trkpt lat="47.01171" lon="-1.84342">
        <ele>53</ele>
        <time>2021-08-09T16:21:50.000Z</time>
      </trkpt>
      <trkpt lat="47.01165" lon="-1.84363">
        <ele>52</ele>
        <time>2021-08-09T16:21:52.000Z</time>
      </trkpt>
      <trkpt lat="47.0116" lon="-1.84384">
        <ele>52</ele>
        <time>2021-08-09T16:21:54.000Z</time>
      </trkpt>
      <trkpt lat="47.01155" lon="-1.84405">
        <ele>52</ele>
        <time>2021-08-09T16:21:56.000Z</time>
      </trkpt>
      <trkpt lat="47.0115" lon="-1.84425">
        <ele>53</ele>
        <time>2021-08-09T16:21:58.000Z</time>
      </trkpt>
      <trkpt lat="47.01145" lon="-1.84445">
        <ele>53</ele>
        <time>2021-08-09T16:22:00.000Z</time>
      </trkpt>
      <trkpt lat="47.01139" lon="-1.84466">
        <ele>53</ele>
        <time>2021-08-09T16:22:02.000Z</time>
      </trkpt>
      <trkpt lat="47.01135" lon="-1.84487">
        <ele>53</ele>
        <time>2021-08-09T16:22:04.000Z</time>
      </trkpt>
      <trkpt lat="47.01129" lon="-1.84507">
        <ele>53</ele>
        <time>2021-08-09T16:22:06.000Z</time>
      </trkpt>
      <trkpt lat="47.01123" lon="-1.84526">
        <ele>53</ele>
        <time>2021-08-09T16:22:08.000Z</time>
      </trkpt>
      <trkpt lat="47.01115" lon="-1.84544">
        <ele>53</ele>
        <time>2021-08-09T16:22:10.000Z</time>
      </trkpt>
      <trkpt lat="47.01104" lon="-1.84559">
        <ele>52</ele>
        <time>2021-08-09T16:22:12.000Z</time>
      </trkpt>
      <trkpt lat="47.01093" lon="-1.84573">
        <ele>52</ele>
        <time>2021-08-09T16:22:14.000Z</time>
      </trkpt>
      <trkpt lat="47.01081" lon="-1.84586">
        <ele>52</ele>
        <time>2021-08-09T16:22:16.000Z</time>
      </trkpt>
      <trkpt lat="47.01069" lon="-1.846">
        <ele>52</ele>
        <time>2021-08-09T16:22:18.000Z</time>
      </trkpt>
      <trkpt lat="47.01058" lon="-1.84613">
        <ele>53</ele>
        <time>2021-08-09T16:22:20.000Z</time>
      </trkpt>
      <trkpt lat="47.01047" lon="-1.84626">
        <ele>53</ele>
        <time>2021-08-09T16:22:22.000Z</time>
      </trkpt>
      <trkpt lat="47.01035" lon="-1.84639">
        <ele>53</ele>
        <time>2021-08-09T16:22:24.000Z</time>
      </trkpt>
      <trkpt lat="47.01024" lon="-1.8465">
        <ele>53</ele>
        <time>2021-08-09T16:22:26.000Z</time>
      </trkpt>
      <trkpt lat="47.01012" lon="-1.8466">
        <ele>53</ele>
        <time>2021-08-09T16:22:28.000Z</time>
      </trkpt>
      <trkpt lat="47.01" lon="-1.84668">
        <ele>53</ele>
        <time>2021-08-09T16:22:30.000Z</time>
      </trkpt>
      <trkpt lat="47.00987" lon="-1.84676">
        <ele>53</ele>
        <time>2021-08-09T16:22:32.000Z</time>
      </trkpt>
      <trkpt lat="47.00975" lon="-1.84682">
        <ele>53</ele>
        <time>2021-08-09T16:22:34.000Z</time>
      </trkpt>
      <trkpt lat="47.00962" lon="-1.84689">
        <ele>53</ele>
        <time>2021-08-09T16:22:36.000Z</time>
      </trkpt>
      <trkpt lat="47.0095" lon="-1.84697">
        <ele>53</ele>
        <time>2021-08-09T16:22:38.000Z</time>
      </trkpt>
      <trkpt lat="47.00938" lon="-1.84703">
        <ele>53</ele>
        <time>2021-08-09T16:22:40.000Z</time>
      </trkpt>
      <trkpt lat="47.00926" lon="-1.84709">
        <ele>53</ele>
        <time>2021-08-09T16:22:42.000Z</time>
      </trkpt>
      <trkpt lat="47.00916" lon="-1.84715">
        <ele>53</ele>
        <time>2021-08-09T16:22:44.000Z</time>
      </trkpt>
      <trkpt lat="47.00906" lon="-1.8472">
        <ele>53</ele>
        <time>2021-08-09T16:22:46.000Z</time>
      </trkpt>
      <trkpt lat="47.00895" lon="-1.84727">
        <ele>53</ele>
        <time>2021-08-09T16:22:49.000Z</time>
      </trkpt>
      <trkpt lat="47.00887" lon="-1.84735">
        <ele>53</ele>
        <time>2021-08-09T16:22:53.000Z</time>
      </trkpt>
      <trkpt lat="47.00876" lon="-1.84745">
        <ele>53</ele>
        <time>2021-08-09T16:22:56.000Z</time>
      </trkpt>
      <trkpt lat="47.00865" lon="-1.84754">
        <ele>53</ele>
        <time>2021-08-09T16:22:58.000Z</time>
      </trkpt>
      <trkpt lat="47.00853" lon="-1.84762">
        <ele>52</ele>
        <time>2021-08-09T16:23:00.000Z</time>
      </trkpt>
      <trkpt lat="47.00842" lon="-1.8477">
        <ele>52</ele>
        <time>2021-08-09T16:23:02.000Z</time>
      </trkpt>
      <trkpt lat="47.0083" lon="-1.84778">
        <ele>52</ele>
        <time>2021-08-09T16:23:04.000Z</time>
      </trkpt>
      <trkpt lat="47.00817" lon="-1.84787">
        <ele>52</ele>
        <time>2021-08-09T16:23:06.000Z</time>
      </trkpt>
      <trkpt lat="47.00804" lon="-1.84794">
        <ele>52</ele>
        <time>2021-08-09T16:23:08.000Z</time>
      </trkpt>
      <trkpt lat="47.00792" lon="-1.848">
        <ele>53</ele>
        <time>2021-08-09T16:23:10.000Z</time>
      </trkpt>
      <trkpt lat="47.0078" lon="-1.84807">
        <ele>53</ele>
        <time>2021-08-09T16:23:12.000Z</time>
      </trkpt>
      <trkpt lat="47.00767" lon="-1.84813">
        <ele>53</ele>
        <time>2021-08-09T16:23:14.000Z</time>
      </trkpt>
      <trkpt lat="47.00755" lon="-1.8482">
        <ele>53</ele>
        <time>2021-08-09T16:23:16.000Z</time>
      </trkpt>
      <trkpt lat="47.00742" lon="-1.84827">
        <ele>53</ele>
        <time>2021-08-09T16:23:18.000Z</time>
      </trkpt>
      <trkpt lat="47.0073" lon="-1.84833">
        <ele>53</ele>
        <time>2021-08-09T16:23:20.000Z</time>
      </trkpt>
      <trkpt lat="47.00718" lon="-1.8484">
        <ele>53</ele>
        <time>2021-08-09T16:23:22.000Z</time>
      </trkpt>
      <trkpt lat="47.00705" lon="-1.84846">
        <ele>53</ele>
        <time>2021-08-09T16:23:24.000Z</time>
      </trkpt>
      <trkpt lat="47.00693" lon="-1.84852">
        <ele>53</ele>
        <time>2021-08-09T16:23:26.000Z</time>
      </trkpt>
      <trkpt lat="47.00681" lon="-1.84858">
        <ele>53</ele>
        <time>2021-08-09T16:23:28.000Z</time>
      </trkpt>
      <trkpt lat="47.00668" lon="-1.84865">
        <ele>53</ele>
        <time>2021-08-09T16:23:30.000Z</time>
      </trkpt>
      <trkpt lat="47.00655" lon="-1.84871">
        <ele>53</ele>
        <time>2021-08-09T16:23:32.000Z</time>
      </trkpt>
      <trkpt lat="47.00643" lon="-1.84878">
        <ele>53</ele>
        <time>2021-08-09T16:23:34.000Z</time>
      </trkpt>
      <trkpt lat="47.00631" lon="-1.84885">
        <ele>53</ele>
        <time>2021-08-09T16:23:36.000Z</time>
      </trkpt>
      <trkpt lat="47.0062" lon="-1.84895">
        <ele>53</ele>
        <time>2021-08-09T16:23:38.000Z</time>
      </trkpt>
      <trkpt lat="47.00609" lon="-1.84906">
        <ele>53</ele>
        <time>2021-08-09T16:23:40.000Z</time>
      </trkpt>
      <trkpt lat="47.00598" lon="-1.84917">
        <ele>53</ele>
        <time>2021-08-09T16:23:42.000Z</time>
      </trkpt>
      <trkpt lat="47.00588" lon="-1.84929">
        <ele>53</ele>
        <time>2021-08-09T16:23:44.000Z</time>
      </trkpt>
      <trkpt lat="47.00578" lon="-1.84941">
        <ele>54</ele>
        <time>2021-08-09T16:23:46.000Z</time>
      </trkpt>
      <trkpt lat="47.00568" lon="-1.84953">
        <ele>54</ele>
        <time>2021-08-09T16:23:48.000Z</time>
      </trkpt>
      <trkpt lat="47.00559" lon="-1.84966">
        <ele>53</ele>
        <time>2021-08-09T16:23:50.000Z</time>
      </trkpt>
      <trkpt lat="47.00549" lon="-1.84979">
        <ele>53</ele>
        <time>2021-08-09T16:23:52.000Z</time>
      </trkpt>
      <trkpt lat="47.00539" lon="-1.84992">
        <ele>53</ele>
        <time>2021-08-09T16:23:54.000Z</time>
      </trkpt>
      <trkpt lat="47.00529" lon="-1.85004">
        <ele>53</ele>
        <time>2021-08-09T16:23:56.000Z</time>
      </trkpt>
      <trkpt lat="47.00518" lon="-1.85017">
        <ele>53</ele>
        <time>2021-08-09T16:23:58.000Z</time>
      </trkpt>
      <trkpt lat="47.00508" lon="-1.85029">
        <ele>53</ele>
        <time>2021-08-09T16:24:00.000Z</time>
      </trkpt>
      <trkpt lat="47.00498" lon="-1.85042">
        <ele>53</ele>
        <time>2021-08-09T16:24:02.000Z</time>
      </trkpt>
      <trkpt lat="47.00487" lon="-1.85054">
        <ele>52</ele>
        <time>2021-08-09T16:24:04.000Z</time>
      </trkpt>
      <trkpt lat="47.00476" lon="-1.85066">
        <ele>52</ele>
        <time>2021-08-09T16:24:06.000Z</time>
      </trkpt>
      <trkpt lat="47.00465" lon="-1.85076">
        <ele>52</ele>
        <time>2021-08-09T16:24:08.000Z</time>
      </trkpt>
      <trkpt lat="47.00453" lon="-1.85085">
        <ele>52</ele>
        <time>2021-08-09T16:24:10.000Z</time>
      </trkpt>
      <trkpt lat="47.00442" lon="-1.85095">
        <ele>52</ele>
        <time>2021-08-09T16:24:12.000Z</time>
      </trkpt>
      <trkpt lat="47.00432" lon="-1.85104">
        <ele>52</ele>
        <time>2021-08-09T16:24:14.000Z</time>
      </trkpt>
      <trkpt lat="47.00421" lon="-1.85113">
        <ele>52</ele>
        <time>2021-08-09T16:24:16.000Z</time>
      </trkpt>
      <trkpt lat="47.0041" lon="-1.85122">
        <ele>52</ele>
        <time>2021-08-09T16:24:18.000Z</time>
      </trkpt>
      <trkpt lat="47.00398" lon="-1.85131">
        <ele>52</ele>
        <time>2021-08-09T16:24:20.000Z</time>
      </trkpt>
      <trkpt lat="47.00387" lon="-1.8514">
        <ele>52</ele>
        <time>2021-08-09T16:24:22.000Z</time>
      </trkpt>
      <trkpt lat="47.00375" lon="-1.8515">
        <ele>52</ele>
        <time>2021-08-09T16:24:24.000Z</time>
      </trkpt>
      <trkpt lat="47.00365" lon="-1.8516">
        <ele>53</ele>
        <time>2021-08-09T16:24:26.000Z</time>
      </trkpt>
      <trkpt lat="47.00353" lon="-1.8517">
        <ele>53</ele>
        <time>2021-08-09T16:24:28.000Z</time>
      </trkpt>
      <trkpt lat="47.00342" lon="-1.8518">
        <ele>52</ele>
        <time>2021-08-09T16:24:30.000Z</time>
      </trkpt>
      <trkpt lat="47.00331" lon="-1.8519">
        <ele>52</ele>
        <time>2021-08-09T16:24:32.000Z</time>
      </trkpt>
      <trkpt lat="47.00319" lon="-1.85199">
        <ele>52</ele>
        <time>2021-08-09T16:24:34.000Z</time>
      </trkpt>
      <trkpt lat="47.00308" lon="-1.85208">
        <ele>52</ele>
        <time>2021-08-09T16:24:36.000Z</time>
      </trkpt>
      <trkpt lat="47.00297" lon="-1.85217">
        <ele>53</ele>
        <time>2021-08-09T16:24:38.000Z</time>
      </trkpt>
      <trkpt lat="47.00286" lon="-1.85226">
        <ele>53</ele>
        <time>2021-08-09T16:24:40.000Z</time>
      </trkpt>
      <trkpt lat="47.00274" lon="-1.85236">
        <ele>53</ele>
        <time>2021-08-09T16:24:42.000Z</time>
      </trkpt>
      <trkpt lat="47.00263" lon="-1.85246">
        <ele>52</ele>
        <time>2021-08-09T16:24:44.000Z</time>
      </trkpt>
      <trkpt lat="47.00252" lon="-1.85255">
        <ele>53</ele>
        <time>2021-08-09T16:24:46.000Z</time>
      </trkpt>
      <trkpt lat="47.00241" lon="-1.85265">
        <ele>53</ele>
        <time>2021-08-09T16:24:48.000Z</time>
      </trkpt>
      <trkpt lat="47.0023" lon="-1.85276">
        <ele>53</ele>
        <time>2021-08-09T16:24:50.000Z</time>
      </trkpt>
      <trkpt lat="47.0022" lon="-1.85288">
        <ele>52</ele>
        <time>2021-08-09T16:24:52.000Z</time>
      </trkpt>
      <trkpt lat="47.00211" lon="-1.85303">
        <ele>52</ele>
        <time>2021-08-09T16:24:54.000Z</time>
      </trkpt>
      <trkpt lat="47.00203" lon="-1.85317">
        <ele>52</ele>
        <time>2021-08-09T16:24:56.000Z</time>
      </trkpt>
      <trkpt lat="47.00196" lon="-1.85332">
        <ele>52</ele>
        <time>2021-08-09T16:24:58.000Z</time>
      </trkpt>
      <trkpt lat="47.00188" lon="-1.85348">
        <ele>51</ele>
        <time>2021-08-09T16:25:00.000Z</time>
      </trkpt>
      <trkpt lat="47.00181" lon="-1.85363">
        <ele>52</ele>
        <time>2021-08-09T16:25:02.000Z</time>
      </trkpt>
      <trkpt lat="47.00174" lon="-1.85379">
        <ele>52</ele>
        <time>2021-08-09T16:25:04.000Z</time>
      </trkpt>
      <trkpt lat="47.00166" lon="-1.85394">
        <ele>51</ele>
        <time>2021-08-09T16:25:06.000Z</time>
      </trkpt>
      <trkpt lat="47.00158" lon="-1.85408">
        <ele>51</ele>
        <time>2021-08-09T16:25:08.000Z</time>
      </trkpt>
      <trkpt lat="47.00149" lon="-1.85421">
        <ele>51</ele>
        <time>2021-08-09T16:25:10.000Z</time>
      </trkpt>
      <trkpt lat="47.00139" lon="-1.85433">
        <ele>51</ele>
        <time>2021-08-09T16:25:12.000Z</time>
      </trkpt>
      <trkpt lat="47.00128" lon="-1.85443">
        <ele>50</ele>
        <time>2021-08-09T16:25:14.000Z</time>
      </trkpt>
      <trkpt lat="47.00115" lon="-1.85449">
        <ele>51</ele>
        <time>2021-08-09T16:25:16.000Z</time>
      </trkpt>
      <trkpt lat="47.00102" lon="-1.85447">
        <ele>51</ele>
        <time>2021-08-09T16:25:18.000Z</time>
      </trkpt>
      <trkpt lat="47.00092" lon="-1.85438">
        <ele>51</ele>
        <time>2021-08-09T16:25:20.000Z</time>
      </trkpt>
      <trkpt lat="47.00082" lon="-1.85428">
        <ele>52</ele>
        <time>2021-08-09T16:25:22.000Z</time>
      </trkpt>
      <trkpt lat="47.00072" lon="-1.85415">
        <ele>52</ele>
        <time>2021-08-09T16:25:24.000Z</time>
      </trkpt>
      <trkpt lat="47.00062" lon="-1.85402">
        <ele>53</ele>
        <time>2021-08-09T16:25:26.000Z</time>
      </trkpt>
      <trkpt lat="47.00053" lon="-1.8539">
        <ele>53</ele>
        <time>2021-08-09T16:25:28.000Z</time>
      </trkpt>
      <trkpt lat="47.00042" lon="-1.85379">
        <ele>53</ele>
        <time>2021-08-09T16:25:30.000Z</time>
      </trkpt>
      <trkpt lat="47.0003" lon="-1.85371">
        <ele>53</ele>
        <time>2021-08-09T16:25:32.000Z</time>
      </trkpt>
      <trkpt lat="47.00017" lon="-1.85367">
        <ele>53</ele>
        <time>2021-08-09T16:25:34.000Z</time>
      </trkpt>
      <trkpt lat="47.00004" lon="-1.85365">
        <ele>52</ele>
        <time>2021-08-09T16:25:36.000Z</time>
      </trkpt>
      <trkpt lat="46.9999" lon="-1.85363">
        <ele>52</ele>
        <time>2021-08-09T16:25:38.000Z</time>
      </trkpt>
      <trkpt lat="46.9998" lon="-1.85352">
        <ele>52</ele>
        <time>2021-08-09T16:25:40.000Z</time>
      </trkpt>
      <trkpt lat="46.99972" lon="-1.85336">
        <ele>52</ele>
        <time>2021-08-09T16:25:42.000Z</time>
      </trkpt>
      <trkpt lat="46.99964" lon="-1.85319">
        <ele>52</ele>
        <time>2021-08-09T16:25:44.000Z</time>
      </trkpt>
      <trkpt lat="46.99956" lon="-1.85304">
        <ele>53</ele>
        <time>2021-08-09T16:25:46.000Z</time>
      </trkpt>
      <trkpt lat="46.99948" lon="-1.85288">
        <ele>53</ele>
        <time>2021-08-09T16:25:48.000Z</time>
      </trkpt>
      <trkpt lat="46.99939" lon="-1.85272">
        <ele>53</ele>
        <time>2021-08-09T16:25:50.000Z</time>
      </trkpt>
      <trkpt lat="46.99931" lon="-1.85255">
        <ele>53</ele>
        <time>2021-08-09T16:25:52.000Z</time>
      </trkpt>
      <trkpt lat="46.99923" lon="-1.85237">
        <ele>53</ele>
        <time>2021-08-09T16:25:54.000Z</time>
      </trkpt>
      <trkpt lat="46.99917" lon="-1.85216">
        <ele>54</ele>
        <time>2021-08-09T16:25:56.000Z</time>
      </trkpt>
      <trkpt lat="46.99914" lon="-1.85195">
        <ele>54</ele>
        <time>2021-08-09T16:25:58.000Z</time>
      </trkpt>
      <trkpt lat="46.99911" lon="-1.85174">
        <ele>54</ele>
        <time>2021-08-09T16:26:00.000Z</time>
      </trkpt>
      <trkpt lat="46.99908" lon="-1.85153">
        <ele>54</ele>
        <time>2021-08-09T16:26:02.000Z</time>
      </trkpt>
      <trkpt lat="46.99905" lon="-1.85132">
        <ele>54</ele>
        <time>2021-08-09T16:26:04.000Z</time>
      </trkpt>
      <trkpt lat="46.99903" lon="-1.8511">
        <ele>55</ele>
        <time>2021-08-09T16:26:06.000Z</time>
      </trkpt>
      <trkpt lat="46.999" lon="-1.85089">
        <ele>55</ele>
        <time>2021-08-09T16:26:08.000Z</time>
      </trkpt>
      <trkpt lat="46.99898" lon="-1.85067">
        <ele>55</ele>
        <time>2021-08-09T16:26:10.000Z</time>
      </trkpt>
      <trkpt lat="46.99896" lon="-1.85045">
        <ele>55</ele>
        <time>2021-08-09T16:26:12.000Z</time>
      </trkpt>
      <trkpt lat="46.99895" lon="-1.85023">
        <ele>56</ele>
        <time>2021-08-09T16:26:14.000Z</time>
      </trkpt>
      <trkpt lat="46.99894" lon="-1.85002">
        <ele>56</ele>
        <time>2021-08-09T16:26:16.000Z</time>
      </trkpt>
      <trkpt lat="46.99893" lon="-1.8498">
        <ele>56</ele>
        <time>2021-08-09T16:26:18.000Z</time>
      </trkpt>
      <trkpt lat="46.99891" lon="-1.84959">
        <ele>56</ele>
        <time>2021-08-09T16:26:20.000Z</time>
      </trkpt>
      <trkpt lat="46.9989" lon="-1.84939">
        <ele>57</ele>
        <time>2021-08-09T16:26:22.000Z</time>
      </trkpt>
      <trkpt lat="46.9989" lon="-1.84917">
        <ele>57</ele>
        <time>2021-08-09T16:26:24.000Z</time>
      </trkpt>
      <trkpt lat="46.99889" lon="-1.84897">
        <ele>57</ele>
        <time>2021-08-09T16:26:26.000Z</time>
      </trkpt>
      <trkpt lat="46.99887" lon="-1.84875">
        <ele>57</ele>
        <time>2021-08-09T16:26:28.000Z</time>
      </trkpt>
      <trkpt lat="46.99884" lon="-1.84854">
        <ele>57</ele>
        <time>2021-08-09T16:26:30.000Z</time>
      </trkpt>
      <trkpt lat="46.99881" lon="-1.84833">
        <ele>56</ele>
        <time>2021-08-09T16:26:32.000Z</time>
      </trkpt>
      <trkpt lat="46.99877" lon="-1.84813">
        <ele>56</ele>
        <time>2021-08-09T16:26:34.000Z</time>
      </trkpt>
      <trkpt lat="46.99872" lon="-1.84793">
        <ele>56</ele>
        <time>2021-08-09T16:26:36.000Z</time>
      </trkpt>
      <trkpt lat="46.99865" lon="-1.84773">
        <ele>55</ele>
        <time>2021-08-09T16:26:38.000Z</time>
      </trkpt>
      <trkpt lat="46.99858" lon="-1.84755">
        <ele>55</ele>
        <time>2021-08-09T16:26:40.000Z</time>
      </trkpt>
      <trkpt lat="46.99851" lon="-1.84737">
        <ele>55</ele>
        <time>2021-08-09T16:26:42.000Z</time>
      </trkpt>
      <trkpt lat="46.99844" lon="-1.84719">
        <ele>55</ele>
        <time>2021-08-09T16:26:44.000Z</time>
      </trkpt>
      <trkpt lat="46.99837" lon="-1.847">
        <ele>55</ele>
        <time>2021-08-09T16:26:46.000Z</time>
      </trkpt>
      <trkpt lat="46.9983" lon="-1.84682">
        <ele>55</ele>
        <time>2021-08-09T16:26:48.000Z</time>
      </trkpt>
      <trkpt lat="46.99823" lon="-1.84663">
        <ele>55</ele>
        <time>2021-08-09T16:26:50.000Z</time>
      </trkpt>
      <trkpt lat="46.99817" lon="-1.84644">
        <ele>56</ele>
        <time>2021-08-09T16:26:52.000Z</time>
      </trkpt>
      <trkpt lat="46.99811" lon="-1.84625">
        <ele>55</ele>
        <time>2021-08-09T16:26:54.000Z</time>
      </trkpt>
      <trkpt lat="46.99806" lon="-1.84604">
        <ele>56</ele>
        <time>2021-08-09T16:26:56.000Z</time>
      </trkpt>
      <trkpt lat="46.99801" lon="-1.84584">
        <ele>56</ele>
        <time>2021-08-09T16:26:58.000Z</time>
      </trkpt>
      <trkpt lat="46.99797" lon="-1.84563">
        <ele>56</ele>
        <time>2021-08-09T16:27:00.000Z</time>
      </trkpt>
      <trkpt lat="46.99793" lon="-1.84541">
        <ele>55</ele>
        <time>2021-08-09T16:27:02.000Z</time>
      </trkpt>
      <trkpt lat="46.99789" lon="-1.84519">
        <ele>55</ele>
        <time>2021-08-09T16:27:04.000Z</time>
      </trkpt>
      <trkpt lat="46.99785" lon="-1.84497">
        <ele>55</ele>
        <time>2021-08-09T16:27:06.000Z</time>
      </trkpt>
      <trkpt lat="46.99781" lon="-1.84475">
        <ele>56</ele>
        <time>2021-08-09T16:27:08.000Z</time>
      </trkpt>
      <trkpt lat="46.99777" lon="-1.84454">
        <ele>55</ele>
        <time>2021-08-09T16:27:10.000Z</time>
      </trkpt>
      <trkpt lat="46.99773" lon="-1.84431">
        <ele>55</ele>
        <time>2021-08-09T16:27:12.000Z</time>
      </trkpt>
      <trkpt lat="46.99769" lon="-1.84408">
        <ele>55</ele>
        <time>2021-08-09T16:27:14.000Z</time>
      </trkpt>
      <trkpt lat="46.99765" lon="-1.84385">
        <ele>55</ele>
        <time>2021-08-09T16:27:16.000Z</time>
      </trkpt>
      <trkpt lat="46.99761" lon="-1.84362">
        <ele>55</ele>
        <time>2021-08-09T16:27:18.000Z</time>
      </trkpt>
      <trkpt lat="46.99757" lon="-1.84339">
        <ele>55</ele>
        <time>2021-08-09T16:27:20.000Z</time>
      </trkpt>
      <trkpt lat="46.99754" lon="-1.84316">
        <ele>55</ele>
        <time>2021-08-09T16:27:22.000Z</time>
      </trkpt>
      <trkpt lat="46.99752" lon="-1.84293">
        <ele>55</ele>
        <time>2021-08-09T16:27:24.000Z</time>
      </trkpt>
      <trkpt lat="46.9975" lon="-1.84271">
        <ele>55</ele>
        <time>2021-08-09T16:27:26.000Z</time>
      </trkpt>
      <trkpt lat="46.99747" lon="-1.84249">
        <ele>54</ele>
        <time>2021-08-09T16:27:28.000Z</time>
      </trkpt>
      <trkpt lat="46.99745" lon="-1.84227">
        <ele>54</ele>
        <time>2021-08-09T16:27:30.000Z</time>
      </trkpt>
      <trkpt lat="46.99742" lon="-1.84206">
        <ele>54</ele>
        <time>2021-08-09T16:27:32.000Z</time>
      </trkpt>
      <trkpt lat="46.99733" lon="-1.84188">
        <ele>54</ele>
        <time>2021-08-09T16:27:34.000Z</time>
      </trkpt>
      <trkpt lat="46.9972" lon="-1.84178">
        <ele>54</ele>
        <time>2021-08-09T16:27:36.000Z</time>
      </trkpt>
      <trkpt lat="46.99707" lon="-1.84171">
        <ele>54</ele>
        <time>2021-08-09T16:27:38.000Z</time>
      </trkpt>
      <trkpt lat="46.99694" lon="-1.84164">
        <ele>54</ele>
        <time>2021-08-09T16:27:40.000Z</time>
      </trkpt>
      <trkpt lat="46.99681" lon="-1.84155">
        <ele>54</ele>
        <time>2021-08-09T16:27:42.000Z</time>
      </trkpt>
      <trkpt lat="46.99669" lon="-1.84143">
        <ele>53</ele>
        <time>2021-08-09T16:27:44.000Z</time>
      </trkpt>
      <trkpt lat="46.99658" lon="-1.8413">
        <ele>53</ele>
        <time>2021-08-09T16:27:46.000Z</time>
      </trkpt>
      <trkpt lat="46.99649" lon="-1.84115">
        <ele>54</ele>
        <time>2021-08-09T16:27:48.000Z</time>
      </trkpt>
      <trkpt lat="46.9964" lon="-1.84099">
        <ele>54</ele>
        <time>2021-08-09T16:27:50.000Z</time>
      </trkpt>
      <trkpt lat="46.99632" lon="-1.84083">
        <ele>54</ele>
        <time>2021-08-09T16:27:52.000Z</time>
      </trkpt>
      <trkpt lat="46.99625" lon="-1.84066">
        <ele>54</ele>
        <time>2021-08-09T16:27:54.000Z</time>
      </trkpt>
      <trkpt lat="46.9962" lon="-1.84046">
        <ele>54</ele>
        <time>2021-08-09T16:27:56.000Z</time>
      </trkpt>
      <trkpt lat="46.99615" lon="-1.84026">
        <ele>54</ele>
        <time>2021-08-09T16:27:58.000Z</time>
      </trkpt>
      <trkpt lat="46.99611" lon="-1.84005">
        <ele>54</ele>
        <time>2021-08-09T16:28:00.000Z</time>
      </trkpt>
      <trkpt lat="46.99607" lon="-1.83984">
        <ele>54</ele>
        <time>2021-08-09T16:28:02.000Z</time>
      </trkpt>
      <trkpt lat="46.996" lon="-1.83953">
        <ele>54</ele>
        <time>2021-08-09T16:28:05.000Z</time>
      </trkpt>
      <trkpt lat="46.99591" lon="-1.83935">
        <ele>54</ele>
        <time>2021-08-09T16:28:07.000Z</time>
      </trkpt>
      <trkpt lat="46.99579" lon="-1.83922">
        <ele>54</ele>
        <time>2021-08-09T16:28:09.000Z</time>
      </trkpt>
      <trkpt lat="46.99566" lon="-1.83913">
        <ele>54</ele>
        <time>2021-08-09T16:28:11.000Z</time>
      </trkpt>
      <trkpt lat="46.99552" lon="-1.83906">
        <ele>54</ele>
        <time>2021-08-09T16:28:13.000Z</time>
      </trkpt>
      <trkpt lat="46.99533" lon="-1.83894">
        <ele>55</ele>
        <time>2021-08-09T16:28:16.000Z</time>
      </trkpt>
      <trkpt lat="46.99513" lon="-1.83883">
        <ele>55</ele>
        <time>2021-08-09T16:28:19.000Z</time>
      </trkpt>
      <trkpt lat="46.995" lon="-1.83874">
        <ele>55</ele>
        <time>2021-08-09T16:28:21.000Z</time>
      </trkpt>
      <trkpt lat="46.99488" lon="-1.83864">
        <ele>55</ele>
        <time>2021-08-09T16:28:23.000Z</time>
      </trkpt>
      <trkpt lat="46.99478" lon="-1.83851">
        <ele>55</ele>
        <time>2021-08-09T16:28:25.000Z</time>
      </trkpt>
      <trkpt lat="46.99465" lon="-1.83826">
        <ele>55</ele>
        <time>2021-08-09T16:28:28.000Z</time>
      </trkpt>
      <trkpt lat="46.99458" lon="-1.83808">
        <ele>55</ele>
        <time>2021-08-09T16:28:30.000Z</time>
      </trkpt>
      <trkpt lat="46.99444" lon="-1.83784">
        <ele>55</ele>
        <time>2021-08-09T16:28:33.000Z</time>
      </trkpt>
      <trkpt lat="46.99433" lon="-1.83772">
        <ele>55</ele>
        <time>2021-08-09T16:28:35.000Z</time>
      </trkpt>
      <trkpt lat="46.9942" lon="-1.83763">
        <ele>56</ele>
        <time>2021-08-09T16:28:37.000Z</time>
      </trkpt>
      <trkpt lat="46.99407" lon="-1.83755">
        <ele>55</ele>
        <time>2021-08-09T16:28:39.000Z</time>
      </trkpt>
      <trkpt lat="46.99395" lon="-1.83748">
        <ele>55</ele>
        <time>2021-08-09T16:28:41.000Z</time>
      </trkpt>
      <trkpt lat="46.99382" lon="-1.8374">
        <ele>55</ele>
        <time>2021-08-09T16:28:43.000Z</time>
      </trkpt>
      <trkpt lat="46.9937" lon="-1.83732">
        <ele>55</ele>
        <time>2021-08-09T16:28:45.000Z</time>
      </trkpt>
      <trkpt lat="46.99358" lon="-1.83725">
        <ele>55</ele>
        <time>2021-08-09T16:28:47.000Z</time>
      </trkpt>
      <trkpt lat="46.99345" lon="-1.83719">
        <ele>55</ele>
        <time>2021-08-09T16:28:49.000Z</time>
      </trkpt>
      <trkpt lat="46.99332" lon="-1.83711">
        <ele>55</ele>
        <time>2021-08-09T16:28:51.000Z</time>
      </trkpt>
      <trkpt lat="46.99319" lon="-1.83702">
        <ele>55</ele>
        <time>2021-08-09T16:28:53.000Z</time>
      </trkpt>
      <trkpt lat="46.99308" lon="-1.83693">
        <ele>55</ele>
        <time>2021-08-09T16:28:55.000Z</time>
      </trkpt>
      <trkpt lat="46.99296" lon="-1.83683">
        <ele>55</ele>
        <time>2021-08-09T16:28:57.000Z</time>
      </trkpt>
      <trkpt lat="46.99285" lon="-1.83673">
        <ele>55</ele>
        <time>2021-08-09T16:28:59.000Z</time>
      </trkpt>
      <trkpt lat="46.99275" lon="-1.83662">
        <ele>55</ele>
        <time>2021-08-09T16:29:01.000Z</time>
      </trkpt>
      <trkpt lat="46.99265" lon="-1.8365">
        <ele>55</ele>
        <time>2021-08-09T16:29:03.000Z</time>
      </trkpt>
      <trkpt lat="46.99255" lon="-1.83638">
        <ele>55</ele>
        <time>2021-08-09T16:29:05.000Z</time>
      </trkpt>
      <trkpt lat="46.99245" lon="-1.83627">
        <ele>55</ele>
        <time>2021-08-09T16:29:07.000Z</time>
      </trkpt>
      <trkpt lat="46.99236" lon="-1.83614">
        <ele>55</ele>
        <time>2021-08-09T16:29:09.000Z</time>
      </trkpt>
      <trkpt lat="46.99226" lon="-1.83602">
        <ele>55</ele>
        <time>2021-08-09T16:29:11.000Z</time>
      </trkpt>
      <trkpt lat="46.99217" lon="-1.83591">
        <ele>55</ele>
        <time>2021-08-09T16:29:13.000Z</time>
      </trkpt>
      <trkpt lat="46.99208" lon="-1.83579">
        <ele>54</ele>
        <time>2021-08-09T16:29:15.000Z</time>
      </trkpt>
      <trkpt lat="46.99198" lon="-1.83568">
        <ele>54</ele>
        <time>2021-08-09T16:29:17.000Z</time>
      </trkpt>
      <trkpt lat="46.99189" lon="-1.83557">
        <ele>54</ele>
        <time>2021-08-09T16:29:19.000Z</time>
      </trkpt>
      <trkpt lat="46.9918" lon="-1.83546">
        <ele>54</ele>
        <time>2021-08-09T16:29:21.000Z</time>
      </trkpt>
      <trkpt lat="46.99171" lon="-1.83534">
        <ele>54</ele>
        <time>2021-08-09T16:29:23.000Z</time>
      </trkpt>
      <trkpt lat="46.99162" lon="-1.83524">
        <ele>54</ele>
        <time>2021-08-09T16:29:25.000Z</time>
      </trkpt>
      <trkpt lat="46.99153" lon="-1.83518">
        <ele>53</ele>
        <time>2021-08-09T16:29:27.000Z</time>
      </trkpt>
      <trkpt lat="46.99143" lon="-1.8351">
        <ele>53</ele>
        <time>2021-08-09T16:29:29.000Z</time>
      </trkpt>
      <trkpt lat="46.99146" lon="-1.83492">
        <ele>53</ele>
        <time>2021-08-09T16:29:31.000Z</time>
      </trkpt>
      <trkpt lat="46.99154" lon="-1.83477">
        <ele>54</ele>
        <time>2021-08-09T16:29:33.000Z</time>
      </trkpt>
      <trkpt lat="46.99157" lon="-1.83458">
        <ele>54</ele>
        <time>2021-08-09T16:29:35.000Z</time>
      </trkpt>
      <trkpt lat="46.99162" lon="-1.83439">
        <ele>54</ele>
        <time>2021-08-09T16:29:37.000Z</time>
      </trkpt>
      <trkpt lat="46.99166" lon="-1.83419">
        <ele>54</ele>
        <time>2021-08-09T16:29:39.000Z</time>
      </trkpt>
      <trkpt lat="46.9917" lon="-1.83399">
        <ele>54</ele>
        <time>2021-08-09T16:29:41.000Z</time>
      </trkpt>
      <trkpt lat="46.99174" lon="-1.83379">
        <ele>54</ele>
        <time>2021-08-09T16:29:43.000Z</time>
      </trkpt>
      <trkpt lat="46.99178" lon="-1.83359">
        <ele>54</ele>
        <time>2021-08-09T16:29:45.000Z</time>
      </trkpt>
      <trkpt lat="46.99182" lon="-1.8334">
        <ele>55</ele>
        <time>2021-08-09T16:29:47.000Z</time>
      </trkpt>
      <trkpt lat="46.99187" lon="-1.8332">
        <ele>55</ele>
        <time>2021-08-09T16:29:49.000Z</time>
      </trkpt>
      <trkpt lat="46.99191" lon="-1.833">
        <ele>55</ele>
        <time>2021-08-09T16:29:51.000Z</time>
      </trkpt>
      <trkpt lat="46.99195" lon="-1.83281">
        <ele>55</ele>
        <time>2021-08-09T16:29:53.000Z</time>
      </trkpt>
      <trkpt lat="46.992" lon="-1.83261">
        <ele>55</ele>
        <time>2021-08-09T16:29:55.000Z</time>
      </trkpt>
      <trkpt lat="46.99204" lon="-1.83242">
        <ele>55</ele>
        <time>2021-08-09T16:29:57.000Z</time>
      </trkpt>
      <trkpt lat="46.99209" lon="-1.83222">
        <ele>55</ele>
        <time>2021-08-09T16:29:59.000Z</time>
      </trkpt>
      <trkpt lat="46.99213" lon="-1.83202">
        <ele>55</ele>
        <time>2021-08-09T16:30:01.000Z</time>
      </trkpt>
      <trkpt lat="46.99218" lon="-1.83181">
        <ele>55</ele>
        <time>2021-08-09T16:30:03.000Z</time>
      </trkpt>
      <trkpt lat="46.99222" lon="-1.83161">
        <ele>55</ele>
        <time>2021-08-09T16:30:05.000Z</time>
      </trkpt>
      <trkpt lat="46.99227" lon="-1.83141">
        <ele>55</ele>
        <time>2021-08-09T16:30:07.000Z</time>
      </trkpt>
      <trkpt lat="46.99231" lon="-1.8312">
        <ele>55</ele>
        <time>2021-08-09T16:30:09.000Z</time>
      </trkpt>
      <trkpt lat="46.99235" lon="-1.831">
        <ele>55</ele>
        <time>2021-08-09T16:30:11.000Z</time>
      </trkpt>
      <trkpt lat="46.9924" lon="-1.8308">
        <ele>55</ele>
        <time>2021-08-09T16:30:13.000Z</time>
      </trkpt>
      <trkpt lat="46.99244" lon="-1.8306">
        <ele>55</ele>
        <time>2021-08-09T16:30:15.000Z</time>
      </trkpt>
      <trkpt lat="46.99249" lon="-1.8304">
        <ele>55</ele>
        <time>2021-08-09T16:30:17.000Z</time>
      </trkpt>
      <trkpt lat="46.99254" lon="-1.83019">
        <ele>55</ele>
        <time>2021-08-09T16:30:19.000Z</time>
      </trkpt>
      <trkpt lat="46.99258" lon="-1.82999">
        <ele>55</ele>
        <time>2021-08-09T16:30:21.000Z</time>
      </trkpt>
      <trkpt lat="46.99263" lon="-1.82979">
        <ele>55</ele>
        <time>2021-08-09T16:30:23.000Z</time>
      </trkpt>
      <trkpt lat="46.99267" lon="-1.82959">
        <ele>55</ele>
        <time>2021-08-09T16:30:25.000Z</time>
      </trkpt>
      <trkpt lat="46.99271" lon="-1.82939">
        <ele>55</ele>
        <time>2021-08-09T16:30:27.000Z</time>
      </trkpt>
      <trkpt lat="46.99275" lon="-1.82919">
        <ele>55</ele>
        <time>2021-08-09T16:30:29.000Z</time>
      </trkpt>
      <trkpt lat="46.9928" lon="-1.82898">
        <ele>55</ele>
        <time>2021-08-09T16:30:31.000Z</time>
      </trkpt>
      <trkpt lat="46.99284" lon="-1.82878">
        <ele>55</ele>
        <time>2021-08-09T16:30:33.000Z</time>
      </trkpt>
      <trkpt lat="46.99289" lon="-1.82858">
        <ele>55</ele>
        <time>2021-08-09T16:30:35.000Z</time>
      </trkpt>
      <trkpt lat="46.99293" lon="-1.82837">
        <ele>55</ele>
        <time>2021-08-09T16:30:37.000Z</time>
      </trkpt>
      <trkpt lat="46.99299" lon="-1.82817">
        <ele>55</ele>
        <time>2021-08-09T16:30:39.000Z</time>
      </trkpt>
      <trkpt lat="46.99304" lon="-1.82797">
        <ele>55</ele>
        <time>2021-08-09T16:30:41.000Z</time>
      </trkpt>
      <trkpt lat="46.99308" lon="-1.82776">
        <ele>55</ele>
        <time>2021-08-09T16:30:43.000Z</time>
      </trkpt>
      <trkpt lat="46.99312" lon="-1.82756">
        <ele>55</ele>
        <time>2021-08-09T16:30:45.000Z</time>
      </trkpt>
      <trkpt lat="46.99317" lon="-1.82735">
        <ele>55</ele>
        <time>2021-08-09T16:30:47.000Z</time>
      </trkpt>
      <trkpt lat="46.99321" lon="-1.82715">
        <ele>55</ele>
        <time>2021-08-09T16:30:49.000Z</time>
      </trkpt>
      <trkpt lat="46.99325" lon="-1.82694">
        <ele>55</ele>
        <time>2021-08-09T16:30:51.000Z</time>
      </trkpt>
      <trkpt lat="46.9933" lon="-1.82674">
        <ele>55</ele>
        <time>2021-08-09T16:30:53.000Z</time>
      </trkpt>
      <trkpt lat="46.99334" lon="-1.82653">
        <ele>55</ele>
        <time>2021-08-09T16:30:55.000Z</time>
      </trkpt>
      <trkpt lat="46.99339" lon="-1.82633">
        <ele>54</ele>
        <time>2021-08-09T16:30:57.000Z</time>
      </trkpt>
      <trkpt lat="46.99345" lon="-1.82614">
        <ele>55</ele>
        <time>2021-08-09T16:30:59.000Z</time>
      </trkpt>
      <trkpt lat="46.99353" lon="-1.82599">
        <ele>55</ele>
        <time>2021-08-09T16:31:01.000Z</time>
      </trkpt>
      <trkpt lat="46.99361" lon="-1.82583">
        <ele>54</ele>
        <time>2021-08-09T16:31:03.000Z</time>
      </trkpt>
      <trkpt lat="46.99364" lon="-1.82563">
        <ele>55</ele>
        <time>2021-08-09T16:31:05.000Z</time>
      </trkpt>
      <trkpt lat="46.99361" lon="-1.82544">
        <ele>54</ele>
        <time>2021-08-09T16:31:07.000Z</time>
      </trkpt>
      <trkpt lat="46.99356" lon="-1.82524">
        <ele>54</ele>
        <time>2021-08-09T16:31:09.000Z</time>
      </trkpt>
      <trkpt lat="46.99352" lon="-1.82507">
        <ele>54</ele>
        <time>2021-08-09T16:31:11.000Z</time>
      </trkpt>
      <trkpt lat="46.99343" lon="-1.82497">
        <ele>54</ele>
        <time>2021-08-09T16:31:16.000Z</time>
      </trkpt>
      <trkpt lat="46.99343" lon="-1.82477">
        <ele>55</ele>
        <time>2021-08-09T16:31:19.000Z</time>
      </trkpt>
      <trkpt lat="46.99338" lon="-1.82459">
        <ele>55</ele>
        <time>2021-08-09T16:31:21.000Z</time>
      </trkpt>
      <trkpt lat="46.99333" lon="-1.8244">
        <ele>55</ele>
        <time>2021-08-09T16:31:23.000Z</time>
      </trkpt>
      <trkpt lat="46.99329" lon="-1.8242">
        <ele>54</ele>
        <time>2021-08-09T16:31:25.000Z</time>
      </trkpt>
      <trkpt lat="46.99325" lon="-1.82399">
        <ele>54</ele>
        <time>2021-08-09T16:31:27.000Z</time>
      </trkpt>
      <trkpt lat="46.99321" lon="-1.82378">
        <ele>54</ele>
        <time>2021-08-09T16:31:29.000Z</time>
      </trkpt>
      <trkpt lat="46.99319" lon="-1.82357">
        <ele>53</ele>
        <time>2021-08-09T16:31:31.000Z</time>
      </trkpt>
      <trkpt lat="46.99317" lon="-1.82337">
        <ele>54</ele>
        <time>2021-08-09T16:31:33.000Z</time>
      </trkpt>
      <trkpt lat="46.99314" lon="-1.82317">
        <ele>54</ele>
        <time>2021-08-09T16:31:35.000Z</time>
      </trkpt>
      <trkpt lat="46.9931" lon="-1.82297">
        <ele>54</ele>
        <time>2021-08-09T16:31:37.000Z</time>
      </trkpt>
      <trkpt lat="46.99305" lon="-1.82278">
        <ele>54</ele>
        <time>2021-08-09T16:31:39.000Z</time>
      </trkpt>
      <trkpt lat="46.99301" lon="-1.82259">
        <ele>54</ele>
        <time>2021-08-09T16:31:41.000Z</time>
      </trkpt>
      <trkpt lat="46.99295" lon="-1.82241">
        <ele>54</ele>
        <time>2021-08-09T16:31:43.000Z</time>
      </trkpt>
      <trkpt lat="46.99291" lon="-1.82224">
        <ele>54</ele>
        <time>2021-08-09T16:31:45.000Z</time>
      </trkpt>
      <trkpt lat="46.99281" lon="-1.82214">
        <ele>53</ele>
        <time>2021-08-09T16:31:47.000Z</time>
      </trkpt>
      <trkpt lat="46.99267" lon="-1.82217">
        <ele>54</ele>
        <time>2021-08-09T16:31:49.000Z</time>
      </trkpt>
      <trkpt lat="46.99254" lon="-1.82219">
        <ele>53</ele>
        <time>2021-08-09T16:31:51.000Z</time>
      </trkpt>
      <trkpt lat="46.9924" lon="-1.8222">
        <ele>54</ele>
        <time>2021-08-09T16:31:53.000Z</time>
      </trkpt>
      <trkpt lat="46.99228" lon="-1.82221">
        <ele>54</ele>
        <time>2021-08-09T16:31:55.000Z</time>
      </trkpt>
      <trkpt lat="46.99215" lon="-1.82217">
        <ele>54</ele>
        <time>2021-08-09T16:31:57.000Z</time>
      </trkpt>
      <trkpt lat="46.99205" lon="-1.82209">
        <ele>54</ele>
        <time>2021-08-09T16:31:59.000Z</time>
      </trkpt>
      <trkpt lat="46.99192" lon="-1.82205">
        <ele>55</ele>
        <time>2021-08-09T16:32:01.000Z</time>
      </trkpt>
      <trkpt lat="46.99179" lon="-1.82199">
        <ele>55</ele>
        <time>2021-08-09T16:32:03.000Z</time>
      </trkpt>
      <trkpt lat="46.99166" lon="-1.82194">
        <ele>56</ele>
        <time>2021-08-09T16:32:05.000Z</time>
      </trkpt>
      <trkpt lat="46.99153" lon="-1.82188">
        <ele>56</ele>
        <time>2021-08-09T16:32:07.000Z</time>
      </trkpt>
      <trkpt lat="46.9914" lon="-1.82184">
        <ele>56</ele>
        <time>2021-08-09T16:32:09.000Z</time>
      </trkpt>
      <trkpt lat="46.99127" lon="-1.82182">
        <ele>56</ele>
        <time>2021-08-09T16:32:11.000Z</time>
      </trkpt>
      <trkpt lat="46.99115" lon="-1.82183">
        <ele>56</ele>
        <time>2021-08-09T16:32:13.000Z</time>
      </trkpt>
      <trkpt lat="46.99103" lon="-1.82186">
        <ele>55</ele>
        <time>2021-08-09T16:32:15.000Z</time>
      </trkpt>
      <trkpt lat="46.99092" lon="-1.82185">
        <ele>55</ele>
        <time>2021-08-09T16:32:17.000Z</time>
      </trkpt>
      <trkpt lat="46.99088" lon="-1.82171">
        <ele>54</ele>
        <time>2021-08-09T16:32:19.000Z</time>
      </trkpt>
      <trkpt lat="46.99088" lon="-1.82152">
        <ele>54</ele>
        <time>2021-08-09T16:32:21.000Z</time>
      </trkpt>
      <trkpt lat="46.99085" lon="-1.82133">
        <ele>54</ele>
        <time>2021-08-09T16:32:23.000Z</time>
      </trkpt>
      <trkpt lat="46.99083" lon="-1.82111">
        <ele>53</ele>
        <time>2021-08-09T16:32:25.000Z</time>
      </trkpt>
      <trkpt lat="46.99081" lon="-1.8209">
        <ele>53</ele>
        <time>2021-08-09T16:32:27.000Z</time>
      </trkpt>
      <trkpt lat="46.9908" lon="-1.8207">
        <ele>53</ele>
        <time>2021-08-09T16:32:29.000Z</time>
      </trkpt>
      <trkpt lat="46.99081" lon="-1.82049">
        <ele>53</ele>
        <time>2021-08-09T16:32:31.000Z</time>
      </trkpt>
      <trkpt lat="46.99082" lon="-1.82028">
        <ele>53</ele>
        <time>2021-08-09T16:32:33.000Z</time>
      </trkpt>
      <trkpt lat="46.99083" lon="-1.82008">
        <ele>54</ele>
        <time>2021-08-09T16:32:35.000Z</time>
      </trkpt>
      <trkpt lat="46.99084" lon="-1.81987">
        <ele>54</ele>
        <time>2021-08-09T16:32:37.000Z</time>
      </trkpt>
      <trkpt lat="46.99085" lon="-1.81966">
        <ele>53</ele>
        <time>2021-08-09T16:32:39.000Z</time>
      </trkpt>
      <trkpt lat="46.99087" lon="-1.81946">
        <ele>53</ele>
        <time>2021-08-09T16:32:41.000Z</time>
      </trkpt>
      <trkpt lat="46.99089" lon="-1.81926">
        <ele>53</ele>
        <time>2021-08-09T16:32:43.000Z</time>
      </trkpt>
      <trkpt lat="46.99091" lon="-1.81906">
        <ele>53</ele>
        <time>2021-08-09T16:32:45.000Z</time>
      </trkpt>
      <trkpt lat="46.99093" lon="-1.81886">
        <ele>54</ele>
        <time>2021-08-09T16:32:47.000Z</time>
      </trkpt>
      <trkpt lat="46.99097" lon="-1.81866">
        <ele>54</ele>
        <time>2021-08-09T16:32:49.000Z</time>
      </trkpt>
      <trkpt lat="46.99101" lon="-1.81847">
        <ele>54</ele>
        <time>2021-08-09T16:32:51.000Z</time>
      </trkpt>
      <trkpt lat="46.99106" lon="-1.81828">
        <ele>54</ele>
        <time>2021-08-09T16:32:53.000Z</time>
      </trkpt>
      <trkpt lat="46.99114" lon="-1.81811">
        <ele>54</ele>
        <time>2021-08-09T16:32:55.000Z</time>
      </trkpt>
      <trkpt lat="46.99124" lon="-1.81797">
        <ele>55</ele>
        <time>2021-08-09T16:32:57.000Z</time>
      </trkpt>
      <trkpt lat="46.99134" lon="-1.81783">
        <ele>55</ele>
        <time>2021-08-09T16:32:59.000Z</time>
      </trkpt>
      <trkpt lat="46.99145" lon="-1.81769">
        <ele>56</ele>
        <time>2021-08-09T16:33:01.000Z</time>
      </trkpt>
      <trkpt lat="46.99156" lon="-1.81756">
        <ele>56</ele>
        <time>2021-08-09T16:33:03.000Z</time>
      </trkpt>
      <trkpt lat="46.99166" lon="-1.81744">
        <ele>56</ele>
        <time>2021-08-09T16:33:05.000Z</time>
      </trkpt>
      <trkpt lat="46.99176" lon="-1.81731">
        <ele>56</ele>
        <time>2021-08-09T16:33:07.000Z</time>
      </trkpt>
      <trkpt lat="46.99185" lon="-1.81718">
        <ele>56</ele>
        <time>2021-08-09T16:33:09.000Z</time>
      </trkpt>
      <trkpt lat="46.99189" lon="-1.81704">
        <ele>56</ele>
        <time>2021-08-09T16:33:11.000Z</time>
      </trkpt>
      <trkpt lat="46.99175" lon="-1.81691">
        <ele>56</ele>
        <time>2021-08-09T16:33:13.000Z</time>
      </trkpt>
      <trkpt lat="46.99163" lon="-1.81681">
        <ele>56</ele>
        <time>2021-08-09T16:33:15.000Z</time>
      </trkpt>
      <trkpt lat="46.99152" lon="-1.81669">
        <ele>56</ele>
        <time>2021-08-09T16:33:17.000Z</time>
      </trkpt>
      <trkpt lat="46.9914" lon="-1.81657">
        <ele>55</ele>
        <time>2021-08-09T16:33:19.000Z</time>
      </trkpt>
      <trkpt lat="46.99129" lon="-1.81645">
        <ele>55</ele>
        <time>2021-08-09T16:33:21.000Z</time>
      </trkpt>
      <trkpt lat="46.99118" lon="-1.81633">
        <ele>54</ele>
        <time>2021-08-09T16:33:23.000Z</time>
      </trkpt>
      <trkpt lat="46.99108" lon="-1.81618">
        <ele>55</ele>
        <time>2021-08-09T16:33:25.000Z</time>
      </trkpt>
      <trkpt lat="46.991" lon="-1.81602">
        <ele>54</ele>
        <time>2021-08-09T16:33:27.000Z</time>
      </trkpt>
      <trkpt lat="46.99109" lon="-1.81587">
        <ele>55</ele>
        <time>2021-08-09T16:33:29.000Z</time>
      </trkpt>
      <trkpt lat="46.99125" lon="-1.81586">
        <ele>55</ele>
        <time>2021-08-09T16:33:31.000Z</time>
      </trkpt>
      <trkpt lat="46.9914" lon="-1.81587">
        <ele>55</ele>
        <time>2021-08-09T16:33:33.000Z</time>
      </trkpt>
      <trkpt lat="46.99155" lon="-1.81589">
        <ele>55</ele>
        <time>2021-08-09T16:33:35.000Z</time>
      </trkpt>
      <trkpt lat="46.9917" lon="-1.81591">
        <ele>56</ele>
        <time>2021-08-09T16:33:37.000Z</time>
      </trkpt>
      <trkpt lat="46.99185" lon="-1.81592">
        <ele>56</ele>
        <time>2021-08-09T16:33:39.000Z</time>
      </trkpt>
      <trkpt lat="46.99198" lon="-1.81594">
        <ele>57</ele>
        <time>2021-08-09T16:33:41.000Z</time>
      </trkpt>
      <trkpt lat="46.99212" lon="-1.81597">
        <ele>57</ele>
        <time>2021-08-09T16:33:43.000Z</time>
      </trkpt>
      <trkpt lat="46.99227" lon="-1.816">
        <ele>58</ele>
        <time>2021-08-09T16:33:45.000Z</time>
      </trkpt>
      <trkpt lat="46.99242" lon="-1.81601">
        <ele>58</ele>
        <time>2021-08-09T16:33:47.000Z</time>
      </trkpt>
      <trkpt lat="46.99251" lon="-1.8159">
        <ele>59</ele>
        <time>2021-08-09T16:33:49.000Z</time>
      </trkpt>
      <trkpt lat="46.99248" lon="-1.81567">
        <ele>59</ele>
        <time>2021-08-09T16:33:51.000Z</time>
      </trkpt>
      <trkpt lat="46.99244" lon="-1.81546">
        <ele>60</ele>
        <time>2021-08-09T16:33:53.000Z</time>
      </trkpt>
      <trkpt lat="46.99242" lon="-1.81524">
        <ele>60</ele>
        <time>2021-08-09T16:33:55.000Z</time>
      </trkpt>
      <trkpt lat="46.99238" lon="-1.81503">
        <ele>61</ele>
        <time>2021-08-09T16:33:57.000Z</time>
      </trkpt>
      <trkpt lat="46.99236" lon="-1.81481">
        <ele>60</ele>
        <time>2021-08-09T16:33:59.000Z</time>
      </trkpt>
      <trkpt lat="46.99232" lon="-1.8146">
        <ele>61</ele>
        <time>2021-08-09T16:34:01.000Z</time>
      </trkpt>
      <trkpt lat="46.99229" lon="-1.81439">
        <ele>61</ele>
        <time>2021-08-09T16:34:03.000Z</time>
      </trkpt>
      <trkpt lat="46.99226" lon="-1.81418">
        <ele>61</ele>
        <time>2021-08-09T16:34:05.000Z</time>
      </trkpt>
      <trkpt lat="46.99222" lon="-1.81396">
        <ele>61</ele>
        <time>2021-08-09T16:34:07.000Z</time>
      </trkpt>
      <trkpt lat="46.9922" lon="-1.81374">
        <ele>60</ele>
        <time>2021-08-09T16:34:09.000Z</time>
      </trkpt>
      <trkpt lat="46.99217" lon="-1.81352">
        <ele>59</ele>
        <time>2021-08-09T16:34:11.000Z</time>
      </trkpt>
      <trkpt lat="46.99214" lon="-1.81331">
        <ele>60</ele>
        <time>2021-08-09T16:34:13.000Z</time>
      </trkpt>
      <trkpt lat="46.99211" lon="-1.8131">
        <ele>60</ele>
        <time>2021-08-09T16:34:15.000Z</time>
      </trkpt>
      <trkpt lat="46.99209" lon="-1.8129">
        <ele>61</ele>
        <time>2021-08-09T16:34:17.000Z</time>
      </trkpt>
      <trkpt lat="46.99206" lon="-1.81268">
        <ele>60</ele>
        <time>2021-08-09T16:34:19.000Z</time>
      </trkpt>
      <trkpt lat="46.99204" lon="-1.81245">
        <ele>60</ele>
        <time>2021-08-09T16:34:21.000Z</time>
      </trkpt>
      <trkpt lat="46.99201" lon="-1.81225">
        <ele>60</ele>
        <time>2021-08-09T16:34:23.000Z</time>
      </trkpt>
      <trkpt lat="46.99198" lon="-1.81204">
        <ele>60</ele>
        <time>2021-08-09T16:34:25.000Z</time>
      </trkpt>
      <trkpt lat="46.99196" lon="-1.81182">
        <ele>59</ele>
        <time>2021-08-09T16:34:27.000Z</time>
      </trkpt>
      <trkpt lat="46.99192" lon="-1.8116">
        <ele>59</ele>
        <time>2021-08-09T16:34:29.000Z</time>
      </trkpt>
      <trkpt lat="46.99189" lon="-1.81138">
        <ele>59</ele>
        <time>2021-08-09T16:34:31.000Z</time>
      </trkpt>
      <trkpt lat="46.99187" lon="-1.81116">
        <ele>58</ele>
        <time>2021-08-09T16:34:33.000Z</time>
      </trkpt>
      <trkpt lat="46.99185" lon="-1.81096">
        <ele>57</ele>
        <time>2021-08-09T16:34:35.000Z</time>
      </trkpt>
      <trkpt lat="46.99182" lon="-1.81076">
        <ele>56</ele>
        <time>2021-08-09T16:34:37.000Z</time>
      </trkpt>
      <trkpt lat="46.99179" lon="-1.81055">
        <ele>56</ele>
        <time>2021-08-09T16:34:39.000Z</time>
      </trkpt>
      <trkpt lat="46.99177" lon="-1.81035">
        <ele>56</ele>
        <time>2021-08-09T16:34:41.000Z</time>
      </trkpt>
      <trkpt lat="46.99174" lon="-1.81016">
        <ele>55</ele>
        <time>2021-08-09T16:34:43.000Z</time>
      </trkpt>
      <trkpt lat="46.99172" lon="-1.80995">
        <ele>55</ele>
        <time>2021-08-09T16:34:45.000Z</time>
      </trkpt>
      <trkpt lat="46.99169" lon="-1.80975">
        <ele>55</ele>
        <time>2021-08-09T16:34:47.000Z</time>
      </trkpt>
      <trkpt lat="46.99166" lon="-1.80955">
        <ele>54</ele>
        <time>2021-08-09T16:34:49.000Z</time>
      </trkpt>
      <trkpt lat="46.99164" lon="-1.80936">
        <ele>54</ele>
        <time>2021-08-09T16:34:51.000Z</time>
      </trkpt>
      <trkpt lat="46.99162" lon="-1.80918">
        <ele>55</ele>
        <time>2021-08-09T16:34:53.000Z</time>
      </trkpt>
      <trkpt lat="46.99163" lon="-1.80901">
        <ele>55</ele>
        <time>2021-08-09T16:34:55.000Z</time>
      </trkpt>
      <trkpt lat="46.99171" lon="-1.80889">
        <ele>55</ele>
        <time>2021-08-09T16:34:57.000Z</time>
      </trkpt>
      <trkpt lat="46.99184" lon="-1.8088">
        <ele>55</ele>
        <time>2021-08-09T16:34:59.000Z</time>
      </trkpt>
      <trkpt lat="46.99197" lon="-1.80872">
        <ele>55</ele>
        <time>2021-08-09T16:35:01.000Z</time>
      </trkpt>
      <trkpt lat="46.99211" lon="-1.80863">
        <ele>56</ele>
        <time>2021-08-09T16:35:03.000Z</time>
      </trkpt>
      <trkpt lat="46.99224" lon="-1.80854">
        <ele>55</ele>
        <time>2021-08-09T16:35:05.000Z</time>
      </trkpt>
      <trkpt lat="46.99237" lon="-1.80846">
        <ele>55</ele>
        <time>2021-08-09T16:35:07.000Z</time>
      </trkpt>
      <trkpt lat="46.9925" lon="-1.80837">
        <ele>55</ele>
        <time>2021-08-09T16:35:09.000Z</time>
      </trkpt>
      <trkpt lat="46.99264" lon="-1.80829">
        <ele>55</ele>
        <time>2021-08-09T16:35:11.000Z</time>
      </trkpt>
      <trkpt lat="46.99276" lon="-1.80821">
        <ele>55</ele>
        <time>2021-08-09T16:35:13.000Z</time>
      </trkpt>
      <trkpt lat="46.99289" lon="-1.80812">
        <ele>55</ele>
        <time>2021-08-09T16:35:15.000Z</time>
      </trkpt>
      <trkpt lat="46.99301" lon="-1.80802">
        <ele>56</ele>
        <time>2021-08-09T16:35:17.000Z</time>
      </trkpt>
      <trkpt lat="46.99314" lon="-1.80794">
        <ele>56</ele>
        <time>2021-08-09T16:35:19.000Z</time>
      </trkpt>
      <trkpt lat="46.99328" lon="-1.80786">
        <ele>56</ele>
        <time>2021-08-09T16:35:21.000Z</time>
      </trkpt>
      <trkpt lat="46.99341" lon="-1.80777">
        <ele>56</ele>
        <time>2021-08-09T16:35:23.000Z</time>
      </trkpt>
      <trkpt lat="46.99354" lon="-1.80769">
        <ele>56</ele>
        <time>2021-08-09T16:35:25.000Z</time>
      </trkpt>
      <trkpt lat="46.99367" lon="-1.80761">
        <ele>56</ele>
        <time>2021-08-09T16:35:27.000Z</time>
      </trkpt>
      <trkpt lat="46.99381" lon="-1.80753">
        <ele>56</ele>
        <time>2021-08-09T16:35:29.000Z</time>
      </trkpt>
      <trkpt lat="46.99394" lon="-1.80745">
        <ele>55</ele>
        <time>2021-08-09T16:35:31.000Z</time>
      </trkpt>
      <trkpt lat="46.99407" lon="-1.80736">
        <ele>55</ele>
        <time>2021-08-09T16:35:33.000Z</time>
      </trkpt>
      <trkpt lat="46.9942" lon="-1.80728">
        <ele>55</ele>
        <time>2021-08-09T16:35:35.000Z</time>
      </trkpt>
      <trkpt lat="46.99433" lon="-1.8072">
        <ele>55</ele>
        <time>2021-08-09T16:35:37.000Z</time>
      </trkpt>
      <trkpt lat="46.99446" lon="-1.80712">
        <ele>55</ele>
        <time>2021-08-09T16:35:39.000Z</time>
      </trkpt>
      <trkpt lat="46.99458" lon="-1.80704">
        <ele>55</ele>
        <time>2021-08-09T16:35:41.000Z</time>
      </trkpt>
      <trkpt lat="46.99468" lon="-1.80696">
        <ele>56</ele>
        <time>2021-08-09T16:35:43.000Z</time>
      </trkpt>
      <trkpt lat="46.99476" lon="-1.80684">
        <ele>55</ele>
        <time>2021-08-09T16:35:45.000Z</time>
      </trkpt>
      <trkpt lat="46.99483" lon="-1.80668">
        <ele>56</ele>
        <time>2021-08-09T16:35:47.000Z</time>
      </trkpt>
      <trkpt lat="46.99496" lon="-1.80657">
        <ele>55</ele>
        <time>2021-08-09T16:35:49.000Z</time>
      </trkpt>
      <trkpt lat="46.99511" lon="-1.80649">
        <ele>54</ele>
        <time>2021-08-09T16:35:51.000Z</time>
      </trkpt>
      <trkpt lat="46.99525" lon="-1.80637">
        <ele>54</ele>
        <time>2021-08-09T16:35:53.000Z</time>
      </trkpt>
      <trkpt lat="46.99537" lon="-1.80623">
        <ele>53</ele>
        <time>2021-08-09T16:35:55.000Z</time>
      </trkpt>
      <trkpt lat="46.99549" lon="-1.80608">
        <ele>53</ele>
        <time>2021-08-09T16:35:57.000Z</time>
      </trkpt>
      <trkpt lat="46.99561" lon="-1.80593">
        <ele>53</ele>
        <time>2021-08-09T16:35:59.000Z</time>
      </trkpt>
      <trkpt lat="46.99573" lon="-1.80579">
        <ele>53</ele>
        <time>2021-08-09T16:36:01.000Z</time>
      </trkpt>
      <trkpt lat="46.99584" lon="-1.80564">
        <ele>53</ele>
        <time>2021-08-09T16:36:03.000Z</time>
      </trkpt>
      <trkpt lat="46.99596" lon="-1.80549">
        <ele>53</ele>
        <time>2021-08-09T16:36:05.000Z</time>
      </trkpt>
      <trkpt lat="46.99607" lon="-1.80534">
        <ele>53</ele>
        <time>2021-08-09T16:36:07.000Z</time>
      </trkpt>
      <trkpt lat="46.99618" lon="-1.80519">
        <ele>53</ele>
        <time>2021-08-09T16:36:09.000Z</time>
      </trkpt>
      <trkpt lat="46.9963" lon="-1.80505">
        <ele>53</ele>
        <time>2021-08-09T16:36:11.000Z</time>
      </trkpt>
      <trkpt lat="46.99642" lon="-1.8049">
        <ele>53</ele>
        <time>2021-08-09T16:36:13.000Z</time>
      </trkpt>
      <trkpt lat="46.99654" lon="-1.80474">
        <ele>53</ele>
        <time>2021-08-09T16:36:15.000Z</time>
      </trkpt>
      <trkpt lat="46.99666" lon="-1.80459">
        <ele>53</ele>
        <time>2021-08-09T16:36:17.000Z</time>
      </trkpt>
      <trkpt lat="46.99677" lon="-1.80444">
        <ele>54</ele>
        <time>2021-08-09T16:36:19.000Z</time>
      </trkpt>
      <trkpt lat="46.99689" lon="-1.80429">
        <ele>54</ele>
        <time>2021-08-09T16:36:21.000Z</time>
      </trkpt>
      <trkpt lat="46.99701" lon="-1.80414">
        <ele>54</ele>
        <time>2021-08-09T16:36:23.000Z</time>
      </trkpt>
      <trkpt lat="46.99712" lon="-1.80398">
        <ele>54</ele>
        <time>2021-08-09T16:36:25.000Z</time>
      </trkpt>
      <trkpt lat="46.99724" lon="-1.80382">
        <ele>55</ele>
        <time>2021-08-09T16:36:27.000Z</time>
      </trkpt>
      <trkpt lat="46.99736" lon="-1.80367">
        <ele>55</ele>
        <time>2021-08-09T16:36:29.000Z</time>
      </trkpt>
      <trkpt lat="46.99748" lon="-1.80352">
        <ele>55</ele>
        <time>2021-08-09T16:36:31.000Z</time>
      </trkpt>
      <trkpt lat="46.9976" lon="-1.80337">
        <ele>55</ele>
        <time>2021-08-09T16:36:33.000Z</time>
      </trkpt>
      <trkpt lat="46.99772" lon="-1.80322">
        <ele>55</ele>
        <time>2021-08-09T16:36:35.000Z</time>
      </trkpt>
      <trkpt lat="46.99784" lon="-1.80306">
        <ele>55</ele>
        <time>2021-08-09T16:36:37.000Z</time>
      </trkpt>
      <trkpt lat="46.99795" lon="-1.80291">
        <ele>55</ele>
        <time>2021-08-09T16:36:39.000Z</time>
      </trkpt>
      <trkpt lat="46.99807" lon="-1.80276">
        <ele>56</ele>
        <time>2021-08-09T16:36:41.000Z</time>
      </trkpt>
      <trkpt lat="46.99818" lon="-1.80261">
        <ele>56</ele>
        <time>2021-08-09T16:36:43.000Z</time>
      </trkpt>
      <trkpt lat="46.99829" lon="-1.80245">
        <ele>56</ele>
        <time>2021-08-09T16:36:45.000Z</time>
      </trkpt>
      <trkpt lat="46.9984" lon="-1.80229">
        <ele>56</ele>
        <time>2021-08-09T16:36:47.000Z</time>
      </trkpt>
      <trkpt lat="46.9985" lon="-1.80212">
        <ele>56</ele>
        <time>2021-08-09T16:36:49.000Z</time>
      </trkpt>
      <trkpt lat="46.9986" lon="-1.80194">
        <ele>56</ele>
        <time>2021-08-09T16:36:51.000Z</time>
      </trkpt>
      <trkpt lat="46.99869" lon="-1.80176">
        <ele>56</ele>
        <time>2021-08-09T16:36:53.000Z</time>
      </trkpt>
      <trkpt lat="46.99878" lon="-1.80157">
        <ele>56</ele>
        <time>2021-08-09T16:36:55.000Z</time>
      </trkpt>
      <trkpt lat="46.99887" lon="-1.80138">
        <ele>56</ele>
        <time>2021-08-09T16:36:57.000Z</time>
      </trkpt>
      <trkpt lat="46.99895" lon="-1.8012">
        <ele>56</ele>
        <time>2021-08-09T16:36:59.000Z</time>
      </trkpt>
      <trkpt lat="46.99904" lon="-1.80101">
        <ele>56</ele>
        <time>2021-08-09T16:37:01.000Z</time>
      </trkpt>
      <trkpt lat="46.99913" lon="-1.80083">
        <ele>56</ele>
        <time>2021-08-09T16:37:03.000Z</time>
      </trkpt>
      <trkpt lat="46.99922" lon="-1.80065">
        <ele>56</ele>
        <time>2021-08-09T16:37:05.000Z</time>
      </trkpt>
      <trkpt lat="46.9993" lon="-1.80046">
        <ele>56</ele>
        <time>2021-08-09T16:37:07.000Z</time>
      </trkpt>
      <trkpt lat="46.9994" lon="-1.80028">
        <ele>56</ele>
        <time>2021-08-09T16:37:09.000Z</time>
      </trkpt>
      <trkpt lat="46.9995" lon="-1.80011">
        <ele>56</ele>
        <time>2021-08-09T16:37:11.000Z</time>
      </trkpt>
      <trkpt lat="46.99962" lon="-1.79997">
        <ele>57</ele>
        <time>2021-08-09T16:37:13.000Z</time>
      </trkpt>
      <trkpt lat="46.99975" lon="-1.79985">
        <ele>58</ele>
        <time>2021-08-09T16:37:15.000Z</time>
      </trkpt>
      <trkpt lat="46.99988" lon="-1.79974">
        <ele>58</ele>
        <time>2021-08-09T16:37:17.000Z</time>
      </trkpt>
      <trkpt lat="47.00002" lon="-1.79963">
        <ele>58</ele>
        <time>2021-08-09T16:37:19.000Z</time>
      </trkpt>
      <trkpt lat="47.00015" lon="-1.79953">
        <ele>58</ele>
        <time>2021-08-09T16:37:21.000Z</time>
      </trkpt>
      <trkpt lat="47.00029" lon="-1.79943">
        <ele>58</ele>
        <time>2021-08-09T16:37:23.000Z</time>
      </trkpt>
      <trkpt lat="47.00043" lon="-1.79933">
        <ele>58</ele>
        <time>2021-08-09T16:37:25.000Z</time>
      </trkpt>
      <trkpt lat="47.00057" lon="-1.79923">
        <ele>58</ele>
        <time>2021-08-09T16:37:27.000Z</time>
      </trkpt>
      <trkpt lat="47.0007" lon="-1.79913">
        <ele>58</ele>
        <time>2021-08-09T16:37:29.000Z</time>
      </trkpt>
      <trkpt lat="47.00083" lon="-1.79903">
        <ele>58</ele>
        <time>2021-08-09T16:37:31.000Z</time>
      </trkpt>
      <trkpt lat="47.00096" lon="-1.7989">
        <ele>58</ele>
        <time>2021-08-09T16:37:33.000Z</time>
      </trkpt>
      <trkpt lat="47.00107" lon="-1.79878">
        <ele>58</ele>
        <time>2021-08-09T16:37:35.000Z</time>
      </trkpt>
      <trkpt lat="47.00118" lon="-1.79862">
        <ele>58</ele>
        <time>2021-08-09T16:37:37.000Z</time>
      </trkpt>
      <trkpt lat="47.00127" lon="-1.79846">
        <ele>58</ele>
        <time>2021-08-09T16:37:39.000Z</time>
      </trkpt>
      <trkpt lat="47.00135" lon="-1.79828">
        <ele>58</ele>
        <time>2021-08-09T16:37:41.000Z</time>
      </trkpt>
      <trkpt lat="47.00143" lon="-1.79809">
        <ele>57</ele>
        <time>2021-08-09T16:37:43.000Z</time>
      </trkpt>
      <trkpt lat="47.00149" lon="-1.79789">
        <ele>57</ele>
        <time>2021-08-09T16:37:45.000Z</time>
      </trkpt>
      <trkpt lat="47.00156" lon="-1.79769">
        <ele>57</ele>
        <time>2021-08-09T16:37:47.000Z</time>
      </trkpt>
      <trkpt lat="47.00162" lon="-1.79749">
        <ele>56</ele>
        <time>2021-08-09T16:37:49.000Z</time>
      </trkpt>
      <trkpt lat="47.00168" lon="-1.79729">
        <ele>56</ele>
        <time>2021-08-09T16:37:51.000Z</time>
      </trkpt>
      <trkpt lat="47.00174" lon="-1.79708">
        <ele>56</ele>
        <time>2021-08-09T16:37:53.000Z</time>
      </trkpt>
      <trkpt lat="47.0018" lon="-1.79688">
        <ele>56</ele>
        <time>2021-08-09T16:37:55.000Z</time>
      </trkpt>
      <trkpt lat="47.00185" lon="-1.79668">
        <ele>56</ele>
        <time>2021-08-09T16:37:57.000Z</time>
      </trkpt>
      <trkpt lat="47.00191" lon="-1.79647">
        <ele>56</ele>
        <time>2021-08-09T16:37:59.000Z</time>
      </trkpt>
      <trkpt lat="47.00198" lon="-1.79627">
        <ele>56</ele>
        <time>2021-08-09T16:38:01.000Z</time>
      </trkpt>
      <trkpt lat="47.00204" lon="-1.79607">
        <ele>56</ele>
        <time>2021-08-09T16:38:03.000Z</time>
      </trkpt>
      <trkpt lat="47.0021" lon="-1.79587">
        <ele>56</ele>
        <time>2021-08-09T16:38:05.000Z</time>
      </trkpt>
      <trkpt lat="47.00216" lon="-1.79567">
        <ele>57</ele>
        <time>2021-08-09T16:38:07.000Z</time>
      </trkpt>
      <trkpt lat="47.00222" lon="-1.79547">
        <ele>56</ele>
        <time>2021-08-09T16:38:09.000Z</time>
      </trkpt>
      <trkpt lat="47.00228" lon="-1.79527">
        <ele>56</ele>
        <time>2021-08-09T16:38:11.000Z</time>
      </trkpt>
      <trkpt lat="47.00235" lon="-1.79506">
        <ele>57</ele>
        <time>2021-08-09T16:38:13.000Z</time>
      </trkpt>
      <trkpt lat="47.00241" lon="-1.79486">
        <ele>56</ele>
        <time>2021-08-09T16:38:15.000Z</time>
      </trkpt>
      <trkpt lat="47.00247" lon="-1.79466">
        <ele>57</ele>
        <time>2021-08-09T16:38:17.000Z</time>
      </trkpt>
      <trkpt lat="47.00252" lon="-1.79446">
        <ele>57</ele>
        <time>2021-08-09T16:38:19.000Z</time>
      </trkpt>
      <trkpt lat="47.00259" lon="-1.79425">
        <ele>57</ele>
        <time>2021-08-09T16:38:21.000Z</time>
      </trkpt>
      <trkpt lat="47.00265" lon="-1.79405">
        <ele>57</ele>
        <time>2021-08-09T16:38:23.000Z</time>
      </trkpt>
      <trkpt lat="47.0027" lon="-1.79385">
        <ele>57</ele>
        <time>2021-08-09T16:38:25.000Z</time>
      </trkpt>
      <trkpt lat="47.00276" lon="-1.79364">
        <ele>57</ele>
        <time>2021-08-09T16:38:27.000Z</time>
      </trkpt>
      <trkpt lat="47.0028" lon="-1.79343">
        <ele>57</ele>
        <time>2021-08-09T16:38:29.000Z</time>
      </trkpt>
      <trkpt lat="47.00284" lon="-1.79321">
        <ele>56</ele>
        <time>2021-08-09T16:38:31.000Z</time>
      </trkpt>
      <trkpt lat="47.00287" lon="-1.79298">
        <ele>56</ele>
        <time>2021-08-09T16:38:33.000Z</time>
      </trkpt>
      <trkpt lat="47.0029" lon="-1.79276">
        <ele>56</ele>
        <time>2021-08-09T16:38:35.000Z</time>
      </trkpt>
      <trkpt lat="47.00294" lon="-1.79254">
        <ele>56</ele>
        <time>2021-08-09T16:38:37.000Z</time>
      </trkpt>
      <trkpt lat="47.00298" lon="-1.79232">
        <ele>57</ele>
        <time>2021-08-09T16:38:39.000Z</time>
      </trkpt>
      <trkpt lat="47.00301" lon="-1.7921">
        <ele>57</ele>
        <time>2021-08-09T16:38:41.000Z</time>
      </trkpt>
      <trkpt lat="47.00305" lon="-1.79187">
        <ele>57</ele>
        <time>2021-08-09T16:38:43.000Z</time>
      </trkpt>
      <trkpt lat="47.00309" lon="-1.79165">
        <ele>57</ele>
        <time>2021-08-09T16:38:45.000Z</time>
      </trkpt>
      <trkpt lat="47.00314" lon="-1.79144">
        <ele>58</ele>
        <time>2021-08-09T16:38:47.000Z</time>
      </trkpt>
      <trkpt lat="47.00319" lon="-1.79123">
        <ele>58</ele>
        <time>2021-08-09T16:38:49.000Z</time>
      </trkpt>
      <trkpt lat="47.00325" lon="-1.79102">
        <ele>58</ele>
        <time>2021-08-09T16:38:51.000Z</time>
      </trkpt>
      <trkpt lat="47.00331" lon="-1.7908">
        <ele>58</ele>
        <time>2021-08-09T16:38:53.000Z</time>
      </trkpt>
      <trkpt lat="47.00337" lon="-1.79059">
        <ele>58</ele>
        <time>2021-08-09T16:38:55.000Z</time>
      </trkpt>
      <trkpt lat="47.00343" lon="-1.79038">
        <ele>58</ele>
        <time>2021-08-09T16:38:57.000Z</time>
      </trkpt>
      <trkpt lat="47.00349" lon="-1.79016">
        <ele>58</ele>
        <time>2021-08-09T16:38:59.000Z</time>
      </trkpt>
      <trkpt lat="47.00354" lon="-1.78994">
        <ele>58</ele>
        <time>2021-08-09T16:39:01.000Z</time>
      </trkpt>
      <trkpt lat="47.00359" lon="-1.7897">
        <ele>58</ele>
        <time>2021-08-09T16:39:03.000Z</time>
      </trkpt>
      <trkpt lat="47.00364" lon="-1.78947">
        <ele>58</ele>
        <time>2021-08-09T16:39:05.000Z</time>
      </trkpt>
      <trkpt lat="47.0037" lon="-1.78923">
        <ele>58</ele>
        <time>2021-08-09T16:39:07.000Z</time>
      </trkpt>
      <trkpt lat="47.00375" lon="-1.789">
        <ele>57</ele>
        <time>2021-08-09T16:39:09.000Z</time>
      </trkpt>
      <trkpt lat="47.00381" lon="-1.78876">
        <ele>57</ele>
        <time>2021-08-09T16:39:11.000Z</time>
      </trkpt>
      <trkpt lat="47.00385" lon="-1.78853">
        <ele>57</ele>
        <time>2021-08-09T16:39:13.000Z</time>
      </trkpt>
      <trkpt lat="47.0039" lon="-1.7883">
        <ele>57</ele>
        <time>2021-08-09T16:39:15.000Z</time>
      </trkpt>
      <trkpt lat="47.00395" lon="-1.78806">
        <ele>57</ele>
        <time>2021-08-09T16:39:17.000Z</time>
      </trkpt>
      <trkpt lat="47.00399" lon="-1.78782">
        <ele>57</ele>
        <time>2021-08-09T16:39:19.000Z</time>
      </trkpt>
      <trkpt lat="47.00403" lon="-1.78757">
        <ele>57</ele>
        <time>2021-08-09T16:39:21.000Z</time>
      </trkpt>
      <trkpt lat="47.00406" lon="-1.78732">
        <ele>56</ele>
        <time>2021-08-09T16:39:23.000Z</time>
      </trkpt>
      <trkpt lat="47.00409" lon="-1.78708">
        <ele>56</ele>
        <time>2021-08-09T16:39:25.000Z</time>
      </trkpt>
      <trkpt lat="47.00412" lon="-1.78684">
        <ele>56</ele>
        <time>2021-08-09T16:39:27.000Z</time>
      </trkpt>
      <trkpt lat="47.00415" lon="-1.7866">
        <ele>57</ele>
        <time>2021-08-09T16:39:29.000Z</time>
      </trkpt>
      <trkpt lat="47.00418" lon="-1.78636">
        <ele>56</ele>
        <time>2021-08-09T16:39:31.000Z</time>
      </trkpt>
      <trkpt lat="47.00421" lon="-1.78611">
        <ele>56</ele>
        <time>2021-08-09T16:39:33.000Z</time>
      </trkpt>
      <trkpt lat="47.00424" lon="-1.78588">
        <ele>56</ele>
        <time>2021-08-09T16:39:35.000Z</time>
      </trkpt>
      <trkpt lat="47.00428" lon="-1.78563">
        <ele>55</ele>
        <time>2021-08-09T16:39:37.000Z</time>
      </trkpt>
      <trkpt lat="47.00431" lon="-1.7854">
        <ele>55</ele>
        <time>2021-08-09T16:39:39.000Z</time>
      </trkpt>
      <trkpt lat="47.00435" lon="-1.78516">
        <ele>55</ele>
        <time>2021-08-09T16:39:41.000Z</time>
      </trkpt>
      <trkpt lat="47.00439" lon="-1.78492">
        <ele>55</ele>
        <time>2021-08-09T16:39:43.000Z</time>
      </trkpt>
      <trkpt lat="47.00443" lon="-1.78468">
        <ele>55</ele>
        <time>2021-08-09T16:39:45.000Z</time>
      </trkpt>
      <trkpt lat="47.00447" lon="-1.78444">
        <ele>55</ele>
        <time>2021-08-09T16:39:47.000Z</time>
      </trkpt>
      <trkpt lat="47.00453" lon="-1.78421">
        <ele>54</ele>
        <time>2021-08-09T16:39:49.000Z</time>
      </trkpt>
      <trkpt lat="47.00458" lon="-1.78398">
        <ele>54</ele>
        <time>2021-08-09T16:39:51.000Z</time>
      </trkpt>
      <trkpt lat="47.00463" lon="-1.78376">
        <ele>54</ele>
        <time>2021-08-09T16:39:53.000Z</time>
      </trkpt>
      <trkpt lat="47.00469" lon="-1.78354">
        <ele>54</ele>
        <time>2021-08-09T16:39:55.000Z</time>
      </trkpt>
      <trkpt lat="47.00474" lon="-1.78332">
        <ele>54</ele>
        <time>2021-08-09T16:39:57.000Z</time>
      </trkpt>
      <trkpt lat="47.0048" lon="-1.7831">
        <ele>54</ele>
        <time>2021-08-09T16:39:59.000Z</time>
      </trkpt>
      <trkpt lat="47.00485" lon="-1.78288">
        <ele>55</ele>
        <time>2021-08-09T16:40:01.000Z</time>
      </trkpt>
      <trkpt lat="47.0049" lon="-1.78266">
        <ele>55</ele>
        <time>2021-08-09T16:40:03.000Z</time>
      </trkpt>
      <trkpt lat="47.00496" lon="-1.78243">
        <ele>55</ele>
        <time>2021-08-09T16:40:05.000Z</time>
      </trkpt>
      <trkpt lat="47.00501" lon="-1.78221">
        <ele>55</ele>
        <time>2021-08-09T16:40:07.000Z</time>
      </trkpt>
      <trkpt lat="47.00506" lon="-1.782">
        <ele>55</ele>
        <time>2021-08-09T16:40:09.000Z</time>
      </trkpt>
      <trkpt lat="47.00512" lon="-1.78178">
        <ele>55</ele>
        <time>2021-08-09T16:40:11.000Z</time>
      </trkpt>
      <trkpt lat="47.00517" lon="-1.78158">
        <ele>55</ele>
        <time>2021-08-09T16:40:13.000Z</time>
      </trkpt>
      <trkpt lat="47.00522" lon="-1.78136">
        <ele>55</ele>
        <time>2021-08-09T16:40:15.000Z</time>
      </trkpt>
      <trkpt lat="47.00527" lon="-1.78114">
        <ele>54</ele>
        <time>2021-08-09T16:40:17.000Z</time>
      </trkpt>
      <trkpt lat="47.00533" lon="-1.78092">
        <ele>54</ele>
        <time>2021-08-09T16:40:19.000Z</time>
      </trkpt>
      <trkpt lat="47.00538" lon="-1.78069">
        <ele>54</ele>
        <time>2021-08-09T16:40:21.000Z</time>
      </trkpt>
      <trkpt lat="47.00543" lon="-1.78047">
        <ele>54</ele>
        <time>2021-08-09T16:40:23.000Z</time>
      </trkpt>
      <trkpt lat="47.00549" lon="-1.78026">
        <ele>54</ele>
        <time>2021-08-09T16:40:25.000Z</time>
      </trkpt>
      <trkpt lat="47.00555" lon="-1.78004">
        <ele>54</ele>
        <time>2021-08-09T16:40:27.000Z</time>
      </trkpt>
      <trkpt lat="47.0056" lon="-1.77982">
        <ele>54</ele>
        <time>2021-08-09T16:40:29.000Z</time>
      </trkpt>
      <trkpt lat="47.00565" lon="-1.77961">
        <ele>54</ele>
        <time>2021-08-09T16:40:31.000Z</time>
      </trkpt>
      <trkpt lat="47.0057" lon="-1.77939">
        <ele>54</ele>
        <time>2021-08-09T16:40:33.000Z</time>
      </trkpt>
      <trkpt lat="47.00576" lon="-1.77918">
        <ele>55</ele>
        <time>2021-08-09T16:40:35.000Z</time>
      </trkpt>
      <trkpt lat="47.00581" lon="-1.77898">
        <ele>54</ele>
        <time>2021-08-09T16:40:37.000Z</time>
      </trkpt>
      <trkpt lat="47.00586" lon="-1.77877">
        <ele>54</ele>
        <time>2021-08-09T16:40:39.000Z</time>
      </trkpt>
      <trkpt lat="47.00591" lon="-1.77856">
        <ele>55</ele>
        <time>2021-08-09T16:40:41.000Z</time>
      </trkpt>
      <trkpt lat="47.00597" lon="-1.77835">
        <ele>55</ele>
        <time>2021-08-09T16:40:43.000Z</time>
      </trkpt>
      <trkpt lat="47.00602" lon="-1.77814">
        <ele>56</ele>
        <time>2021-08-09T16:40:45.000Z</time>
      </trkpt>
      <trkpt lat="47.00607" lon="-1.77795">
        <ele>56</ele>
        <time>2021-08-09T16:40:47.000Z</time>
      </trkpt>
      <trkpt lat="47.00612" lon="-1.77774">
        <ele>56</ele>
        <time>2021-08-09T16:40:49.000Z</time>
      </trkpt>
      <trkpt lat="47.00617" lon="-1.77754">
        <ele>56</ele>
        <time>2021-08-09T16:40:51.000Z</time>
      </trkpt>
      <trkpt lat="47.00622" lon="-1.77734">
        <ele>56</ele>
        <time>2021-08-09T16:40:53.000Z</time>
      </trkpt>
      <trkpt lat="47.00627" lon="-1.77714">
        <ele>56</ele>
        <time>2021-08-09T16:40:55.000Z</time>
      </trkpt>
      <trkpt lat="47.00632" lon="-1.77694">
        <ele>55</ele>
        <time>2021-08-09T16:40:57.000Z</time>
      </trkpt>
      <trkpt lat="47.00637" lon="-1.77673">
        <ele>55</ele>
        <time>2021-08-09T16:40:59.000Z</time>
      </trkpt>
      <trkpt lat="47.00642" lon="-1.77653">
        <ele>55</ele>
        <time>2021-08-09T16:41:01.000Z</time>
      </trkpt>
      <trkpt lat="47.00647" lon="-1.77633">
        <ele>55</ele>
        <time>2021-08-09T16:41:03.000Z</time>
      </trkpt>
      <trkpt lat="47.00651" lon="-1.77614">
        <ele>55</ele>
        <time>2021-08-09T16:41:05.000Z</time>
      </trkpt>
      <trkpt lat="47.00656" lon="-1.77594">
        <ele>56</ele>
        <time>2021-08-09T16:41:07.000Z</time>
      </trkpt>
      <trkpt lat="47.0066" lon="-1.77575">
        <ele>56</ele>
        <time>2021-08-09T16:41:09.000Z</time>
      </trkpt>
      <trkpt lat="47.00666" lon="-1.77546">
        <ele>57</ele>
        <time>2021-08-09T16:41:12.000Z</time>
      </trkpt>
      <trkpt lat="47.00671" lon="-1.77528">
        <ele>57</ele>
        <time>2021-08-09T16:41:14.000Z</time>
      </trkpt>
      <trkpt lat="47.00677" lon="-1.77511">
        <ele>57</ele>
        <time>2021-08-09T16:41:16.000Z</time>
      </trkpt>
      <trkpt lat="47.00683" lon="-1.77494">
        <ele>58</ele>
        <time>2021-08-09T16:41:18.000Z</time>
      </trkpt>
      <trkpt lat="47.00689" lon="-1.77476">
        <ele>58</ele>
        <time>2021-08-09T16:41:20.000Z</time>
      </trkpt>
      <trkpt lat="47.00695" lon="-1.77459">
        <ele>58</ele>
        <time>2021-08-09T16:41:22.000Z</time>
      </trkpt>
      <trkpt lat="47.00701" lon="-1.77442">
        <ele>58</ele>
        <time>2021-08-09T16:41:24.000Z</time>
      </trkpt>
      <trkpt lat="47.00707" lon="-1.77426">
        <ele>59</ele>
        <time>2021-08-09T16:41:26.000Z</time>
      </trkpt>
      <trkpt lat="47.00713" lon="-1.77409">
        <ele>60</ele>
        <time>2021-08-09T16:41:28.000Z</time>
      </trkpt>
      <trkpt lat="47.00719" lon="-1.77393">
        <ele>61</ele>
        <time>2021-08-09T16:41:30.000Z</time>
      </trkpt>
      <trkpt lat="47.00726" lon="-1.77377">
        <ele>62</ele>
        <time>2021-08-09T16:41:32.000Z</time>
      </trkpt>
      <trkpt lat="47.00734" lon="-1.77362">
        <ele>62</ele>
        <time>2021-08-09T16:41:34.000Z</time>
      </trkpt>
      <trkpt lat="47.00748" lon="-1.7734">
        <ele>63</ele>
        <time>2021-08-09T16:41:37.000Z</time>
      </trkpt>
      <trkpt lat="47.00759" lon="-1.77327">
        <ele>64</ele>
        <time>2021-08-09T16:41:39.000Z</time>
      </trkpt>
      <trkpt lat="47.00769" lon="-1.77315">
        <ele>64</ele>
        <time>2021-08-09T16:41:41.000Z</time>
      </trkpt>
      <trkpt lat="47.00781" lon="-1.77306">
        <ele>64</ele>
        <time>2021-08-09T16:41:43.000Z</time>
      </trkpt>
      <trkpt lat="47.00793" lon="-1.77299">
        <ele>64</ele>
        <time>2021-08-09T16:41:45.000Z</time>
      </trkpt>
      <trkpt lat="47.00806" lon="-1.77292">
        <ele>64</ele>
        <time>2021-08-09T16:41:47.000Z</time>
      </trkpt>
      <trkpt lat="47.00819" lon="-1.77285">
        <ele>65</ele>
        <time>2021-08-09T16:41:49.000Z</time>
      </trkpt>
      <trkpt lat="47.00838" lon="-1.77275">
        <ele>66</ele>
        <time>2021-08-09T16:41:52.000Z</time>
      </trkpt>
      <trkpt lat="47.0085" lon="-1.77267">
        <ele>66</ele>
        <time>2021-08-09T16:41:54.000Z</time>
      </trkpt>
      <trkpt lat="47.00862" lon="-1.77259">
        <ele>65</ele>
        <time>2021-08-09T16:41:56.000Z</time>
      </trkpt>
      <trkpt lat="47.00874" lon="-1.77248">
        <ele>66</ele>
        <time>2021-08-09T16:41:58.000Z</time>
      </trkpt>
      <trkpt lat="47.00891" lon="-1.77231">
        <ele>65</ele>
        <time>2021-08-09T16:42:01.000Z</time>
      </trkpt>
      <trkpt lat="47.00903" lon="-1.77219">
        <ele>64</ele>
        <time>2021-08-09T16:42:03.000Z</time>
      </trkpt>
      <trkpt lat="47.00914" lon="-1.77208">
        <ele>64</ele>
        <time>2021-08-09T16:42:05.000Z</time>
      </trkpt>
      <trkpt lat="47.00925" lon="-1.77197">
        <ele>63</ele>
        <time>2021-08-09T16:42:07.000Z</time>
      </trkpt>
      <trkpt lat="47.00936" lon="-1.77186">
        <ele>63</ele>
        <time>2021-08-09T16:42:09.000Z</time>
      </trkpt>
      <trkpt lat="47.00946" lon="-1.77176">
        <ele>63</ele>
        <time>2021-08-09T16:42:11.000Z</time>
      </trkpt>
      <trkpt lat="47.00954" lon="-1.77166">
        <ele>63</ele>
        <time>2021-08-09T16:42:13.000Z</time>
      </trkpt>
      <trkpt lat="47.00964" lon="-1.77156">
        <ele>63</ele>
        <time>2021-08-09T16:42:16.000Z</time>
      </trkpt>
      <trkpt lat="47.00973" lon="-1.77147">
        <ele>63</ele>
        <time>2021-08-09T16:42:18.000Z</time>
      </trkpt>
      <trkpt lat="47.00984" lon="-1.77137">
        <ele>63</ele>
        <time>2021-08-09T16:42:20.000Z</time>
      </trkpt>
      <trkpt lat="47.00995" lon="-1.77126">
        <ele>63</ele>
        <time>2021-08-09T16:42:22.000Z</time>
      </trkpt>
      <trkpt lat="47.01006" lon="-1.77114">
        <ele>63</ele>
        <time>2021-08-09T16:42:24.000Z</time>
      </trkpt>
      <trkpt lat="47.01018" lon="-1.77103">
        <ele>63</ele>
        <time>2021-08-09T16:42:26.000Z</time>
      </trkpt>
      <trkpt lat="47.01029" lon="-1.77091">
        <ele>63</ele>
        <time>2021-08-09T16:42:28.000Z</time>
      </trkpt>
      <trkpt lat="47.0104" lon="-1.77078">
        <ele>63</ele>
        <time>2021-08-09T16:42:30.000Z</time>
      </trkpt>
      <trkpt lat="47.01051" lon="-1.77066">
        <ele>64</ele>
        <time>2021-08-09T16:42:32.000Z</time>
      </trkpt>
      <trkpt lat="47.01061" lon="-1.77054">
        <ele>64</ele>
        <time>2021-08-09T16:42:34.000Z</time>
      </trkpt>
      <trkpt lat="47.01071" lon="-1.77041">
        <ele>64</ele>
        <time>2021-08-09T16:42:36.000Z</time>
      </trkpt>
      <trkpt lat="47.01081" lon="-1.77029">
        <ele>65</ele>
        <time>2021-08-09T16:42:38.000Z</time>
      </trkpt>
      <trkpt lat="47.01091" lon="-1.77017">
        <ele>65</ele>
        <time>2021-08-09T16:42:40.000Z</time>
      </trkpt>
      <trkpt lat="47.01102" lon="-1.77005">
        <ele>65</ele>
        <time>2021-08-09T16:42:42.000Z</time>
      </trkpt>
      <trkpt lat="47.01112" lon="-1.76992">
        <ele>66</ele>
        <time>2021-08-09T16:42:44.000Z</time>
      </trkpt>
      <trkpt lat="47.01122" lon="-1.7698">
        <ele>66</ele>
        <time>2021-08-09T16:42:46.000Z</time>
      </trkpt>
      <trkpt lat="47.01132" lon="-1.76967">
        <ele>66</ele>
        <time>2021-08-09T16:42:48.000Z</time>
      </trkpt>
      <trkpt lat="47.01143" lon="-1.76954">
        <ele>66</ele>
        <time>2021-08-09T16:42:50.000Z</time>
      </trkpt>
      <trkpt lat="47.01153" lon="-1.76942">
        <ele>66</ele>
        <time>2021-08-09T16:42:52.000Z</time>
      </trkpt>
      <trkpt lat="47.01164" lon="-1.76928">
        <ele>66</ele>
        <time>2021-08-09T16:42:54.000Z</time>
      </trkpt>
      <trkpt lat="47.01174" lon="-1.76917">
        <ele>67</ele>
        <time>2021-08-09T16:42:56.000Z</time>
      </trkpt>
      <trkpt lat="47.01185" lon="-1.76905">
        <ele>67</ele>
        <time>2021-08-09T16:42:58.000Z</time>
      </trkpt>
      <trkpt lat="47.01197" lon="-1.76894">
        <ele>67</ele>
        <time>2021-08-09T16:43:00.000Z</time>
      </trkpt>
      <trkpt lat="47.01208" lon="-1.76883">
        <ele>68</ele>
        <time>2021-08-09T16:43:02.000Z</time>
      </trkpt>
      <trkpt lat="47.0122" lon="-1.76873">
        <ele>68</ele>
        <time>2021-08-09T16:43:04.000Z</time>
      </trkpt>
      <trkpt lat="47.01232" lon="-1.76864">
        <ele>68</ele>
        <time>2021-08-09T16:43:06.000Z</time>
      </trkpt>
      <trkpt lat="47.01244" lon="-1.76855">
        <ele>68</ele>
        <time>2021-08-09T16:43:08.000Z</time>
      </trkpt>
      <trkpt lat="47.01256" lon="-1.76845">
        <ele>68</ele>
        <time>2021-08-09T16:43:10.000Z</time>
      </trkpt>
      <trkpt lat="47.01268" lon="-1.76836">
        <ele>68</ele>
        <time>2021-08-09T16:43:12.000Z</time>
      </trkpt>
      <trkpt lat="47.0128" lon="-1.76824">
        <ele>68</ele>
        <time>2021-08-09T16:43:14.000Z</time>
      </trkpt>
      <trkpt lat="47.0129" lon="-1.76812">
        <ele>68</ele>
        <time>2021-08-09T16:43:16.000Z</time>
      </trkpt>
      <trkpt lat="47.013" lon="-1.76799">
        <ele>68</ele>
        <time>2021-08-09T16:43:18.000Z</time>
      </trkpt>
      <trkpt lat="47.0131" lon="-1.76784">
        <ele>68</ele>
        <time>2021-08-09T16:43:20.000Z</time>
      </trkpt>
      <trkpt lat="47.01318" lon="-1.76769">
        <ele>69</ele>
        <time>2021-08-09T16:43:22.000Z</time>
      </trkpt>
      <trkpt lat="47.01327" lon="-1.76754">
        <ele>69</ele>
        <time>2021-08-09T16:43:24.000Z</time>
      </trkpt>
      <trkpt lat="47.01336" lon="-1.76739">
        <ele>69</ele>
        <time>2021-08-09T16:43:26.000Z</time>
      </trkpt>
      <trkpt lat="47.01344" lon="-1.76723">
        <ele>69</ele>
        <time>2021-08-09T16:43:28.000Z</time>
      </trkpt>
      <trkpt lat="47.01352" lon="-1.76707">
        <ele>69</ele>
        <time>2021-08-09T16:43:30.000Z</time>
      </trkpt>
      <trkpt lat="47.01358" lon="-1.76689">
        <ele>69</ele>
        <time>2021-08-09T16:43:32.000Z</time>
      </trkpt>
      <trkpt lat="47.01363" lon="-1.7667">
        <ele>69</ele>
        <time>2021-08-09T16:43:34.000Z</time>
      </trkpt>
      <trkpt lat="47.01367" lon="-1.76651">
        <ele>70</ele>
        <time>2021-08-09T16:43:36.000Z</time>
      </trkpt>
      <trkpt lat="47.01371" lon="-1.76631">
        <ele>70</ele>
        <time>2021-08-09T16:43:38.000Z</time>
      </trkpt>
      <trkpt lat="47.01375" lon="-1.76612">
        <ele>69</ele>
        <time>2021-08-09T16:43:40.000Z</time>
      </trkpt>
      <trkpt lat="47.01379" lon="-1.76592">
        <ele>69</ele>
        <time>2021-08-09T16:43:42.000Z</time>
      </trkpt>
      <trkpt lat="47.01383" lon="-1.76573">
        <ele>70</ele>
        <time>2021-08-09T16:43:44.000Z</time>
      </trkpt>
      <trkpt lat="47.01388" lon="-1.76554">
        <ele>70</ele>
        <time>2021-08-09T16:43:46.000Z</time>
      </trkpt>
      <trkpt lat="47.01391" lon="-1.76534">
        <ele>70</ele>
        <time>2021-08-09T16:43:48.000Z</time>
      </trkpt>
      <trkpt lat="47.01396" lon="-1.76515">
        <ele>70</ele>
        <time>2021-08-09T16:43:50.000Z</time>
      </trkpt>
      <trkpt lat="47.01401" lon="-1.76495">
        <ele>69</ele>
        <time>2021-08-09T16:43:52.000Z</time>
      </trkpt>
      <trkpt lat="47.01406" lon="-1.76476">
        <ele>69</ele>
        <time>2021-08-09T16:43:54.000Z</time>
      </trkpt>
      <trkpt lat="47.01414" lon="-1.76459">
        <ele>69</ele>
        <time>2021-08-09T16:43:56.000Z</time>
      </trkpt>
      <trkpt lat="47.01422" lon="-1.76441">
        <ele>69</ele>
        <time>2021-08-09T16:43:58.000Z</time>
      </trkpt>
      <trkpt lat="47.0143" lon="-1.76424">
        <ele>69</ele>
        <time>2021-08-09T16:44:00.000Z</time>
      </trkpt>
      <trkpt lat="47.01438" lon="-1.76406">
        <ele>69</ele>
        <time>2021-08-09T16:44:02.000Z</time>
      </trkpt>
      <trkpt lat="47.01447" lon="-1.76388">
        <ele>68</ele>
        <time>2021-08-09T16:44:04.000Z</time>
      </trkpt>
      <trkpt lat="47.01455" lon="-1.7637">
        <ele>68</ele>
        <time>2021-08-09T16:44:06.000Z</time>
      </trkpt>
      <trkpt lat="47.01463" lon="-1.76352">
        <ele>67</ele>
        <time>2021-08-09T16:44:08.000Z</time>
      </trkpt>
      <trkpt lat="47.01472" lon="-1.76335">
        <ele>68</ele>
        <time>2021-08-09T16:44:10.000Z</time>
      </trkpt>
      <trkpt lat="47.01476" lon="-1.76314">
        <ele>67</ele>
        <time>2021-08-09T16:44:12.000Z</time>
      </trkpt>
      <trkpt lat="47.01474" lon="-1.76292">
        <ele>67</ele>
        <time>2021-08-09T16:44:14.000Z</time>
      </trkpt>
      <trkpt lat="47.01467" lon="-1.76272">
        <ele>66</ele>
        <time>2021-08-09T16:44:16.000Z</time>
      </trkpt>
      <trkpt lat="47.01458" lon="-1.76252">
        <ele>67</ele>
        <time>2021-08-09T16:44:18.000Z</time>
      </trkpt>
      <trkpt lat="47.0145" lon="-1.76232">
        <ele>66</ele>
        <time>2021-08-09T16:44:20.000Z</time>
      </trkpt>
      <trkpt lat="47.01442" lon="-1.76212">
        <ele>66</ele>
        <time>2021-08-09T16:44:22.000Z</time>
      </trkpt>
      <trkpt lat="47.01434" lon="-1.7619">
        <ele>66</ele>
        <time>2021-08-09T16:44:24.000Z</time>
      </trkpt>
      <trkpt lat="47.01425" lon="-1.76168">
        <ele>65</ele>
        <time>2021-08-09T16:44:26.000Z</time>
      </trkpt>
      <trkpt lat="47.01416" lon="-1.76146">
        <ele>65</ele>
        <time>2021-08-09T16:44:28.000Z</time>
      </trkpt>
      <trkpt lat="47.01408" lon="-1.76126">
        <ele>65</ele>
        <time>2021-08-09T16:44:30.000Z</time>
      </trkpt>
      <trkpt lat="47.014" lon="-1.76105">
        <ele>65</ele>
        <time>2021-08-09T16:44:32.000Z</time>
      </trkpt>
      <trkpt lat="47.01391" lon="-1.76085">
        <ele>65</ele>
        <time>2021-08-09T16:44:34.000Z</time>
      </trkpt>
      <trkpt lat="47.01383" lon="-1.76064">
        <ele>65</ele>
        <time>2021-08-09T16:44:36.000Z</time>
      </trkpt>
      <trkpt lat="47.01375" lon="-1.76044">
        <ele>65</ele>
        <time>2021-08-09T16:44:38.000Z</time>
      </trkpt>
      <trkpt lat="47.01368" lon="-1.76024">
        <ele>65</ele>
        <time>2021-08-09T16:44:40.000Z</time>
      </trkpt>
      <trkpt lat="47.0136" lon="-1.76005">
        <ele>65</ele>
        <time>2021-08-09T16:44:42.000Z</time>
      </trkpt>
      <trkpt lat="47.01352" lon="-1.75984">
        <ele>65</ele>
        <time>2021-08-09T16:44:44.000Z</time>
      </trkpt>
      <trkpt lat="47.01344" lon="-1.75964">
        <ele>65</ele>
        <time>2021-08-09T16:44:46.000Z</time>
      </trkpt>
      <trkpt lat="47.01337" lon="-1.75944">
        <ele>65</ele>
        <time>2021-08-09T16:44:48.000Z</time>
      </trkpt>
      <trkpt lat="47.01328" lon="-1.75924">
        <ele>64</ele>
        <time>2021-08-09T16:44:50.000Z</time>
      </trkpt>
      <trkpt lat="47.01321" lon="-1.75904">
        <ele>63</ele>
        <time>2021-08-09T16:44:52.000Z</time>
      </trkpt>
      <trkpt lat="47.01312" lon="-1.75884">
        <ele>62</ele>
        <time>2021-08-09T16:44:54.000Z</time>
      </trkpt>
      <trkpt lat="47.01304" lon="-1.75863">
        <ele>62</ele>
        <time>2021-08-09T16:44:56.000Z</time>
      </trkpt>
      <trkpt lat="47.01296" lon="-1.75842">
        <ele>61</ele>
        <time>2021-08-09T16:44:58.000Z</time>
      </trkpt>
      <trkpt lat="47.01287" lon="-1.75821">
        <ele>62</ele>
        <time>2021-08-09T16:45:00.000Z</time>
      </trkpt>
      <trkpt lat="47.01279" lon="-1.758">
        <ele>61</ele>
        <time>2021-08-09T16:45:02.000Z</time>
      </trkpt>
      <trkpt lat="47.0127" lon="-1.75779">
        <ele>62</ele>
        <time>2021-08-09T16:45:04.000Z</time>
      </trkpt>
      <trkpt lat="47.01262" lon="-1.75758">
        <ele>63</ele>
        <time>2021-08-09T16:45:06.000Z</time>
      </trkpt>
      <trkpt lat="47.01253" lon="-1.75738">
        <ele>63</ele>
        <time>2021-08-09T16:45:08.000Z</time>
      </trkpt>
      <trkpt lat="47.01245" lon="-1.7572">
        <ele>64</ele>
        <time>2021-08-09T16:45:10.000Z</time>
      </trkpt>
      <trkpt lat="47.01237" lon="-1.75702">
        <ele>64</ele>
        <time>2021-08-09T16:45:12.000Z</time>
      </trkpt>
      <trkpt lat="47.0123" lon="-1.75684">
        <ele>65</ele>
        <time>2021-08-09T16:45:14.000Z</time>
      </trkpt>
      <trkpt lat="47.01223" lon="-1.75667">
        <ele>65</ele>
        <time>2021-08-09T16:45:16.000Z</time>
      </trkpt>
      <trkpt lat="47.01217" lon="-1.75649">
        <ele>66</ele>
        <time>2021-08-09T16:45:18.000Z</time>
      </trkpt>
      <trkpt lat="47.01211" lon="-1.75632">
        <ele>66</ele>
        <time>2021-08-09T16:45:20.000Z</time>
      </trkpt>
      <trkpt lat="47.01204" lon="-1.75615">
        <ele>67</ele>
        <time>2021-08-09T16:45:22.000Z</time>
      </trkpt>
      <trkpt lat="47.01196" lon="-1.75597">
        <ele>67</ele>
        <time>2021-08-09T16:45:24.000Z</time>
      </trkpt>
      <trkpt lat="47.01189" lon="-1.7558">
        <ele>67</ele>
        <time>2021-08-09T16:45:26.000Z</time>
      </trkpt>
      <trkpt lat="47.01182" lon="-1.75564">
        <ele>68</ele>
        <time>2021-08-09T16:45:28.000Z</time>
      </trkpt>
      <trkpt lat="47.01175" lon="-1.75545">
        <ele>68</ele>
        <time>2021-08-09T16:45:30.000Z</time>
      </trkpt>
      <trkpt lat="47.01169" lon="-1.75526">
        <ele>69</ele>
        <time>2021-08-09T16:45:32.000Z</time>
      </trkpt>
      <trkpt lat="47.01162" lon="-1.75508">
        <ele>69</ele>
        <time>2021-08-09T16:45:34.000Z</time>
      </trkpt>
      <trkpt lat="47.01155" lon="-1.75491">
        <ele>70</ele>
        <time>2021-08-09T16:45:36.000Z</time>
      </trkpt>
      <trkpt lat="47.01148" lon="-1.75474">
        <ele>70</ele>
        <time>2021-08-09T16:45:38.000Z</time>
      </trkpt>
      <trkpt lat="47.01142" lon="-1.75456">
        <ele>69</ele>
        <time>2021-08-09T16:45:40.000Z</time>
      </trkpt>
      <trkpt lat="47.01135" lon="-1.75439">
        <ele>68</ele>
        <time>2021-08-09T16:45:42.000Z</time>
      </trkpt>
      <trkpt lat="47.01129" lon="-1.75422">
        <ele>68</ele>
        <time>2021-08-09T16:45:44.000Z</time>
      </trkpt>
      <trkpt lat="47.01122" lon="-1.75405">
        <ele>68</ele>
        <time>2021-08-09T16:45:46.000Z</time>
      </trkpt>
      <trkpt lat="47.01115" lon="-1.75388">
        <ele>68</ele>
        <time>2021-08-09T16:45:48.000Z</time>
      </trkpt>
      <trkpt lat="47.01109" lon="-1.75371">
        <ele>67</ele>
        <time>2021-08-09T16:45:50.000Z</time>
      </trkpt>
      <trkpt lat="47.01102" lon="-1.75355">
        <ele>68</ele>
        <time>2021-08-09T16:45:52.000Z</time>
      </trkpt>
      <trkpt lat="47.01095" lon="-1.75338">
        <ele>68</ele>
        <time>2021-08-09T16:45:54.000Z</time>
      </trkpt>
      <trkpt lat="47.01089" lon="-1.7532">
        <ele>68</ele>
        <time>2021-08-09T16:45:56.000Z</time>
      </trkpt>
      <trkpt lat="47.01082" lon="-1.75303">
        <ele>67</ele>
        <time>2021-08-09T16:45:58.000Z</time>
      </trkpt>
      <trkpt lat="47.01075" lon="-1.75286">
        <ele>67</ele>
        <time>2021-08-09T16:46:00.000Z</time>
      </trkpt>
      <trkpt lat="47.01068" lon="-1.75269">
        <ele>66</ele>
        <time>2021-08-09T16:46:02.000Z</time>
      </trkpt>
      <trkpt lat="47.01062" lon="-1.75252">
        <ele>66</ele>
        <time>2021-08-09T16:46:04.000Z</time>
      </trkpt>
      <trkpt lat="47.01055" lon="-1.75235">
        <ele>66</ele>
        <time>2021-08-09T16:46:06.000Z</time>
      </trkpt>
      <trkpt lat="47.01049" lon="-1.75217">
        <ele>66</ele>
        <time>2021-08-09T16:46:08.000Z</time>
      </trkpt>
      <trkpt lat="47.01045" lon="-1.75199">
        <ele>66</ele>
        <time>2021-08-09T16:46:10.000Z</time>
      </trkpt>
      <trkpt lat="47.01042" lon="-1.75179">
        <ele>66</ele>
        <time>2021-08-09T16:46:12.000Z</time>
      </trkpt>
      <trkpt lat="47.01042" lon="-1.75158">
        <ele>66</ele>
        <time>2021-08-09T16:46:14.000Z</time>
      </trkpt>
      <trkpt lat="47.01042" lon="-1.75137">
        <ele>66</ele>
        <time>2021-08-09T16:46:16.000Z</time>
      </trkpt>
      <trkpt lat="47.01042" lon="-1.75117">
        <ele>66</ele>
        <time>2021-08-09T16:46:18.000Z</time>
      </trkpt>
      <trkpt lat="47.01042" lon="-1.75097">
        <ele>66</ele>
        <time>2021-08-09T16:46:20.000Z</time>
      </trkpt>
      <trkpt lat="47.01041" lon="-1.75078">
        <ele>66</ele>
        <time>2021-08-09T16:46:22.000Z</time>
      </trkpt>
      <trkpt lat="47.01041" lon="-1.75057">
        <ele>66</ele>
        <time>2021-08-09T16:46:24.000Z</time>
      </trkpt>
      <trkpt lat="47.0104" lon="-1.75038">
        <ele>67</ele>
        <time>2021-08-09T16:46:26.000Z</time>
      </trkpt>
      <trkpt lat="47.0104" lon="-1.75018">
        <ele>67</ele>
        <time>2021-08-09T16:46:28.000Z</time>
      </trkpt>
      <trkpt lat="47.0104" lon="-1.74999">
        <ele>67</ele>
        <time>2021-08-09T16:46:30.000Z</time>
      </trkpt>
      <trkpt lat="47.0104" lon="-1.74979">
        <ele>67</ele>
        <time>2021-08-09T16:46:32.000Z</time>
      </trkpt>
      <trkpt lat="47.01039" lon="-1.74959">
        <ele>67</ele>
        <time>2021-08-09T16:46:34.000Z</time>
      </trkpt>
      <trkpt lat="47.01039" lon="-1.74939">
        <ele>68</ele>
        <time>2021-08-09T16:46:36.000Z</time>
      </trkpt>
      <trkpt lat="47.01038" lon="-1.74919">
        <ele>68</ele>
        <time>2021-08-09T16:46:38.000Z</time>
      </trkpt>
      <trkpt lat="47.01038" lon="-1.749">
        <ele>68</ele>
        <time>2021-08-09T16:46:40.000Z</time>
      </trkpt>
      <trkpt lat="47.01038" lon="-1.74879">
        <ele>69</ele>
        <time>2021-08-09T16:46:42.000Z</time>
      </trkpt>
      <trkpt lat="47.01037" lon="-1.7486">
        <ele>69</ele>
        <time>2021-08-09T16:46:44.000Z</time>
      </trkpt>
      <trkpt lat="47.01037" lon="-1.74839">
        <ele>69</ele>
        <time>2021-08-09T16:46:46.000Z</time>
      </trkpt>
      <trkpt lat="47.01037" lon="-1.74819">
        <ele>69</ele>
        <time>2021-08-09T16:46:48.000Z</time>
      </trkpt>
      <trkpt lat="47.01037" lon="-1.74799">
        <ele>69</ele>
        <time>2021-08-09T16:46:50.000Z</time>
      </trkpt>
      <trkpt lat="47.01037" lon="-1.74779">
        <ele>68</ele>
        <time>2021-08-09T16:46:52.000Z</time>
      </trkpt>
      <trkpt lat="47.01036" lon="-1.74759">
        <ele>69</ele>
        <time>2021-08-09T16:46:54.000Z</time>
      </trkpt>
      <trkpt lat="47.01035" lon="-1.74738">
        <ele>69</ele>
        <time>2021-08-09T16:46:56.000Z</time>
      </trkpt>
      <trkpt lat="47.01035" lon="-1.74717">
        <ele>68</ele>
        <time>2021-08-09T16:46:58.000Z</time>
      </trkpt>
      <trkpt lat="47.01034" lon="-1.74696">
        <ele>68</ele>
        <time>2021-08-09T16:47:00.000Z</time>
      </trkpt>
      <trkpt lat="47.01034" lon="-1.74676">
        <ele>68</ele>
        <time>2021-08-09T16:47:02.000Z</time>
      </trkpt>
      <trkpt lat="47.01034" lon="-1.74655">
        <ele>68</ele>
        <time>2021-08-09T16:47:04.000Z</time>
      </trkpt>
      <trkpt lat="47.01033" lon="-1.74635">
        <ele>69</ele>
        <time>2021-08-09T16:47:06.000Z</time>
      </trkpt>
      <trkpt lat="47.01033" lon="-1.74614">
        <ele>68</ele>
        <time>2021-08-09T16:47:08.000Z</time>
      </trkpt>
      <trkpt lat="47.01033" lon="-1.74593">
        <ele>68</ele>
        <time>2021-08-09T16:47:10.000Z</time>
      </trkpt>
      <trkpt lat="47.01033" lon="-1.74572">
        <ele>68</ele>
        <time>2021-08-09T16:47:12.000Z</time>
      </trkpt>
      <trkpt lat="47.01035" lon="-1.7455">
        <ele>68</ele>
        <time>2021-08-09T16:47:14.000Z</time>
      </trkpt>
      <trkpt lat="47.0104" lon="-1.7453">
        <ele>68</ele>
        <time>2021-08-09T16:47:16.000Z</time>
      </trkpt>
      <trkpt lat="47.01046" lon="-1.7451">
        <ele>68</ele>
        <time>2021-08-09T16:47:18.000Z</time>
      </trkpt>
      <trkpt lat="47.01054" lon="-1.7449">
        <ele>67</ele>
        <time>2021-08-09T16:47:20.000Z</time>
      </trkpt>
      <trkpt lat="47.01061" lon="-1.74472">
        <ele>67</ele>
        <time>2021-08-09T16:47:22.000Z</time>
      </trkpt>
      <trkpt lat="47.01068" lon="-1.74452">
        <ele>67</ele>
        <time>2021-08-09T16:47:24.000Z</time>
      </trkpt>
      <trkpt lat="47.01074" lon="-1.74432">
        <ele>67</ele>
        <time>2021-08-09T16:47:26.000Z</time>
      </trkpt>
      <trkpt lat="47.01079" lon="-1.74411">
        <ele>67</ele>
        <time>2021-08-09T16:47:28.000Z</time>
      </trkpt>
      <trkpt lat="47.01084" lon="-1.7439">
        <ele>67</ele>
        <time>2021-08-09T16:47:30.000Z</time>
      </trkpt>
      <trkpt lat="47.01089" lon="-1.74369">
        <ele>67</ele>
        <time>2021-08-09T16:47:32.000Z</time>
      </trkpt>
      <trkpt lat="47.01094" lon="-1.74348">
        <ele>67</ele>
        <time>2021-08-09T16:47:34.000Z</time>
      </trkpt>
      <trkpt lat="47.01099" lon="-1.74328">
        <ele>66</ele>
        <time>2021-08-09T16:47:36.000Z</time>
      </trkpt>
      <trkpt lat="47.01104" lon="-1.74308">
        <ele>66</ele>
        <time>2021-08-09T16:47:38.000Z</time>
      </trkpt>
      <trkpt lat="47.01109" lon="-1.74287">
        <ele>66</ele>
        <time>2021-08-09T16:47:40.000Z</time>
      </trkpt>
      <trkpt lat="47.01115" lon="-1.74266">
        <ele>66</ele>
        <time>2021-08-09T16:47:42.000Z</time>
      </trkpt>
      <trkpt lat="47.0112" lon="-1.74246">
        <ele>66</ele>
        <time>2021-08-09T16:47:44.000Z</time>
      </trkpt>
      <trkpt lat="47.01124" lon="-1.74225">
        <ele>66</ele>
        <time>2021-08-09T16:47:46.000Z</time>
      </trkpt>
      <trkpt lat="47.01129" lon="-1.74205">
        <ele>67</ele>
        <time>2021-08-09T16:47:48.000Z</time>
      </trkpt>
      <trkpt lat="47.01134" lon="-1.74185">
        <ele>67</ele>
        <time>2021-08-09T16:47:50.000Z</time>
      </trkpt>
      <trkpt lat="47.01139" lon="-1.74165">
        <ele>67</ele>
        <time>2021-08-09T16:47:52.000Z</time>
      </trkpt>
      <trkpt lat="47.01144" lon="-1.74145">
        <ele>67</ele>
        <time>2021-08-09T16:47:54.000Z</time>
      </trkpt>
      <trkpt lat="47.01148" lon="-1.74125">
        <ele>68</ele>
        <time>2021-08-09T16:47:56.000Z</time>
      </trkpt>
      <trkpt lat="47.01153" lon="-1.74105">
        <ele>69</ele>
        <time>2021-08-09T16:47:58.000Z</time>
      </trkpt>
      <trkpt lat="47.01157" lon="-1.74086">
        <ele>70</ele>
        <time>2021-08-09T16:48:00.000Z</time>
      </trkpt>
      <trkpt lat="47.01162" lon="-1.74066">
        <ele>71</ele>
        <time>2021-08-09T16:48:02.000Z</time>
      </trkpt>
      <trkpt lat="47.01167" lon="-1.74048">
        <ele>71</ele>
        <time>2021-08-09T16:48:04.000Z</time>
      </trkpt>
      <trkpt lat="47.01171" lon="-1.74031">
        <ele>72</ele>
        <time>2021-08-09T16:48:06.000Z</time>
      </trkpt>
      <trkpt lat="47.01176" lon="-1.74012">
        <ele>72</ele>
        <time>2021-08-09T16:48:08.000Z</time>
      </trkpt>
      <trkpt lat="47.01181" lon="-1.73993">
        <ele>73</ele>
        <time>2021-08-09T16:48:10.000Z</time>
      </trkpt>
      <trkpt lat="47.01186" lon="-1.73973">
        <ele>74</ele>
        <time>2021-08-09T16:48:12.000Z</time>
      </trkpt>
      <trkpt lat="47.01191" lon="-1.73953">
        <ele>74</ele>
        <time>2021-08-09T16:48:14.000Z</time>
      </trkpt>
      <trkpt lat="47.01196" lon="-1.73934">
        <ele>73</ele>
        <time>2021-08-09T16:48:16.000Z</time>
      </trkpt>
      <trkpt lat="47.01199" lon="-1.73913">
        <ele>72</ele>
        <time>2021-08-09T16:48:18.000Z</time>
      </trkpt>
      <trkpt lat="47.01201" lon="-1.73892">
        <ele>72</ele>
        <time>2021-08-09T16:48:20.000Z</time>
      </trkpt>
      <trkpt lat="47.01202" lon="-1.73872">
        <ele>73</ele>
        <time>2021-08-09T16:48:22.000Z</time>
      </trkpt>
      <trkpt lat="47.01203" lon="-1.73852">
        <ele>73</ele>
        <time>2021-08-09T16:48:24.000Z</time>
      </trkpt>
      <trkpt lat="47.01204" lon="-1.73832">
        <ele>74</ele>
        <time>2021-08-09T16:48:26.000Z</time>
      </trkpt>
      <trkpt lat="47.01205" lon="-1.73812">
        <ele>74</ele>
        <time>2021-08-09T16:48:28.000Z</time>
      </trkpt>
      <trkpt lat="47.01206" lon="-1.73792">
        <ele>73</ele>
        <time>2021-08-09T16:48:30.000Z</time>
      </trkpt>
      <trkpt lat="47.01207" lon="-1.73774">
        <ele>73</ele>
        <time>2021-08-09T16:48:32.000Z</time>
      </trkpt>
      <trkpt lat="47.01208" lon="-1.73754">
        <ele>73</ele>
        <time>2021-08-09T16:48:34.000Z</time>
      </trkpt>
      <trkpt lat="47.01209" lon="-1.73735">
        <ele>73</ele>
        <time>2021-08-09T16:48:36.000Z</time>
      </trkpt>
      <trkpt lat="47.0121" lon="-1.73716">
        <ele>74</ele>
        <time>2021-08-09T16:48:38.000Z</time>
      </trkpt>
      <trkpt lat="47.01212" lon="-1.73696">
        <ele>73</ele>
        <time>2021-08-09T16:48:40.000Z</time>
      </trkpt>
      <trkpt lat="47.01212" lon="-1.73676">
        <ele>73</ele>
        <time>2021-08-09T16:48:42.000Z</time>
      </trkpt>
      <trkpt lat="47.01213" lon="-1.73657">
        <ele>73</ele>
        <time>2021-08-09T16:48:44.000Z</time>
      </trkpt>
      <trkpt lat="47.01214" lon="-1.73637">
        <ele>73</ele>
        <time>2021-08-09T16:48:46.000Z</time>
      </trkpt>
      <trkpt lat="47.01214" lon="-1.73617">
        <ele>74</ele>
        <time>2021-08-09T16:48:48.000Z</time>
      </trkpt>
      <trkpt lat="47.01215" lon="-1.73597">
        <ele>74</ele>
        <time>2021-08-09T16:48:50.000Z</time>
      </trkpt>
      <trkpt lat="47.01215" lon="-1.73577">
        <ele>74</ele>
        <time>2021-08-09T16:48:52.000Z</time>
      </trkpt>
      <trkpt lat="47.01216" lon="-1.73558">
        <ele>74</ele>
        <time>2021-08-09T16:48:54.000Z</time>
      </trkpt>
      <trkpt lat="47.01217" lon="-1.73539">
        <ele>74</ele>
        <time>2021-08-09T16:48:56.000Z</time>
      </trkpt>
      <trkpt lat="47.01218" lon="-1.73521">
        <ele>74</ele>
        <time>2021-08-09T16:48:58.000Z</time>
      </trkpt>
      <trkpt lat="47.01219" lon="-1.73505">
        <ele>74</ele>
        <time>2021-08-09T16:49:00.000Z</time>
      </trkpt>
      <trkpt lat="47.01216" lon="-1.73488">
        <ele>73</ele>
        <time>2021-08-09T16:49:03.000Z</time>
      </trkpt>
      <trkpt lat="47.01203" lon="-1.73482">
        <ele>72</ele>
        <time>2021-08-09T16:49:06.000Z</time>
      </trkpt>
      <trkpt lat="47.0119" lon="-1.73479">
        <ele>71</ele>
        <time>2021-08-09T16:49:08.000Z</time>
      </trkpt>
      <trkpt lat="47.01178" lon="-1.73476">
        <ele>70</ele>
        <time>2021-08-09T16:49:10.000Z</time>
      </trkpt>
      <trkpt lat="47.01165" lon="-1.73473">
        <ele>70</ele>
        <time>2021-08-09T16:49:12.000Z</time>
      </trkpt>
      <trkpt lat="47.01152" lon="-1.73469">
        <ele>69</ele>
        <time>2021-08-09T16:49:14.000Z</time>
      </trkpt>
      <trkpt lat="47.01139" lon="-1.73466">
        <ele>69</ele>
        <time>2021-08-09T16:49:16.000Z</time>
      </trkpt>
      <trkpt lat="47.01126" lon="-1.73464">
        <ele>69</ele>
        <time>2021-08-09T16:49:18.000Z</time>
      </trkpt>
      <trkpt lat="47.01113" lon="-1.73461">
        <ele>69</ele>
        <time>2021-08-09T16:49:20.000Z</time>
      </trkpt>
      <trkpt lat="47.01102" lon="-1.73455">
        <ele>69</ele>
        <time>2021-08-09T16:49:22.000Z</time>
      </trkpt>
      <trkpt lat="47.01096" lon="-1.73439">
        <ele>70</ele>
        <time>2021-08-09T16:49:24.000Z</time>
      </trkpt>
      <trkpt lat="47.01102" lon="-1.73421">
        <ele>70</ele>
        <time>2021-08-09T16:49:26.000Z</time>
      </trkpt>
      <trkpt lat="47.0111" lon="-1.73406">
        <ele>71</ele>
        <time>2021-08-09T16:49:28.000Z</time>
      </trkpt>
      <trkpt lat="47.01117" lon="-1.73389">
        <ele>71</ele>
        <time>2021-08-09T16:49:30.000Z</time>
      </trkpt>
      <trkpt lat="47.01125" lon="-1.73373">
        <ele>71</ele>
        <time>2021-08-09T16:49:32.000Z</time>
      </trkpt>
      <trkpt lat="47.01131" lon="-1.73357">
        <ele>72</ele>
        <time>2021-08-09T16:49:34.000Z</time>
      </trkpt>
      <trkpt lat="47.01138" lon="-1.73341">
        <ele>72</ele>
        <time>2021-08-09T16:49:36.000Z</time>
      </trkpt>
      <trkpt lat="47.01145" lon="-1.73325">
        <ele>72</ele>
        <time>2021-08-09T16:49:38.000Z</time>
      </trkpt>
      <trkpt lat="47.01152" lon="-1.73309">
        <ele>73</ele>
        <time>2021-08-09T16:49:40.000Z</time>
      </trkpt>
      <trkpt lat="47.01159" lon="-1.73292">
        <ele>73</ele>
        <time>2021-08-09T16:49:42.000Z</time>
      </trkpt>
      <trkpt lat="47.01166" lon="-1.73276">
        <ele>73</ele>
        <time>2021-08-09T16:49:44.000Z</time>
      </trkpt>
      <trkpt lat="47.01173" lon="-1.7326">
        <ele>74</ele>
        <time>2021-08-09T16:49:46.000Z</time>
      </trkpt>
      <trkpt lat="47.0118" lon="-1.73244">
        <ele>74</ele>
        <time>2021-08-09T16:49:48.000Z</time>
      </trkpt>
      <trkpt lat="47.01187" lon="-1.73227">
        <ele>75</ele>
        <time>2021-08-09T16:49:50.000Z</time>
      </trkpt>
      <trkpt lat="47.01194" lon="-1.7321">
        <ele>75</ele>
        <time>2021-08-09T16:49:52.000Z</time>
      </trkpt>
      <trkpt lat="47.01202" lon="-1.73193">
        <ele>75</ele>
        <time>2021-08-09T16:49:54.000Z</time>
      </trkpt>
      <trkpt lat="47.0121" lon="-1.73176">
        <ele>74</ele>
        <time>2021-08-09T16:49:56.000Z</time>
      </trkpt>
      <trkpt lat="47.01218" lon="-1.73159">
        <ele>73</ele>
        <time>2021-08-09T16:49:58.000Z</time>
      </trkpt>
      <trkpt lat="47.01225" lon="-1.73141">
        <ele>73</ele>
        <time>2021-08-09T16:50:00.000Z</time>
      </trkpt>
      <trkpt lat="47.01232" lon="-1.73124">
        <ele>74</ele>
        <time>2021-08-09T16:50:02.000Z</time>
      </trkpt>
      <trkpt lat="47.0124" lon="-1.73106">
        <ele>74</ele>
        <time>2021-08-09T16:50:04.000Z</time>
      </trkpt>
      <trkpt lat="47.01247" lon="-1.73089">
        <ele>74</ele>
        <time>2021-08-09T16:50:06.000Z</time>
      </trkpt>
      <trkpt lat="47.01255" lon="-1.73072">
        <ele>74</ele>
        <time>2021-08-09T16:50:08.000Z</time>
      </trkpt>
      <trkpt lat="47.01263" lon="-1.73054">
        <ele>74</ele>
        <time>2021-08-09T16:50:10.000Z</time>
      </trkpt>
      <trkpt lat="47.01271" lon="-1.73037">
        <ele>73</ele>
        <time>2021-08-09T16:50:12.000Z</time>
      </trkpt>
      <trkpt lat="47.01278" lon="-1.73021">
        <ele>73</ele>
        <time>2021-08-09T16:50:14.000Z</time>
      </trkpt>
      <trkpt lat="47.01286" lon="-1.73004">
        <ele>73</ele>
        <time>2021-08-09T16:50:16.000Z</time>
      </trkpt>
      <trkpt lat="47.01293" lon="-1.72987">
        <ele>73</ele>
        <time>2021-08-09T16:50:18.000Z</time>
      </trkpt>
      <trkpt lat="47.01301" lon="-1.7297">
        <ele>74</ele>
        <time>2021-08-09T16:50:20.000Z</time>
      </trkpt>
      <trkpt lat="47.01309" lon="-1.72952">
        <ele>73</ele>
        <time>2021-08-09T16:50:22.000Z</time>
      </trkpt>
      <trkpt lat="47.01316" lon="-1.72935">
        <ele>74</ele>
        <time>2021-08-09T16:50:24.000Z</time>
      </trkpt>
      <trkpt lat="47.01323" lon="-1.72918">
        <ele>73</ele>
        <time>2021-08-09T16:50:26.000Z</time>
      </trkpt>
      <trkpt lat="47.01331" lon="-1.72901">
        <ele>73</ele>
        <time>2021-08-09T16:50:28.000Z</time>
      </trkpt>
      <trkpt lat="47.01338" lon="-1.72884">
        <ele>74</ele>
        <time>2021-08-09T16:50:30.000Z</time>
      </trkpt>
      <trkpt lat="47.01345" lon="-1.72867">
        <ele>74</ele>
        <time>2021-08-09T16:50:32.000Z</time>
      </trkpt>
      <trkpt lat="47.01352" lon="-1.7285">
        <ele>74</ele>
        <time>2021-08-09T16:50:34.000Z</time>
      </trkpt>
      <trkpt lat="47.0136" lon="-1.72833">
        <ele>74</ele>
        <time>2021-08-09T16:50:36.000Z</time>
      </trkpt>
      <trkpt lat="47.01367" lon="-1.72815">
        <ele>74</ele>
        <time>2021-08-09T16:50:38.000Z</time>
      </trkpt>
      <trkpt lat="47.01374" lon="-1.72798">
        <ele>75</ele>
        <time>2021-08-09T16:50:40.000Z</time>
      </trkpt>
      <trkpt lat="47.01382" lon="-1.72782">
        <ele>75</ele>
        <time>2021-08-09T16:50:42.000Z</time>
      </trkpt>
      <trkpt lat="47.01389" lon="-1.72764">
        <ele>75</ele>
        <time>2021-08-09T16:50:44.000Z</time>
      </trkpt>
      <trkpt lat="47.01396" lon="-1.72748">
        <ele>75</ele>
        <time>2021-08-09T16:50:46.000Z</time>
      </trkpt>
      <trkpt lat="47.01404" lon="-1.72731">
        <ele>75</ele>
        <time>2021-08-09T16:50:48.000Z</time>
      </trkpt>
      <trkpt lat="47.01411" lon="-1.72713">
        <ele>75</ele>
        <time>2021-08-09T16:50:50.000Z</time>
      </trkpt>
      <trkpt lat="47.01419" lon="-1.72696">
        <ele>75</ele>
        <time>2021-08-09T16:50:52.000Z</time>
      </trkpt>
      <trkpt lat="47.01426" lon="-1.72679">
        <ele>75</ele>
        <time>2021-08-09T16:50:54.000Z</time>
      </trkpt>
      <trkpt lat="47.01434" lon="-1.72662">
        <ele>75</ele>
        <time>2021-08-09T16:50:56.000Z</time>
      </trkpt>
      <trkpt lat="47.01442" lon="-1.72645">
        <ele>76</ele>
        <time>2021-08-09T16:50:58.000Z</time>
      </trkpt>
      <trkpt lat="47.0145" lon="-1.72629">
        <ele>76</ele>
        <time>2021-08-09T16:51:00.000Z</time>
      </trkpt>
      <trkpt lat="47.01457" lon="-1.72613">
        <ele>77</ele>
        <time>2021-08-09T16:51:02.000Z</time>
      </trkpt>
      <trkpt lat="47.01464" lon="-1.72595">
        <ele>78</ele>
        <time>2021-08-09T16:51:04.000Z</time>
      </trkpt>
      <trkpt lat="47.01471" lon="-1.72578">
        <ele>78</ele>
        <time>2021-08-09T16:51:06.000Z</time>
      </trkpt>
      <trkpt lat="47.01479" lon="-1.72561">
        <ele>78</ele>
        <time>2021-08-09T16:51:08.000Z</time>
      </trkpt>
      <trkpt lat="47.01486" lon="-1.72544">
        <ele>79</ele>
        <time>2021-08-09T16:51:10.000Z</time>
      </trkpt>
      <trkpt lat="47.01493" lon="-1.72527">
        <ele>79</ele>
        <time>2021-08-09T16:51:12.000Z</time>
      </trkpt>
      <trkpt lat="47.015" lon="-1.72509">
        <ele>79</ele>
        <time>2021-08-09T16:51:14.000Z</time>
      </trkpt>
      <trkpt lat="47.01508" lon="-1.72492">
        <ele>78</ele>
        <time>2021-08-09T16:51:16.000Z</time>
      </trkpt>
      <trkpt lat="47.01515" lon="-1.72475">
        <ele>78</ele>
        <time>2021-08-09T16:51:18.000Z</time>
      </trkpt>
      <trkpt lat="47.01522" lon="-1.72458">
        <ele>77</ele>
        <time>2021-08-09T16:51:20.000Z</time>
      </trkpt>
      <trkpt lat="47.01529" lon="-1.72441">
        <ele>77</ele>
        <time>2021-08-09T16:51:22.000Z</time>
      </trkpt>
      <trkpt lat="47.01537" lon="-1.72425">
        <ele>77</ele>
        <time>2021-08-09T16:51:24.000Z</time>
      </trkpt>
      <trkpt lat="47.01544" lon="-1.72408">
        <ele>78</ele>
        <time>2021-08-09T16:51:26.000Z</time>
      </trkpt>
      <trkpt lat="47.0155" lon="-1.72392">
        <ele>79</ele>
        <time>2021-08-09T16:51:28.000Z</time>
      </trkpt>
      <trkpt lat="47.01558" lon="-1.72376">
        <ele>79</ele>
        <time>2021-08-09T16:51:30.000Z</time>
      </trkpt>
      <trkpt lat="47.01565" lon="-1.7236">
        <ele>80</ele>
        <time>2021-08-09T16:51:32.000Z</time>
      </trkpt>
      <trkpt lat="47.01572" lon="-1.72344">
        <ele>80</ele>
        <time>2021-08-09T16:51:34.000Z</time>
      </trkpt>
      <trkpt lat="47.01578" lon="-1.72328">
        <ele>80</ele>
        <time>2021-08-09T16:51:36.000Z</time>
      </trkpt>
      <trkpt lat="47.01585" lon="-1.72311">
        <ele>81</ele>
        <time>2021-08-09T16:51:38.000Z</time>
      </trkpt>
      <trkpt lat="47.01592" lon="-1.72295">
        <ele>80</ele>
        <time>2021-08-09T16:51:40.000Z</time>
      </trkpt>
      <trkpt lat="47.01599" lon="-1.72279">
        <ele>80</ele>
        <time>2021-08-09T16:51:42.000Z</time>
      </trkpt>
      <trkpt lat="47.01606" lon="-1.72262">
        <ele>80</ele>
        <time>2021-08-09T16:51:44.000Z</time>
      </trkpt>
      <trkpt lat="47.01613" lon="-1.72245">
        <ele>80</ele>
        <time>2021-08-09T16:51:46.000Z</time>
      </trkpt>
      <trkpt lat="47.01619" lon="-1.72228">
        <ele>80</ele>
        <time>2021-08-09T16:51:48.000Z</time>
      </trkpt>
      <trkpt lat="47.01625" lon="-1.7221">
        <ele>79</ele>
        <time>2021-08-09T16:51:50.000Z</time>
      </trkpt>
      <trkpt lat="47.01631" lon="-1.72193">
        <ele>80</ele>
        <time>2021-08-09T16:51:52.000Z</time>
      </trkpt>
      <trkpt lat="47.01636" lon="-1.72176">
        <ele>79</ele>
        <time>2021-08-09T16:51:54.000Z</time>
      </trkpt>
      <trkpt lat="47.01642" lon="-1.7216">
        <ele>80</ele>
        <time>2021-08-09T16:51:56.000Z</time>
      </trkpt>
      <trkpt lat="47.01648" lon="-1.72142">
        <ele>79</ele>
        <time>2021-08-09T16:51:58.000Z</time>
      </trkpt>
      <trkpt lat="47.01654" lon="-1.72125">
        <ele>79</ele>
        <time>2021-08-09T16:52:00.000Z</time>
      </trkpt>
      <trkpt lat="47.01659" lon="-1.72107">
        <ele>80</ele>
        <time>2021-08-09T16:52:02.000Z</time>
      </trkpt>
      <trkpt lat="47.01665" lon="-1.7209">
        <ele>79</ele>
        <time>2021-08-09T16:52:04.000Z</time>
      </trkpt>
      <trkpt lat="47.0167" lon="-1.72073">
        <ele>79</ele>
        <time>2021-08-09T16:52:06.000Z</time>
      </trkpt>
      <trkpt lat="47.01676" lon="-1.72056">
        <ele>80</ele>
        <time>2021-08-09T16:52:08.000Z</time>
      </trkpt>
      <trkpt lat="47.01681" lon="-1.72039">
        <ele>80</ele>
        <time>2021-08-09T16:52:10.000Z</time>
      </trkpt>
      <trkpt lat="47.01687" lon="-1.72022">
        <ele>81</ele>
        <time>2021-08-09T16:52:12.000Z</time>
      </trkpt>
      <trkpt lat="47.01693" lon="-1.72006">
        <ele>82</ele>
        <time>2021-08-09T16:52:14.000Z</time>
      </trkpt>
      <trkpt lat="47.017" lon="-1.71989">
        <ele>82</ele>
        <time>2021-08-09T16:52:16.000Z</time>
      </trkpt>
      <trkpt lat="47.01705" lon="-1.71972">
        <ele>82</ele>
        <time>2021-08-09T16:52:18.000Z</time>
      </trkpt>
      <trkpt lat="47.01711" lon="-1.71956">
        <ele>83</ele>
        <time>2021-08-09T16:52:20.000Z</time>
      </trkpt>
      <trkpt lat="47.01716" lon="-1.71939">
        <ele>83</ele>
        <time>2021-08-09T16:52:22.000Z</time>
      </trkpt>
      <trkpt lat="47.01722" lon="-1.71923">
        <ele>83</ele>
        <time>2021-08-09T16:52:24.000Z</time>
      </trkpt>
      <trkpt lat="47.01727" lon="-1.71905">
        <ele>83</ele>
        <time>2021-08-09T16:52:26.000Z</time>
      </trkpt>
      <trkpt lat="47.01733" lon="-1.71888">
        <ele>83</ele>
        <time>2021-08-09T16:52:28.000Z</time>
      </trkpt>
      <trkpt lat="47.01739" lon="-1.7187">
        <ele>83</ele>
        <time>2021-08-09T16:52:30.000Z</time>
      </trkpt>
      <trkpt lat="47.01744" lon="-1.71853">
        <ele>83</ele>
        <time>2021-08-09T16:52:32.000Z</time>
      </trkpt>
      <trkpt lat="47.0175" lon="-1.71836">
        <ele>83</ele>
        <time>2021-08-09T16:52:34.000Z</time>
      </trkpt>
      <trkpt lat="47.01755" lon="-1.71819">
        <ele>83</ele>
        <time>2021-08-09T16:52:36.000Z</time>
      </trkpt>
      <trkpt lat="47.01761" lon="-1.71802">
        <ele>83</ele>
        <time>2021-08-09T16:52:38.000Z</time>
      </trkpt>
      <trkpt lat="47.01767" lon="-1.71785">
        <ele>83</ele>
        <time>2021-08-09T16:52:40.000Z</time>
      </trkpt>
      <trkpt lat="47.01772" lon="-1.71767">
        <ele>83</ele>
        <time>2021-08-09T16:52:42.000Z</time>
      </trkpt>
      <trkpt lat="47.01778" lon="-1.71751">
        <ele>83</ele>
        <time>2021-08-09T16:52:44.000Z</time>
      </trkpt>
      <trkpt lat="47.01784" lon="-1.71734">
        <ele>83</ele>
        <time>2021-08-09T16:52:46.000Z</time>
      </trkpt>
      <trkpt lat="47.0179" lon="-1.71716">
        <ele>84</ele>
        <time>2021-08-09T16:52:48.000Z</time>
      </trkpt>
      <trkpt lat="47.01796" lon="-1.71699">
        <ele>85</ele>
        <time>2021-08-09T16:52:50.000Z</time>
      </trkpt>
      <trkpt lat="47.01801" lon="-1.71682">
        <ele>85</ele>
        <time>2021-08-09T16:52:52.000Z</time>
      </trkpt>
      <trkpt lat="47.01807" lon="-1.71664">
        <ele>85</ele>
        <time>2021-08-09T16:52:54.000Z</time>
      </trkpt>
      <trkpt lat="47.01813" lon="-1.71647">
        <ele>86</ele>
        <time>2021-08-09T16:52:56.000Z</time>
      </trkpt>
      <trkpt lat="47.0182" lon="-1.71629">
        <ele>86</ele>
        <time>2021-08-09T16:52:58.000Z</time>
      </trkpt>
      <trkpt lat="47.01828" lon="-1.71611">
        <ele>85</ele>
        <time>2021-08-09T16:53:00.000Z</time>
      </trkpt>
      <trkpt lat="47.01836" lon="-1.71594">
        <ele>85</ele>
        <time>2021-08-09T16:53:02.000Z</time>
      </trkpt>
      <trkpt lat="47.01845" lon="-1.71578">
        <ele>84</ele>
        <time>2021-08-09T16:53:04.000Z</time>
      </trkpt>
      <trkpt lat="47.01854" lon="-1.71562">
        <ele>84</ele>
        <time>2021-08-09T16:53:06.000Z</time>
      </trkpt>
      <trkpt lat="47.01864" lon="-1.71547">
        <ele>83</ele>
        <time>2021-08-09T16:53:08.000Z</time>
      </trkpt>
      <trkpt lat="47.01873" lon="-1.71531">
        <ele>83</ele>
        <time>2021-08-09T16:53:10.000Z</time>
      </trkpt>
      <trkpt lat="47.01884" lon="-1.71516">
        <ele>82</ele>
        <time>2021-08-09T16:53:12.000Z</time>
      </trkpt>
      <trkpt lat="47.01895" lon="-1.71502">
        <ele>82</ele>
        <time>2021-08-09T16:53:14.000Z</time>
      </trkpt>
      <trkpt lat="47.01905" lon="-1.71487">
        <ele>82</ele>
        <time>2021-08-09T16:53:16.000Z</time>
      </trkpt>
      <trkpt lat="47.01914" lon="-1.71472">
        <ele>81</ele>
        <time>2021-08-09T16:53:18.000Z</time>
      </trkpt>
      <trkpt lat="47.01924" lon="-1.71458">
        <ele>81</ele>
        <time>2021-08-09T16:53:20.000Z</time>
      </trkpt>
      <trkpt lat="47.01934" lon="-1.71444">
        <ele>81</ele>
        <time>2021-08-09T16:53:22.000Z</time>
      </trkpt>
      <trkpt lat="47.01943" lon="-1.71429">
        <ele>81</ele>
        <time>2021-08-09T16:53:24.000Z</time>
      </trkpt>
      <trkpt lat="47.01953" lon="-1.71414">
        <ele>81</ele>
        <time>2021-08-09T16:53:26.000Z</time>
      </trkpt>
      <trkpt lat="47.01963" lon="-1.71399">
        <ele>80</ele>
        <time>2021-08-09T16:53:28.000Z</time>
      </trkpt>
      <trkpt lat="47.01973" lon="-1.71385">
        <ele>80</ele>
        <time>2021-08-09T16:53:30.000Z</time>
      </trkpt>
      <trkpt lat="47.01984" lon="-1.71371">
        <ele>81</ele>
        <time>2021-08-09T16:53:32.000Z</time>
      </trkpt>
      <trkpt lat="47.01995" lon="-1.71358">
        <ele>81</ele>
        <time>2021-08-09T16:53:34.000Z</time>
      </trkpt>
      <trkpt lat="47.02007" lon="-1.71346">
        <ele>81</ele>
        <time>2021-08-09T16:53:36.000Z</time>
      </trkpt>
      <trkpt lat="47.02018" lon="-1.71334">
        <ele>81</ele>
        <time>2021-08-09T16:53:38.000Z</time>
      </trkpt>
      <trkpt lat="47.0203" lon="-1.7132">
        <ele>81</ele>
        <time>2021-08-09T16:53:40.000Z</time>
      </trkpt>
      <trkpt lat="47.0204" lon="-1.71306">
        <ele>81</ele>
        <time>2021-08-09T16:53:42.000Z</time>
      </trkpt>
      <trkpt lat="47.02049" lon="-1.7129">
        <ele>81</ele>
        <time>2021-08-09T16:53:44.000Z</time>
      </trkpt>
      <trkpt lat="47.02058" lon="-1.71272">
        <ele>81</ele>
        <time>2021-08-09T16:53:46.000Z</time>
      </trkpt>
      <trkpt lat="47.02067" lon="-1.71255">
        <ele>80</ele>
        <time>2021-08-09T16:53:48.000Z</time>
      </trkpt>
      <trkpt lat="47.02075" lon="-1.71238">
        <ele>81</ele>
        <time>2021-08-09T16:53:50.000Z</time>
      </trkpt>
      <trkpt lat="47.02084" lon="-1.7122">
        <ele>81</ele>
        <time>2021-08-09T16:53:52.000Z</time>
      </trkpt>
      <trkpt lat="47.02092" lon="-1.71202">
        <ele>81</ele>
        <time>2021-08-09T16:53:54.000Z</time>
      </trkpt>
      <trkpt lat="47.02099" lon="-1.71183">
        <ele>81</ele>
        <time>2021-08-09T16:53:56.000Z</time>
      </trkpt>
      <trkpt lat="47.02105" lon="-1.71164">
        <ele>82</ele>
        <time>2021-08-09T16:53:58.000Z</time>
      </trkpt>
      <trkpt lat="47.02111" lon="-1.71145">
        <ele>82</ele>
        <time>2021-08-09T16:54:00.000Z</time>
      </trkpt>
      <trkpt lat="47.02118" lon="-1.71126">
        <ele>82</ele>
        <time>2021-08-09T16:54:02.000Z</time>
      </trkpt>
      <trkpt lat="47.02126" lon="-1.71107">
        <ele>83</ele>
        <time>2021-08-09T16:54:04.000Z</time>
      </trkpt>
      <trkpt lat="47.02133" lon="-1.71088">
        <ele>82</ele>
        <time>2021-08-09T16:54:06.000Z</time>
      </trkpt>
      <trkpt lat="47.02142" lon="-1.7107">
        <ele>81</ele>
        <time>2021-08-09T16:54:08.000Z</time>
      </trkpt>
      <trkpt lat="47.02151" lon="-1.71052">
        <ele>81</ele>
        <time>2021-08-09T16:54:10.000Z</time>
      </trkpt>
      <trkpt lat="47.0216" lon="-1.71035">
        <ele>81</ele>
        <time>2021-08-09T16:54:12.000Z</time>
      </trkpt>
      <trkpt lat="47.02168" lon="-1.71018">
        <ele>80</ele>
        <time>2021-08-09T16:54:14.000Z</time>
      </trkpt>
      <trkpt lat="47.02182" lon="-1.70992">
        <ele>80</ele>
        <time>2021-08-09T16:54:17.000Z</time>
      </trkpt>
      <trkpt lat="47.0219" lon="-1.70975">
        <ele>80</ele>
        <time>2021-08-09T16:54:19.000Z</time>
      </trkpt>
      <trkpt lat="47.02199" lon="-1.70959">
        <ele>81</ele>
        <time>2021-08-09T16:54:21.000Z</time>
      </trkpt>
      <trkpt lat="47.02208" lon="-1.70942">
        <ele>81</ele>
        <time>2021-08-09T16:54:23.000Z</time>
      </trkpt>
      <trkpt lat="47.02217" lon="-1.70925">
        <ele>81</ele>
        <time>2021-08-09T16:54:25.000Z</time>
      </trkpt>
      <trkpt lat="47.02227" lon="-1.70909">
        <ele>81</ele>
        <time>2021-08-09T16:54:27.000Z</time>
      </trkpt>
      <trkpt lat="47.02242" lon="-1.70885">
        <ele>81</ele>
        <time>2021-08-09T16:54:30.000Z</time>
      </trkpt>
      <trkpt lat="47.02252" lon="-1.70869">
        <ele>81</ele>
        <time>2021-08-09T16:54:32.000Z</time>
      </trkpt>
      <trkpt lat="47.02268" lon="-1.70845">
        <ele>81</ele>
        <time>2021-08-09T16:54:35.000Z</time>
      </trkpt>
      <trkpt lat="47.02279" lon="-1.70828">
        <ele>80</ele>
        <time>2021-08-09T16:54:37.000Z</time>
      </trkpt>
      <trkpt lat="47.0229" lon="-1.70812">
        <ele>80</ele>
        <time>2021-08-09T16:54:39.000Z</time>
      </trkpt>
      <trkpt lat="47.02306" lon="-1.70789">
        <ele>80</ele>
        <time>2021-08-09T16:54:42.000Z</time>
      </trkpt>
      <trkpt lat="47.02322" lon="-1.70765">
        <ele>80</ele>
        <time>2021-08-09T16:54:45.000Z</time>
      </trkpt>
      <trkpt lat="47.02338" lon="-1.70742">
        <ele>79</ele>
        <time>2021-08-09T16:54:48.000Z</time>
      </trkpt>
      <trkpt lat="47.02349" lon="-1.70727">
        <ele>78</ele>
        <time>2021-08-09T16:54:50.000Z</time>
      </trkpt>
      <trkpt lat="47.02359" lon="-1.70712">
        <ele>78</ele>
        <time>2021-08-09T16:54:52.000Z</time>
      </trkpt>
      <trkpt lat="47.02373" lon="-1.70688">
        <ele>78</ele>
        <time>2021-08-09T16:54:55.000Z</time>
      </trkpt>
      <trkpt lat="47.02383" lon="-1.70672">
        <ele>78</ele>
        <time>2021-08-09T16:54:57.000Z</time>
      </trkpt>
      <trkpt lat="47.02393" lon="-1.70656">
        <ele>79</ele>
        <time>2021-08-09T16:54:59.000Z</time>
      </trkpt>
      <trkpt lat="47.02403" lon="-1.70641">
        <ele>79</ele>
        <time>2021-08-09T16:55:01.000Z</time>
      </trkpt>
      <trkpt lat="47.02411" lon="-1.70626">
        <ele>79</ele>
        <time>2021-08-09T16:55:03.000Z</time>
      </trkpt>
      <trkpt lat="47.02421" lon="-1.70611">
        <ele>79</ele>
        <time>2021-08-09T16:55:05.000Z</time>
      </trkpt>
      <trkpt lat="47.02431" lon="-1.70596">
        <ele>81</ele>
        <time>2021-08-09T16:55:07.000Z</time>
      </trkpt>
      <trkpt lat="47.02441" lon="-1.7058">
        <ele>81</ele>
        <time>2021-08-09T16:55:09.000Z</time>
      </trkpt>
      <trkpt lat="47.02451" lon="-1.70565">
        <ele>81</ele>
        <time>2021-08-09T16:55:11.000Z</time>
      </trkpt>
      <trkpt lat="47.02463" lon="-1.70551">
        <ele>81</ele>
        <time>2021-08-09T16:55:13.000Z</time>
      </trkpt>
      <trkpt lat="47.02476" lon="-1.70539">
        <ele>81</ele>
        <time>2021-08-09T16:55:15.000Z</time>
      </trkpt>
      <trkpt lat="47.02488" lon="-1.70528">
        <ele>81</ele>
        <time>2021-08-09T16:55:17.000Z</time>
      </trkpt>
      <trkpt lat="47.025" lon="-1.70517">
        <ele>80</ele>
        <time>2021-08-09T16:55:19.000Z</time>
      </trkpt>
      <trkpt lat="47.02513" lon="-1.70505">
        <ele>80</ele>
        <time>2021-08-09T16:55:21.000Z</time>
      </trkpt>
      <trkpt lat="47.02525" lon="-1.70494">
        <ele>80</ele>
        <time>2021-08-09T16:55:23.000Z</time>
      </trkpt>
      <trkpt lat="47.02538" lon="-1.70484">
        <ele>80</ele>
        <time>2021-08-09T16:55:25.000Z</time>
      </trkpt>
      <trkpt lat="47.0255" lon="-1.70474">
        <ele>80</ele>
        <time>2021-08-09T16:55:27.000Z</time>
      </trkpt>
      <trkpt lat="47.02562" lon="-1.70462">
        <ele>80</ele>
        <time>2021-08-09T16:55:29.000Z</time>
      </trkpt>
      <trkpt lat="47.02574" lon="-1.70451">
        <ele>80</ele>
        <time>2021-08-09T16:55:31.000Z</time>
      </trkpt>
      <trkpt lat="47.02587" lon="-1.7044">
        <ele>80</ele>
        <time>2021-08-09T16:55:33.000Z</time>
      </trkpt>
      <trkpt lat="47.026" lon="-1.70429">
        <ele>79</ele>
        <time>2021-08-09T16:55:35.000Z</time>
      </trkpt>
      <trkpt lat="47.02613" lon="-1.70417">
        <ele>78</ele>
        <time>2021-08-09T16:55:37.000Z</time>
      </trkpt>
      <trkpt lat="47.02625" lon="-1.70405">
        <ele>78</ele>
        <time>2021-08-09T16:55:39.000Z</time>
      </trkpt>
      <trkpt lat="47.02635" lon="-1.70393">
        <ele>78</ele>
        <time>2021-08-09T16:55:41.000Z</time>
      </trkpt>
      <trkpt lat="47.02646" lon="-1.70381">
        <ele>77</ele>
        <time>2021-08-09T16:55:43.000Z</time>
      </trkpt>
      <trkpt lat="47.02655" lon="-1.70368">
        <ele>77</ele>
        <time>2021-08-09T16:55:45.000Z</time>
      </trkpt>
      <trkpt lat="47.02663" lon="-1.70357">
        <ele>77</ele>
        <time>2021-08-09T16:55:47.000Z</time>
      </trkpt>
      <trkpt lat="47.02666" lon="-1.70342">
        <ele>77</ele>
        <time>2021-08-09T16:55:49.000Z</time>
      </trkpt>
      <trkpt lat="47.02657" lon="-1.70329">
        <ele>77</ele>
        <time>2021-08-09T16:55:51.000Z</time>
      </trkpt>
      <trkpt lat="47.02645" lon="-1.70321">
        <ele>77</ele>
        <time>2021-08-09T16:55:53.000Z</time>
      </trkpt>
      <trkpt lat="47.02633" lon="-1.70313">
        <ele>77</ele>
        <time>2021-08-09T16:55:55.000Z</time>
      </trkpt>
      <trkpt lat="47.0262" lon="-1.70305">
        <ele>77</ele>
        <time>2021-08-09T16:55:57.000Z</time>
      </trkpt>
      <trkpt lat="47.02607" lon="-1.70298">
        <ele>77</ele>
        <time>2021-08-09T16:55:59.000Z</time>
      </trkpt>
      <trkpt lat="47.02593" lon="-1.70292">
        <ele>77</ele>
        <time>2021-08-09T16:56:01.000Z</time>
      </trkpt>
      <trkpt lat="47.02579" lon="-1.70287">
        <ele>77</ele>
        <time>2021-08-09T16:56:03.000Z</time>
      </trkpt>
      <trkpt lat="47.02565" lon="-1.70283">
        <ele>77</ele>
        <time>2021-08-09T16:56:05.000Z</time>
      </trkpt>
      <trkpt lat="47.02551" lon="-1.70281">
        <ele>77</ele>
        <time>2021-08-09T16:56:07.000Z</time>
      </trkpt>
      <trkpt lat="47.02537" lon="-1.70279">
        <ele>77</ele>
        <time>2021-08-09T16:56:09.000Z</time>
      </trkpt>
      <trkpt lat="47.02523" lon="-1.70273">
        <ele>77</ele>
        <time>2021-08-09T16:56:11.000Z</time>
      </trkpt>
      <trkpt lat="47.02511" lon="-1.70263">
        <ele>77</ele>
        <time>2021-08-09T16:56:13.000Z</time>
      </trkpt>
      <trkpt lat="47.025" lon="-1.70248">
        <ele>77</ele>
        <time>2021-08-09T16:56:15.000Z</time>
      </trkpt>
      <trkpt lat="47.02492" lon="-1.70231">
        <ele>77</ele>
        <time>2021-08-09T16:56:17.000Z</time>
      </trkpt>
      <trkpt lat="47.02484" lon="-1.70215">
        <ele>77</ele>
        <time>2021-08-09T16:56:19.000Z</time>
      </trkpt>
      <trkpt lat="47.02475" lon="-1.70198">
        <ele>77</ele>
        <time>2021-08-09T16:56:21.000Z</time>
      </trkpt>
      <trkpt lat="47.02467" lon="-1.70181">
        <ele>77</ele>
        <time>2021-08-09T16:56:23.000Z</time>
      </trkpt>
      <trkpt lat="47.02458" lon="-1.70164">
        <ele>77</ele>
        <time>2021-08-09T16:56:25.000Z</time>
      </trkpt>
      <trkpt lat="47.0245" lon="-1.70146">
        <ele>77</ele>
        <time>2021-08-09T16:56:27.000Z</time>
      </trkpt>
      <trkpt lat="47.02443" lon="-1.70129">
        <ele>77</ele>
        <time>2021-08-09T16:56:29.000Z</time>
      </trkpt>
      <trkpt lat="47.02437" lon="-1.7011">
        <ele>77</ele>
        <time>2021-08-09T16:56:31.000Z</time>
      </trkpt>
      <trkpt lat="47.02433" lon="-1.7009">
        <ele>77</ele>
        <time>2021-08-09T16:56:33.000Z</time>
      </trkpt>
      <trkpt lat="47.02431" lon="-1.70069">
        <ele>77</ele>
        <time>2021-08-09T16:56:35.000Z</time>
      </trkpt>
      <trkpt lat="47.02429" lon="-1.70049">
        <ele>77</ele>
        <time>2021-08-09T16:56:37.000Z</time>
      </trkpt>
      <trkpt lat="47.02427" lon="-1.70028">
        <ele>78</ele>
        <time>2021-08-09T16:56:39.000Z</time>
      </trkpt>
      <trkpt lat="47.02425" lon="-1.70008">
        <ele>78</ele>
        <time>2021-08-09T16:56:41.000Z</time>
      </trkpt>
      <trkpt lat="47.02422" lon="-1.69987">
        <ele>79</ele>
        <time>2021-08-09T16:56:43.000Z</time>
      </trkpt>
      <trkpt lat="47.0242" lon="-1.69967">
        <ele>79</ele>
        <time>2021-08-09T16:56:45.000Z</time>
      </trkpt>
      <trkpt lat="47.02418" lon="-1.69947">
        <ele>80</ele>
        <time>2021-08-09T16:56:47.000Z</time>
      </trkpt>
      <trkpt lat="47.02416" lon="-1.69926">
        <ele>79</ele>
        <time>2021-08-09T16:56:49.000Z</time>
      </trkpt>
      <trkpt lat="47.02413" lon="-1.69907">
        <ele>79</ele>
        <time>2021-08-09T16:56:51.000Z</time>
      </trkpt>
      <trkpt lat="47.02411" lon="-1.69887">
        <ele>79</ele>
        <time>2021-08-09T16:56:53.000Z</time>
      </trkpt>
      <trkpt lat="47.02406" lon="-1.69869">
        <ele>79</ele>
        <time>2021-08-09T16:56:55.000Z</time>
      </trkpt>
      <trkpt lat="47.02401" lon="-1.6985">
        <ele>79</ele>
        <time>2021-08-09T16:56:57.000Z</time>
      </trkpt>
      <trkpt lat="47.02394" lon="-1.69832">
        <ele>79</ele>
        <time>2021-08-09T16:56:59.000Z</time>
      </trkpt>
      <trkpt lat="47.02386" lon="-1.69816">
        <ele>78</ele>
        <time>2021-08-09T16:57:01.000Z</time>
      </trkpt>
      <trkpt lat="47.02378" lon="-1.698">
        <ele>78</ele>
        <time>2021-08-09T16:57:03.000Z</time>
      </trkpt>
      <trkpt lat="47.02369" lon="-1.69784">
        <ele>78</ele>
        <time>2021-08-09T16:57:05.000Z</time>
      </trkpt>
      <trkpt lat="47.0236" lon="-1.69768">
        <ele>78</ele>
        <time>2021-08-09T16:57:07.000Z</time>
      </trkpt>
      <trkpt lat="47.02352" lon="-1.69752">
        <ele>78</ele>
        <time>2021-08-09T16:57:09.000Z</time>
      </trkpt>
      <trkpt lat="47.02343" lon="-1.69736">
        <ele>78</ele>
        <time>2021-08-09T16:57:11.000Z</time>
      </trkpt>
      <trkpt lat="47.02334" lon="-1.69721">
        <ele>78</ele>
        <time>2021-08-09T16:57:13.000Z</time>
      </trkpt>
      <trkpt lat="47.02326" lon="-1.69707">
        <ele>78</ele>
        <time>2021-08-09T16:57:15.000Z</time>
      </trkpt>
      <trkpt lat="47.02317" lon="-1.69691">
        <ele>78</ele>
        <time>2021-08-09T16:57:17.000Z</time>
      </trkpt>
      <trkpt lat="47.02309" lon="-1.69676">
        <ele>78</ele>
        <time>2021-08-09T16:57:19.000Z</time>
      </trkpt>
      <trkpt lat="47.023" lon="-1.69661">
        <ele>79</ele>
        <time>2021-08-09T16:57:21.000Z</time>
      </trkpt>
      <trkpt lat="47.02292" lon="-1.69645">
        <ele>79</ele>
        <time>2021-08-09T16:57:23.000Z</time>
      </trkpt>
      <trkpt lat="47.02283" lon="-1.69629">
        <ele>79</ele>
        <time>2021-08-09T16:57:25.000Z</time>
      </trkpt>
      <trkpt lat="47.02274" lon="-1.69613">
        <ele>79</ele>
        <time>2021-08-09T16:57:27.000Z</time>
      </trkpt>
      <trkpt lat="47.02266" lon="-1.69597">
        <ele>79</ele>
        <time>2021-08-09T16:57:29.000Z</time>
      </trkpt>
      <trkpt lat="47.02259" lon="-1.69579">
        <ele>79</ele>
        <time>2021-08-09T16:57:31.000Z</time>
      </trkpt>
      <trkpt lat="47.02252" lon="-1.69562">
        <ele>79</ele>
        <time>2021-08-09T16:57:33.000Z</time>
      </trkpt>
      <trkpt lat="47.02245" lon="-1.69544">
        <ele>80</ele>
        <time>2021-08-09T16:57:35.000Z</time>
      </trkpt>
      <trkpt lat="47.02239" lon="-1.69526">
        <ele>80</ele>
        <time>2021-08-09T16:57:37.000Z</time>
      </trkpt>
      <trkpt lat="47.02234" lon="-1.69507">
        <ele>80</ele>
        <time>2021-08-09T16:57:39.000Z</time>
      </trkpt>
      <trkpt lat="47.0223" lon="-1.69488">
        <ele>80</ele>
        <time>2021-08-09T16:57:41.000Z</time>
      </trkpt>
      <trkpt lat="47.02225" lon="-1.69469">
        <ele>81</ele>
        <time>2021-08-09T16:57:43.000Z</time>
      </trkpt>
      <trkpt lat="47.02221" lon="-1.6945">
        <ele>81</ele>
        <time>2021-08-09T16:57:45.000Z</time>
      </trkpt>
      <trkpt lat="47.02218" lon="-1.69432">
        <ele>81</ele>
        <time>2021-08-09T16:57:47.000Z</time>
      </trkpt>
      <trkpt lat="47.02216" lon="-1.69413">
        <ele>81</ele>
        <time>2021-08-09T16:57:49.000Z</time>
      </trkpt>
      <trkpt lat="47.02215" lon="-1.69393">
        <ele>81</ele>
        <time>2021-08-09T16:57:51.000Z</time>
      </trkpt>
      <trkpt lat="47.02212" lon="-1.69374">
        <ele>81</ele>
        <time>2021-08-09T16:57:53.000Z</time>
      </trkpt>
      <trkpt lat="47.02211" lon="-1.69353">
        <ele>81</ele>
        <time>2021-08-09T16:57:55.000Z</time>
      </trkpt>
      <trkpt lat="47.02213" lon="-1.69334">
        <ele>81</ele>
        <time>2021-08-09T16:57:57.000Z</time>
      </trkpt>
      <trkpt lat="47.02216" lon="-1.69315">
        <ele>81</ele>
        <time>2021-08-09T16:57:59.000Z</time>
      </trkpt>
      <trkpt lat="47.0222" lon="-1.69295">
        <ele>81</ele>
        <time>2021-08-09T16:58:01.000Z</time>
      </trkpt>
      <trkpt lat="47.02223" lon="-1.69275">
        <ele>81</ele>
        <time>2021-08-09T16:58:03.000Z</time>
      </trkpt>
      <trkpt lat="47.02225" lon="-1.69255">
        <ele>81</ele>
        <time>2021-08-09T16:58:05.000Z</time>
      </trkpt>
      <trkpt lat="47.02225" lon="-1.69234">
        <ele>81</ele>
        <time>2021-08-09T16:58:07.000Z</time>
      </trkpt>
      <trkpt lat="47.02223" lon="-1.69214">
        <ele>81</ele>
        <time>2021-08-09T16:58:09.000Z</time>
      </trkpt>
      <trkpt lat="47.0222" lon="-1.69195">
        <ele>82</ele>
        <time>2021-08-09T16:58:11.000Z</time>
      </trkpt>
      <trkpt lat="47.02216" lon="-1.69177">
        <ele>82</ele>
        <time>2021-08-09T16:58:13.000Z</time>
      </trkpt>
      <trkpt lat="47.02212" lon="-1.69157">
        <ele>82</ele>
        <time>2021-08-09T16:58:15.000Z</time>
      </trkpt>
      <trkpt lat="47.02207" lon="-1.69138">
        <ele>82</ele>
        <time>2021-08-09T16:58:17.000Z</time>
      </trkpt>
      <trkpt lat="47.02202" lon="-1.69121">
        <ele>83</ele>
        <time>2021-08-09T16:58:19.000Z</time>
      </trkpt>
      <trkpt lat="47.02197" lon="-1.69103">
        <ele>83</ele>
        <time>2021-08-09T16:58:21.000Z</time>
      </trkpt>
      <trkpt lat="47.02191" lon="-1.69084">
        <ele>83</ele>
        <time>2021-08-09T16:58:23.000Z</time>
      </trkpt>
      <trkpt lat="47.02187" lon="-1.69065">
        <ele>83</ele>
        <time>2021-08-09T16:58:25.000Z</time>
      </trkpt>
      <trkpt lat="47.02185" lon="-1.69045">
        <ele>83</ele>
        <time>2021-08-09T16:58:27.000Z</time>
      </trkpt>
      <trkpt lat="47.02185" lon="-1.69025">
        <ele>82</ele>
        <time>2021-08-09T16:58:29.000Z</time>
      </trkpt>
      <trkpt lat="47.02185" lon="-1.69005">
        <ele>82</ele>
        <time>2021-08-09T16:58:31.000Z</time>
      </trkpt>
      <trkpt lat="47.02185" lon="-1.68985">
        <ele>83</ele>
        <time>2021-08-09T16:58:33.000Z</time>
      </trkpt>
      <trkpt lat="47.02186" lon="-1.68964">
        <ele>83</ele>
        <time>2021-08-09T16:58:35.000Z</time>
      </trkpt>
      <trkpt lat="47.02186" lon="-1.68945">
        <ele>83</ele>
        <time>2021-08-09T16:58:37.000Z</time>
      </trkpt>
      <trkpt lat="47.02187" lon="-1.68925">
        <ele>83</ele>
        <time>2021-08-09T16:58:39.000Z</time>
      </trkpt>
      <trkpt lat="47.02188" lon="-1.68905">
        <ele>84</ele>
        <time>2021-08-09T16:58:41.000Z</time>
      </trkpt>
      <trkpt lat="47.02189" lon="-1.68886">
        <ele>84</ele>
        <time>2021-08-09T16:58:43.000Z</time>
      </trkpt>
      <trkpt lat="47.02191" lon="-1.68866">
        <ele>84</ele>
        <time>2021-08-09T16:58:45.000Z</time>
      </trkpt>
      <trkpt lat="47.02193" lon="-1.68847">
        <ele>85</ele>
        <time>2021-08-09T16:58:47.000Z</time>
      </trkpt>
      <trkpt lat="47.02194" lon="-1.6883">
        <ele>85</ele>
        <time>2021-08-09T16:58:49.000Z</time>
      </trkpt>
      <trkpt lat="47.02195" lon="-1.68815">
        <ele>85</ele>
        <time>2021-08-09T16:58:51.000Z</time>
      </trkpt>
      <trkpt lat="47.02192" lon="-1.688">
        <ele>86</ele>
        <time>2021-08-09T16:58:54.000Z</time>
      </trkpt>
      <trkpt lat="47.02196" lon="-1.68783">
        <ele>86</ele>
        <time>2021-08-09T16:58:57.000Z</time>
      </trkpt>
      <trkpt lat="47.02203" lon="-1.6877">
        <ele>87</ele>
        <time>2021-08-09T16:58:59.000Z</time>
      </trkpt>
      <trkpt lat="47.02211" lon="-1.68757">
        <ele>86</ele>
        <time>2021-08-09T16:59:01.000Z</time>
      </trkpt>
      <trkpt lat="47.02219" lon="-1.68743">
        <ele>86</ele>
        <time>2021-08-09T16:59:03.000Z</time>
      </trkpt>
      <trkpt lat="47.02228" lon="-1.68727">
        <ele>87</ele>
        <time>2021-08-09T16:59:05.000Z</time>
      </trkpt>
      <trkpt lat="47.02236" lon="-1.68711">
        <ele>88</ele>
        <time>2021-08-09T16:59:07.000Z</time>
      </trkpt>
      <trkpt lat="47.02244" lon="-1.68697">
        <ele>88</ele>
        <time>2021-08-09T16:59:09.000Z</time>
      </trkpt>
      <trkpt lat="47.02252" lon="-1.68684">
        <ele>89</ele>
        <time>2021-08-09T16:59:11.000Z</time>
      </trkpt>
      <trkpt lat="47.02259" lon="-1.6867">
        <ele>89</ele>
        <time>2021-08-09T16:59:13.000Z</time>
      </trkpt>
      <trkpt lat="47.02267" lon="-1.68657">
        <ele>90</ele>
        <time>2021-08-09T16:59:15.000Z</time>
      </trkpt>
      <trkpt lat="47.02274" lon="-1.68644">
        <ele>91</ele>
        <time>2021-08-09T16:59:17.000Z</time>
      </trkpt>
      <trkpt lat="47.02282" lon="-1.6863">
        <ele>91</ele>
        <time>2021-08-09T16:59:19.000Z</time>
      </trkpt>
      <trkpt lat="47.02289" lon="-1.68617">
        <ele>92</ele>
        <time>2021-08-09T16:59:21.000Z</time>
      </trkpt>
      <trkpt lat="47.02296" lon="-1.68603">
        <ele>92</ele>
        <time>2021-08-09T16:59:23.000Z</time>
      </trkpt>
      <trkpt lat="47.02303" lon="-1.6859">
        <ele>93</ele>
        <time>2021-08-09T16:59:25.000Z</time>
      </trkpt>
      <trkpt lat="47.0231" lon="-1.68577">
        <ele>93</ele>
        <time>2021-08-09T16:59:27.000Z</time>
      </trkpt>
      <trkpt lat="47.02317" lon="-1.68563">
        <ele>94</ele>
        <time>2021-08-09T16:59:29.000Z</time>
      </trkpt>
      <trkpt lat="47.02324" lon="-1.68551">
        <ele>94</ele>
        <time>2021-08-09T16:59:31.000Z</time>
      </trkpt>
      <trkpt lat="47.02332" lon="-1.68538">
        <ele>94</ele>
        <time>2021-08-09T16:59:33.000Z</time>
      </trkpt>
      <trkpt lat="47.02339" lon="-1.68525">
        <ele>95</ele>
        <time>2021-08-09T16:59:35.000Z</time>
      </trkpt>
      <trkpt lat="47.02346" lon="-1.68512">
        <ele>95</ele>
        <time>2021-08-09T16:59:37.000Z</time>
      </trkpt>
      <trkpt lat="47.02352" lon="-1.685">
        <ele>96</ele>
        <time>2021-08-09T16:59:39.000Z</time>
      </trkpt>
      <trkpt lat="47.02359" lon="-1.68487">
        <ele>96</ele>
        <time>2021-08-09T16:59:41.000Z</time>
      </trkpt>
      <trkpt lat="47.02365" lon="-1.68473">
        <ele>96</ele>
        <time>2021-08-09T16:59:43.000Z</time>
      </trkpt>
      <trkpt lat="47.02371" lon="-1.6846">
        <ele>96</ele>
        <time>2021-08-09T16:59:45.000Z</time>
      </trkpt>
      <trkpt lat="47.02377" lon="-1.68446">
        <ele>97</ele>
        <time>2021-08-09T16:59:47.000Z</time>
      </trkpt>
      <trkpt lat="47.02382" lon="-1.68432">
        <ele>97</ele>
        <time>2021-08-09T16:59:49.000Z</time>
      </trkpt>
      <trkpt lat="47.02388" lon="-1.68416">
        <ele>97</ele>
        <time>2021-08-09T16:59:51.000Z</time>
      </trkpt>
      <trkpt lat="47.02393" lon="-1.684">
        <ele>97</ele>
        <time>2021-08-09T16:59:53.000Z</time>
      </trkpt>
      <trkpt lat="47.02399" lon="-1.68384">
        <ele>97</ele>
        <time>2021-08-09T16:59:55.000Z</time>
      </trkpt>
      <trkpt lat="47.02405" lon="-1.68367">
        <ele>97</ele>
        <time>2021-08-09T16:59:57.000Z</time>
      </trkpt>
      <trkpt lat="47.02412" lon="-1.68349">
        <ele>97</ele>
        <time>2021-08-09T16:59:59.000Z</time>
      </trkpt>
      <trkpt lat="47.02419" lon="-1.68331">
        <ele>96</ele>
        <time>2021-08-09T17:00:01.000Z</time>
      </trkpt>
      <trkpt lat="47.02425" lon="-1.68313">
        <ele>96</ele>
        <time>2021-08-09T17:00:03.000Z</time>
      </trkpt>
      <trkpt lat="47.02432" lon="-1.68295">
        <ele>96</ele>
        <time>2021-08-09T17:00:05.000Z</time>
      </trkpt>
      <trkpt lat="47.02439" lon="-1.68277">
        <ele>96</ele>
        <time>2021-08-09T17:00:07.000Z</time>
      </trkpt>
      <trkpt lat="47.02445" lon="-1.68259">
        <ele>96</ele>
        <time>2021-08-09T17:00:09.000Z</time>
      </trkpt>
      <trkpt lat="47.02452" lon="-1.6824">
        <ele>96</ele>
        <time>2021-08-09T17:00:11.000Z</time>
      </trkpt>
      <trkpt lat="47.02459" lon="-1.68221">
        <ele>95</ele>
        <time>2021-08-09T17:00:13.000Z</time>
      </trkpt>
      <trkpt lat="47.02466" lon="-1.68202">
        <ele>95</ele>
        <time>2021-08-09T17:00:15.000Z</time>
      </trkpt>
      <trkpt lat="47.02473" lon="-1.68183">
        <ele>95</ele>
        <time>2021-08-09T17:00:17.000Z</time>
      </trkpt>
      <trkpt lat="47.02481" lon="-1.68163">
        <ele>95</ele>
        <time>2021-08-09T17:00:19.000Z</time>
      </trkpt>
      <trkpt lat="47.02488" lon="-1.68143">
        <ele>95</ele>
        <time>2021-08-09T17:00:21.000Z</time>
      </trkpt>
      <trkpt lat="47.02496" lon="-1.68123">
        <ele>95</ele>
        <time>2021-08-09T17:00:23.000Z</time>
      </trkpt>
      <trkpt lat="47.02504" lon="-1.68102">
        <ele>95</ele>
        <time>2021-08-09T17:00:25.000Z</time>
      </trkpt>
      <trkpt lat="47.02511" lon="-1.68081">
        <ele>95</ele>
        <time>2021-08-09T17:00:27.000Z</time>
      </trkpt>
      <trkpt lat="47.02518" lon="-1.6806">
        <ele>95</ele>
        <time>2021-08-09T17:00:29.000Z</time>
      </trkpt>
      <trkpt lat="47.02526" lon="-1.68039">
        <ele>95</ele>
        <time>2021-08-09T17:00:31.000Z</time>
      </trkpt>
      <trkpt lat="47.02534" lon="-1.68018">
        <ele>95</ele>
        <time>2021-08-09T17:00:33.000Z</time>
      </trkpt>
      <trkpt lat="47.02541" lon="-1.67998">
        <ele>95</ele>
        <time>2021-08-09T17:00:35.000Z</time>
      </trkpt>
      <trkpt lat="47.02549" lon="-1.67978">
        <ele>95</ele>
        <time>2021-08-09T17:00:37.000Z</time>
      </trkpt>
      <trkpt lat="47.02556" lon="-1.67957">
        <ele>95</ele>
        <time>2021-08-09T17:00:39.000Z</time>
      </trkpt>
      <trkpt lat="47.02564" lon="-1.67936">
        <ele>95</ele>
        <time>2021-08-09T17:00:41.000Z</time>
      </trkpt>
      <trkpt lat="47.02572" lon="-1.67916">
        <ele>95</ele>
        <time>2021-08-09T17:00:43.000Z</time>
      </trkpt>
      <trkpt lat="47.02579" lon="-1.67896">
        <ele>95</ele>
        <time>2021-08-09T17:00:45.000Z</time>
      </trkpt>
      <trkpt lat="47.02586" lon="-1.67875">
        <ele>95</ele>
        <time>2021-08-09T17:00:47.000Z</time>
      </trkpt>
      <trkpt lat="47.02594" lon="-1.67855">
        <ele>95</ele>
        <time>2021-08-09T17:00:49.000Z</time>
      </trkpt>
      <trkpt lat="47.02602" lon="-1.67835">
        <ele>95</ele>
        <time>2021-08-09T17:00:51.000Z</time>
      </trkpt>
      <trkpt lat="47.02609" lon="-1.67814">
        <ele>95</ele>
        <time>2021-08-09T17:00:53.000Z</time>
      </trkpt>
      <trkpt lat="47.02617" lon="-1.67794">
        <ele>95</ele>
        <time>2021-08-09T17:00:55.000Z</time>
      </trkpt>
      <trkpt lat="47.02624" lon="-1.67774">
        <ele>95</ele>
        <time>2021-08-09T17:00:57.000Z</time>
      </trkpt>
      <trkpt lat="47.02631" lon="-1.67754">
        <ele>95</ele>
        <time>2021-08-09T17:00:59.000Z</time>
      </trkpt>
      <trkpt lat="47.02639" lon="-1.67734">
        <ele>95</ele>
        <time>2021-08-09T17:01:01.000Z</time>
      </trkpt>
      <trkpt lat="47.02646" lon="-1.67714">
        <ele>95</ele>
        <time>2021-08-09T17:01:03.000Z</time>
      </trkpt>
      <trkpt lat="47.02654" lon="-1.67694">
        <ele>95</ele>
        <time>2021-08-09T17:01:05.000Z</time>
      </trkpt>
      <trkpt lat="47.02661" lon="-1.67674">
        <ele>95</ele>
        <time>2021-08-09T17:01:07.000Z</time>
      </trkpt>
      <trkpt lat="47.02669" lon="-1.67654">
        <ele>94</ele>
        <time>2021-08-09T17:01:09.000Z</time>
      </trkpt>
      <trkpt lat="47.02676" lon="-1.67635">
        <ele>94</ele>
        <time>2021-08-09T17:01:11.000Z</time>
      </trkpt>
      <trkpt lat="47.02683" lon="-1.67615">
        <ele>95</ele>
        <time>2021-08-09T17:01:13.000Z</time>
      </trkpt>
      <trkpt lat="47.0269" lon="-1.67595">
        <ele>94</ele>
        <time>2021-08-09T17:01:15.000Z</time>
      </trkpt>
      <trkpt lat="47.02698" lon="-1.67575">
        <ele>94</ele>
        <time>2021-08-09T17:01:17.000Z</time>
      </trkpt>
      <trkpt lat="47.02705" lon="-1.67555">
        <ele>94</ele>
        <time>2021-08-09T17:01:19.000Z</time>
      </trkpt>
      <trkpt lat="47.02713" lon="-1.67534">
        <ele>93</ele>
        <time>2021-08-09T17:01:21.000Z</time>
      </trkpt>
      <trkpt lat="47.02721" lon="-1.67513">
        <ele>93</ele>
        <time>2021-08-09T17:01:23.000Z</time>
      </trkpt>
      <trkpt lat="47.02728" lon="-1.67492">
        <ele>93</ele>
        <time>2021-08-09T17:01:25.000Z</time>
      </trkpt>
      <trkpt lat="47.02736" lon="-1.67471">
        <ele>93</ele>
        <time>2021-08-09T17:01:27.000Z</time>
      </trkpt>
      <trkpt lat="47.02744" lon="-1.6745">
        <ele>93</ele>
        <time>2021-08-09T17:01:29.000Z</time>
      </trkpt>
      <trkpt lat="47.02752" lon="-1.67428">
        <ele>92</ele>
        <time>2021-08-09T17:01:31.000Z</time>
      </trkpt>
      <trkpt lat="47.0276" lon="-1.67406">
        <ele>92</ele>
        <time>2021-08-09T17:01:33.000Z</time>
      </trkpt>
      <trkpt lat="47.02767" lon="-1.67384">
        <ele>92</ele>
        <time>2021-08-09T17:01:35.000Z</time>
      </trkpt>
      <trkpt lat="47.02775" lon="-1.67362">
        <ele>91</ele>
        <time>2021-08-09T17:01:37.000Z</time>
      </trkpt>
      <trkpt lat="47.02784" lon="-1.6734">
        <ele>91</ele>
        <time>2021-08-09T17:01:39.000Z</time>
      </trkpt>
      <trkpt lat="47.02788" lon="-1.67328">
        <ele>91</ele>
        <time>2021-08-09T17:01:40.000Z</time>
      </trkpt>
      <trkpt lat="47.02792" lon="-1.67317">
        <ele>91</ele>
        <time>2021-08-09T17:01:41.000Z</time>
      </trkpt>
      <trkpt lat="47.02801" lon="-1.67293">
        <ele>91</ele>
        <time>2021-08-09T17:01:43.000Z</time>
      </trkpt>
      <trkpt lat="47.02806" lon="-1.67281">
        <ele>90</ele>
        <time>2021-08-09T17:01:44.000Z</time>
      </trkpt>
      <trkpt lat="47.0281" lon="-1.67269">
        <ele>90</ele>
        <time>2021-08-09T17:01:45.000Z</time>
      </trkpt>
      <trkpt lat="47.02814" lon="-1.67257">
        <ele>90</ele>
        <time>2021-08-09T17:01:46.000Z</time>
      </trkpt>
      <trkpt lat="47.02819" lon="-1.67245">
        <ele>89</ele>
        <time>2021-08-09T17:01:47.000Z</time>
      </trkpt>
      <trkpt lat="47.02823" lon="-1.67233">
        <ele>89</ele>
        <time>2021-08-09T17:01:48.000Z</time>
      </trkpt>
      <trkpt lat="47.02828" lon="-1.67221">
        <ele>89</ele>
        <time>2021-08-09T17:01:49.000Z</time>
      </trkpt>
      <trkpt lat="47.02832" lon="-1.67209">
        <ele>89</ele>
        <time>2021-08-09T17:01:50.000Z</time>
      </trkpt>
      <trkpt lat="47.02837" lon="-1.67197">
        <ele>89</ele>
        <time>2021-08-09T17:01:51.000Z</time>
      </trkpt>
      <trkpt lat="47.02841" lon="-1.67185">
        <ele>89</ele>
        <time>2021-08-09T17:01:52.000Z</time>
      </trkpt>
      <trkpt lat="47.02846" lon="-1.67173">
        <ele>88</ele>
        <time>2021-08-09T17:01:53.000Z</time>
      </trkpt>
      <trkpt lat="47.0285" lon="-1.67161">
        <ele>88</ele>
        <time>2021-08-09T17:01:54.000Z</time>
      </trkpt>
      <trkpt lat="47.02855" lon="-1.67149">
        <ele>89</ele>
        <time>2021-08-09T17:01:55.000Z</time>
      </trkpt>
      <trkpt lat="47.02859" lon="-1.67137">
        <ele>89</ele>
        <time>2021-08-09T17:01:56.000Z</time>
      </trkpt>
      <trkpt lat="47.02863" lon="-1.67125">
        <ele>89</ele>
        <time>2021-08-09T17:01:57.000Z</time>
      </trkpt>
      <trkpt lat="47.02868" lon="-1.67114">
        <ele>89</ele>
        <time>2021-08-09T17:01:58.000Z</time>
      </trkpt>
      <trkpt lat="47.02872" lon="-1.67102">
        <ele>89</ele>
        <time>2021-08-09T17:01:59.000Z</time>
      </trkpt>
      <trkpt lat="47.02877" lon="-1.67091">
        <ele>89</ele>
        <time>2021-08-09T17:02:00.000Z</time>
      </trkpt>
      <trkpt lat="47.02885" lon="-1.67068">
        <ele>89</ele>
        <time>2021-08-09T17:02:02.000Z</time>
      </trkpt>
      <trkpt lat="47.02893" lon="-1.67046">
        <ele>89</ele>
        <time>2021-08-09T17:02:04.000Z</time>
      </trkpt>
      <trkpt lat="47.02901" lon="-1.67024">
        <ele>89</ele>
        <time>2021-08-09T17:02:06.000Z</time>
      </trkpt>
      <trkpt lat="47.02909" lon="-1.67003">
        <ele>89</ele>
        <time>2021-08-09T17:02:08.000Z</time>
      </trkpt>
      <trkpt lat="47.02917" lon="-1.66981">
        <ele>89</ele>
        <time>2021-08-09T17:02:10.000Z</time>
      </trkpt>
      <trkpt lat="47.02925" lon="-1.6696">
        <ele>89</ele>
        <time>2021-08-09T17:02:12.000Z</time>
      </trkpt>
      <trkpt lat="47.02933" lon="-1.66938">
        <ele>89</ele>
        <time>2021-08-09T17:02:14.000Z</time>
      </trkpt>
      <trkpt lat="47.02941" lon="-1.66917">
        <ele>89</ele>
        <time>2021-08-09T17:02:16.000Z</time>
      </trkpt>
      <trkpt lat="47.02949" lon="-1.66895">
        <ele>88</ele>
        <time>2021-08-09T17:02:18.000Z</time>
      </trkpt>
      <trkpt lat="47.02957" lon="-1.66874">
        <ele>88</ele>
        <time>2021-08-09T17:02:20.000Z</time>
      </trkpt>
      <trkpt lat="47.02964" lon="-1.66853">
        <ele>88</ele>
        <time>2021-08-09T17:02:22.000Z</time>
      </trkpt>
      <trkpt lat="47.02972" lon="-1.66832">
        <ele>88</ele>
        <time>2021-08-09T17:02:24.000Z</time>
      </trkpt>
      <trkpt lat="47.02979" lon="-1.66812">
        <ele>88</ele>
        <time>2021-08-09T17:02:26.000Z</time>
      </trkpt>
      <trkpt lat="47.02986" lon="-1.66793">
        <ele>87</ele>
        <time>2021-08-09T17:02:28.000Z</time>
      </trkpt>
      <trkpt lat="47.02993" lon="-1.66773">
        <ele>88</ele>
        <time>2021-08-09T17:02:30.000Z</time>
      </trkpt>
      <trkpt lat="47.03" lon="-1.66754">
        <ele>87</ele>
        <time>2021-08-09T17:02:32.000Z</time>
      </trkpt>
      <trkpt lat="47.03007" lon="-1.66736">
        <ele>88</ele>
        <time>2021-08-09T17:02:34.000Z</time>
      </trkpt>
      <trkpt lat="47.03014" lon="-1.66717">
        <ele>88</ele>
        <time>2021-08-09T17:02:36.000Z</time>
      </trkpt>
      <trkpt lat="47.03021" lon="-1.66697">
        <ele>87</ele>
        <time>2021-08-09T17:02:38.000Z</time>
      </trkpt>
      <trkpt lat="47.03028" lon="-1.66677">
        <ele>87</ele>
        <time>2021-08-09T17:02:40.000Z</time>
      </trkpt>
      <trkpt lat="47.03037" lon="-1.66655">
        <ele>86</ele>
        <time>2021-08-09T17:02:42.000Z</time>
      </trkpt>
      <trkpt lat="47.03045" lon="-1.66632">
        <ele>85</ele>
        <time>2021-08-09T17:02:44.000Z</time>
      </trkpt>
      <trkpt lat="47.03053" lon="-1.6661">
        <ele>84</ele>
        <time>2021-08-09T17:02:46.000Z</time>
      </trkpt>
      <trkpt lat="47.03057" lon="-1.66598">
        <ele>84</ele>
        <time>2021-08-09T17:02:47.000Z</time>
      </trkpt>
      <trkpt lat="47.03062" lon="-1.66586">
        <ele>83</ele>
        <time>2021-08-09T17:02:48.000Z</time>
      </trkpt>
      <trkpt lat="47.03066" lon="-1.66574">
        <ele>83</ele>
        <time>2021-08-09T17:02:49.000Z</time>
      </trkpt>
      <trkpt lat="47.03071" lon="-1.66562">
        <ele>82</ele>
        <time>2021-08-09T17:02:50.000Z</time>
      </trkpt>
      <trkpt lat="47.03075" lon="-1.6655">
        <ele>82</ele>
        <time>2021-08-09T17:02:51.000Z</time>
      </trkpt>
      <trkpt lat="47.03079" lon="-1.66537">
        <ele>81</ele>
        <time>2021-08-09T17:02:52.000Z</time>
      </trkpt>
      <trkpt lat="47.03084" lon="-1.66525">
        <ele>81</ele>
        <time>2021-08-09T17:02:53.000Z</time>
      </trkpt>
      <trkpt lat="47.03089" lon="-1.66512">
        <ele>80</ele>
        <time>2021-08-09T17:02:54.000Z</time>
      </trkpt>
      <trkpt lat="47.03094" lon="-1.665">
        <ele>80</ele>
        <time>2021-08-09T17:02:55.000Z</time>
      </trkpt>
      <trkpt lat="47.03099" lon="-1.66488">
        <ele>80</ele>
        <time>2021-08-09T17:02:56.000Z</time>
      </trkpt>
      <trkpt lat="47.03105" lon="-1.66477">
        <ele>79</ele>
        <time>2021-08-09T17:02:57.000Z</time>
      </trkpt>
      <trkpt lat="47.03112" lon="-1.66466">
        <ele>79</ele>
        <time>2021-08-09T17:02:58.000Z</time>
      </trkpt>
      <trkpt lat="47.03119" lon="-1.66456">
        <ele>78</ele>
        <time>2021-08-09T17:02:59.000Z</time>
      </trkpt>
      <trkpt lat="47.03126" lon="-1.66446">
        <ele>78</ele>
        <time>2021-08-09T17:03:00.000Z</time>
      </trkpt>
      <trkpt lat="47.03134" lon="-1.66436">
        <ele>78</ele>
        <time>2021-08-09T17:03:01.000Z</time>
      </trkpt>
      <trkpt lat="47.03141" lon="-1.66425">
        <ele>77</ele>
        <time>2021-08-09T17:03:02.000Z</time>
      </trkpt>
      <trkpt lat="47.03148" lon="-1.66415">
        <ele>77</ele>
        <time>2021-08-09T17:03:03.000Z</time>
      </trkpt>
      <trkpt lat="47.03155" lon="-1.66404">
        <ele>76</ele>
        <time>2021-08-09T17:03:04.000Z</time>
      </trkpt>
      <trkpt lat="47.03162" lon="-1.66392">
        <ele>76</ele>
        <time>2021-08-09T17:03:05.000Z</time>
      </trkpt>
      <trkpt lat="47.03169" lon="-1.66381">
        <ele>75</ele>
        <time>2021-08-09T17:03:06.000Z</time>
      </trkpt>
      <trkpt lat="47.03175" lon="-1.66369">
        <ele>75</ele>
        <time>2021-08-09T17:03:07.000Z</time>
      </trkpt>
      <trkpt lat="47.03182" lon="-1.66357">
        <ele>74</ele>
        <time>2021-08-09T17:03:08.000Z</time>
      </trkpt>
      <trkpt lat="47.03188" lon="-1.66345">
        <ele>74</ele>
        <time>2021-08-09T17:03:09.000Z</time>
      </trkpt>
      <trkpt lat="47.03194" lon="-1.66333">
        <ele>73</ele>
        <time>2021-08-09T17:03:10.000Z</time>
      </trkpt>
      <trkpt lat="47.03199" lon="-1.6632">
        <ele>72</ele>
        <time>2021-08-09T17:03:11.000Z</time>
      </trkpt>
      <trkpt lat="47.03205" lon="-1.66307">
        <ele>72</ele>
        <time>2021-08-09T17:03:12.000Z</time>
      </trkpt>
      <trkpt lat="47.0321" lon="-1.66295">
        <ele>71</ele>
        <time>2021-08-09T17:03:13.000Z</time>
      </trkpt>
      <trkpt lat="47.03215" lon="-1.66282">
        <ele>71</ele>
        <time>2021-08-09T17:03:14.000Z</time>
      </trkpt>
      <trkpt lat="47.03221" lon="-1.66269">
        <ele>71</ele>
        <time>2021-08-09T17:03:15.000Z</time>
      </trkpt>
      <trkpt lat="47.03226" lon="-1.66256">
        <ele>70</ele>
        <time>2021-08-09T17:03:16.000Z</time>
      </trkpt>
      <trkpt lat="47.03231" lon="-1.66244">
        <ele>70</ele>
        <time>2021-08-09T17:03:17.000Z</time>
      </trkpt>
      <trkpt lat="47.03236" lon="-1.66231">
        <ele>70</ele>
        <time>2021-08-09T17:03:18.000Z</time>
      </trkpt>
      <trkpt lat="47.03241" lon="-1.66218">
        <ele>70</ele>
        <time>2021-08-09T17:03:19.000Z</time>
      </trkpt>
      <trkpt lat="47.03246" lon="-1.66205">
        <ele>69</ele>
        <time>2021-08-09T17:03:20.000Z</time>
      </trkpt>
      <trkpt lat="47.03251" lon="-1.66193">
        <ele>69</ele>
        <time>2021-08-09T17:03:21.000Z</time>
      </trkpt>
      <trkpt lat="47.03256" lon="-1.6618">
        <ele>69</ele>
        <time>2021-08-09T17:03:22.000Z</time>
      </trkpt>
      <trkpt lat="47.03261" lon="-1.66168">
        <ele>69</ele>
        <time>2021-08-09T17:03:23.000Z</time>
      </trkpt>
      <trkpt lat="47.03266" lon="-1.66155">
        <ele>69</ele>
        <time>2021-08-09T17:03:24.000Z</time>
      </trkpt>
      <trkpt lat="47.03271" lon="-1.66143">
        <ele>69</ele>
        <time>2021-08-09T17:03:25.000Z</time>
      </trkpt>
      <trkpt lat="47.03277" lon="-1.66132">
        <ele>68</ele>
        <time>2021-08-09T17:03:26.000Z</time>
      </trkpt>
      <trkpt lat="47.03283" lon="-1.66122">
        <ele>68</ele>
        <time>2021-08-09T17:03:27.000Z</time>
      </trkpt>
      <trkpt lat="47.03291" lon="-1.66115">
        <ele>68</ele>
        <time>2021-08-09T17:03:28.000Z</time>
      </trkpt>
      <trkpt lat="47.033" lon="-1.66108">
        <ele>68</ele>
        <time>2021-08-09T17:03:29.000Z</time>
      </trkpt>
      <trkpt lat="47.03309" lon="-1.66105">
        <ele>68</ele>
        <time>2021-08-09T17:03:30.000Z</time>
      </trkpt>
      <trkpt lat="47.03327" lon="-1.66104">
        <ele>68</ele>
        <time>2021-08-09T17:03:32.000Z</time>
      </trkpt>
      <trkpt lat="47.03343" lon="-1.6611">
        <ele>68</ele>
        <time>2021-08-09T17:03:34.000Z</time>
      </trkpt>
      <trkpt lat="47.03359" lon="-1.66121">
        <ele>68</ele>
        <time>2021-08-09T17:03:36.000Z</time>
      </trkpt>
      <trkpt lat="47.03374" lon="-1.66123">
        <ele>66</ele>
        <time>2021-08-09T17:03:38.000Z</time>
      </trkpt>
      <trkpt lat="47.03386" lon="-1.66109">
        <ele>65</ele>
        <time>2021-08-09T17:03:40.000Z</time>
      </trkpt>
      <trkpt lat="47.03387" lon="-1.66089">
        <ele>65</ele>
        <time>2021-08-09T17:03:42.000Z</time>
      </trkpt>
      <trkpt lat="47.03383" lon="-1.66068">
        <ele>66</ele>
        <time>2021-08-09T17:03:44.000Z</time>
      </trkpt>
      <trkpt lat="47.03385" lon="-1.66048">
        <ele>67</ele>
        <time>2021-08-09T17:03:46.000Z</time>
      </trkpt>
      <trkpt lat="47.03393" lon="-1.6603">
        <ele>68</ele>
        <time>2021-08-09T17:03:48.000Z</time>
      </trkpt>
      <trkpt lat="47.03399" lon="-1.6601">
        <ele>68</ele>
        <time>2021-08-09T17:03:50.000Z</time>
      </trkpt>
      <trkpt lat="47.03398" lon="-1.65987">
        <ele>68</ele>
        <time>2021-08-09T17:03:52.000Z</time>
      </trkpt>
      <trkpt lat="47.03397" lon="-1.65963">
        <ele>69</ele>
        <time>2021-08-09T17:03:54.000Z</time>
      </trkpt>
      <trkpt lat="47.03396" lon="-1.65942">
        <ele>70</ele>
        <time>2021-08-09T17:03:56.000Z</time>
      </trkpt>
      <trkpt lat="47.03394" lon="-1.6592">
        <ele>70</ele>
        <time>2021-08-09T17:03:58.000Z</time>
      </trkpt>
      <trkpt lat="47.0339" lon="-1.659">
        <ele>70</ele>
        <time>2021-08-09T17:04:00.000Z</time>
      </trkpt>
      <trkpt lat="47.03384" lon="-1.65881">
        <ele>71</ele>
        <time>2021-08-09T17:04:02.000Z</time>
      </trkpt>
      <trkpt lat="47.03378" lon="-1.65864">
        <ele>72</ele>
        <time>2021-08-09T17:04:04.000Z</time>
      </trkpt>
      <trkpt lat="47.0337" lon="-1.65848">
        <ele>72</ele>
        <time>2021-08-09T17:04:06.000Z</time>
      </trkpt>
      <trkpt lat="47.03363" lon="-1.65832">
        <ele>73</ele>
        <time>2021-08-09T17:04:08.000Z</time>
      </trkpt>
      <trkpt lat="47.03356" lon="-1.65817">
        <ele>73</ele>
        <time>2021-08-09T17:04:10.000Z</time>
      </trkpt>
      <trkpt lat="47.03349" lon="-1.65802">
        <ele>73</ele>
        <time>2021-08-09T17:04:12.000Z</time>
      </trkpt>
      <trkpt lat="47.03341" lon="-1.65786">
        <ele>73</ele>
        <time>2021-08-09T17:04:14.000Z</time>
      </trkpt>
      <trkpt lat="47.03334" lon="-1.65771">
        <ele>73</ele>
        <time>2021-08-09T17:04:16.000Z</time>
      </trkpt>
      <trkpt lat="47.03326" lon="-1.65754">
        <ele>72</ele>
        <time>2021-08-09T17:04:18.000Z</time>
      </trkpt>
      <trkpt lat="47.03319" lon="-1.65736">
        <ele>72</ele>
        <time>2021-08-09T17:04:20.000Z</time>
      </trkpt>
      <trkpt lat="47.03314" lon="-1.65716">
        <ele>72</ele>
        <time>2021-08-09T17:04:22.000Z</time>
      </trkpt>
      <trkpt lat="47.0331" lon="-1.65696">
        <ele>72</ele>
        <time>2021-08-09T17:04:24.000Z</time>
      </trkpt>
      <trkpt lat="47.03309" lon="-1.65674">
        <ele>72</ele>
        <time>2021-08-09T17:04:26.000Z</time>
      </trkpt>
      <trkpt lat="47.03309" lon="-1.65652">
        <ele>72</ele>
        <time>2021-08-09T17:04:28.000Z</time>
      </trkpt>
      <trkpt lat="47.0331" lon="-1.65629">
        <ele>71</ele>
        <time>2021-08-09T17:04:30.000Z</time>
      </trkpt>
      <trkpt lat="47.03308" lon="-1.65606">
        <ele>71</ele>
        <time>2021-08-09T17:04:32.000Z</time>
      </trkpt>
      <trkpt lat="47.03303" lon="-1.65585">
        <ele>71</ele>
        <time>2021-08-09T17:04:34.000Z</time>
      </trkpt>
      <trkpt lat="47.03304" lon="-1.65562">
        <ele>71</ele>
        <time>2021-08-09T17:04:36.000Z</time>
      </trkpt>
      <trkpt lat="47.03306" lon="-1.65539">
        <ele>70</ele>
        <time>2021-08-09T17:04:38.000Z</time>
      </trkpt>
      <trkpt lat="47.03304" lon="-1.65517">
        <ele>69</ele>
        <time>2021-08-09T17:04:40.000Z</time>
      </trkpt>
      <trkpt lat="47.03299" lon="-1.65495">
        <ele>68</ele>
        <time>2021-08-09T17:04:42.000Z</time>
      </trkpt>
      <trkpt lat="47.03294" lon="-1.65473">
        <ele>68</ele>
        <time>2021-08-09T17:04:44.000Z</time>
      </trkpt>
      <trkpt lat="47.03289" lon="-1.6545">
        <ele>67</ele>
        <time>2021-08-09T17:04:46.000Z</time>
      </trkpt>
      <trkpt lat="47.03283" lon="-1.65427">
        <ele>67</ele>
        <time>2021-08-09T17:04:48.000Z</time>
      </trkpt>
      <trkpt lat="47.03278" lon="-1.65404">
        <ele>67</ele>
        <time>2021-08-09T17:04:50.000Z</time>
      </trkpt>
      <trkpt lat="47.03273" lon="-1.6538">
        <ele>66</ele>
        <time>2021-08-09T17:04:52.000Z</time>
      </trkpt>
      <trkpt lat="47.03267" lon="-1.65356">
        <ele>65</ele>
        <time>2021-08-09T17:04:54.000Z</time>
      </trkpt>
      <trkpt lat="47.03261" lon="-1.65332">
        <ele>65</ele>
        <time>2021-08-09T17:04:56.000Z</time>
      </trkpt>
      <trkpt lat="47.03255" lon="-1.65307">
        <ele>64</ele>
        <time>2021-08-09T17:04:58.000Z</time>
      </trkpt>
      <trkpt lat="47.03252" lon="-1.65295">
        <ele>64</ele>
        <time>2021-08-09T17:04:59.000Z</time>
      </trkpt>
      <trkpt lat="47.03246" lon="-1.6527">
        <ele>64</ele>
        <time>2021-08-09T17:05:01.000Z</time>
      </trkpt>
      <trkpt lat="47.0324" lon="-1.65247">
        <ele>63</ele>
        <time>2021-08-09T17:05:03.000Z</time>
      </trkpt>
      <trkpt lat="47.03233" lon="-1.65224">
        <ele>63</ele>
        <time>2021-08-09T17:05:05.000Z</time>
      </trkpt>
      <trkpt lat="47.03226" lon="-1.65202">
        <ele>63</ele>
        <time>2021-08-09T17:05:07.000Z</time>
      </trkpt>
      <trkpt lat="47.03218" lon="-1.65182">
        <ele>63</ele>
        <time>2021-08-09T17:05:09.000Z</time>
      </trkpt>
      <trkpt lat="47.03211" lon="-1.65162">
        <ele>64</ele>
        <time>2021-08-09T17:05:11.000Z</time>
      </trkpt>
      <trkpt lat="47.03203" lon="-1.65143">
        <ele>64</ele>
        <time>2021-08-09T17:05:13.000Z</time>
      </trkpt>
      <trkpt lat="47.03195" lon="-1.65125">
        <ele>64</ele>
        <time>2021-08-09T17:05:15.000Z</time>
      </trkpt>
      <trkpt lat="47.03188" lon="-1.65106">
        <ele>64</ele>
        <time>2021-08-09T17:05:17.000Z</time>
      </trkpt>
      <trkpt lat="47.03179" lon="-1.65088">
        <ele>64</ele>
        <time>2021-08-09T17:05:19.000Z</time>
      </trkpt>
      <trkpt lat="47.03171" lon="-1.6507">
        <ele>64</ele>
        <time>2021-08-09T17:05:21.000Z</time>
      </trkpt>
      <trkpt lat="47.03161" lon="-1.65053">
        <ele>64</ele>
        <time>2021-08-09T17:05:23.000Z</time>
      </trkpt>
      <trkpt lat="47.03152" lon="-1.65036">
        <ele>64</ele>
        <time>2021-08-09T17:05:25.000Z</time>
      </trkpt>
      <trkpt lat="47.03142" lon="-1.6502">
        <ele>64</ele>
        <time>2021-08-09T17:05:27.000Z</time>
      </trkpt>
      <trkpt lat="47.03133" lon="-1.65004">
        <ele>65</ele>
        <time>2021-08-09T17:05:29.000Z</time>
      </trkpt>
      <trkpt lat="47.03124" lon="-1.64988">
        <ele>65</ele>
        <time>2021-08-09T17:05:31.000Z</time>
      </trkpt>
      <trkpt lat="47.03114" lon="-1.64972">
        <ele>65</ele>
        <time>2021-08-09T17:05:33.000Z</time>
      </trkpt>
      <trkpt lat="47.03104" lon="-1.64956">
        <ele>65</ele>
        <time>2021-08-09T17:05:35.000Z</time>
      </trkpt>
      <trkpt lat="47.03095" lon="-1.64941">
        <ele>65</ele>
        <time>2021-08-09T17:05:37.000Z</time>
      </trkpt>
      <trkpt lat="47.03086" lon="-1.64925">
        <ele>65</ele>
        <time>2021-08-09T17:05:39.000Z</time>
      </trkpt>
      <trkpt lat="47.03077" lon="-1.6491">
        <ele>65</ele>
        <time>2021-08-09T17:05:41.000Z</time>
      </trkpt>
      <trkpt lat="47.03067" lon="-1.64894">
        <ele>65</ele>
        <time>2021-08-09T17:05:43.000Z</time>
      </trkpt>
      <trkpt lat="47.03058" lon="-1.64879">
        <ele>65</ele>
        <time>2021-08-09T17:05:45.000Z</time>
      </trkpt>
      <trkpt lat="47.03049" lon="-1.64864">
        <ele>65</ele>
        <time>2021-08-09T17:05:47.000Z</time>
      </trkpt>
      <trkpt lat="47.0304" lon="-1.64848">
        <ele>66</ele>
        <time>2021-08-09T17:05:49.000Z</time>
      </trkpt>
      <trkpt lat="47.03031" lon="-1.64833">
        <ele>66</ele>
        <time>2021-08-09T17:05:51.000Z</time>
      </trkpt>
      <trkpt lat="47.03022" lon="-1.64819">
        <ele>66</ele>
        <time>2021-08-09T17:05:53.000Z</time>
      </trkpt>
      <trkpt lat="47.03012" lon="-1.64808">
        <ele>66</ele>
        <time>2021-08-09T17:05:55.000Z</time>
      </trkpt>
      <trkpt lat="47.03" lon="-1.648">
        <ele>66</ele>
        <time>2021-08-09T17:05:57.000Z</time>
      </trkpt>
      <trkpt lat="47.02989" lon="-1.6479">
        <ele>66</ele>
        <time>2021-08-09T17:05:59.000Z</time>
      </trkpt>
      <trkpt lat="47.02983" lon="-1.64774">
        <ele>66</ele>
        <time>2021-08-09T17:06:01.000Z</time>
      </trkpt>
      <trkpt lat="47.02978" lon="-1.64755">
        <ele>66</ele>
        <time>2021-08-09T17:06:03.000Z</time>
      </trkpt>
      <trkpt lat="47.02971" lon="-1.64738">
        <ele>66</ele>
        <time>2021-08-09T17:06:05.000Z</time>
      </trkpt>
      <trkpt lat="47.02961" lon="-1.64724">
        <ele>67</ele>
        <time>2021-08-09T17:06:07.000Z</time>
      </trkpt>
      <trkpt lat="47.02952" lon="-1.64709">
        <ele>67</ele>
        <time>2021-08-09T17:06:09.000Z</time>
      </trkpt>
      <trkpt lat="47.02943" lon="-1.64695">
        <ele>67</ele>
        <time>2021-08-09T17:06:11.000Z</time>
      </trkpt>
      <trkpt lat="47.02933" lon="-1.64681">
        <ele>67</ele>
        <time>2021-08-09T17:06:13.000Z</time>
      </trkpt>
      <trkpt lat="47.02924" lon="-1.64667">
        <ele>67</ele>
        <time>2021-08-09T17:06:15.000Z</time>
      </trkpt>
      <trkpt lat="47.02915" lon="-1.64653">
        <ele>68</ele>
        <time>2021-08-09T17:06:17.000Z</time>
      </trkpt>
      <trkpt lat="47.02906" lon="-1.64639">
        <ele>68</ele>
        <time>2021-08-09T17:06:19.000Z</time>
      </trkpt>
      <trkpt lat="47.02897" lon="-1.64625">
        <ele>69</ele>
        <time>2021-08-09T17:06:21.000Z</time>
      </trkpt>
      <trkpt lat="47.02888" lon="-1.64611">
        <ele>69</ele>
        <time>2021-08-09T17:06:23.000Z</time>
      </trkpt>
      <trkpt lat="47.02879" lon="-1.64598">
        <ele>69</ele>
        <time>2021-08-09T17:06:25.000Z</time>
      </trkpt>
      <trkpt lat="47.0287" lon="-1.64584">
        <ele>70</ele>
        <time>2021-08-09T17:06:27.000Z</time>
      </trkpt>
      <trkpt lat="47.02861" lon="-1.64569">
        <ele>70</ele>
        <time>2021-08-09T17:06:29.000Z</time>
      </trkpt>
      <trkpt lat="47.02852" lon="-1.64555">
        <ele>70</ele>
        <time>2021-08-09T17:06:31.000Z</time>
      </trkpt>
      <trkpt lat="47.02843" lon="-1.6454">
        <ele>70</ele>
        <time>2021-08-09T17:06:33.000Z</time>
      </trkpt>
      <trkpt lat="47.02834" lon="-1.64526">
        <ele>70</ele>
        <time>2021-08-09T17:06:35.000Z</time>
      </trkpt>
      <trkpt lat="47.02826" lon="-1.64512">
        <ele>70</ele>
        <time>2021-08-09T17:06:37.000Z</time>
      </trkpt>
      <trkpt lat="47.02818" lon="-1.64497">
        <ele>71</ele>
        <time>2021-08-09T17:06:39.000Z</time>
      </trkpt>
      <trkpt lat="47.0281" lon="-1.64482">
        <ele>70</ele>
        <time>2021-08-09T17:06:41.000Z</time>
      </trkpt>
      <trkpt lat="47.02802" lon="-1.64467">
        <ele>71</ele>
        <time>2021-08-09T17:06:43.000Z</time>
      </trkpt>
      <trkpt lat="47.02794" lon="-1.64451">
        <ele>70</ele>
        <time>2021-08-09T17:06:45.000Z</time>
      </trkpt>
      <trkpt lat="47.02786" lon="-1.64436">
        <ele>70</ele>
        <time>2021-08-09T17:06:47.000Z</time>
      </trkpt>
      <trkpt lat="47.02778" lon="-1.6442">
        <ele>70</ele>
        <time>2021-08-09T17:06:49.000Z</time>
      </trkpt>
      <trkpt lat="47.02768" lon="-1.64407">
        <ele>70</ele>
        <time>2021-08-09T17:06:51.000Z</time>
      </trkpt>
      <trkpt lat="47.02757" lon="-1.64396">
        <ele>69</ele>
        <time>2021-08-09T17:06:53.000Z</time>
      </trkpt>
      <trkpt lat="47.02753" lon="-1.64379">
        <ele>69</ele>
        <time>2021-08-09T17:06:55.000Z</time>
      </trkpt>
      <trkpt lat="47.02759" lon="-1.64362">
        <ele>69</ele>
        <time>2021-08-09T17:06:57.000Z</time>
      </trkpt>
      <trkpt lat="47.02772" lon="-1.64356">
        <ele>70</ele>
        <time>2021-08-09T17:06:59.000Z</time>
      </trkpt>
      <trkpt lat="47.02785" lon="-1.64356">
        <ele>70</ele>
        <time>2021-08-09T17:07:01.000Z</time>
      </trkpt>
      <trkpt lat="47.02799" lon="-1.64351">
        <ele>69</ele>
        <time>2021-08-09T17:07:03.000Z</time>
      </trkpt>
      <trkpt lat="47.02812" lon="-1.64344">
        <ele>69</ele>
        <time>2021-08-09T17:07:05.000Z</time>
      </trkpt>
      <trkpt lat="47.02825" lon="-1.64339">
        <ele>69</ele>
        <time>2021-08-09T17:07:07.000Z</time>
      </trkpt>
      <trkpt lat="47.02838" lon="-1.64336">
        <ele>69</ele>
        <time>2021-08-09T17:07:09.000Z</time>
      </trkpt>
      <trkpt lat="47.02851" lon="-1.64334">
        <ele>70</ele>
        <time>2021-08-09T17:07:11.000Z</time>
      </trkpt>
      <trkpt lat="47.02864" lon="-1.64333">
        <ele>70</ele>
        <time>2021-08-09T17:07:13.000Z</time>
      </trkpt>
      <trkpt lat="47.02877" lon="-1.64333">
        <ele>70</ele>
        <time>2021-08-09T17:07:15.000Z</time>
      </trkpt>
      <trkpt lat="47.02891" lon="-1.64329">
        <ele>70</ele>
        <time>2021-08-09T17:07:17.000Z</time>
      </trkpt>
      <trkpt lat="47.02903" lon="-1.64321">
        <ele>70</ele>
        <time>2021-08-09T17:07:19.000Z</time>
      </trkpt>
      <trkpt lat="47.02916" lon="-1.64312">
        <ele>70</ele>
        <time>2021-08-09T17:07:21.000Z</time>
      </trkpt>
      <trkpt lat="47.02929" lon="-1.64303">
        <ele>69</ele>
        <time>2021-08-09T17:07:23.000Z</time>
      </trkpt>
      <trkpt lat="47.02949" lon="-1.64289">
        <ele>67</ele>
        <time>2021-08-09T17:07:26.000Z</time>
      </trkpt>
      <trkpt lat="47.02964" lon="-1.64279">
        <ele>66</ele>
        <time>2021-08-09T17:07:28.000Z</time>
      </trkpt>
      <trkpt lat="47.02979" lon="-1.64269">
        <ele>66</ele>
        <time>2021-08-09T17:07:30.000Z</time>
      </trkpt>
      <trkpt lat="47.02994" lon="-1.64258">
        <ele>65</ele>
        <time>2021-08-09T17:07:32.000Z</time>
      </trkpt>
      <trkpt lat="47.0301" lon="-1.64246">
        <ele>65</ele>
        <time>2021-08-09T17:07:34.000Z</time>
      </trkpt>
      <trkpt lat="47.03026" lon="-1.64236">
        <ele>64</ele>
        <time>2021-08-09T17:07:36.000Z</time>
      </trkpt>
      <trkpt lat="47.03035" lon="-1.64231">
        <ele>64</ele>
        <time>2021-08-09T17:07:37.000Z</time>
      </trkpt>
      <trkpt lat="47.03051" lon="-1.64221">
        <ele>64</ele>
        <time>2021-08-09T17:07:39.000Z</time>
      </trkpt>
      <trkpt lat="47.0306" lon="-1.64217">
        <ele>64</ele>
        <time>2021-08-09T17:07:40.000Z</time>
      </trkpt>
      <trkpt lat="47.03078" lon="-1.64213">
        <ele>63</ele>
        <time>2021-08-09T17:07:42.000Z</time>
      </trkpt>
      <trkpt lat="47.03087" lon="-1.64213">
        <ele>63</ele>
        <time>2021-08-09T17:07:43.000Z</time>
      </trkpt>
      <trkpt lat="47.03096" lon="-1.64214">
        <ele>63</ele>
        <time>2021-08-09T17:07:44.000Z</time>
      </trkpt>
      <trkpt lat="47.03105" lon="-1.64217">
        <ele>63</ele>
        <time>2021-08-09T17:07:45.000Z</time>
      </trkpt>
      <trkpt lat="47.03114" lon="-1.6422">
        <ele>63</ele>
        <time>2021-08-09T17:07:46.000Z</time>
      </trkpt>
      <trkpt lat="47.03132" lon="-1.64225">
        <ele>62</ele>
        <time>2021-08-09T17:07:48.000Z</time>
      </trkpt>
      <trkpt lat="47.03142" lon="-1.64227">
        <ele>62</ele>
        <time>2021-08-09T17:07:49.000Z</time>
      </trkpt>
      <trkpt lat="47.03151" lon="-1.6423">
        <ele>62</ele>
        <time>2021-08-09T17:07:50.000Z</time>
      </trkpt>
      <trkpt lat="47.03169" lon="-1.64234">
        <ele>61</ele>
        <time>2021-08-09T17:07:52.000Z</time>
      </trkpt>
      <trkpt lat="47.03178" lon="-1.64236">
        <ele>60</ele>
        <time>2021-08-09T17:07:53.000Z</time>
      </trkpt>
      <trkpt lat="47.03187" lon="-1.64238">
        <ele>60</ele>
        <time>2021-08-09T17:07:54.000Z</time>
      </trkpt>
      <trkpt lat="47.03214" lon="-1.6424">
        <ele>60</ele>
        <time>2021-08-09T17:07:57.000Z</time>
      </trkpt>
      <trkpt lat="47.03231" lon="-1.6424">
        <ele>59</ele>
        <time>2021-08-09T17:07:59.000Z</time>
      </trkpt>
      <trkpt lat="47.03249" lon="-1.64239">
        <ele>59</ele>
        <time>2021-08-09T17:08:01.000Z</time>
      </trkpt>
      <trkpt lat="47.03266" lon="-1.64239">
        <ele>59</ele>
        <time>2021-08-09T17:08:03.000Z</time>
      </trkpt>
      <trkpt lat="47.03284" lon="-1.64239">
        <ele>60</ele>
        <time>2021-08-09T17:08:05.000Z</time>
      </trkpt>
      <trkpt lat="47.03301" lon="-1.64237">
        <ele>59</ele>
        <time>2021-08-09T17:08:07.000Z</time>
      </trkpt>
      <trkpt lat="47.03318" lon="-1.64237">
        <ele>59</ele>
        <time>2021-08-09T17:08:09.000Z</time>
      </trkpt>
      <trkpt lat="47.03335" lon="-1.64238">
        <ele>59</ele>
        <time>2021-08-09T17:08:11.000Z</time>
      </trkpt>
      <trkpt lat="47.03351" lon="-1.6424">
        <ele>58</ele>
        <time>2021-08-09T17:08:13.000Z</time>
      </trkpt>
      <trkpt lat="47.03368" lon="-1.64243">
        <ele>58</ele>
        <time>2021-08-09T17:08:15.000Z</time>
      </trkpt>
      <trkpt lat="47.03384" lon="-1.64247">
        <ele>58</ele>
        <time>2021-08-09T17:08:17.000Z</time>
      </trkpt>
      <trkpt lat="47.034" lon="-1.64252">
        <ele>57</ele>
        <time>2021-08-09T17:08:19.000Z</time>
      </trkpt>
      <trkpt lat="47.03416" lon="-1.64259">
        <ele>57</ele>
        <time>2021-08-09T17:08:21.000Z</time>
      </trkpt>
      <trkpt lat="47.03431" lon="-1.64265">
        <ele>57</ele>
        <time>2021-08-09T17:08:23.000Z</time>
      </trkpt>
      <trkpt lat="47.03446" lon="-1.6427">
        <ele>57</ele>
        <time>2021-08-09T17:08:25.000Z</time>
      </trkpt>
      <trkpt lat="47.03461" lon="-1.64275">
        <ele>57</ele>
        <time>2021-08-09T17:08:27.000Z</time>
      </trkpt>
      <trkpt lat="47.03476" lon="-1.64281">
        <ele>57</ele>
        <time>2021-08-09T17:08:29.000Z</time>
      </trkpt>
      <trkpt lat="47.03491" lon="-1.64287">
        <ele>58</ele>
        <time>2021-08-09T17:08:31.000Z</time>
      </trkpt>
      <trkpt lat="47.03505" lon="-1.64293">
        <ele>58</ele>
        <time>2021-08-09T17:08:33.000Z</time>
      </trkpt>
      <trkpt lat="47.03519" lon="-1.64299">
        <ele>59</ele>
        <time>2021-08-09T17:08:35.000Z</time>
      </trkpt>
      <trkpt lat="47.03533" lon="-1.64303">
        <ele>59</ele>
        <time>2021-08-09T17:08:37.000Z</time>
      </trkpt>
      <trkpt lat="47.03547" lon="-1.64305">
        <ele>59</ele>
        <time>2021-08-09T17:08:39.000Z</time>
      </trkpt>
      <trkpt lat="47.0356" lon="-1.64304">
        <ele>59</ele>
        <time>2021-08-09T17:08:41.000Z</time>
      </trkpt>
      <trkpt lat="47.03569" lon="-1.64296">
        <ele>59</ele>
        <time>2021-08-09T17:08:43.000Z</time>
      </trkpt>
      <trkpt lat="47.03568" lon="-1.64275">
        <ele>59</ele>
        <time>2021-08-09T17:08:45.000Z</time>
      </trkpt>
      <trkpt lat="47.03563" lon="-1.64258">
        <ele>59</ele>
        <time>2021-08-09T17:08:47.000Z</time>
      </trkpt>
      <trkpt lat="47.03557" lon="-1.64239">
        <ele>59</ele>
        <time>2021-08-09T17:08:49.000Z</time>
      </trkpt>
      <trkpt lat="47.03551" lon="-1.64222">
        <ele>58</ele>
        <time>2021-08-09T17:08:51.000Z</time>
      </trkpt>
      <trkpt lat="47.03551" lon="-1.64204">
        <ele>58</ele>
        <time>2021-08-09T17:08:53.000Z</time>
      </trkpt>
      <trkpt lat="47.03562" lon="-1.6419">
        <ele>57</ele>
        <time>2021-08-09T17:08:55.000Z</time>
      </trkpt>
      <trkpt lat="47.03573" lon="-1.64182">
        <ele>58</ele>
        <time>2021-08-09T17:08:57.000Z</time>
      </trkpt>
      <trkpt lat="47.03585" lon="-1.64174">
        <ele>58</ele>
        <time>2021-08-09T17:08:59.000Z</time>
      </trkpt>
      <trkpt lat="47.03596" lon="-1.64166">
        <ele>58</ele>
        <time>2021-08-09T17:09:01.000Z</time>
      </trkpt>
      <trkpt lat="47.03607" lon="-1.64158">
        <ele>58</ele>
        <time>2021-08-09T17:09:04.000Z</time>
      </trkpt>
      <trkpt lat="47.03615" lon="-1.64144">
        <ele>59</ele>
        <time>2021-08-09T17:09:07.000Z</time>
      </trkpt>
      <trkpt lat="47.03627" lon="-1.64137">
        <ele>59</ele>
        <time>2021-08-09T17:09:10.000Z</time>
      </trkpt>
      <trkpt lat="47.03637" lon="-1.64129">
        <ele>59</ele>
        <time>2021-08-09T17:09:12.000Z</time>
      </trkpt>
      <trkpt lat="47.03648" lon="-1.64125">
        <ele>59</ele>
        <time>2021-08-09T17:09:14.000Z</time>
      </trkpt>
      <trkpt lat="47.03662" lon="-1.64121">
        <ele>59</ele>
        <time>2021-08-09T17:09:16.000Z</time>
      </trkpt>
      <trkpt lat="47.03676" lon="-1.64118">
        <ele>59</ele>
        <time>2021-08-09T17:09:18.000Z</time>
      </trkpt>
      <trkpt lat="47.03691" lon="-1.64116">
        <ele>58</ele>
        <time>2021-08-09T17:09:20.000Z</time>
      </trkpt>
      <trkpt lat="47.03706" lon="-1.64113">
        <ele>58</ele>
        <time>2021-08-09T17:09:22.000Z</time>
      </trkpt>
      <trkpt lat="47.0372" lon="-1.6411">
        <ele>58</ele>
        <time>2021-08-09T17:09:24.000Z</time>
      </trkpt>
      <trkpt lat="47.03734" lon="-1.64107">
        <ele>57</ele>
        <time>2021-08-09T17:09:26.000Z</time>
      </trkpt>
      <trkpt lat="47.03748" lon="-1.64103">
        <ele>57</ele>
        <time>2021-08-09T17:09:28.000Z</time>
      </trkpt>
      <trkpt lat="47.03762" lon="-1.641">
        <ele>57</ele>
        <time>2021-08-09T17:09:30.000Z</time>
      </trkpt>
      <trkpt lat="47.03776" lon="-1.64098">
        <ele>56</ele>
        <time>2021-08-09T17:09:32.000Z</time>
      </trkpt>
      <trkpt lat="47.0379" lon="-1.64096">
        <ele>56</ele>
        <time>2021-08-09T17:09:34.000Z</time>
      </trkpt>
      <trkpt lat="47.03804" lon="-1.64093">
        <ele>56</ele>
        <time>2021-08-09T17:09:36.000Z</time>
      </trkpt>
      <trkpt lat="47.03818" lon="-1.6409">
        <ele>57</ele>
        <time>2021-08-09T17:09:38.000Z</time>
      </trkpt>
      <trkpt lat="47.0383" lon="-1.64086">
        <ele>57</ele>
        <time>2021-08-09T17:09:40.000Z</time>
      </trkpt>
      <trkpt lat="47.03844" lon="-1.64086">
        <ele>56</ele>
        <time>2021-08-09T17:09:42.000Z</time>
      </trkpt>
      <trkpt lat="47.03857" lon="-1.64088">
        <ele>57</ele>
        <time>2021-08-09T17:09:44.000Z</time>
      </trkpt>
      <trkpt lat="47.0387" lon="-1.64093">
        <ele>57</ele>
        <time>2021-08-09T17:09:46.000Z</time>
      </trkpt>
      <trkpt lat="47.03883" lon="-1.64096">
        <ele>57</ele>
        <time>2021-08-09T17:09:48.000Z</time>
      </trkpt>
      <trkpt lat="47.03896" lon="-1.64105">
        <ele>57</ele>
        <time>2021-08-09T17:09:50.000Z</time>
      </trkpt>
      <trkpt lat="47.03908" lon="-1.64114">
        <ele>57</ele>
        <time>2021-08-09T17:09:52.000Z</time>
      </trkpt>
      <trkpt lat="47.03921" lon="-1.64121">
        <ele>57</ele>
        <time>2021-08-09T17:09:54.000Z</time>
      </trkpt>
      <trkpt lat="47.03935" lon="-1.64129">
        <ele>56</ele>
        <time>2021-08-09T17:09:56.000Z</time>
      </trkpt>
      <trkpt lat="47.03948" lon="-1.64138">
        <ele>56</ele>
        <time>2021-08-09T17:09:58.000Z</time>
      </trkpt>
      <trkpt lat="47.03961" lon="-1.64141">
        <ele>57</ele>
        <time>2021-08-09T17:10:00.000Z</time>
      </trkpt>
      <trkpt lat="47.03973" lon="-1.6414">
        <ele>58</ele>
        <time>2021-08-09T17:10:02.000Z</time>
      </trkpt>
      <trkpt lat="47.03986" lon="-1.64135">
        <ele>58</ele>
        <time>2021-08-09T17:10:04.000Z</time>
      </trkpt>
      <trkpt lat="47.03998" lon="-1.64127">
        <ele>59</ele>
        <time>2021-08-09T17:10:06.000Z</time>
      </trkpt>
      <trkpt lat="47.0401" lon="-1.64122">
        <ele>58</ele>
        <time>2021-08-09T17:10:08.000Z</time>
      </trkpt>
      <trkpt lat="47.04023" lon="-1.64117">
        <ele>58</ele>
        <time>2021-08-09T17:10:10.000Z</time>
      </trkpt>
      <trkpt lat="47.04035" lon="-1.64111">
        <ele>57</ele>
        <time>2021-08-09T17:10:12.000Z</time>
      </trkpt>
      <trkpt lat="47.04047" lon="-1.64105">
        <ele>57</ele>
        <time>2021-08-09T17:10:14.000Z</time>
      </trkpt>
      <trkpt lat="47.04061" lon="-1.64098">
        <ele>58</ele>
        <time>2021-08-09T17:10:16.000Z</time>
      </trkpt>
      <trkpt lat="47.04075" lon="-1.64092">
        <ele>58</ele>
        <time>2021-08-09T17:10:18.000Z</time>
      </trkpt>
      <trkpt lat="47.04089" lon="-1.64086">
        <ele>58</ele>
        <time>2021-08-09T17:10:20.000Z</time>
      </trkpt>
      <trkpt lat="47.04103" lon="-1.64079">
        <ele>58</ele>
        <time>2021-08-09T17:10:22.000Z</time>
      </trkpt>
      <trkpt lat="47.04117" lon="-1.64072">
        <ele>58</ele>
        <time>2021-08-09T17:10:24.000Z</time>
      </trkpt>
      <trkpt lat="47.04131" lon="-1.64066">
        <ele>58</ele>
        <time>2021-08-09T17:10:26.000Z</time>
      </trkpt>
      <trkpt lat="47.04146" lon="-1.6406">
        <ele>57</ele>
        <time>2021-08-09T17:10:28.000Z</time>
      </trkpt>
      <trkpt lat="47.0416" lon="-1.64055">
        <ele>55</ele>
        <time>2021-08-09T17:10:30.000Z</time>
      </trkpt>
      <trkpt lat="47.04175" lon="-1.64049">
        <ele>54</ele>
        <time>2021-08-09T17:10:32.000Z</time>
      </trkpt>
      <trkpt lat="47.04188" lon="-1.64043">
        <ele>53</ele>
        <time>2021-08-09T17:10:34.000Z</time>
      </trkpt>
      <trkpt lat="47.04203" lon="-1.64037">
        <ele>53</ele>
        <time>2021-08-09T17:10:36.000Z</time>
      </trkpt>
      <trkpt lat="47.04216" lon="-1.64031">
        <ele>53</ele>
        <time>2021-08-09T17:10:38.000Z</time>
      </trkpt>
      <trkpt lat="47.04229" lon="-1.64025">
        <ele>53</ele>
        <time>2021-08-09T17:10:40.000Z</time>
      </trkpt>
      <trkpt lat="47.04242" lon="-1.64019">
        <ele>53</ele>
        <time>2021-08-09T17:10:42.000Z</time>
      </trkpt>
      <trkpt lat="47.04256" lon="-1.64013">
        <ele>53</ele>
        <time>2021-08-09T17:10:44.000Z</time>
      </trkpt>
      <trkpt lat="47.04268" lon="-1.64007">
        <ele>53</ele>
        <time>2021-08-09T17:10:46.000Z</time>
      </trkpt>
      <trkpt lat="47.04281" lon="-1.64002">
        <ele>53</ele>
        <time>2021-08-09T17:10:48.000Z</time>
      </trkpt>
      <trkpt lat="47.04293" lon="-1.63996">
        <ele>53</ele>
        <time>2021-08-09T17:10:50.000Z</time>
      </trkpt>
      <trkpt lat="47.04306" lon="-1.6399">
        <ele>54</ele>
        <time>2021-08-09T17:10:52.000Z</time>
      </trkpt>
      <trkpt lat="47.04319" lon="-1.63984">
        <ele>55</ele>
        <time>2021-08-09T17:10:54.000Z</time>
      </trkpt>
      <trkpt lat="47.04333" lon="-1.63978">
        <ele>54</ele>
        <time>2021-08-09T17:10:56.000Z</time>
      </trkpt>
      <trkpt lat="47.04346" lon="-1.63973">
        <ele>54</ele>
        <time>2021-08-09T17:10:58.000Z</time>
      </trkpt>
      <trkpt lat="47.04359" lon="-1.63967">
        <ele>54</ele>
        <time>2021-08-09T17:11:00.000Z</time>
      </trkpt>
      <trkpt lat="47.04371" lon="-1.63961">
        <ele>55</ele>
        <time>2021-08-09T17:11:02.000Z</time>
      </trkpt>
      <trkpt lat="47.04384" lon="-1.63955">
        <ele>55</ele>
        <time>2021-08-09T17:11:04.000Z</time>
      </trkpt>
      <trkpt lat="47.04397" lon="-1.63948">
        <ele>55</ele>
        <time>2021-08-09T17:11:06.000Z</time>
      </trkpt>
      <trkpt lat="47.0441" lon="-1.63942">
        <ele>56</ele>
        <time>2021-08-09T17:11:08.000Z</time>
      </trkpt>
      <trkpt lat="47.04424" lon="-1.63936">
        <ele>57</ele>
        <time>2021-08-09T17:11:10.000Z</time>
      </trkpt>
      <trkpt lat="47.04437" lon="-1.6393">
        <ele>57</ele>
        <time>2021-08-09T17:11:12.000Z</time>
      </trkpt>
      <trkpt lat="47.04448" lon="-1.63923">
        <ele>57</ele>
        <time>2021-08-09T17:11:14.000Z</time>
      </trkpt>
      <trkpt lat="47.04459" lon="-1.63914">
        <ele>57</ele>
        <time>2021-08-09T17:11:16.000Z</time>
      </trkpt>
      <trkpt lat="47.04473" lon="-1.63907">
        <ele>56</ele>
        <time>2021-08-09T17:11:18.000Z</time>
      </trkpt>
      <trkpt lat="47.04486" lon="-1.63903">
        <ele>56</ele>
        <time>2021-08-09T17:11:20.000Z</time>
      </trkpt>
      <trkpt lat="47.045" lon="-1.63896">
        <ele>55</ele>
        <time>2021-08-09T17:11:22.000Z</time>
      </trkpt>
      <trkpt lat="47.04513" lon="-1.63888">
        <ele>54</ele>
        <time>2021-08-09T17:11:24.000Z</time>
      </trkpt>
      <trkpt lat="47.04527" lon="-1.63881">
        <ele>54</ele>
        <time>2021-08-09T17:11:26.000Z</time>
      </trkpt>
      <trkpt lat="47.04541" lon="-1.63874">
        <ele>53</ele>
        <time>2021-08-09T17:11:28.000Z</time>
      </trkpt>
      <trkpt lat="47.04554" lon="-1.63866">
        <ele>52</ele>
        <time>2021-08-09T17:11:30.000Z</time>
      </trkpt>
      <trkpt lat="47.04567" lon="-1.63858">
        <ele>52</ele>
        <time>2021-08-09T17:11:32.000Z</time>
      </trkpt>
      <trkpt lat="47.0458" lon="-1.63851">
        <ele>52</ele>
        <time>2021-08-09T17:11:34.000Z</time>
      </trkpt>
      <trkpt lat="47.04593" lon="-1.63846">
        <ele>52</ele>
        <time>2021-08-09T17:11:36.000Z</time>
      </trkpt>
      <trkpt lat="47.04607" lon="-1.63843">
        <ele>52</ele>
        <time>2021-08-09T17:11:38.000Z</time>
      </trkpt>
      <trkpt lat="47.0462" lon="-1.63841">
        <ele>53</ele>
        <time>2021-08-09T17:11:40.000Z</time>
      </trkpt>
      <trkpt lat="47.04632" lon="-1.63839">
        <ele>53</ele>
        <time>2021-08-09T17:11:42.000Z</time>
      </trkpt>
      <trkpt lat="47.04645" lon="-1.63836">
        <ele>53</ele>
        <time>2021-08-09T17:11:44.000Z</time>
      </trkpt>
      <trkpt lat="47.04657" lon="-1.63828">
        <ele>53</ele>
        <time>2021-08-09T17:11:46.000Z</time>
      </trkpt>
      <trkpt lat="47.04668" lon="-1.63822">
        <ele>54</ele>
        <time>2021-08-09T17:11:48.000Z</time>
      </trkpt>
      <trkpt lat="47.0468" lon="-1.63815">
        <ele>54</ele>
        <time>2021-08-09T17:11:50.000Z</time>
      </trkpt>
      <trkpt lat="47.04691" lon="-1.6381">
        <ele>55</ele>
        <time>2021-08-09T17:11:52.000Z</time>
      </trkpt>
      <trkpt lat="47.04703" lon="-1.63806">
        <ele>55</ele>
        <time>2021-08-09T17:11:54.000Z</time>
      </trkpt>
      <trkpt lat="47.04717" lon="-1.63799">
        <ele>55</ele>
        <time>2021-08-09T17:11:56.000Z</time>
      </trkpt>
      <trkpt lat="47.04733" lon="-1.63799">
        <ele>56</ele>
        <time>2021-08-09T17:11:58.000Z</time>
      </trkpt>
      <trkpt lat="47.04748" lon="-1.63797">
        <ele>56</ele>
        <time>2021-08-09T17:12:00.000Z</time>
      </trkpt>
      <trkpt lat="47.04762" lon="-1.63791">
        <ele>57</ele>
        <time>2021-08-09T17:12:02.000Z</time>
      </trkpt>
      <trkpt lat="47.04776" lon="-1.63785">
        <ele>58</ele>
        <time>2021-08-09T17:12:04.000Z</time>
      </trkpt>
      <trkpt lat="47.04789" lon="-1.63781">
        <ele>59</ele>
        <time>2021-08-09T17:12:06.000Z</time>
      </trkpt>
      <trkpt lat="47.04802" lon="-1.63777">
        <ele>60</ele>
        <time>2021-08-09T17:12:08.000Z</time>
      </trkpt>
      <trkpt lat="47.04815" lon="-1.63775">
        <ele>61</ele>
        <time>2021-08-09T17:12:10.000Z</time>
      </trkpt>
      <trkpt lat="47.04828" lon="-1.63772">
        <ele>60</ele>
        <time>2021-08-09T17:12:12.000Z</time>
      </trkpt>
      <trkpt lat="47.04841" lon="-1.63771">
        <ele>60</ele>
        <time>2021-08-09T17:12:14.000Z</time>
      </trkpt>
      <trkpt lat="47.04854" lon="-1.63769">
        <ele>59</ele>
        <time>2021-08-09T17:12:16.000Z</time>
      </trkpt>
      <trkpt lat="47.04867" lon="-1.63766">
        <ele>58</ele>
        <time>2021-08-09T17:12:18.000Z</time>
      </trkpt>
      <trkpt lat="47.04881" lon="-1.63763">
        <ele>58</ele>
        <time>2021-08-09T17:12:20.000Z</time>
      </trkpt>
      <trkpt lat="47.04895" lon="-1.63761">
        <ele>57</ele>
        <time>2021-08-09T17:12:22.000Z</time>
      </trkpt>
      <trkpt lat="47.0491" lon="-1.63758">
        <ele>57</ele>
        <time>2021-08-09T17:12:24.000Z</time>
      </trkpt>
      <trkpt lat="47.04923" lon="-1.63752">
        <ele>57</ele>
        <time>2021-08-09T17:12:26.000Z</time>
      </trkpt>
      <trkpt lat="47.04936" lon="-1.63741">
        <ele>56</ele>
        <time>2021-08-09T17:12:28.000Z</time>
      </trkpt>
      <trkpt lat="47.04944" lon="-1.63723">
        <ele>56</ele>
        <time>2021-08-09T17:12:30.000Z</time>
      </trkpt>
      <trkpt lat="47.04945" lon="-1.63701">
        <ele>57</ele>
        <time>2021-08-09T17:12:32.000Z</time>
      </trkpt>
      <trkpt lat="47.04945" lon="-1.63679">
        <ele>57</ele>
        <time>2021-08-09T17:12:34.000Z</time>
      </trkpt>
      <trkpt lat="47.04944" lon="-1.63657">
        <ele>57</ele>
        <time>2021-08-09T17:12:36.000Z</time>
      </trkpt>
      <trkpt lat="47.04946" lon="-1.63636">
        <ele>56</ele>
        <time>2021-08-09T17:12:38.000Z</time>
      </trkpt>
      <trkpt lat="47.04951" lon="-1.63615">
        <ele>56</ele>
        <time>2021-08-09T17:12:40.000Z</time>
      </trkpt>
      <trkpt lat="47.04959" lon="-1.63594">
        <ele>55</ele>
        <time>2021-08-09T17:12:42.000Z</time>
      </trkpt>
      <trkpt lat="47.0497" lon="-1.63576">
        <ele>55</ele>
        <time>2021-08-09T17:12:44.000Z</time>
      </trkpt>
      <trkpt lat="47.04985" lon="-1.63562">
        <ele>54</ele>
        <time>2021-08-09T17:12:46.000Z</time>
      </trkpt>
      <trkpt lat="47.05" lon="-1.63552">
        <ele>54</ele>
        <time>2021-08-09T17:12:48.000Z</time>
      </trkpt>
      <trkpt lat="47.05016" lon="-1.63544">
        <ele>54</ele>
        <time>2021-08-09T17:12:50.000Z</time>
      </trkpt>
      <trkpt lat="47.05031" lon="-1.63538">
        <ele>54</ele>
        <time>2021-08-09T17:12:52.000Z</time>
      </trkpt>
      <trkpt lat="47.05047" lon="-1.63532">
        <ele>54</ele>
        <time>2021-08-09T17:12:54.000Z</time>
      </trkpt>
      <trkpt lat="47.05062" lon="-1.63526">
        <ele>54</ele>
        <time>2021-08-09T17:12:56.000Z</time>
      </trkpt>
      <trkpt lat="47.05077" lon="-1.6352">
        <ele>53</ele>
        <time>2021-08-09T17:12:58.000Z</time>
      </trkpt>
      <trkpt lat="47.05092" lon="-1.63514">
        <ele>53</ele>
        <time>2021-08-09T17:13:00.000Z</time>
      </trkpt>
      <trkpt lat="47.05107" lon="-1.63509">
        <ele>53</ele>
        <time>2021-08-09T17:13:02.000Z</time>
      </trkpt>
      <trkpt lat="47.05122" lon="-1.63503">
        <ele>54</ele>
        <time>2021-08-09T17:13:04.000Z</time>
      </trkpt>
      <trkpt lat="47.05137" lon="-1.63497">
        <ele>53</ele>
        <time>2021-08-09T17:13:06.000Z</time>
      </trkpt>
      <trkpt lat="47.05152" lon="-1.63491">
        <ele>53</ele>
        <time>2021-08-09T17:13:08.000Z</time>
      </trkpt>
      <trkpt lat="47.05167" lon="-1.63486">
        <ele>52</ele>
        <time>2021-08-09T17:13:10.000Z</time>
      </trkpt>
      <trkpt lat="47.05181" lon="-1.6348">
        <ele>52</ele>
        <time>2021-08-09T17:13:12.000Z</time>
      </trkpt>
      <trkpt lat="47.05196" lon="-1.63474">
        <ele>52</ele>
        <time>2021-08-09T17:13:14.000Z</time>
      </trkpt>
      <trkpt lat="47.0521" lon="-1.63469">
        <ele>51</ele>
        <time>2021-08-09T17:13:16.000Z</time>
      </trkpt>
      <trkpt lat="47.05226" lon="-1.63464">
        <ele>52</ele>
        <time>2021-08-09T17:13:18.000Z</time>
      </trkpt>
      <trkpt lat="47.05241" lon="-1.6346">
        <ele>52</ele>
        <time>2021-08-09T17:13:20.000Z</time>
      </trkpt>
      <trkpt lat="47.05256" lon="-1.63457">
        <ele>52</ele>
        <time>2021-08-09T17:13:22.000Z</time>
      </trkpt>
      <trkpt lat="47.05271" lon="-1.63453">
        <ele>52</ele>
        <time>2021-08-09T17:13:24.000Z</time>
      </trkpt>
      <trkpt lat="47.05287" lon="-1.6345">
        <ele>52</ele>
        <time>2021-08-09T17:13:26.000Z</time>
      </trkpt>
      <trkpt lat="47.05301" lon="-1.63447">
        <ele>53</ele>
        <time>2021-08-09T17:13:28.000Z</time>
      </trkpt>
      <trkpt lat="47.05316" lon="-1.63445">
        <ele>53</ele>
        <time>2021-08-09T17:13:30.000Z</time>
      </trkpt>
      <trkpt lat="47.0533" lon="-1.63445">
        <ele>52</ele>
        <time>2021-08-09T17:13:32.000Z</time>
      </trkpt>
      <trkpt lat="47.05345" lon="-1.63443">
        <ele>53</ele>
        <time>2021-08-09T17:13:34.000Z</time>
      </trkpt>
      <trkpt lat="47.0536" lon="-1.63437">
        <ele>52</ele>
        <time>2021-08-09T17:13:36.000Z</time>
      </trkpt>
      <trkpt lat="47.05374" lon="-1.63429">
        <ele>53</ele>
        <time>2021-08-09T17:13:38.000Z</time>
      </trkpt>
      <trkpt lat="47.05389" lon="-1.6343">
        <ele>53</ele>
        <time>2021-08-09T17:13:40.000Z</time>
      </trkpt>
      <trkpt lat="47.05405" lon="-1.63432">
        <ele>52</ele>
        <time>2021-08-09T17:13:42.000Z</time>
      </trkpt>
      <trkpt lat="47.0542" lon="-1.63429">
        <ele>52</ele>
        <time>2021-08-09T17:13:44.000Z</time>
      </trkpt>
      <trkpt lat="47.05435" lon="-1.63425">
        <ele>51</ele>
        <time>2021-08-09T17:13:46.000Z</time>
      </trkpt>
      <trkpt lat="47.0545" lon="-1.63422">
        <ele>51</ele>
        <time>2021-08-09T17:13:48.000Z</time>
      </trkpt>
      <trkpt lat="47.05466" lon="-1.6342">
        <ele>51</ele>
        <time>2021-08-09T17:13:50.000Z</time>
      </trkpt>
      <trkpt lat="47.05481" lon="-1.63418">
        <ele>51</ele>
        <time>2021-08-09T17:13:52.000Z</time>
      </trkpt>
      <trkpt lat="47.05497" lon="-1.63415">
        <ele>51</ele>
        <time>2021-08-09T17:13:54.000Z</time>
      </trkpt>
      <trkpt lat="47.05512" lon="-1.63413">
        <ele>51</ele>
        <time>2021-08-09T17:13:56.000Z</time>
      </trkpt>
      <trkpt lat="47.05528" lon="-1.63409">
        <ele>50</ele>
        <time>2021-08-09T17:13:58.000Z</time>
      </trkpt>
      <trkpt lat="47.05544" lon="-1.63405">
        <ele>50</ele>
        <time>2021-08-09T17:14:00.000Z</time>
      </trkpt>
      <trkpt lat="47.0556" lon="-1.63399">
        <ele>50</ele>
        <time>2021-08-09T17:14:02.000Z</time>
      </trkpt>
      <trkpt lat="47.05575" lon="-1.63392">
        <ele>51</ele>
        <time>2021-08-09T17:14:04.000Z</time>
      </trkpt>
      <trkpt lat="47.0559" lon="-1.63386">
        <ele>51</ele>
        <time>2021-08-09T17:14:06.000Z</time>
      </trkpt>
      <trkpt lat="47.05605" lon="-1.63379">
        <ele>51</ele>
        <time>2021-08-09T17:14:08.000Z</time>
      </trkpt>
      <trkpt lat="47.0562" lon="-1.63371">
        <ele>51</ele>
        <time>2021-08-09T17:14:10.000Z</time>
      </trkpt>
      <trkpt lat="47.05635" lon="-1.63364">
        <ele>52</ele>
        <time>2021-08-09T17:14:12.000Z</time>
      </trkpt>
      <trkpt lat="47.05651" lon="-1.63357">
        <ele>52</ele>
        <time>2021-08-09T17:14:14.000Z</time>
      </trkpt>
      <trkpt lat="47.05666" lon="-1.6335">
        <ele>51</ele>
        <time>2021-08-09T17:14:16.000Z</time>
      </trkpt>
      <trkpt lat="47.05681" lon="-1.63343">
        <ele>52</ele>
        <time>2021-08-09T17:14:18.000Z</time>
      </trkpt>
      <trkpt lat="47.05696" lon="-1.63335">
        <ele>51</ele>
        <time>2021-08-09T17:14:20.000Z</time>
      </trkpt>
      <trkpt lat="47.0571" lon="-1.63328">
        <ele>52</ele>
        <time>2021-08-09T17:14:22.000Z</time>
      </trkpt>
      <trkpt lat="47.05725" lon="-1.63322">
        <ele>52</ele>
        <time>2021-08-09T17:14:24.000Z</time>
      </trkpt>
      <trkpt lat="47.05739" lon="-1.63315">
        <ele>53</ele>
        <time>2021-08-09T17:14:26.000Z</time>
      </trkpt>
      <trkpt lat="47.05753" lon="-1.63308">
        <ele>54</ele>
        <time>2021-08-09T17:14:28.000Z</time>
      </trkpt>
      <trkpt lat="47.05767" lon="-1.633">
        <ele>55</ele>
        <time>2021-08-09T17:14:30.000Z</time>
      </trkpt>
      <trkpt lat="47.05783" lon="-1.63292">
        <ele>55</ele>
        <time>2021-08-09T17:14:32.000Z</time>
      </trkpt>
      <trkpt lat="47.05797" lon="-1.63285">
        <ele>55</ele>
        <time>2021-08-09T17:14:34.000Z</time>
      </trkpt>
      <trkpt lat="47.05812" lon="-1.63278">
        <ele>56</ele>
        <time>2021-08-09T17:14:36.000Z</time>
      </trkpt>
      <trkpt lat="47.05828" lon="-1.63271">
        <ele>56</ele>
        <time>2021-08-09T17:14:38.000Z</time>
      </trkpt>
      <trkpt lat="47.05843" lon="-1.63263">
        <ele>56</ele>
        <time>2021-08-09T17:14:40.000Z</time>
      </trkpt>
      <trkpt lat="47.05857" lon="-1.63257">
        <ele>57</ele>
        <time>2021-08-09T17:14:42.000Z</time>
      </trkpt>
      <trkpt lat="47.05873" lon="-1.6325">
        <ele>57</ele>
        <time>2021-08-09T17:14:44.000Z</time>
      </trkpt>
      <trkpt lat="47.05888" lon="-1.63243">
        <ele>57</ele>
        <time>2021-08-09T17:14:46.000Z</time>
      </trkpt>
      <trkpt lat="47.05903" lon="-1.63236">
        <ele>57</ele>
        <time>2021-08-09T17:14:48.000Z</time>
      </trkpt>
      <trkpt lat="47.05918" lon="-1.6323">
        <ele>58</ele>
        <time>2021-08-09T17:14:50.000Z</time>
      </trkpt>
      <trkpt lat="47.05933" lon="-1.63222">
        <ele>58</ele>
        <time>2021-08-09T17:14:52.000Z</time>
      </trkpt>
      <trkpt lat="47.05948" lon="-1.63214">
        <ele>58</ele>
        <time>2021-08-09T17:14:54.000Z</time>
      </trkpt>
      <trkpt lat="47.05963" lon="-1.63207">
        <ele>58</ele>
        <time>2021-08-09T17:14:56.000Z</time>
      </trkpt>
      <trkpt lat="47.05978" lon="-1.63199">
        <ele>58</ele>
        <time>2021-08-09T17:14:58.000Z</time>
      </trkpt>
      <trkpt lat="47.05993" lon="-1.63192">
        <ele>58</ele>
        <time>2021-08-09T17:15:00.000Z</time>
      </trkpt>
      <trkpt lat="47.06009" lon="-1.63185">
        <ele>57</ele>
        <time>2021-08-09T17:15:02.000Z</time>
      </trkpt>
      <trkpt lat="47.06025" lon="-1.63179">
        <ele>57</ele>
        <time>2021-08-09T17:15:04.000Z</time>
      </trkpt>
      <trkpt lat="47.0604" lon="-1.63171">
        <ele>56</ele>
        <time>2021-08-09T17:15:06.000Z</time>
      </trkpt>
      <trkpt lat="47.06056" lon="-1.63164">
        <ele>56</ele>
        <time>2021-08-09T17:15:08.000Z</time>
      </trkpt>
      <trkpt lat="47.0607" lon="-1.63157">
        <ele>56</ele>
        <time>2021-08-09T17:15:10.000Z</time>
      </trkpt>
      <trkpt lat="47.06086" lon="-1.6315">
        <ele>56</ele>
        <time>2021-08-09T17:15:12.000Z</time>
      </trkpt>
      <trkpt lat="47.06101" lon="-1.63143">
        <ele>56</ele>
        <time>2021-08-09T17:15:14.000Z</time>
      </trkpt>
      <trkpt lat="47.06117" lon="-1.63135">
        <ele>56</ele>
        <time>2021-08-09T17:15:16.000Z</time>
      </trkpt>
      <trkpt lat="47.06132" lon="-1.63128">
        <ele>55</ele>
        <time>2021-08-09T17:15:18.000Z</time>
      </trkpt>
      <trkpt lat="47.06148" lon="-1.63121">
        <ele>55</ele>
        <time>2021-08-09T17:15:20.000Z</time>
      </trkpt>
      <trkpt lat="47.06163" lon="-1.63113">
        <ele>54</ele>
        <time>2021-08-09T17:15:22.000Z</time>
      </trkpt>
      <trkpt lat="47.06179" lon="-1.63107">
        <ele>55</ele>
        <time>2021-08-09T17:15:24.000Z</time>
      </trkpt>
      <trkpt lat="47.06194" lon="-1.63099">
        <ele>55</ele>
        <time>2021-08-09T17:15:26.000Z</time>
      </trkpt>
      <trkpt lat="47.06209" lon="-1.63092">
        <ele>55</ele>
        <time>2021-08-09T17:15:28.000Z</time>
      </trkpt>
      <trkpt lat="47.06224" lon="-1.63085">
        <ele>55</ele>
        <time>2021-08-09T17:15:30.000Z</time>
      </trkpt>
      <trkpt lat="47.0624" lon="-1.63078">
        <ele>55</ele>
        <time>2021-08-09T17:15:32.000Z</time>
      </trkpt>
      <trkpt lat="47.06256" lon="-1.6307">
        <ele>55</ele>
        <time>2021-08-09T17:15:34.000Z</time>
      </trkpt>
      <trkpt lat="47.06271" lon="-1.63063">
        <ele>55</ele>
        <time>2021-08-09T17:15:36.000Z</time>
      </trkpt>
      <trkpt lat="47.06286" lon="-1.63056">
        <ele>56</ele>
        <time>2021-08-09T17:15:38.000Z</time>
      </trkpt>
      <trkpt lat="47.06302" lon="-1.63048">
        <ele>56</ele>
        <time>2021-08-09T17:15:40.000Z</time>
      </trkpt>
      <trkpt lat="47.06318" lon="-1.63041">
        <ele>56</ele>
        <time>2021-08-09T17:15:42.000Z</time>
      </trkpt>
      <trkpt lat="47.06334" lon="-1.63034">
        <ele>55</ele>
        <time>2021-08-09T17:15:44.000Z</time>
      </trkpt>
      <trkpt lat="47.06348" lon="-1.63027">
        <ele>55</ele>
        <time>2021-08-09T17:15:46.000Z</time>
      </trkpt>
      <trkpt lat="47.06364" lon="-1.6302">
        <ele>55</ele>
        <time>2021-08-09T17:15:48.000Z</time>
      </trkpt>
      <trkpt lat="47.06378" lon="-1.63014">
        <ele>55</ele>
        <time>2021-08-09T17:15:50.000Z</time>
      </trkpt>
      <trkpt lat="47.06393" lon="-1.63006">
        <ele>55</ele>
        <time>2021-08-09T17:15:52.000Z</time>
      </trkpt>
      <trkpt lat="47.06409" lon="-1.63">
        <ele>55</ele>
        <time>2021-08-09T17:15:54.000Z</time>
      </trkpt>
      <trkpt lat="47.06423" lon="-1.62993">
        <ele>55</ele>
        <time>2021-08-09T17:15:56.000Z</time>
      </trkpt>
      <trkpt lat="47.06438" lon="-1.62985">
        <ele>55</ele>
        <time>2021-08-09T17:15:58.000Z</time>
      </trkpt>
      <trkpt lat="47.06452" lon="-1.62979">
        <ele>55</ele>
        <time>2021-08-09T17:16:00.000Z</time>
      </trkpt>
      <trkpt lat="47.06467" lon="-1.62971">
        <ele>55</ele>
        <time>2021-08-09T17:16:02.000Z</time>
      </trkpt>
      <trkpt lat="47.06482" lon="-1.62963">
        <ele>55</ele>
        <time>2021-08-09T17:16:04.000Z</time>
      </trkpt>
      <trkpt lat="47.06495" lon="-1.62953">
        <ele>54</ele>
        <time>2021-08-09T17:16:06.000Z</time>
      </trkpt>
      <trkpt lat="47.06509" lon="-1.6294">
        <ele>54</ele>
        <time>2021-08-09T17:16:08.000Z</time>
      </trkpt>
      <trkpt lat="47.06521" lon="-1.62926">
        <ele>54</ele>
        <time>2021-08-09T17:16:10.000Z</time>
      </trkpt>
      <trkpt lat="47.06533" lon="-1.62911">
        <ele>54</ele>
        <time>2021-08-09T17:16:12.000Z</time>
      </trkpt>
      <trkpt lat="47.06544" lon="-1.62895">
        <ele>54</ele>
        <time>2021-08-09T17:16:14.000Z</time>
      </trkpt>
      <trkpt lat="47.06555" lon="-1.62878">
        <ele>54</ele>
        <time>2021-08-09T17:16:16.000Z</time>
      </trkpt>
      <trkpt lat="47.06566" lon="-1.62862">
        <ele>54</ele>
        <time>2021-08-09T17:16:18.000Z</time>
      </trkpt>
      <trkpt lat="47.06577" lon="-1.62845">
        <ele>54</ele>
        <time>2021-08-09T17:16:20.000Z</time>
      </trkpt>
      <trkpt lat="47.06587" lon="-1.62828">
        <ele>55</ele>
        <time>2021-08-09T17:16:22.000Z</time>
      </trkpt>
      <trkpt lat="47.06598" lon="-1.62812">
        <ele>54</ele>
        <time>2021-08-09T17:16:24.000Z</time>
      </trkpt>
      <trkpt lat="47.06609" lon="-1.62796">
        <ele>54</ele>
        <time>2021-08-09T17:16:26.000Z</time>
      </trkpt>
      <trkpt lat="47.0662" lon="-1.62779">
        <ele>54</ele>
        <time>2021-08-09T17:16:28.000Z</time>
      </trkpt>
      <trkpt lat="47.06631" lon="-1.62763">
        <ele>55</ele>
        <time>2021-08-09T17:16:30.000Z</time>
      </trkpt>
      <trkpt lat="47.06642" lon="-1.62746">
        <ele>55</ele>
        <time>2021-08-09T17:16:32.000Z</time>
      </trkpt>
      <trkpt lat="47.06652" lon="-1.6273">
        <ele>55</ele>
        <time>2021-08-09T17:16:34.000Z</time>
      </trkpt>
      <trkpt lat="47.06663" lon="-1.62714">
        <ele>55</ele>
        <time>2021-08-09T17:16:36.000Z</time>
      </trkpt>
      <trkpt lat="47.06674" lon="-1.62698">
        <ele>55</ele>
        <time>2021-08-09T17:16:38.000Z</time>
      </trkpt>
      <trkpt lat="47.06684" lon="-1.62682">
        <ele>55</ele>
        <time>2021-08-09T17:16:40.000Z</time>
      </trkpt>
      <trkpt lat="47.06694" lon="-1.62666">
        <ele>55</ele>
        <time>2021-08-09T17:16:42.000Z</time>
      </trkpt>
      <trkpt lat="47.06705" lon="-1.62651">
        <ele>55</ele>
        <time>2021-08-09T17:16:44.000Z</time>
      </trkpt>
      <trkpt lat="47.06717" lon="-1.62637">
        <ele>55</ele>
        <time>2021-08-09T17:16:46.000Z</time>
      </trkpt>
      <trkpt lat="47.06729" lon="-1.62624">
        <ele>55</ele>
        <time>2021-08-09T17:16:48.000Z</time>
      </trkpt>
      <trkpt lat="47.06742" lon="-1.62611">
        <ele>55</ele>
        <time>2021-08-09T17:16:50.000Z</time>
      </trkpt>
      <trkpt lat="47.06755" lon="-1.62598">
        <ele>54</ele>
        <time>2021-08-09T17:16:52.000Z</time>
      </trkpt>
      <trkpt lat="47.06767" lon="-1.62586">
        <ele>54</ele>
        <time>2021-08-09T17:16:54.000Z</time>
      </trkpt>
      <trkpt lat="47.0678" lon="-1.62573">
        <ele>55</ele>
        <time>2021-08-09T17:16:56.000Z</time>
      </trkpt>
      <trkpt lat="47.06793" lon="-1.62561">
        <ele>55</ele>
        <time>2021-08-09T17:16:58.000Z</time>
      </trkpt>
      <trkpt lat="47.06806" lon="-1.62549">
        <ele>56</ele>
        <time>2021-08-09T17:17:00.000Z</time>
      </trkpt>
      <trkpt lat="47.0682" lon="-1.62538">
        <ele>56</ele>
        <time>2021-08-09T17:17:02.000Z</time>
      </trkpt>
      <trkpt lat="47.06833" lon="-1.62525">
        <ele>57</ele>
        <time>2021-08-09T17:17:04.000Z</time>
      </trkpt>
      <trkpt lat="47.06847" lon="-1.62514">
        <ele>58</ele>
        <time>2021-08-09T17:17:06.000Z</time>
      </trkpt>
      <trkpt lat="47.06861" lon="-1.62503">
        <ele>58</ele>
        <time>2021-08-09T17:17:08.000Z</time>
      </trkpt>
      <trkpt lat="47.06875" lon="-1.62494">
        <ele>58</ele>
        <time>2021-08-09T17:17:10.000Z</time>
      </trkpt>
      <trkpt lat="47.0689" lon="-1.62485">
        <ele>59</ele>
        <time>2021-08-09T17:17:12.000Z</time>
      </trkpt>
      <trkpt lat="47.06906" lon="-1.62478">
        <ele>58</ele>
        <time>2021-08-09T17:17:14.000Z</time>
      </trkpt>
      <trkpt lat="47.06921" lon="-1.62471">
        <ele>58</ele>
        <time>2021-08-09T17:17:16.000Z</time>
      </trkpt>
      <trkpt lat="47.06937" lon="-1.62465">
        <ele>58</ele>
        <time>2021-08-09T17:17:18.000Z</time>
      </trkpt>
      <trkpt lat="47.06953" lon="-1.62458">
        <ele>58</ele>
        <time>2021-08-09T17:17:20.000Z</time>
      </trkpt>
      <trkpt lat="47.06968" lon="-1.62451">
        <ele>59</ele>
        <time>2021-08-09T17:17:22.000Z</time>
      </trkpt>
      <trkpt lat="47.06984" lon="-1.62444">
        <ele>59</ele>
        <time>2021-08-09T17:17:24.000Z</time>
      </trkpt>
      <trkpt lat="47.06999" lon="-1.62436">
        <ele>60</ele>
        <time>2021-08-09T17:17:26.000Z</time>
      </trkpt>
      <trkpt lat="47.07014" lon="-1.62429">
        <ele>60</ele>
        <time>2021-08-09T17:17:28.000Z</time>
      </trkpt>
      <trkpt lat="47.07028" lon="-1.62422">
        <ele>60</ele>
        <time>2021-08-09T17:17:30.000Z</time>
      </trkpt>
      <trkpt lat="47.07042" lon="-1.62414">
        <ele>60</ele>
        <time>2021-08-09T17:17:32.000Z</time>
      </trkpt>
      <trkpt lat="47.07057" lon="-1.62406">
        <ele>61</ele>
        <time>2021-08-09T17:17:34.000Z</time>
      </trkpt>
      <trkpt lat="47.0707" lon="-1.62397">
        <ele>61</ele>
        <time>2021-08-09T17:17:36.000Z</time>
      </trkpt>
      <trkpt lat="47.07084" lon="-1.62388">
        <ele>61</ele>
        <time>2021-08-09T17:17:38.000Z</time>
      </trkpt>
      <trkpt lat="47.07097" lon="-1.62378">
        <ele>61</ele>
        <time>2021-08-09T17:17:40.000Z</time>
      </trkpt>
      <trkpt lat="47.07111" lon="-1.62368">
        <ele>61</ele>
        <time>2021-08-09T17:17:42.000Z</time>
      </trkpt>
      <trkpt lat="47.07125" lon="-1.62359">
        <ele>61</ele>
        <time>2021-08-09T17:17:44.000Z</time>
      </trkpt>
      <trkpt lat="47.0714" lon="-1.6235">
        <ele>60</ele>
        <time>2021-08-09T17:17:46.000Z</time>
      </trkpt>
      <trkpt lat="47.07154" lon="-1.62339">
        <ele>59</ele>
        <time>2021-08-09T17:17:48.000Z</time>
      </trkpt>
      <trkpt lat="47.0717" lon="-1.62332">
        <ele>57</ele>
        <time>2021-08-09T17:17:50.000Z</time>
      </trkpt>
      <trkpt lat="47.07185" lon="-1.62323">
        <ele>56</ele>
        <time>2021-08-09T17:17:52.000Z</time>
      </trkpt>
      <trkpt lat="47.07199" lon="-1.62314">
        <ele>56</ele>
        <time>2021-08-09T17:17:54.000Z</time>
      </trkpt>
      <trkpt lat="47.07214" lon="-1.62305">
        <ele>56</ele>
        <time>2021-08-09T17:17:56.000Z</time>
      </trkpt>
      <trkpt lat="47.07228" lon="-1.62296">
        <ele>56</ele>
        <time>2021-08-09T17:17:58.000Z</time>
      </trkpt>
      <trkpt lat="47.07242" lon="-1.62287">
        <ele>55</ele>
        <time>2021-08-09T17:18:00.000Z</time>
      </trkpt>
      <trkpt lat="47.07255" lon="-1.62277">
        <ele>55</ele>
        <time>2021-08-09T17:18:02.000Z</time>
      </trkpt>
      <trkpt lat="47.07267" lon="-1.62266">
        <ele>55</ele>
        <time>2021-08-09T17:18:04.000Z</time>
      </trkpt>
      <trkpt lat="47.07279" lon="-1.62254">
        <ele>54</ele>
        <time>2021-08-09T17:18:06.000Z</time>
      </trkpt>
      <trkpt lat="47.07291" lon="-1.62241">
        <ele>54</ele>
        <time>2021-08-09T17:18:08.000Z</time>
      </trkpt>
      <trkpt lat="47.07302" lon="-1.62228">
        <ele>54</ele>
        <time>2021-08-09T17:18:10.000Z</time>
      </trkpt>
      <trkpt lat="47.07313" lon="-1.62213">
        <ele>53</ele>
        <time>2021-08-09T17:18:12.000Z</time>
      </trkpt>
      <trkpt lat="47.07324" lon="-1.62197">
        <ele>54</ele>
        <time>2021-08-09T17:18:14.000Z</time>
      </trkpt>
      <trkpt lat="47.07334" lon="-1.62181">
        <ele>55</ele>
        <time>2021-08-09T17:18:16.000Z</time>
      </trkpt>
      <trkpt lat="47.07344" lon="-1.62165">
        <ele>55</ele>
        <time>2021-08-09T17:18:18.000Z</time>
      </trkpt>
      <trkpt lat="47.07354" lon="-1.62148">
        <ele>54</ele>
        <time>2021-08-09T17:18:20.000Z</time>
      </trkpt>
      <trkpt lat="47.07364" lon="-1.62132">
        <ele>55</ele>
        <time>2021-08-09T17:18:22.000Z</time>
      </trkpt>
      <trkpt lat="47.07374" lon="-1.62115">
        <ele>55</ele>
        <time>2021-08-09T17:18:24.000Z</time>
      </trkpt>
      <trkpt lat="47.07385" lon="-1.62098">
        <ele>55</ele>
        <time>2021-08-09T17:18:26.000Z</time>
      </trkpt>
      <trkpt lat="47.07395" lon="-1.62081">
        <ele>55</ele>
        <time>2021-08-09T17:18:28.000Z</time>
      </trkpt>
      <trkpt lat="47.07404" lon="-1.62064">
        <ele>55</ele>
        <time>2021-08-09T17:18:30.000Z</time>
      </trkpt>
      <trkpt lat="47.07414" lon="-1.62048">
        <ele>55</ele>
        <time>2021-08-09T17:18:32.000Z</time>
      </trkpt>
      <trkpt lat="47.07424" lon="-1.62032">
        <ele>55</ele>
        <time>2021-08-09T17:18:34.000Z</time>
      </trkpt>
      <trkpt lat="47.07435" lon="-1.62018">
        <ele>55</ele>
        <time>2021-08-09T17:18:36.000Z</time>
      </trkpt>
      <trkpt lat="47.07445" lon="-1.62002">
        <ele>55</ele>
        <time>2021-08-09T17:18:38.000Z</time>
      </trkpt>
      <trkpt lat="47.07456" lon="-1.61988">
        <ele>55</ele>
        <time>2021-08-09T17:18:40.000Z</time>
      </trkpt>
      <trkpt lat="47.07467" lon="-1.61975">
        <ele>55</ele>
        <time>2021-08-09T17:18:42.000Z</time>
      </trkpt>
      <trkpt lat="47.07479" lon="-1.61962">
        <ele>55</ele>
        <time>2021-08-09T17:18:44.000Z</time>
      </trkpt>
      <trkpt lat="47.0749" lon="-1.61949">
        <ele>55</ele>
        <time>2021-08-09T17:18:46.000Z</time>
      </trkpt>
      <trkpt lat="47.07502" lon="-1.61935">
        <ele>55</ele>
        <time>2021-08-09T17:18:48.000Z</time>
      </trkpt>
      <trkpt lat="47.07513" lon="-1.61922">
        <ele>55</ele>
        <time>2021-08-09T17:18:50.000Z</time>
      </trkpt>
      <trkpt lat="47.07524" lon="-1.61909">
        <ele>56</ele>
        <time>2021-08-09T17:18:52.000Z</time>
      </trkpt>
      <trkpt lat="47.07535" lon="-1.61896">
        <ele>56</ele>
        <time>2021-08-09T17:18:54.000Z</time>
      </trkpt>
      <trkpt lat="47.07546" lon="-1.61882">
        <ele>56</ele>
        <time>2021-08-09T17:18:56.000Z</time>
      </trkpt>
      <trkpt lat="47.07557" lon="-1.61868">
        <ele>56</ele>
        <time>2021-08-09T17:18:58.000Z</time>
      </trkpt>
      <trkpt lat="47.07568" lon="-1.61855">
        <ele>56</ele>
        <time>2021-08-09T17:19:00.000Z</time>
      </trkpt>
      <trkpt lat="47.0758" lon="-1.61842">
        <ele>56</ele>
        <time>2021-08-09T17:19:02.000Z</time>
      </trkpt>
      <trkpt lat="47.07591" lon="-1.61828">
        <ele>56</ele>
        <time>2021-08-09T17:19:04.000Z</time>
      </trkpt>
      <trkpt lat="47.07602" lon="-1.61815">
        <ele>56</ele>
        <time>2021-08-09T17:19:06.000Z</time>
      </trkpt>
      <trkpt lat="47.07613" lon="-1.618">
        <ele>56</ele>
        <time>2021-08-09T17:19:08.000Z</time>
      </trkpt>
      <trkpt lat="47.07625" lon="-1.61786">
        <ele>56</ele>
        <time>2021-08-09T17:19:10.000Z</time>
      </trkpt>
      <trkpt lat="47.07637" lon="-1.61772">
        <ele>56</ele>
        <time>2021-08-09T17:19:12.000Z</time>
      </trkpt>
      <trkpt lat="47.07649" lon="-1.61758">
        <ele>55</ele>
        <time>2021-08-09T17:19:14.000Z</time>
      </trkpt>
      <trkpt lat="47.07661" lon="-1.61745">
        <ele>55</ele>
        <time>2021-08-09T17:19:16.000Z</time>
      </trkpt>
      <trkpt lat="47.07674" lon="-1.61732">
        <ele>55</ele>
        <time>2021-08-09T17:19:18.000Z</time>
      </trkpt>
      <trkpt lat="47.07687" lon="-1.61718">
        <ele>54</ele>
        <time>2021-08-09T17:19:20.000Z</time>
      </trkpt>
      <trkpt lat="47.077" lon="-1.61705">
        <ele>54</ele>
        <time>2021-08-09T17:19:22.000Z</time>
      </trkpt>
      <trkpt lat="47.07712" lon="-1.61691">
        <ele>53</ele>
        <time>2021-08-09T17:19:24.000Z</time>
      </trkpt>
      <trkpt lat="47.07725" lon="-1.61676">
        <ele>53</ele>
        <time>2021-08-09T17:19:26.000Z</time>
      </trkpt>
      <trkpt lat="47.07737" lon="-1.61662">
        <ele>53</ele>
        <time>2021-08-09T17:19:28.000Z</time>
      </trkpt>
      <trkpt lat="47.07749" lon="-1.61648">
        <ele>53</ele>
        <time>2021-08-09T17:19:30.000Z</time>
      </trkpt>
      <trkpt lat="47.07761" lon="-1.61634">
        <ele>54</ele>
        <time>2021-08-09T17:19:32.000Z</time>
      </trkpt>
      <trkpt lat="47.07774" lon="-1.6162">
        <ele>54</ele>
        <time>2021-08-09T17:19:34.000Z</time>
      </trkpt>
      <trkpt lat="47.07786" lon="-1.61605">
        <ele>54</ele>
        <time>2021-08-09T17:19:36.000Z</time>
      </trkpt>
      <trkpt lat="47.07799" lon="-1.61593">
        <ele>54</ele>
        <time>2021-08-09T17:19:38.000Z</time>
      </trkpt>
      <trkpt lat="47.07813" lon="-1.61583">
        <ele>55</ele>
        <time>2021-08-09T17:19:40.000Z</time>
      </trkpt>
      <trkpt lat="47.07826" lon="-1.61574">
        <ele>56</ele>
        <time>2021-08-09T17:19:42.000Z</time>
      </trkpt>
      <trkpt lat="47.07839" lon="-1.61566">
        <ele>56</ele>
        <time>2021-08-09T17:19:44.000Z</time>
      </trkpt>
      <trkpt lat="47.07853" lon="-1.61558">
        <ele>56</ele>
        <time>2021-08-09T17:19:46.000Z</time>
      </trkpt>
      <trkpt lat="47.07868" lon="-1.61552">
        <ele>56</ele>
        <time>2021-08-09T17:19:48.000Z</time>
      </trkpt>
      <trkpt lat="47.07882" lon="-1.61547">
        <ele>57</ele>
        <time>2021-08-09T17:19:50.000Z</time>
      </trkpt>
      <trkpt lat="47.07895" lon="-1.61541">
        <ele>57</ele>
        <time>2021-08-09T17:19:52.000Z</time>
      </trkpt>
      <trkpt lat="47.0791" lon="-1.61535">
        <ele>57</ele>
        <time>2021-08-09T17:19:54.000Z</time>
      </trkpt>
      <trkpt lat="47.07924" lon="-1.61528">
        <ele>57</ele>
        <time>2021-08-09T17:19:56.000Z</time>
      </trkpt>
      <trkpt lat="47.07939" lon="-1.61521">
        <ele>57</ele>
        <time>2021-08-09T17:19:58.000Z</time>
      </trkpt>
      <trkpt lat="47.07954" lon="-1.61515">
        <ele>57</ele>
        <time>2021-08-09T17:20:00.000Z</time>
      </trkpt>
      <trkpt lat="47.07969" lon="-1.61509">
        <ele>57</ele>
        <time>2021-08-09T17:20:02.000Z</time>
      </trkpt>
      <trkpt lat="47.07984" lon="-1.61503">
        <ele>56</ele>
        <time>2021-08-09T17:20:04.000Z</time>
      </trkpt>
      <trkpt lat="47.08" lon="-1.61497">
        <ele>56</ele>
        <time>2021-08-09T17:20:06.000Z</time>
      </trkpt>
      <trkpt lat="47.08015" lon="-1.61492">
        <ele>55</ele>
        <time>2021-08-09T17:20:08.000Z</time>
      </trkpt>
      <trkpt lat="47.08029" lon="-1.61486">
        <ele>55</ele>
        <time>2021-08-09T17:20:10.000Z</time>
      </trkpt>
      <trkpt lat="47.08043" lon="-1.6148">
        <ele>56</ele>
        <time>2021-08-09T17:20:12.000Z</time>
      </trkpt>
      <trkpt lat="47.08057" lon="-1.61473">
        <ele>55</ele>
        <time>2021-08-09T17:20:14.000Z</time>
      </trkpt>
      <trkpt lat="47.08071" lon="-1.61467">
        <ele>54</ele>
        <time>2021-08-09T17:20:16.000Z</time>
      </trkpt>
      <trkpt lat="47.08085" lon="-1.61461">
        <ele>54</ele>
        <time>2021-08-09T17:20:18.000Z</time>
      </trkpt>
      <trkpt lat="47.08098" lon="-1.61455">
        <ele>54</ele>
        <time>2021-08-09T17:20:20.000Z</time>
      </trkpt>
      <trkpt lat="47.08112" lon="-1.61448">
        <ele>54</ele>
        <time>2021-08-09T17:20:22.000Z</time>
      </trkpt>
      <trkpt lat="47.08126" lon="-1.61442">
        <ele>54</ele>
        <time>2021-08-09T17:20:24.000Z</time>
      </trkpt>
      <trkpt lat="47.08141" lon="-1.61436">
        <ele>54</ele>
        <time>2021-08-09T17:20:26.000Z</time>
      </trkpt>
      <trkpt lat="47.08156" lon="-1.6143">
        <ele>54</ele>
        <time>2021-08-09T17:20:28.000Z</time>
      </trkpt>
      <trkpt lat="47.08171" lon="-1.61423">
        <ele>53</ele>
        <time>2021-08-09T17:20:30.000Z</time>
      </trkpt>
      <trkpt lat="47.08186" lon="-1.61417">
        <ele>53</ele>
        <time>2021-08-09T17:20:32.000Z</time>
      </trkpt>
      <trkpt lat="47.082" lon="-1.61411">
        <ele>53</ele>
        <time>2021-08-09T17:20:34.000Z</time>
      </trkpt>
      <trkpt lat="47.08214" lon="-1.61405">
        <ele>53</ele>
        <time>2021-08-09T17:20:36.000Z</time>
      </trkpt>
      <trkpt lat="47.08229" lon="-1.61399">
        <ele>54</ele>
        <time>2021-08-09T17:20:38.000Z</time>
      </trkpt>
      <trkpt lat="47.08243" lon="-1.61393">
        <ele>54</ele>
        <time>2021-08-09T17:20:40.000Z</time>
      </trkpt>
      <trkpt lat="47.08257" lon="-1.61387">
        <ele>54</ele>
        <time>2021-08-09T17:20:42.000Z</time>
      </trkpt>
      <trkpt lat="47.08272" lon="-1.6138">
        <ele>55</ele>
        <time>2021-08-09T17:20:44.000Z</time>
      </trkpt>
      <trkpt lat="47.08286" lon="-1.61374">
        <ele>55</ele>
        <time>2021-08-09T17:20:46.000Z</time>
      </trkpt>
      <trkpt lat="47.08301" lon="-1.61368">
        <ele>55</ele>
        <time>2021-08-09T17:20:48.000Z</time>
      </trkpt>
      <trkpt lat="47.08315" lon="-1.61362">
        <ele>55</ele>
        <time>2021-08-09T17:20:50.000Z</time>
      </trkpt>
      <trkpt lat="47.0833" lon="-1.61356">
        <ele>55</ele>
        <time>2021-08-09T17:20:52.000Z</time>
      </trkpt>
      <trkpt lat="47.08352" lon="-1.61346">
        <ele>54</ele>
        <time>2021-08-09T17:20:55.000Z</time>
      </trkpt>
      <trkpt lat="47.08367" lon="-1.6134">
        <ele>54</ele>
        <time>2021-08-09T17:20:57.000Z</time>
      </trkpt>
      <trkpt lat="47.08381" lon="-1.61334">
        <ele>54</ele>
        <time>2021-08-09T17:20:59.000Z</time>
      </trkpt>
      <trkpt lat="47.08396" lon="-1.61327">
        <ele>53</ele>
        <time>2021-08-09T17:21:01.000Z</time>
      </trkpt>
      <trkpt lat="47.0841" lon="-1.61321">
        <ele>53</ele>
        <time>2021-08-09T17:21:03.000Z</time>
      </trkpt>
      <trkpt lat="47.08425" lon="-1.61316">
        <ele>53</ele>
        <time>2021-08-09T17:21:05.000Z</time>
      </trkpt>
      <trkpt lat="47.08446" lon="-1.61306">
        <ele>52</ele>
        <time>2021-08-09T17:21:08.000Z</time>
      </trkpt>
      <trkpt lat="47.08459" lon="-1.61301">
        <ele>52</ele>
        <time>2021-08-09T17:21:10.000Z</time>
      </trkpt>
      <trkpt lat="47.08473" lon="-1.61295">
        <ele>52</ele>
        <time>2021-08-09T17:21:12.000Z</time>
      </trkpt>
      <trkpt lat="47.08487" lon="-1.61289">
        <ele>52</ele>
        <time>2021-08-09T17:21:14.000Z</time>
      </trkpt>
      <trkpt lat="47.085" lon="-1.61282">
        <ele>51</ele>
        <time>2021-08-09T17:21:16.000Z</time>
      </trkpt>
      <trkpt lat="47.08515" lon="-1.61278">
        <ele>52</ele>
        <time>2021-08-09T17:21:18.000Z</time>
      </trkpt>
      <trkpt lat="47.0853" lon="-1.61272">
        <ele>51</ele>
        <time>2021-08-09T17:21:20.000Z</time>
      </trkpt>
      <trkpt lat="47.08544" lon="-1.61265">
        <ele>51</ele>
        <time>2021-08-09T17:21:22.000Z</time>
      </trkpt>
      <trkpt lat="47.08558" lon="-1.61259">
        <ele>51</ele>
        <time>2021-08-09T17:21:24.000Z</time>
      </trkpt>
      <trkpt lat="47.08572" lon="-1.61253">
        <ele>51</ele>
        <time>2021-08-09T17:21:26.000Z</time>
      </trkpt>
      <trkpt lat="47.08585" lon="-1.61247">
        <ele>52</ele>
        <time>2021-08-09T17:21:28.000Z</time>
      </trkpt>
      <trkpt lat="47.08598" lon="-1.61241">
        <ele>52</ele>
        <time>2021-08-09T17:21:30.000Z</time>
      </trkpt>
      <trkpt lat="47.08612" lon="-1.61235">
        <ele>52</ele>
        <time>2021-08-09T17:21:32.000Z</time>
      </trkpt>
      <trkpt lat="47.08625" lon="-1.61229">
        <ele>53</ele>
        <time>2021-08-09T17:21:34.000Z</time>
      </trkpt>
      <trkpt lat="47.08638" lon="-1.61223">
        <ele>53</ele>
        <time>2021-08-09T17:21:36.000Z</time>
      </trkpt>
      <trkpt lat="47.0865" lon="-1.61218">
        <ele>53</ele>
        <time>2021-08-09T17:21:38.000Z</time>
      </trkpt>
      <trkpt lat="47.08663" lon="-1.61213">
        <ele>54</ele>
        <time>2021-08-09T17:21:40.000Z</time>
      </trkpt>
      <trkpt lat="47.08676" lon="-1.61208">
        <ele>54</ele>
        <time>2021-08-09T17:21:42.000Z</time>
      </trkpt>
      <trkpt lat="47.08689" lon="-1.61202">
        <ele>54</ele>
        <time>2021-08-09T17:21:44.000Z</time>
      </trkpt>
      <trkpt lat="47.08702" lon="-1.61196">
        <ele>55</ele>
        <time>2021-08-09T17:21:46.000Z</time>
      </trkpt>
      <trkpt lat="47.08714" lon="-1.61191">
        <ele>55</ele>
        <time>2021-08-09T17:21:48.000Z</time>
      </trkpt>
      <trkpt lat="47.08727" lon="-1.61185">
        <ele>55</ele>
        <time>2021-08-09T17:21:50.000Z</time>
      </trkpt>
      <trkpt lat="47.0874" lon="-1.6118">
        <ele>55</ele>
        <time>2021-08-09T17:21:52.000Z</time>
      </trkpt>
      <trkpt lat="47.08752" lon="-1.61175">
        <ele>55</ele>
        <time>2021-08-09T17:21:54.000Z</time>
      </trkpt>
      <trkpt lat="47.08765" lon="-1.6117">
        <ele>55</ele>
        <time>2021-08-09T17:21:56.000Z</time>
      </trkpt>
      <trkpt lat="47.08777" lon="-1.61164">
        <ele>55</ele>
        <time>2021-08-09T17:21:58.000Z</time>
      </trkpt>
      <trkpt lat="47.0879" lon="-1.61159">
        <ele>55</ele>
        <time>2021-08-09T17:22:00.000Z</time>
      </trkpt>
      <trkpt lat="47.08802" lon="-1.61154">
        <ele>55</ele>
        <time>2021-08-09T17:22:02.000Z</time>
      </trkpt>
      <trkpt lat="47.08814" lon="-1.61149">
        <ele>55</ele>
        <time>2021-08-09T17:22:04.000Z</time>
      </trkpt>
      <trkpt lat="47.08826" lon="-1.61144">
        <ele>55</ele>
        <time>2021-08-09T17:22:06.000Z</time>
      </trkpt>
      <trkpt lat="47.08838" lon="-1.61139">
        <ele>55</ele>
        <time>2021-08-09T17:22:08.000Z</time>
      </trkpt>
      <trkpt lat="47.08851" lon="-1.61134">
        <ele>56</ele>
        <time>2021-08-09T17:22:10.000Z</time>
      </trkpt>
      <trkpt lat="47.08864" lon="-1.61128">
        <ele>56</ele>
        <time>2021-08-09T17:22:12.000Z</time>
      </trkpt>
      <trkpt lat="47.08876" lon="-1.61122">
        <ele>56</ele>
        <time>2021-08-09T17:22:14.000Z</time>
      </trkpt>
      <trkpt lat="47.08888" lon="-1.61117">
        <ele>57</ele>
        <time>2021-08-09T17:22:16.000Z</time>
      </trkpt>
      <trkpt lat="47.089" lon="-1.61112">
        <ele>57</ele>
        <time>2021-08-09T17:22:18.000Z</time>
      </trkpt>
      <trkpt lat="47.08912" lon="-1.61107">
        <ele>57</ele>
        <time>2021-08-09T17:22:20.000Z</time>
      </trkpt>
      <trkpt lat="47.08924" lon="-1.61102">
        <ele>57</ele>
        <time>2021-08-09T17:22:22.000Z</time>
      </trkpt>
      <trkpt lat="47.08936" lon="-1.61097">
        <ele>57</ele>
        <time>2021-08-09T17:22:24.000Z</time>
      </trkpt>
      <trkpt lat="47.08947" lon="-1.61091">
        <ele>57</ele>
        <time>2021-08-09T17:22:26.000Z</time>
      </trkpt>
      <trkpt lat="47.0896" lon="-1.61086">
        <ele>57</ele>
        <time>2021-08-09T17:22:28.000Z</time>
      </trkpt>
      <trkpt lat="47.08973" lon="-1.61083">
        <ele>58</ele>
        <time>2021-08-09T17:22:30.000Z</time>
      </trkpt>
      <trkpt lat="47.08986" lon="-1.61083">
        <ele>57</ele>
        <time>2021-08-09T17:22:32.000Z</time>
      </trkpt>
      <trkpt lat="47.08998" lon="-1.61084">
        <ele>57</ele>
        <time>2021-08-09T17:22:34.000Z</time>
      </trkpt>
      <trkpt lat="47.09011" lon="-1.61088">
        <ele>57</ele>
        <time>2021-08-09T17:22:36.000Z</time>
      </trkpt>
      <trkpt lat="47.09024" lon="-1.61092">
        <ele>57</ele>
        <time>2021-08-09T17:22:38.000Z</time>
      </trkpt>
      <trkpt lat="47.09036" lon="-1.61096">
        <ele>57</ele>
        <time>2021-08-09T17:22:40.000Z</time>
      </trkpt>
      <trkpt lat="47.09049" lon="-1.611">
        <ele>57</ele>
        <time>2021-08-09T17:22:42.000Z</time>
      </trkpt>
      <trkpt lat="47.09062" lon="-1.61103">
        <ele>58</ele>
        <time>2021-08-09T17:22:44.000Z</time>
      </trkpt>
      <trkpt lat="47.09074" lon="-1.61107">
        <ele>59</ele>
        <time>2021-08-09T17:22:46.000Z</time>
      </trkpt>
      <trkpt lat="47.09087" lon="-1.61111">
        <ele>59</ele>
        <time>2021-08-09T17:22:48.000Z</time>
      </trkpt>
      <trkpt lat="47.091" lon="-1.61114">
        <ele>60</ele>
        <time>2021-08-09T17:22:50.000Z</time>
      </trkpt>
      <trkpt lat="47.09113" lon="-1.61118">
        <ele>60</ele>
        <time>2021-08-09T17:22:52.000Z</time>
      </trkpt>
      <trkpt lat="47.09126" lon="-1.61122">
        <ele>61</ele>
        <time>2021-08-09T17:22:54.000Z</time>
      </trkpt>
      <trkpt lat="47.09138" lon="-1.61126">
        <ele>61</ele>
        <time>2021-08-09T17:22:56.000Z</time>
      </trkpt>
      <trkpt lat="47.0915" lon="-1.61129">
        <ele>60</ele>
        <time>2021-08-09T17:22:58.000Z</time>
      </trkpt>
      <trkpt lat="47.0916" lon="-1.61133">
        <ele>60</ele>
        <time>2021-08-09T17:23:00.000Z</time>
      </trkpt>
      <trkpt lat="47.0917" lon="-1.61136">
        <ele>61</ele>
        <time>2021-08-09T17:23:02.000Z</time>
      </trkpt>
      <trkpt lat="47.09179" lon="-1.61138">
        <ele>61</ele>
        <time>2021-08-09T17:23:04.000Z</time>
      </trkpt>
      <trkpt lat="47.09189" lon="-1.61141">
        <ele>61</ele>
        <time>2021-08-09T17:23:07.000Z</time>
      </trkpt>
      <trkpt lat="47.09198" lon="-1.61144">
        <ele>62</ele>
        <time>2021-08-09T17:23:28.000Z</time>
      </trkpt>
      <trkpt lat="47.09208" lon="-1.61147">
        <ele>61</ele>
        <time>2021-08-09T17:23:30.000Z</time>
      </trkpt>
      <trkpt lat="47.09219" lon="-1.61154">
        <ele>61</ele>
        <time>2021-08-09T17:23:32.000Z</time>
      </trkpt>
      <trkpt lat="47.09229" lon="-1.61166">
        <ele>60</ele>
        <time>2021-08-09T17:23:34.000Z</time>
      </trkpt>
      <trkpt lat="47.0924" lon="-1.61174">
        <ele>60</ele>
        <time>2021-08-09T17:23:36.000Z</time>
      </trkpt>
      <trkpt lat="47.09252" lon="-1.61178">
        <ele>60</ele>
        <time>2021-08-09T17:23:38.000Z</time>
      </trkpt>
      <trkpt lat="47.09265" lon="-1.61182">
        <ele>61</ele>
        <time>2021-08-09T17:23:40.000Z</time>
      </trkpt>
      <trkpt lat="47.09279" lon="-1.61186">
        <ele>61</ele>
        <time>2021-08-09T17:23:42.000Z</time>
      </trkpt>
      <trkpt lat="47.09292" lon="-1.61191">
        <ele>62</ele>
        <time>2021-08-09T17:23:44.000Z</time>
      </trkpt>
      <trkpt lat="47.09306" lon="-1.61194">
        <ele>62</ele>
        <time>2021-08-09T17:23:46.000Z</time>
      </trkpt>
      <trkpt lat="47.0932" lon="-1.61198">
        <ele>62</ele>
        <time>2021-08-09T17:23:48.000Z</time>
      </trkpt>
      <trkpt lat="47.09333" lon="-1.61201">
        <ele>62</ele>
        <time>2021-08-09T17:23:50.000Z</time>
      </trkpt>
      <trkpt lat="47.09347" lon="-1.61203">
        <ele>62</ele>
        <time>2021-08-09T17:23:52.000Z</time>
      </trkpt>
      <trkpt lat="47.0936" lon="-1.61207">
        <ele>63</ele>
        <time>2021-08-09T17:23:54.000Z</time>
      </trkpt>
      <trkpt lat="47.09375" lon="-1.61213">
        <ele>61</ele>
        <time>2021-08-09T17:23:56.000Z</time>
      </trkpt>
      <trkpt lat="47.09389" lon="-1.6122">
        <ele>59</ele>
        <time>2021-08-09T17:23:58.000Z</time>
      </trkpt>
      <trkpt lat="47.09403" lon="-1.61227">
        <ele>58</ele>
        <time>2021-08-09T17:24:00.000Z</time>
      </trkpt>
      <trkpt lat="47.09417" lon="-1.61231">
        <ele>57</ele>
        <time>2021-08-09T17:24:02.000Z</time>
      </trkpt>
      <trkpt lat="47.09429" lon="-1.6122">
        <ele>57</ele>
        <time>2021-08-09T17:24:04.000Z</time>
      </trkpt>
      <trkpt lat="47.09441" lon="-1.61205">
        <ele>56</ele>
        <time>2021-08-09T17:24:06.000Z</time>
      </trkpt>
      <trkpt lat="47.09453" lon="-1.6119">
        <ele>57</ele>
        <time>2021-08-09T17:24:08.000Z</time>
      </trkpt>
      <trkpt lat="47.09465" lon="-1.61177">
        <ele>57</ele>
        <time>2021-08-09T17:24:10.000Z</time>
      </trkpt>
      <trkpt lat="47.09477" lon="-1.61164">
        <ele>57</ele>
        <time>2021-08-09T17:24:12.000Z</time>
      </trkpt>
      <trkpt lat="47.09488" lon="-1.61152">
        <ele>57</ele>
        <time>2021-08-09T17:24:14.000Z</time>
      </trkpt>
      <trkpt lat="47.09501" lon="-1.61143">
        <ele>58</ele>
        <time>2021-08-09T17:24:16.000Z</time>
      </trkpt>
      <trkpt lat="47.09516" lon="-1.61137">
        <ele>58</ele>
        <time>2021-08-09T17:24:18.000Z</time>
      </trkpt>
      <trkpt lat="47.09531" lon="-1.61132">
        <ele>58</ele>
        <time>2021-08-09T17:24:20.000Z</time>
      </trkpt>
      <trkpt lat="47.09547" lon="-1.61132">
        <ele>58</ele>
        <time>2021-08-09T17:24:22.000Z</time>
      </trkpt>
      <trkpt lat="47.09562" lon="-1.6113">
        <ele>57</ele>
        <time>2021-08-09T17:24:24.000Z</time>
      </trkpt>
      <trkpt lat="47.09578" lon="-1.61129">
        <ele>57</ele>
        <time>2021-08-09T17:24:26.000Z</time>
      </trkpt>
      <trkpt lat="47.09593" lon="-1.61127">
        <ele>56</ele>
        <time>2021-08-09T17:24:28.000Z</time>
      </trkpt>
      <trkpt lat="47.09609" lon="-1.61125">
        <ele>55</ele>
        <time>2021-08-09T17:24:30.000Z</time>
      </trkpt>
      <trkpt lat="47.09624" lon="-1.61123">
        <ele>56</ele>
        <time>2021-08-09T17:24:32.000Z</time>
      </trkpt>
      <trkpt lat="47.09639" lon="-1.61121">
        <ele>55</ele>
        <time>2021-08-09T17:24:34.000Z</time>
      </trkpt>
      <trkpt lat="47.09654" lon="-1.6112">
        <ele>55</ele>
        <time>2021-08-09T17:24:36.000Z</time>
      </trkpt>
      <trkpt lat="47.09669" lon="-1.61118">
        <ele>54</ele>
        <time>2021-08-09T17:24:38.000Z</time>
      </trkpt>
      <trkpt lat="47.09684" lon="-1.61116">
        <ele>54</ele>
        <time>2021-08-09T17:24:40.000Z</time>
      </trkpt>
      <trkpt lat="47.097" lon="-1.61115">
        <ele>54</ele>
        <time>2021-08-09T17:24:42.000Z</time>
      </trkpt>
      <trkpt lat="47.09716" lon="-1.61113">
        <ele>53</ele>
        <time>2021-08-09T17:24:44.000Z</time>
      </trkpt>
      <trkpt lat="47.09731" lon="-1.61111">
        <ele>54</ele>
        <time>2021-08-09T17:24:46.000Z</time>
      </trkpt>
      <trkpt lat="47.09746" lon="-1.61108">
        <ele>54</ele>
        <time>2021-08-09T17:24:48.000Z</time>
      </trkpt>
      <trkpt lat="47.09761" lon="-1.61106">
        <ele>54</ele>
        <time>2021-08-09T17:24:50.000Z</time>
      </trkpt>
      <trkpt lat="47.09775" lon="-1.61104">
        <ele>55</ele>
        <time>2021-08-09T17:24:52.000Z</time>
      </trkpt>
      <trkpt lat="47.09789" lon="-1.61101">
        <ele>55</ele>
        <time>2021-08-09T17:24:54.000Z</time>
      </trkpt>
      <trkpt lat="47.09803" lon="-1.61093">
        <ele>56</ele>
        <time>2021-08-09T17:24:56.000Z</time>
      </trkpt>
      <trkpt lat="47.09817" lon="-1.61085">
        <ele>55</ele>
        <time>2021-08-09T17:24:58.000Z</time>
      </trkpt>
      <trkpt lat="47.09829" lon="-1.61075">
        <ele>54</ele>
        <time>2021-08-09T17:25:00.000Z</time>
      </trkpt>
      <trkpt lat="47.09841" lon="-1.61063">
        <ele>54</ele>
        <time>2021-08-09T17:25:02.000Z</time>
      </trkpt>
      <trkpt lat="47.09851" lon="-1.61049">
        <ele>54</ele>
        <time>2021-08-09T17:25:04.000Z</time>
      </trkpt>
      <trkpt lat="47.0986" lon="-1.61034">
        <ele>54</ele>
        <time>2021-08-09T17:25:06.000Z</time>
      </trkpt>
      <trkpt lat="47.09868" lon="-1.61017">
        <ele>54</ele>
        <time>2021-08-09T17:25:08.000Z</time>
      </trkpt>
      <trkpt lat="47.09876" lon="-1.61">
        <ele>55</ele>
        <time>2021-08-09T17:25:10.000Z</time>
      </trkpt>
      <trkpt lat="47.09883" lon="-1.60983">
        <ele>55</ele>
        <time>2021-08-09T17:25:12.000Z</time>
      </trkpt>
      <trkpt lat="47.0989" lon="-1.60965">
        <ele>55</ele>
        <time>2021-08-09T17:25:14.000Z</time>
      </trkpt>
      <trkpt lat="47.09897" lon="-1.60948">
        <ele>55</ele>
        <time>2021-08-09T17:25:16.000Z</time>
      </trkpt>
      <trkpt lat="47.09905" lon="-1.6093">
        <ele>56</ele>
        <time>2021-08-09T17:25:18.000Z</time>
      </trkpt>
      <trkpt lat="47.09912" lon="-1.60912">
        <ele>56</ele>
        <time>2021-08-09T17:25:20.000Z</time>
      </trkpt>
      <trkpt lat="47.09919" lon="-1.60894">
        <ele>56</ele>
        <time>2021-08-09T17:25:22.000Z</time>
      </trkpt>
      <trkpt lat="47.09926" lon="-1.60876">
        <ele>57</ele>
        <time>2021-08-09T17:25:24.000Z</time>
      </trkpt>
      <trkpt lat="47.09933" lon="-1.60857">
        <ele>57</ele>
        <time>2021-08-09T17:25:26.000Z</time>
      </trkpt>
      <trkpt lat="47.09941" lon="-1.60839">
        <ele>57</ele>
        <time>2021-08-09T17:25:28.000Z</time>
      </trkpt>
      <trkpt lat="47.09947" lon="-1.6082">
        <ele>57</ele>
        <time>2021-08-09T17:25:30.000Z</time>
      </trkpt>
      <trkpt lat="47.09953" lon="-1.608">
        <ele>58</ele>
        <time>2021-08-09T17:25:32.000Z</time>
      </trkpt>
      <trkpt lat="47.09959" lon="-1.6078">
        <ele>58</ele>
        <time>2021-08-09T17:25:34.000Z</time>
      </trkpt>
      <trkpt lat="47.09964" lon="-1.60761">
        <ele>57</ele>
        <time>2021-08-09T17:25:36.000Z</time>
      </trkpt>
      <trkpt lat="47.0997" lon="-1.60741">
        <ele>58</ele>
        <time>2021-08-09T17:25:38.000Z</time>
      </trkpt>
      <trkpt lat="47.09977" lon="-1.60721">
        <ele>58</ele>
        <time>2021-08-09T17:25:40.000Z</time>
      </trkpt>
      <trkpt lat="47.09982" lon="-1.60702">
        <ele>58</ele>
        <time>2021-08-09T17:25:42.000Z</time>
      </trkpt>
      <trkpt lat="47.09988" lon="-1.60683">
        <ele>58</ele>
        <time>2021-08-09T17:25:44.000Z</time>
      </trkpt>
      <trkpt lat="47.09994" lon="-1.60663">
        <ele>57</ele>
        <time>2021-08-09T17:25:46.000Z</time>
      </trkpt>
      <trkpt lat="47.09999" lon="-1.60643">
        <ele>57</ele>
        <time>2021-08-09T17:25:48.000Z</time>
      </trkpt>
      <trkpt lat="47.10005" lon="-1.60624">
        <ele>57</ele>
        <time>2021-08-09T17:25:50.000Z</time>
      </trkpt>
      <trkpt lat="47.10011" lon="-1.60604">
        <ele>57</ele>
        <time>2021-08-09T17:25:52.000Z</time>
      </trkpt>
      <trkpt lat="47.10017" lon="-1.60584">
        <ele>57</ele>
        <time>2021-08-09T17:25:54.000Z</time>
      </trkpt>
      <trkpt lat="47.10023" lon="-1.60565">
        <ele>57</ele>
        <time>2021-08-09T17:25:56.000Z</time>
      </trkpt>
      <trkpt lat="47.10028" lon="-1.60545">
        <ele>57</ele>
        <time>2021-08-09T17:25:58.000Z</time>
      </trkpt>
      <trkpt lat="47.10034" lon="-1.60525">
        <ele>56</ele>
        <time>2021-08-09T17:26:00.000Z</time>
      </trkpt>
      <trkpt lat="47.10039" lon="-1.60506">
        <ele>57</ele>
        <time>2021-08-09T17:26:02.000Z</time>
      </trkpt>
      <trkpt lat="47.10044" lon="-1.60486">
        <ele>57</ele>
        <time>2021-08-09T17:26:04.000Z</time>
      </trkpt>
      <trkpt lat="47.10049" lon="-1.60466">
        <ele>56</ele>
        <time>2021-08-09T17:26:06.000Z</time>
      </trkpt>
      <trkpt lat="47.10053" lon="-1.60445">
        <ele>56</ele>
        <time>2021-08-09T17:26:08.000Z</time>
      </trkpt>
      <trkpt lat="47.10056" lon="-1.60423">
        <ele>56</ele>
        <time>2021-08-09T17:26:10.000Z</time>
      </trkpt>
      <trkpt lat="47.10058" lon="-1.60402">
        <ele>57</ele>
        <time>2021-08-09T17:26:12.000Z</time>
      </trkpt>
      <trkpt lat="47.10061" lon="-1.6038">
        <ele>57</ele>
        <time>2021-08-09T17:26:14.000Z</time>
      </trkpt>
      <trkpt lat="47.10063" lon="-1.60359">
        <ele>57</ele>
        <time>2021-08-09T17:26:16.000Z</time>
      </trkpt>
      <trkpt lat="47.10065" lon="-1.60338">
        <ele>57</ele>
        <time>2021-08-09T17:26:18.000Z</time>
      </trkpt>
      <trkpt lat="47.10067" lon="-1.60316">
        <ele>57</ele>
        <time>2021-08-09T17:26:20.000Z</time>
      </trkpt>
      <trkpt lat="47.10069" lon="-1.60295">
        <ele>57</ele>
        <time>2021-08-09T17:26:22.000Z</time>
      </trkpt>
      <trkpt lat="47.10071" lon="-1.60274">
        <ele>58</ele>
        <time>2021-08-09T17:26:24.000Z</time>
      </trkpt>
      <trkpt lat="47.10073" lon="-1.60253">
        <ele>58</ele>
        <time>2021-08-09T17:26:26.000Z</time>
      </trkpt>
      <trkpt lat="47.10075" lon="-1.60232">
        <ele>58</ele>
        <time>2021-08-09T17:26:28.000Z</time>
      </trkpt>
      <trkpt lat="47.10076" lon="-1.6021">
        <ele>57</ele>
        <time>2021-08-09T17:26:30.000Z</time>
      </trkpt>
      <trkpt lat="47.10077" lon="-1.60188">
        <ele>57</ele>
        <time>2021-08-09T17:26:32.000Z</time>
      </trkpt>
      <trkpt lat="47.10076" lon="-1.60167">
        <ele>57</ele>
        <time>2021-08-09T17:26:34.000Z</time>
      </trkpt>
      <trkpt lat="47.10069" lon="-1.60148">
        <ele>57</ele>
        <time>2021-08-09T17:26:36.000Z</time>
      </trkpt>
      <trkpt lat="47.10065" lon="-1.60126">
        <ele>57</ele>
        <time>2021-08-09T17:26:38.000Z</time>
      </trkpt>
      <trkpt lat="47.10072" lon="-1.60107">
        <ele>56</ele>
        <time>2021-08-09T17:26:40.000Z</time>
      </trkpt>
      <trkpt lat="47.10086" lon="-1.60099">
        <ele>56</ele>
        <time>2021-08-09T17:26:42.000Z</time>
      </trkpt>
      <trkpt lat="47.10101" lon="-1.60097">
        <ele>55</ele>
        <time>2021-08-09T17:26:44.000Z</time>
      </trkpt>
      <trkpt lat="47.1011" lon="-1.60083">
        <ele>55</ele>
        <time>2021-08-09T17:26:46.000Z</time>
      </trkpt>
      <trkpt lat="47.10118" lon="-1.60066">
        <ele>55</ele>
        <time>2021-08-09T17:26:48.000Z</time>
      </trkpt>
      <trkpt lat="47.10126" lon="-1.60047">
        <ele>56</ele>
        <time>2021-08-09T17:26:50.000Z</time>
      </trkpt>
      <trkpt lat="47.10135" lon="-1.60029">
        <ele>56</ele>
        <time>2021-08-09T17:26:52.000Z</time>
      </trkpt>
      <trkpt lat="47.10145" lon="-1.60011">
        <ele>57</ele>
        <time>2021-08-09T17:26:54.000Z</time>
      </trkpt>
      <trkpt lat="47.10155" lon="-1.59995">
        <ele>56</ele>
        <time>2021-08-09T17:26:56.000Z</time>
      </trkpt>
      <trkpt lat="47.10165" lon="-1.59978">
        <ele>57</ele>
        <time>2021-08-09T17:26:58.000Z</time>
      </trkpt>
      <trkpt lat="47.10175" lon="-1.59962">
        <ele>57</ele>
        <time>2021-08-09T17:27:00.000Z</time>
      </trkpt>
      <trkpt lat="47.10184" lon="-1.59946">
        <ele>57</ele>
        <time>2021-08-09T17:27:02.000Z</time>
      </trkpt>
      <trkpt lat="47.10194" lon="-1.59931">
        <ele>57</ele>
        <time>2021-08-09T17:27:04.000Z</time>
      </trkpt>
      <trkpt lat="47.10204" lon="-1.59916">
        <ele>57</ele>
        <time>2021-08-09T17:27:06.000Z</time>
      </trkpt>
      <trkpt lat="47.10214" lon="-1.599">
        <ele>57</ele>
        <time>2021-08-09T17:27:08.000Z</time>
      </trkpt>
      <trkpt lat="47.10223" lon="-1.59884">
        <ele>57</ele>
        <time>2021-08-09T17:27:10.000Z</time>
      </trkpt>
      <trkpt lat="47.10233" lon="-1.59868">
        <ele>57</ele>
        <time>2021-08-09T17:27:12.000Z</time>
      </trkpt>
      <trkpt lat="47.10243" lon="-1.59852">
        <ele>58</ele>
        <time>2021-08-09T17:27:14.000Z</time>
      </trkpt>
      <trkpt lat="47.10253" lon="-1.59837">
        <ele>58</ele>
        <time>2021-08-09T17:27:16.000Z</time>
      </trkpt>
      <trkpt lat="47.10262" lon="-1.59821">
        <ele>57</ele>
        <time>2021-08-09T17:27:18.000Z</time>
      </trkpt>
      <trkpt lat="47.10272" lon="-1.59805">
        <ele>57</ele>
        <time>2021-08-09T17:27:20.000Z</time>
      </trkpt>
      <trkpt lat="47.10281" lon="-1.59788">
        <ele>57</ele>
        <time>2021-08-09T17:27:22.000Z</time>
      </trkpt>
      <trkpt lat="47.1029" lon="-1.59772">
        <ele>57</ele>
        <time>2021-08-09T17:27:24.000Z</time>
      </trkpt>
      <trkpt lat="47.103" lon="-1.59757">
        <ele>58</ele>
        <time>2021-08-09T17:27:26.000Z</time>
      </trkpt>
      <trkpt lat="47.10308" lon="-1.5974">
        <ele>59</ele>
        <time>2021-08-09T17:27:28.000Z</time>
      </trkpt>
      <trkpt lat="47.10316" lon="-1.59723">
        <ele>60</ele>
        <time>2021-08-09T17:27:30.000Z</time>
      </trkpt>
      <trkpt lat="47.10326" lon="-1.59707">
        <ele>62</ele>
        <time>2021-08-09T17:27:32.000Z</time>
      </trkpt>
      <trkpt lat="47.10335" lon="-1.59691">
        <ele>62</ele>
        <time>2021-08-09T17:27:34.000Z</time>
      </trkpt>
      <trkpt lat="47.10345" lon="-1.59675">
        <ele>62</ele>
        <time>2021-08-09T17:27:36.000Z</time>
      </trkpt>
      <trkpt lat="47.10354" lon="-1.5966">
        <ele>63</ele>
        <time>2021-08-09T17:27:38.000Z</time>
      </trkpt>
      <trkpt lat="47.10365" lon="-1.59644">
        <ele>63</ele>
        <time>2021-08-09T17:27:40.000Z</time>
      </trkpt>
      <trkpt lat="47.10375" lon="-1.59627">
        <ele>64</ele>
        <time>2021-08-09T17:27:42.000Z</time>
      </trkpt>
      <trkpt lat="47.10385" lon="-1.59609">
        <ele>64</ele>
        <time>2021-08-09T17:27:44.000Z</time>
      </trkpt>
      <trkpt lat="47.10395" lon="-1.59593">
        <ele>64</ele>
        <time>2021-08-09T17:27:46.000Z</time>
      </trkpt>
      <trkpt lat="47.10405" lon="-1.59577">
        <ele>64</ele>
        <time>2021-08-09T17:27:48.000Z</time>
      </trkpt>
      <trkpt lat="47.10416" lon="-1.59561">
        <ele>63</ele>
        <time>2021-08-09T17:27:50.000Z</time>
      </trkpt>
      <trkpt lat="47.10425" lon="-1.59545">
        <ele>63</ele>
        <time>2021-08-09T17:27:52.000Z</time>
      </trkpt>
      <trkpt lat="47.10435" lon="-1.59528">
        <ele>62</ele>
        <time>2021-08-09T17:27:54.000Z</time>
      </trkpt>
      <trkpt lat="47.10445" lon="-1.59512">
        <ele>62</ele>
        <time>2021-08-09T17:27:56.000Z</time>
      </trkpt>
      <trkpt lat="47.10454" lon="-1.59496">
        <ele>62</ele>
        <time>2021-08-09T17:27:58.000Z</time>
      </trkpt>
      <trkpt lat="47.10464" lon="-1.59479">
        <ele>61</ele>
        <time>2021-08-09T17:28:00.000Z</time>
      </trkpt>
      <trkpt lat="47.10474" lon="-1.59463">
        <ele>60</ele>
        <time>2021-08-09T17:28:02.000Z</time>
      </trkpt>
      <trkpt lat="47.10484" lon="-1.59448">
        <ele>60</ele>
        <time>2021-08-09T17:28:04.000Z</time>
      </trkpt>
      <trkpt lat="47.10493" lon="-1.59431">
        <ele>60</ele>
        <time>2021-08-09T17:28:06.000Z</time>
      </trkpt>
      <trkpt lat="47.10503" lon="-1.59415">
        <ele>60</ele>
        <time>2021-08-09T17:28:08.000Z</time>
      </trkpt>
      <trkpt lat="47.10513" lon="-1.59399">
        <ele>60</ele>
        <time>2021-08-09T17:28:10.000Z</time>
      </trkpt>
      <trkpt lat="47.10523" lon="-1.59383">
        <ele>60</ele>
        <time>2021-08-09T17:28:12.000Z</time>
      </trkpt>
      <trkpt lat="47.10532" lon="-1.59367">
        <ele>60</ele>
        <time>2021-08-09T17:28:14.000Z</time>
      </trkpt>
      <trkpt lat="47.10541" lon="-1.59351">
        <ele>60</ele>
        <time>2021-08-09T17:28:16.000Z</time>
      </trkpt>
      <trkpt lat="47.1055" lon="-1.59334">
        <ele>60</ele>
        <time>2021-08-09T17:28:18.000Z</time>
      </trkpt>
      <trkpt lat="47.10558" lon="-1.59318">
        <ele>60</ele>
        <time>2021-08-09T17:28:20.000Z</time>
      </trkpt>
      <trkpt lat="47.10567" lon="-1.59302">
        <ele>60</ele>
        <time>2021-08-09T17:28:22.000Z</time>
      </trkpt>
      <trkpt lat="47.10575" lon="-1.59286">
        <ele>61</ele>
        <time>2021-08-09T17:28:24.000Z</time>
      </trkpt>
      <trkpt lat="47.10584" lon="-1.59269">
        <ele>61</ele>
        <time>2021-08-09T17:28:26.000Z</time>
      </trkpt>
      <trkpt lat="47.10594" lon="-1.59255">
        <ele>61</ele>
        <time>2021-08-09T17:28:28.000Z</time>
      </trkpt>
      <trkpt lat="47.10605" lon="-1.59241">
        <ele>61</ele>
        <time>2021-08-09T17:28:30.000Z</time>
      </trkpt>
      <trkpt lat="47.10615" lon="-1.59226">
        <ele>61</ele>
        <time>2021-08-09T17:28:32.000Z</time>
      </trkpt>
      <trkpt lat="47.10624" lon="-1.59211">
        <ele>61</ele>
        <time>2021-08-09T17:28:34.000Z</time>
      </trkpt>
      <trkpt lat="47.10632" lon="-1.59194">
        <ele>61</ele>
        <time>2021-08-09T17:28:36.000Z</time>
      </trkpt>
      <trkpt lat="47.1064" lon="-1.59179">
        <ele>62</ele>
        <time>2021-08-09T17:28:38.000Z</time>
      </trkpt>
      <trkpt lat="47.10648" lon="-1.59162">
        <ele>62</ele>
        <time>2021-08-09T17:28:40.000Z</time>
      </trkpt>
      <trkpt lat="47.10656" lon="-1.59144">
        <ele>63</ele>
        <time>2021-08-09T17:28:42.000Z</time>
      </trkpt>
      <trkpt lat="47.10663" lon="-1.59125">
        <ele>63</ele>
        <time>2021-08-09T17:28:44.000Z</time>
      </trkpt>
      <trkpt lat="47.10669" lon="-1.59107">
        <ele>64</ele>
        <time>2021-08-09T17:28:46.000Z</time>
      </trkpt>
      <trkpt lat="47.10675" lon="-1.59089">
        <ele>64</ele>
        <time>2021-08-09T17:28:48.000Z</time>
      </trkpt>
      <trkpt lat="47.1068" lon="-1.59071">
        <ele>64</ele>
        <time>2021-08-09T17:28:50.000Z</time>
      </trkpt>
      <trkpt lat="47.10684" lon="-1.59054">
        <ele>64</ele>
        <time>2021-08-09T17:28:52.000Z</time>
      </trkpt>
      <trkpt lat="47.10688" lon="-1.59038">
        <ele>64</ele>
        <time>2021-08-09T17:28:54.000Z</time>
      </trkpt>
      <trkpt lat="47.10694" lon="-1.59024">
        <ele>64</ele>
        <time>2021-08-09T17:28:56.000Z</time>
      </trkpt>
      <trkpt lat="47.10702" lon="-1.59012">
        <ele>64</ele>
        <time>2021-08-09T17:28:58.000Z</time>
      </trkpt>
      <trkpt lat="47.1071" lon="-1.58997">
        <ele>64</ele>
        <time>2021-08-09T17:29:00.000Z</time>
      </trkpt>
      <trkpt lat="47.10717" lon="-1.58982">
        <ele>65</ele>
        <time>2021-08-09T17:29:02.000Z</time>
      </trkpt>
      <trkpt lat="47.10723" lon="-1.58967">
        <ele>65</ele>
        <time>2021-08-09T17:29:04.000Z</time>
      </trkpt>
      <trkpt lat="47.10728" lon="-1.5895">
        <ele>65</ele>
        <time>2021-08-09T17:29:06.000Z</time>
      </trkpt>
      <trkpt lat="47.10734" lon="-1.58933">
        <ele>65</ele>
        <time>2021-08-09T17:29:08.000Z</time>
      </trkpt>
      <trkpt lat="47.1074" lon="-1.58916">
        <ele>65</ele>
        <time>2021-08-09T17:29:10.000Z</time>
      </trkpt>
      <trkpt lat="47.10748" lon="-1.58898">
        <ele>64</ele>
        <time>2021-08-09T17:29:12.000Z</time>
      </trkpt>
      <trkpt lat="47.10756" lon="-1.58882">
        <ele>64</ele>
        <time>2021-08-09T17:29:14.000Z</time>
      </trkpt>
      <trkpt lat="47.10766" lon="-1.58867">
        <ele>64</ele>
        <time>2021-08-09T17:29:16.000Z</time>
      </trkpt>
      <trkpt lat="47.10776" lon="-1.58852">
        <ele>63</ele>
        <time>2021-08-09T17:29:18.000Z</time>
      </trkpt>
      <trkpt lat="47.10786" lon="-1.58837">
        <ele>63</ele>
        <time>2021-08-09T17:29:20.000Z</time>
      </trkpt>
      <trkpt lat="47.10796" lon="-1.58821">
        <ele>63</ele>
        <time>2021-08-09T17:29:22.000Z</time>
      </trkpt>
      <trkpt lat="47.10807" lon="-1.58803">
        <ele>63</ele>
        <time>2021-08-09T17:29:24.000Z</time>
      </trkpt>
      <trkpt lat="47.10818" lon="-1.58787">
        <ele>63</ele>
        <time>2021-08-09T17:29:26.000Z</time>
      </trkpt>
      <trkpt lat="47.10828" lon="-1.5877">
        <ele>63</ele>
        <time>2021-08-09T17:29:28.000Z</time>
      </trkpt>
      <trkpt lat="47.10839" lon="-1.58754">
        <ele>63</ele>
        <time>2021-08-09T17:29:30.000Z</time>
      </trkpt>
      <trkpt lat="47.1085" lon="-1.58737">
        <ele>63</ele>
        <time>2021-08-09T17:29:32.000Z</time>
      </trkpt>
      <trkpt lat="47.10859" lon="-1.5872">
        <ele>62</ele>
        <time>2021-08-09T17:29:34.000Z</time>
      </trkpt>
      <trkpt lat="47.10871" lon="-1.58707">
        <ele>62</ele>
        <time>2021-08-09T17:29:36.000Z</time>
      </trkpt>
      <trkpt lat="47.10882" lon="-1.5869">
        <ele>61</ele>
        <time>2021-08-09T17:29:38.000Z</time>
      </trkpt>
      <trkpt lat="47.10894" lon="-1.58673">
        <ele>61</ele>
        <time>2021-08-09T17:29:40.000Z</time>
      </trkpt>
      <trkpt lat="47.10905" lon="-1.58654">
        <ele>60</ele>
        <time>2021-08-09T17:29:42.000Z</time>
      </trkpt>
      <trkpt lat="47.10917" lon="-1.58637">
        <ele>60</ele>
        <time>2021-08-09T17:29:44.000Z</time>
      </trkpt>
      <trkpt lat="47.10929" lon="-1.58621">
        <ele>60</ele>
        <time>2021-08-09T17:29:46.000Z</time>
      </trkpt>
      <trkpt lat="47.10942" lon="-1.58605">
        <ele>59</ele>
        <time>2021-08-09T17:29:48.000Z</time>
      </trkpt>
      <trkpt lat="47.10954" lon="-1.58588">
        <ele>59</ele>
        <time>2021-08-09T17:29:50.000Z</time>
      </trkpt>
      <trkpt lat="47.10965" lon="-1.58572">
        <ele>58</ele>
        <time>2021-08-09T17:29:52.000Z</time>
      </trkpt>
      <trkpt lat="47.10976" lon="-1.58555">
        <ele>58</ele>
        <time>2021-08-09T17:29:54.000Z</time>
      </trkpt>
      <trkpt lat="47.10987" lon="-1.58537">
        <ele>59</ele>
        <time>2021-08-09T17:29:56.000Z</time>
      </trkpt>
      <trkpt lat="47.10998" lon="-1.58518">
        <ele>59</ele>
        <time>2021-08-09T17:29:58.000Z</time>
      </trkpt>
      <trkpt lat="47.11009" lon="-1.58502">
        <ele>59</ele>
        <time>2021-08-09T17:30:00.000Z</time>
      </trkpt>
      <trkpt lat="47.1102" lon="-1.58484">
        <ele>59</ele>
        <time>2021-08-09T17:30:02.000Z</time>
      </trkpt>
      <trkpt lat="47.11032" lon="-1.58467">
        <ele>59</ele>
        <time>2021-08-09T17:30:04.000Z</time>
      </trkpt>
      <trkpt lat="47.11041" lon="-1.58448">
        <ele>58</ele>
        <time>2021-08-09T17:30:06.000Z</time>
      </trkpt>
      <trkpt lat="47.11049" lon="-1.5843">
        <ele>58</ele>
        <time>2021-08-09T17:30:08.000Z</time>
      </trkpt>
      <trkpt lat="47.1106" lon="-1.58412">
        <ele>57</ele>
        <time>2021-08-09T17:30:10.000Z</time>
      </trkpt>
      <trkpt lat="47.11069" lon="-1.58393">
        <ele>57</ele>
        <time>2021-08-09T17:30:12.000Z</time>
      </trkpt>
      <trkpt lat="47.11078" lon="-1.58373">
        <ele>57</ele>
        <time>2021-08-09T17:30:14.000Z</time>
      </trkpt>
      <trkpt lat="47.11087" lon="-1.58353">
        <ele>57</ele>
        <time>2021-08-09T17:30:16.000Z</time>
      </trkpt>
      <trkpt lat="47.11097" lon="-1.58335">
        <ele>57</ele>
        <time>2021-08-09T17:30:18.000Z</time>
      </trkpt>
      <trkpt lat="47.11108" lon="-1.58318">
        <ele>56</ele>
        <time>2021-08-09T17:30:20.000Z</time>
      </trkpt>
      <trkpt lat="47.11121" lon="-1.58302">
        <ele>56</ele>
        <time>2021-08-09T17:30:22.000Z</time>
      </trkpt>
      <trkpt lat="47.11134" lon="-1.58287">
        <ele>56</ele>
        <time>2021-08-09T17:30:24.000Z</time>
      </trkpt>
      <trkpt lat="47.11148" lon="-1.58273">
        <ele>55</ele>
        <time>2021-08-09T17:30:26.000Z</time>
      </trkpt>
      <trkpt lat="47.11161" lon="-1.58259">
        <ele>55</ele>
        <time>2021-08-09T17:30:28.000Z</time>
      </trkpt>
      <trkpt lat="47.11174" lon="-1.58244">
        <ele>55</ele>
        <time>2021-08-09T17:30:30.000Z</time>
      </trkpt>
      <trkpt lat="47.11187" lon="-1.58228">
        <ele>55</ele>
        <time>2021-08-09T17:30:32.000Z</time>
      </trkpt>
      <trkpt lat="47.11199" lon="-1.58212">
        <ele>55</ele>
        <time>2021-08-09T17:30:34.000Z</time>
      </trkpt>
      <trkpt lat="47.11211" lon="-1.58197">
        <ele>55</ele>
        <time>2021-08-09T17:30:36.000Z</time>
      </trkpt>
      <trkpt lat="47.11223" lon="-1.58181">
        <ele>55</ele>
        <time>2021-08-09T17:30:38.000Z</time>
      </trkpt>
      <trkpt lat="47.11236" lon="-1.58167">
        <ele>55</ele>
        <time>2021-08-09T17:30:40.000Z</time>
      </trkpt>
      <trkpt lat="47.11248" lon="-1.58154">
        <ele>54</ele>
        <time>2021-08-09T17:30:42.000Z</time>
      </trkpt>
      <trkpt lat="47.11262" lon="-1.58141">
        <ele>54</ele>
        <time>2021-08-09T17:30:44.000Z</time>
      </trkpt>
      <trkpt lat="47.11276" lon="-1.58129">
        <ele>53</ele>
        <time>2021-08-09T17:30:46.000Z</time>
      </trkpt>
      <trkpt lat="47.1129" lon="-1.58118">
        <ele>53</ele>
        <time>2021-08-09T17:30:48.000Z</time>
      </trkpt>
      <trkpt lat="47.11303" lon="-1.58109">
        <ele>54</ele>
        <time>2021-08-09T17:30:50.000Z</time>
      </trkpt>
      <trkpt lat="47.11317" lon="-1.58101">
        <ele>54</ele>
        <time>2021-08-09T17:30:52.000Z</time>
      </trkpt>
      <trkpt lat="47.1133" lon="-1.58093">
        <ele>53</ele>
        <time>2021-08-09T17:30:54.000Z</time>
      </trkpt>
      <trkpt lat="47.11344" lon="-1.58089">
        <ele>54</ele>
        <time>2021-08-09T17:30:56.000Z</time>
      </trkpt>
      <trkpt lat="47.11357" lon="-1.58084">
        <ele>53</ele>
        <time>2021-08-09T17:30:58.000Z</time>
      </trkpt>
      <trkpt lat="47.11371" lon="-1.58074">
        <ele>53</ele>
        <time>2021-08-09T17:31:00.000Z</time>
      </trkpt>
      <trkpt lat="47.11386" lon="-1.58065">
        <ele>53</ele>
        <time>2021-08-09T17:31:02.000Z</time>
      </trkpt>
      <trkpt lat="47.114" lon="-1.58056">
        <ele>53</ele>
        <time>2021-08-09T17:31:04.000Z</time>
      </trkpt>
      <trkpt lat="47.11415" lon="-1.58048">
        <ele>53</ele>
        <time>2021-08-09T17:31:06.000Z</time>
      </trkpt>
      <trkpt lat="47.11429" lon="-1.5804">
        <ele>53</ele>
        <time>2021-08-09T17:31:08.000Z</time>
      </trkpt>
      <trkpt lat="47.11443" lon="-1.58033">
        <ele>53</ele>
        <time>2021-08-09T17:31:10.000Z</time>
      </trkpt>
      <trkpt lat="47.11458" lon="-1.58028">
        <ele>53</ele>
        <time>2021-08-09T17:31:12.000Z</time>
      </trkpt>
      <trkpt lat="47.11473" lon="-1.58024">
        <ele>53</ele>
        <time>2021-08-09T17:31:14.000Z</time>
      </trkpt>
      <trkpt lat="47.11487" lon="-1.58021">
        <ele>54</ele>
        <time>2021-08-09T17:31:16.000Z</time>
      </trkpt>
      <trkpt lat="47.11501" lon="-1.58019">
        <ele>55</ele>
        <time>2021-08-09T17:31:18.000Z</time>
      </trkpt>
      <trkpt lat="47.11515" lon="-1.58018">
        <ele>56</ele>
        <time>2021-08-09T17:31:20.000Z</time>
      </trkpt>
      <trkpt lat="47.1153" lon="-1.58018">
        <ele>57</ele>
        <time>2021-08-09T17:31:22.000Z</time>
      </trkpt>
      <trkpt lat="47.11544" lon="-1.58018">
        <ele>57</ele>
        <time>2021-08-09T17:31:24.000Z</time>
      </trkpt>
      <trkpt lat="47.11558" lon="-1.58019">
        <ele>57</ele>
        <time>2021-08-09T17:31:26.000Z</time>
      </trkpt>
      <trkpt lat="47.11573" lon="-1.5802">
        <ele>57</ele>
        <time>2021-08-09T17:31:28.000Z</time>
      </trkpt>
      <trkpt lat="47.11588" lon="-1.58021">
        <ele>57</ele>
        <time>2021-08-09T17:31:30.000Z</time>
      </trkpt>
      <trkpt lat="47.11602" lon="-1.58023">
        <ele>56</ele>
        <time>2021-08-09T17:31:32.000Z</time>
      </trkpt>
      <trkpt lat="47.11615" lon="-1.58026">
        <ele>57</ele>
        <time>2021-08-09T17:31:34.000Z</time>
      </trkpt>
      <trkpt lat="47.11628" lon="-1.58025">
        <ele>57</ele>
        <time>2021-08-09T17:31:36.000Z</time>
      </trkpt>
      <trkpt lat="47.11641" lon="-1.58024">
        <ele>57</ele>
        <time>2021-08-09T17:31:38.000Z</time>
      </trkpt>
      <trkpt lat="47.11653" lon="-1.58026">
        <ele>56</ele>
        <time>2021-08-09T17:31:40.000Z</time>
      </trkpt>
      <trkpt lat="47.11667" lon="-1.58027">
        <ele>55</ele>
        <time>2021-08-09T17:31:42.000Z</time>
      </trkpt>
      <trkpt lat="47.11681" lon="-1.58029">
        <ele>54</ele>
        <time>2021-08-09T17:31:44.000Z</time>
      </trkpt>
      <trkpt lat="47.11694" lon="-1.58029">
        <ele>54</ele>
        <time>2021-08-09T17:31:46.000Z</time>
      </trkpt>
      <trkpt lat="47.11708" lon="-1.58031">
        <ele>54</ele>
        <time>2021-08-09T17:31:48.000Z</time>
      </trkpt>
      <trkpt lat="47.11721" lon="-1.58032">
        <ele>54</ele>
        <time>2021-08-09T17:31:50.000Z</time>
      </trkpt>
      <trkpt lat="47.11735" lon="-1.58034">
        <ele>54</ele>
        <time>2021-08-09T17:31:52.000Z</time>
      </trkpt>
      <trkpt lat="47.11748" lon="-1.58035">
        <ele>54</ele>
        <time>2021-08-09T17:31:54.000Z</time>
      </trkpt>
      <trkpt lat="47.11761" lon="-1.58038">
        <ele>54</ele>
        <time>2021-08-09T17:31:56.000Z</time>
      </trkpt>
      <trkpt lat="47.11775" lon="-1.58041">
        <ele>54</ele>
        <time>2021-08-09T17:31:58.000Z</time>
      </trkpt>
      <trkpt lat="47.11788" lon="-1.58044">
        <ele>55</ele>
        <time>2021-08-09T17:32:00.000Z</time>
      </trkpt>
      <trkpt lat="47.11801" lon="-1.58048">
        <ele>55</ele>
        <time>2021-08-09T17:32:02.000Z</time>
      </trkpt>
      <trkpt lat="47.11814" lon="-1.58051">
        <ele>55</ele>
        <time>2021-08-09T17:32:04.000Z</time>
      </trkpt>
      <trkpt lat="47.11827" lon="-1.58054">
        <ele>55</ele>
        <time>2021-08-09T17:32:06.000Z</time>
      </trkpt>
      <trkpt lat="47.1184" lon="-1.58057">
        <ele>56</ele>
        <time>2021-08-09T17:32:08.000Z</time>
      </trkpt>
      <trkpt lat="47.11853" lon="-1.5806">
        <ele>56</ele>
        <time>2021-08-09T17:32:10.000Z</time>
      </trkpt>
      <trkpt lat="47.11865" lon="-1.58064">
        <ele>57</ele>
        <time>2021-08-09T17:32:12.000Z</time>
      </trkpt>
      <trkpt lat="47.11878" lon="-1.58067">
        <ele>57</ele>
        <time>2021-08-09T17:32:14.000Z</time>
      </trkpt>
      <trkpt lat="47.11891" lon="-1.5807">
        <ele>57</ele>
        <time>2021-08-09T17:32:16.000Z</time>
      </trkpt>
      <trkpt lat="47.11903" lon="-1.58073">
        <ele>57</ele>
        <time>2021-08-09T17:32:18.000Z</time>
      </trkpt>
      <trkpt lat="47.11915" lon="-1.58076">
        <ele>57</ele>
        <time>2021-08-09T17:32:20.000Z</time>
      </trkpt>
      <trkpt lat="47.11928" lon="-1.58079">
        <ele>57</ele>
        <time>2021-08-09T17:32:22.000Z</time>
      </trkpt>
      <trkpt lat="47.1194" lon="-1.58082">
        <ele>58</ele>
        <time>2021-08-09T17:32:24.000Z</time>
      </trkpt>
      <trkpt lat="47.11953" lon="-1.58085">
        <ele>58</ele>
        <time>2021-08-09T17:32:26.000Z</time>
      </trkpt>
      <trkpt lat="47.11966" lon="-1.58088">
        <ele>58</ele>
        <time>2021-08-09T17:32:28.000Z</time>
      </trkpt>
      <trkpt lat="47.11977" lon="-1.58091">
        <ele>59</ele>
        <time>2021-08-09T17:32:30.000Z</time>
      </trkpt>
      <trkpt lat="47.11989" lon="-1.58096">
        <ele>59</ele>
        <time>2021-08-09T17:32:32.000Z</time>
      </trkpt>
      <trkpt lat="47.12" lon="-1.58099">
        <ele>58</ele>
        <time>2021-08-09T17:32:34.000Z</time>
      </trkpt>
      <trkpt lat="47.12011" lon="-1.58097">
        <ele>58</ele>
        <time>2021-08-09T17:32:36.000Z</time>
      </trkpt>
      <trkpt lat="47.12021" lon="-1.581">
        <ele>57</ele>
        <time>2021-08-09T17:32:38.000Z</time>
      </trkpt>
      <trkpt lat="47.1203" lon="-1.58112">
        <ele>57</ele>
        <time>2021-08-09T17:32:40.000Z</time>
      </trkpt>
      <trkpt lat="47.12041" lon="-1.5812">
        <ele>58</ele>
        <time>2021-08-09T17:32:42.000Z</time>
      </trkpt>
      <trkpt lat="47.12053" lon="-1.58126">
        <ele>58</ele>
        <time>2021-08-09T17:32:44.000Z</time>
      </trkpt>
      <trkpt lat="47.12065" lon="-1.58133">
        <ele>57</ele>
        <time>2021-08-09T17:32:46.000Z</time>
      </trkpt>
      <trkpt lat="47.12078" lon="-1.58141">
        <ele>57</ele>
        <time>2021-08-09T17:32:48.000Z</time>
      </trkpt>
      <trkpt lat="47.1209" lon="-1.58149">
        <ele>57</ele>
        <time>2021-08-09T17:32:50.000Z</time>
      </trkpt>
      <trkpt lat="47.12103" lon="-1.58158">
        <ele>56</ele>
        <time>2021-08-09T17:32:52.000Z</time>
      </trkpt>
      <trkpt lat="47.12115" lon="-1.58167">
        <ele>56</ele>
        <time>2021-08-09T17:32:54.000Z</time>
      </trkpt>
      <trkpt lat="47.12127" lon="-1.58179">
        <ele>55</ele>
        <time>2021-08-09T17:32:56.000Z</time>
      </trkpt>
      <trkpt lat="47.12139" lon="-1.5819">
        <ele>54</ele>
        <time>2021-08-09T17:32:58.000Z</time>
      </trkpt>
      <trkpt lat="47.12151" lon="-1.58202">
        <ele>54</ele>
        <time>2021-08-09T17:33:00.000Z</time>
      </trkpt>
      <trkpt lat="47.12163" lon="-1.58215">
        <ele>53</ele>
        <time>2021-08-09T17:33:02.000Z</time>
      </trkpt>
      <trkpt lat="47.12175" lon="-1.58227">
        <ele>53</ele>
        <time>2021-08-09T17:33:04.000Z</time>
      </trkpt>
      <trkpt lat="47.12187" lon="-1.58239">
        <ele>52</ele>
        <time>2021-08-09T17:33:06.000Z</time>
      </trkpt>
      <trkpt lat="47.12199" lon="-1.58249">
        <ele>52</ele>
        <time>2021-08-09T17:33:08.000Z</time>
      </trkpt>
      <trkpt lat="47.1221" lon="-1.58261">
        <ele>52</ele>
        <time>2021-08-09T17:33:10.000Z</time>
      </trkpt>
      <trkpt lat="47.12222" lon="-1.58272">
        <ele>52</ele>
        <time>2021-08-09T17:33:12.000Z</time>
      </trkpt>
      <trkpt lat="47.12235" lon="-1.58283">
        <ele>52</ele>
        <time>2021-08-09T17:33:14.000Z</time>
      </trkpt>
      <trkpt lat="47.12247" lon="-1.58295">
        <ele>52</ele>
        <time>2021-08-09T17:33:16.000Z</time>
      </trkpt>
      <trkpt lat="47.12259" lon="-1.58307">
        <ele>52</ele>
        <time>2021-08-09T17:33:18.000Z</time>
      </trkpt>
      <trkpt lat="47.12271" lon="-1.58318">
        <ele>51</ele>
        <time>2021-08-09T17:33:20.000Z</time>
      </trkpt>
      <trkpt lat="47.12282" lon="-1.5833">
        <ele>52</ele>
        <time>2021-08-09T17:33:22.000Z</time>
      </trkpt>
      <trkpt lat="47.12293" lon="-1.58341">
        <ele>52</ele>
        <time>2021-08-09T17:33:24.000Z</time>
      </trkpt>
      <trkpt lat="47.12298" lon="-1.58357">
        <ele>53</ele>
        <time>2021-08-09T17:33:26.000Z</time>
      </trkpt>
      <trkpt lat="47.12298" lon="-1.58377">
        <ele>54</ele>
        <time>2021-08-09T17:33:28.000Z</time>
      </trkpt>
      <trkpt lat="47.12301" lon="-1.58396">
        <ele>55</ele>
        <time>2021-08-09T17:33:30.000Z</time>
      </trkpt>
      <trkpt lat="47.12308" lon="-1.58411">
        <ele>55</ele>
        <time>2021-08-09T17:33:32.000Z</time>
      </trkpt>
      <trkpt lat="47.12316" lon="-1.58424">
        <ele>55</ele>
        <time>2021-08-09T17:33:34.000Z</time>
      </trkpt>
      <trkpt lat="47.12327" lon="-1.5843">
        <ele>57</ele>
        <time>2021-08-09T17:33:39.000Z</time>
      </trkpt>
      <trkpt lat="47.12331" lon="-1.58442">
        <ele>57</ele>
        <time>2021-08-09T17:33:41.000Z</time>
      </trkpt>
      <trkpt lat="47.12333" lon="-1.58458">
        <ele>57</ele>
        <time>2021-08-09T17:33:43.000Z</time>
      </trkpt>
      <trkpt lat="47.12336" lon="-1.58476">
        <ele>57</ele>
        <time>2021-08-09T17:33:45.000Z</time>
      </trkpt>
      <trkpt lat="47.12341" lon="-1.58494">
        <ele>57</ele>
        <time>2021-08-09T17:33:47.000Z</time>
      </trkpt>
      <trkpt lat="47.12345" lon="-1.58512">
        <ele>57</ele>
        <time>2021-08-09T17:33:49.000Z</time>
      </trkpt>
      <trkpt lat="47.12349" lon="-1.5853">
        <ele>57</ele>
        <time>2021-08-09T17:33:51.000Z</time>
      </trkpt>
      <trkpt lat="47.12352" lon="-1.58547">
        <ele>57</ele>
        <time>2021-08-09T17:33:53.000Z</time>
      </trkpt>
      <trkpt lat="47.12355" lon="-1.58563">
        <ele>57</ele>
        <time>2021-08-09T17:33:55.000Z</time>
      </trkpt>
      <trkpt lat="47.1236" lon="-1.5858">
        <ele>56</ele>
        <time>2021-08-09T17:33:57.000Z</time>
      </trkpt>
      <trkpt lat="47.12364" lon="-1.58598">
        <ele>56</ele>
        <time>2021-08-09T17:33:59.000Z</time>
      </trkpt>
      <trkpt lat="47.12369" lon="-1.58615">
        <ele>56</ele>
        <time>2021-08-09T17:34:01.000Z</time>
      </trkpt>
      <trkpt lat="47.12373" lon="-1.58633">
        <ele>56</ele>
        <time>2021-08-09T17:34:03.000Z</time>
      </trkpt>
      <trkpt lat="47.12376" lon="-1.58651">
        <ele>56</ele>
        <time>2021-08-09T17:34:05.000Z</time>
      </trkpt>
      <trkpt lat="47.1238" lon="-1.58668">
        <ele>57</ele>
        <time>2021-08-09T17:34:07.000Z</time>
      </trkpt>
      <trkpt lat="47.12384" lon="-1.58684">
        <ele>57</ele>
        <time>2021-08-09T17:34:09.000Z</time>
      </trkpt>
      <trkpt lat="47.12388" lon="-1.58701">
        <ele>58</ele>
        <time>2021-08-09T17:34:11.000Z</time>
      </trkpt>
      <trkpt lat="47.12391" lon="-1.58719">
        <ele>58</ele>
        <time>2021-08-09T17:34:13.000Z</time>
      </trkpt>
      <trkpt lat="47.12395" lon="-1.58736">
        <ele>57</ele>
        <time>2021-08-09T17:34:15.000Z</time>
      </trkpt>
      <trkpt lat="47.12398" lon="-1.58755">
        <ele>58</ele>
        <time>2021-08-09T17:34:17.000Z</time>
      </trkpt>
      <trkpt lat="47.12401" lon="-1.58773">
        <ele>58</ele>
        <time>2021-08-09T17:34:19.000Z</time>
      </trkpt>
      <trkpt lat="47.12404" lon="-1.58791">
        <ele>58</ele>
        <time>2021-08-09T17:34:21.000Z</time>
      </trkpt>
      <trkpt lat="47.12407" lon="-1.58808">
        <ele>58</ele>
        <time>2021-08-09T17:34:23.000Z</time>
      </trkpt>
      <trkpt lat="47.12409" lon="-1.58825">
        <ele>58</ele>
        <time>2021-08-09T17:34:25.000Z</time>
      </trkpt>
      <trkpt lat="47.12411" lon="-1.58842">
        <ele>58</ele>
        <time>2021-08-09T17:34:27.000Z</time>
      </trkpt>
      <trkpt lat="47.12413" lon="-1.58859">
        <ele>58</ele>
        <time>2021-08-09T17:34:29.000Z</time>
      </trkpt>
      <trkpt lat="47.12415" lon="-1.58876">
        <ele>58</ele>
        <time>2021-08-09T17:34:31.000Z</time>
      </trkpt>
      <trkpt lat="47.12417" lon="-1.58894">
        <ele>57</ele>
        <time>2021-08-09T17:34:33.000Z</time>
      </trkpt>
      <trkpt lat="47.12418" lon="-1.58911">
        <ele>57</ele>
        <time>2021-08-09T17:34:35.000Z</time>
      </trkpt>
      <trkpt lat="47.12419" lon="-1.5893">
        <ele>57</ele>
        <time>2021-08-09T17:34:37.000Z</time>
      </trkpt>
      <trkpt lat="47.1242" lon="-1.58949">
        <ele>56</ele>
        <time>2021-08-09T17:34:39.000Z</time>
      </trkpt>
      <trkpt lat="47.12422" lon="-1.58968">
        <ele>56</ele>
        <time>2021-08-09T17:34:41.000Z</time>
      </trkpt>
      <trkpt lat="47.12423" lon="-1.58988">
        <ele>56</ele>
        <time>2021-08-09T17:34:43.000Z</time>
      </trkpt>
      <trkpt lat="47.12425" lon="-1.59008">
        <ele>55</ele>
        <time>2021-08-09T17:34:45.000Z</time>
      </trkpt>
      <trkpt lat="47.12426" lon="-1.59029">
        <ele>54</ele>
        <time>2021-08-09T17:34:47.000Z</time>
      </trkpt>
      <trkpt lat="47.12427" lon="-1.59051">
        <ele>54</ele>
        <time>2021-08-09T17:34:49.000Z</time>
      </trkpt>
      <trkpt lat="47.12429" lon="-1.59081">
        <ele>53</ele>
        <time>2021-08-09T17:34:52.000Z</time>
      </trkpt>
      <trkpt lat="47.1243" lon="-1.59102">
        <ele>53</ele>
        <time>2021-08-09T17:34:54.000Z</time>
      </trkpt>
      <trkpt lat="47.1243" lon="-1.59121">
        <ele>54</ele>
        <time>2021-08-09T17:34:56.000Z</time>
      </trkpt>
      <trkpt lat="47.12431" lon="-1.5915">
        <ele>54</ele>
        <time>2021-08-09T17:34:59.000Z</time>
      </trkpt>
      <trkpt lat="47.12433" lon="-1.59168">
        <ele>54</ele>
        <time>2021-08-09T17:35:01.000Z</time>
      </trkpt>
      <trkpt lat="47.12437" lon="-1.59186">
        <ele>54</ele>
        <time>2021-08-09T17:35:03.000Z</time>
      </trkpt>
      <trkpt lat="47.12438" lon="-1.59212">
        <ele>54</ele>
        <time>2021-08-09T17:35:06.000Z</time>
      </trkpt>
      <trkpt lat="47.12435" lon="-1.59231">
        <ele>54</ele>
        <time>2021-08-09T17:35:08.000Z</time>
      </trkpt>
      <trkpt lat="47.12436" lon="-1.59251">
        <ele>54</ele>
        <time>2021-08-09T17:35:10.000Z</time>
      </trkpt>
      <trkpt lat="47.12437" lon="-1.5927">
        <ele>54</ele>
        <time>2021-08-09T17:35:12.000Z</time>
      </trkpt>
      <trkpt lat="47.12438" lon="-1.59299">
        <ele>54</ele>
        <time>2021-08-09T17:35:15.000Z</time>
      </trkpt>
      <trkpt lat="47.12439" lon="-1.59318">
        <ele>54</ele>
        <time>2021-08-09T17:35:17.000Z</time>
      </trkpt>
      <trkpt lat="47.12441" lon="-1.59336">
        <ele>54</ele>
        <time>2021-08-09T17:35:19.000Z</time>
      </trkpt>
      <trkpt lat="47.12442" lon="-1.59354">
        <ele>54</ele>
        <time>2021-08-09T17:35:21.000Z</time>
      </trkpt>
      <trkpt lat="47.12443" lon="-1.59373">
        <ele>54</ele>
        <time>2021-08-09T17:35:23.000Z</time>
      </trkpt>
      <trkpt lat="47.12443" lon="-1.59391">
        <ele>54</ele>
        <time>2021-08-09T17:35:25.000Z</time>
      </trkpt>
      <trkpt lat="47.12444" lon="-1.5941">
        <ele>54</ele>
        <time>2021-08-09T17:35:27.000Z</time>
      </trkpt>
      <trkpt lat="47.12445" lon="-1.5943">
        <ele>55</ele>
        <time>2021-08-09T17:35:29.000Z</time>
      </trkpt>
      <trkpt lat="47.12446" lon="-1.59448">
        <ele>55</ele>
        <time>2021-08-09T17:35:31.000Z</time>
      </trkpt>
      <trkpt lat="47.12446" lon="-1.59467">
        <ele>55</ele>
        <time>2021-08-09T17:35:33.000Z</time>
      </trkpt>
      <trkpt lat="47.12447" lon="-1.59486">
        <ele>55</ele>
        <time>2021-08-09T17:35:35.000Z</time>
      </trkpt>
      <trkpt lat="47.12448" lon="-1.59505">
        <ele>56</ele>
        <time>2021-08-09T17:35:37.000Z</time>
      </trkpt>
      <trkpt lat="47.12449" lon="-1.59524">
        <ele>56</ele>
        <time>2021-08-09T17:35:39.000Z</time>
      </trkpt>
      <trkpt lat="47.1245" lon="-1.59543">
        <ele>56</ele>
        <time>2021-08-09T17:35:41.000Z</time>
      </trkpt>
      <trkpt lat="47.12451" lon="-1.59562">
        <ele>57</ele>
        <time>2021-08-09T17:35:43.000Z</time>
      </trkpt>
      <trkpt lat="47.12453" lon="-1.59581">
        <ele>56</ele>
        <time>2021-08-09T17:35:45.000Z</time>
      </trkpt>
      <trkpt lat="47.12454" lon="-1.59599">
        <ele>56</ele>
        <time>2021-08-09T17:35:47.000Z</time>
      </trkpt>
      <trkpt lat="47.12455" lon="-1.59618">
        <ele>57</ele>
        <time>2021-08-09T17:35:49.000Z</time>
      </trkpt>
      <trkpt lat="47.12456" lon="-1.59635">
        <ele>57</ele>
        <time>2021-08-09T17:35:51.000Z</time>
      </trkpt>
      <trkpt lat="47.12457" lon="-1.59654">
        <ele>57</ele>
        <time>2021-08-09T17:35:53.000Z</time>
      </trkpt>
      <trkpt lat="47.12457" lon="-1.59671">
        <ele>57</ele>
        <time>2021-08-09T17:35:55.000Z</time>
      </trkpt>
      <trkpt lat="47.12458" lon="-1.59689">
        <ele>57</ele>
        <time>2021-08-09T17:35:57.000Z</time>
      </trkpt>
      <trkpt lat="47.12459" lon="-1.59707">
        <ele>57</ele>
        <time>2021-08-09T17:35:59.000Z</time>
      </trkpt>
      <trkpt lat="47.1246" lon="-1.59726">
        <ele>56</ele>
        <time>2021-08-09T17:36:01.000Z</time>
      </trkpt>
      <trkpt lat="47.1246" lon="-1.59745">
        <ele>56</ele>
        <time>2021-08-09T17:36:03.000Z</time>
      </trkpt>
      <trkpt lat="47.12461" lon="-1.59763">
        <ele>56</ele>
        <time>2021-08-09T17:36:05.000Z</time>
      </trkpt>
      <trkpt lat="47.12462" lon="-1.59781">
        <ele>56</ele>
        <time>2021-08-09T17:36:07.000Z</time>
      </trkpt>
      <trkpt lat="47.12463" lon="-1.59799">
        <ele>56</ele>
        <time>2021-08-09T17:36:09.000Z</time>
      </trkpt>
      <trkpt lat="47.12464" lon="-1.59818">
        <ele>56</ele>
        <time>2021-08-09T17:36:11.000Z</time>
      </trkpt>
      <trkpt lat="47.12466" lon="-1.59837">
        <ele>56</ele>
        <time>2021-08-09T17:36:13.000Z</time>
      </trkpt>
      <trkpt lat="47.12466" lon="-1.59855">
        <ele>56</ele>
        <time>2021-08-09T17:36:15.000Z</time>
      </trkpt>
      <trkpt lat="47.12467" lon="-1.59874">
        <ele>56</ele>
        <time>2021-08-09T17:36:17.000Z</time>
      </trkpt>
      <trkpt lat="47.12468" lon="-1.59893">
        <ele>57</ele>
        <time>2021-08-09T17:36:19.000Z</time>
      </trkpt>
      <trkpt lat="47.12468" lon="-1.59911">
        <ele>57</ele>
        <time>2021-08-09T17:36:21.000Z</time>
      </trkpt>
      <trkpt lat="47.1247" lon="-1.59931">
        <ele>57</ele>
        <time>2021-08-09T17:36:23.000Z</time>
      </trkpt>
      <trkpt lat="47.12471" lon="-1.59951">
        <ele>57</ele>
        <time>2021-08-09T17:36:25.000Z</time>
      </trkpt>
      <trkpt lat="47.12471" lon="-1.59971">
        <ele>56</ele>
        <time>2021-08-09T17:36:27.000Z</time>
      </trkpt>
      <trkpt lat="47.12472" lon="-1.5999">
        <ele>56</ele>
        <time>2021-08-09T17:36:29.000Z</time>
      </trkpt>
      <trkpt lat="47.12473" lon="-1.6001">
        <ele>55</ele>
        <time>2021-08-09T17:36:31.000Z</time>
      </trkpt>
      <trkpt lat="47.12474" lon="-1.6003">
        <ele>55</ele>
        <time>2021-08-09T17:36:33.000Z</time>
      </trkpt>
      <trkpt lat="47.12475" lon="-1.60049">
        <ele>55</ele>
        <time>2021-08-09T17:36:35.000Z</time>
      </trkpt>
      <trkpt lat="47.12475" lon="-1.60069">
        <ele>55</ele>
        <time>2021-08-09T17:36:37.000Z</time>
      </trkpt>
      <trkpt lat="47.12476" lon="-1.60089">
        <ele>55</ele>
        <time>2021-08-09T17:36:39.000Z</time>
      </trkpt>
      <trkpt lat="47.12477" lon="-1.60111">
        <ele>55</ele>
        <time>2021-08-09T17:36:41.000Z</time>
      </trkpt>
      <trkpt lat="47.12478" lon="-1.60131">
        <ele>55</ele>
        <time>2021-08-09T17:36:43.000Z</time>
      </trkpt>
      <trkpt lat="47.12479" lon="-1.60151">
        <ele>55</ele>
        <time>2021-08-09T17:36:45.000Z</time>
      </trkpt>
      <trkpt lat="47.1248" lon="-1.60171">
        <ele>55</ele>
        <time>2021-08-09T17:36:47.000Z</time>
      </trkpt>
      <trkpt lat="47.12482" lon="-1.60191">
        <ele>55</ele>
        <time>2021-08-09T17:36:49.000Z</time>
      </trkpt>
      <trkpt lat="47.12485" lon="-1.60211">
        <ele>55</ele>
        <time>2021-08-09T17:36:51.000Z</time>
      </trkpt>
      <trkpt lat="47.12488" lon="-1.60231">
        <ele>54</ele>
        <time>2021-08-09T17:36:53.000Z</time>
      </trkpt>
      <trkpt lat="47.12492" lon="-1.60252">
        <ele>54</ele>
        <time>2021-08-09T17:36:55.000Z</time>
      </trkpt>
      <trkpt lat="47.12496" lon="-1.60271">
        <ele>53</ele>
        <time>2021-08-09T17:36:57.000Z</time>
      </trkpt>
      <trkpt lat="47.125" lon="-1.60289">
        <ele>53</ele>
        <time>2021-08-09T17:36:59.000Z</time>
      </trkpt>
      <trkpt lat="47.12504" lon="-1.60308">
        <ele>54</ele>
        <time>2021-08-09T17:37:01.000Z</time>
      </trkpt>
      <trkpt lat="47.12507" lon="-1.60326">
        <ele>54</ele>
        <time>2021-08-09T17:37:03.000Z</time>
      </trkpt>
      <trkpt lat="47.12511" lon="-1.60345">
        <ele>54</ele>
        <time>2021-08-09T17:37:05.000Z</time>
      </trkpt>
      <trkpt lat="47.12514" lon="-1.60363">
        <ele>55</ele>
        <time>2021-08-09T17:37:07.000Z</time>
      </trkpt>
      <trkpt lat="47.12518" lon="-1.60382">
        <ele>55</ele>
        <time>2021-08-09T17:37:09.000Z</time>
      </trkpt>
      <trkpt lat="47.12521" lon="-1.604">
        <ele>55</ele>
        <time>2021-08-09T17:37:11.000Z</time>
      </trkpt>
      <trkpt lat="47.12525" lon="-1.60418">
        <ele>55</ele>
        <time>2021-08-09T17:37:13.000Z</time>
      </trkpt>
      <trkpt lat="47.12529" lon="-1.60437">
        <ele>56</ele>
        <time>2021-08-09T17:37:15.000Z</time>
      </trkpt>
      <trkpt lat="47.12532" lon="-1.60455">
        <ele>56</ele>
        <time>2021-08-09T17:37:17.000Z</time>
      </trkpt>
      <trkpt lat="47.12535" lon="-1.60474">
        <ele>56</ele>
        <time>2021-08-09T17:37:19.000Z</time>
      </trkpt>
      <trkpt lat="47.12538" lon="-1.60493">
        <ele>56</ele>
        <time>2021-08-09T17:37:21.000Z</time>
      </trkpt>
      <trkpt lat="47.1254" lon="-1.60512">
        <ele>56</ele>
        <time>2021-08-09T17:37:23.000Z</time>
      </trkpt>
      <trkpt lat="47.12541" lon="-1.60531">
        <ele>56</ele>
        <time>2021-08-09T17:37:25.000Z</time>
      </trkpt>
      <trkpt lat="47.12542" lon="-1.60549">
        <ele>56</ele>
        <time>2021-08-09T17:37:27.000Z</time>
      </trkpt>
      <trkpt lat="47.12543" lon="-1.60568">
        <ele>57</ele>
        <time>2021-08-09T17:37:29.000Z</time>
      </trkpt>
      <trkpt lat="47.12543" lon="-1.60587">
        <ele>57</ele>
        <time>2021-08-09T17:37:31.000Z</time>
      </trkpt>
      <trkpt lat="47.12543" lon="-1.60606">
        <ele>57</ele>
        <time>2021-08-09T17:37:33.000Z</time>
      </trkpt>
      <trkpt lat="47.12544" lon="-1.60625">
        <ele>57</ele>
        <time>2021-08-09T17:37:35.000Z</time>
      </trkpt>
      <trkpt lat="47.12544" lon="-1.60644">
        <ele>57</ele>
        <time>2021-08-09T17:37:37.000Z</time>
      </trkpt>
      <trkpt lat="47.12544" lon="-1.60663">
        <ele>56</ele>
        <time>2021-08-09T17:37:39.000Z</time>
      </trkpt>
      <trkpt lat="47.12544" lon="-1.60683">
        <ele>56</ele>
        <time>2021-08-09T17:37:41.000Z</time>
      </trkpt>
      <trkpt lat="47.12545" lon="-1.60701">
        <ele>56</ele>
        <time>2021-08-09T17:37:43.000Z</time>
      </trkpt>
      <trkpt lat="47.12544" lon="-1.6072">
        <ele>56</ele>
        <time>2021-08-09T17:37:45.000Z</time>
      </trkpt>
      <trkpt lat="47.12543" lon="-1.60738">
        <ele>56</ele>
        <time>2021-08-09T17:37:47.000Z</time>
      </trkpt>
      <trkpt lat="47.12542" lon="-1.60757">
        <ele>56</ele>
        <time>2021-08-09T17:37:49.000Z</time>
      </trkpt>
      <trkpt lat="47.12541" lon="-1.60775">
        <ele>56</ele>
        <time>2021-08-09T17:37:51.000Z</time>
      </trkpt>
      <trkpt lat="47.12539" lon="-1.60794">
        <ele>56</ele>
        <time>2021-08-09T17:37:53.000Z</time>
      </trkpt>
      <trkpt lat="47.12537" lon="-1.60811">
        <ele>56</ele>
        <time>2021-08-09T17:37:55.000Z</time>
      </trkpt>
      <trkpt lat="47.12536" lon="-1.60828">
        <ele>57</ele>
        <time>2021-08-09T17:37:57.000Z</time>
      </trkpt>
      <trkpt lat="47.12537" lon="-1.60843">
        <ele>57</ele>
        <time>2021-08-09T17:37:59.000Z</time>
      </trkpt>
      <trkpt lat="47.12547" lon="-1.60847">
        <ele>57</ele>
        <time>2021-08-09T17:38:01.000Z</time>
      </trkpt>
      <trkpt lat="47.12559" lon="-1.60842">
        <ele>58</ele>
        <time>2021-08-09T17:38:03.000Z</time>
      </trkpt>
      <trkpt lat="47.1257" lon="-1.60838">
        <ele>58</ele>
        <time>2021-08-09T17:38:05.000Z</time>
      </trkpt>
      <trkpt lat="47.12583" lon="-1.60834">
        <ele>58</ele>
        <time>2021-08-09T17:38:07.000Z</time>
      </trkpt>
      <trkpt lat="47.12595" lon="-1.60829">
        <ele>58</ele>
        <time>2021-08-09T17:38:09.000Z</time>
      </trkpt>
      <trkpt lat="47.12607" lon="-1.60825">
        <ele>58</ele>
        <time>2021-08-09T17:38:11.000Z</time>
      </trkpt>
      <trkpt lat="47.12619" lon="-1.60821">
        <ele>58</ele>
        <time>2021-08-09T17:38:13.000Z</time>
      </trkpt>
      <trkpt lat="47.12631" lon="-1.60816">
        <ele>59</ele>
        <time>2021-08-09T17:38:15.000Z</time>
      </trkpt>
      <trkpt lat="47.12644" lon="-1.60812">
        <ele>59</ele>
        <time>2021-08-09T17:38:17.000Z</time>
      </trkpt>
      <trkpt lat="47.12655" lon="-1.60808">
        <ele>59</ele>
        <time>2021-08-09T17:38:19.000Z</time>
      </trkpt>
      <trkpt lat="47.12667" lon="-1.60803">
        <ele>59</ele>
        <time>2021-08-09T17:38:21.000Z</time>
      </trkpt>
      <trkpt lat="47.1268" lon="-1.60799">
        <ele>59</ele>
        <time>2021-08-09T17:38:23.000Z</time>
      </trkpt>
      <trkpt lat="47.12692" lon="-1.60795">
        <ele>59</ele>
        <time>2021-08-09T17:38:25.000Z</time>
      </trkpt>
      <trkpt lat="47.12704" lon="-1.6079">
        <ele>59</ele>
        <time>2021-08-09T17:38:27.000Z</time>
      </trkpt>
      <trkpt lat="47.12714" lon="-1.60787">
        <ele>60</ele>
        <time>2021-08-09T17:38:29.000Z</time>
      </trkpt>
      <trkpt lat="47.12722" lon="-1.60796">
        <ele>60</ele>
        <time>2021-08-09T17:38:31.000Z</time>
      </trkpt>
      <trkpt lat="47.12721" lon="-1.60813">
        <ele>61</ele>
        <time>2021-08-09T17:38:33.000Z</time>
      </trkpt>
      <trkpt lat="47.12716" lon="-1.6083">
        <ele>60</ele>
        <time>2021-08-09T17:38:35.000Z</time>
      </trkpt>
      <trkpt lat="47.12711" lon="-1.60848">
        <ele>60</ele>
        <time>2021-08-09T17:38:37.000Z</time>
      </trkpt>
      <trkpt lat="47.12706" lon="-1.60865">
        <ele>60</ele>
        <time>2021-08-09T17:38:39.000Z</time>
      </trkpt>
      <trkpt lat="47.12701" lon="-1.60883">
        <ele>60</ele>
        <time>2021-08-09T17:38:41.000Z</time>
      </trkpt>
      <trkpt lat="47.12697" lon="-1.60901">
        <ele>60</ele>
        <time>2021-08-09T17:38:43.000Z</time>
      </trkpt>
      <trkpt lat="47.12694" lon="-1.60919">
        <ele>60</ele>
        <time>2021-08-09T17:38:45.000Z</time>
      </trkpt>
      <trkpt lat="47.12692" lon="-1.60936">
        <ele>60</ele>
        <time>2021-08-09T17:38:47.000Z</time>
      </trkpt>
      <trkpt lat="47.12692" lon="-1.60953">
        <ele>60</ele>
        <time>2021-08-09T17:38:49.000Z</time>
      </trkpt>
      <trkpt lat="47.12691" lon="-1.60972">
        <ele>60</ele>
        <time>2021-08-09T17:38:51.000Z</time>
      </trkpt>
      <trkpt lat="47.12689" lon="-1.6099">
        <ele>60</ele>
        <time>2021-08-09T17:38:53.000Z</time>
      </trkpt>
      <trkpt lat="47.12689" lon="-1.61007">
        <ele>60</ele>
        <time>2021-08-09T17:38:55.000Z</time>
      </trkpt>
      <trkpt lat="47.12688" lon="-1.61025">
        <ele>60</ele>
        <time>2021-08-09T17:38:57.000Z</time>
      </trkpt>
      <trkpt lat="47.12688" lon="-1.61043">
        <ele>60</ele>
        <time>2021-08-09T17:38:59.000Z</time>
      </trkpt>
      <trkpt lat="47.12687" lon="-1.61062">
        <ele>60</ele>
        <time>2021-08-09T17:39:01.000Z</time>
      </trkpt>
      <trkpt lat="47.12686" lon="-1.6108">
        <ele>61</ele>
        <time>2021-08-09T17:39:03.000Z</time>
      </trkpt>
      <trkpt lat="47.12685" lon="-1.61098">
        <ele>61</ele>
        <time>2021-08-09T17:39:05.000Z</time>
      </trkpt>
      <trkpt lat="47.12684" lon="-1.61116">
        <ele>61</ele>
        <time>2021-08-09T17:39:07.000Z</time>
      </trkpt>
      <trkpt lat="47.12682" lon="-1.61134">
        <ele>61</ele>
        <time>2021-08-09T17:39:09.000Z</time>
      </trkpt>
      <trkpt lat="47.1268" lon="-1.61152">
        <ele>61</ele>
        <time>2021-08-09T17:39:11.000Z</time>
      </trkpt>
      <trkpt lat="47.12677" lon="-1.6117">
        <ele>61</ele>
        <time>2021-08-09T17:39:13.000Z</time>
      </trkpt>
      <trkpt lat="47.12675" lon="-1.61187">
        <ele>60</ele>
        <time>2021-08-09T17:39:15.000Z</time>
      </trkpt>
      <trkpt lat="47.12672" lon="-1.61205">
        <ele>60</ele>
        <time>2021-08-09T17:39:17.000Z</time>
      </trkpt>
      <trkpt lat="47.12669" lon="-1.61223">
        <ele>60</ele>
        <time>2021-08-09T17:39:19.000Z</time>
      </trkpt>
      <trkpt lat="47.12668" lon="-1.61241">
        <ele>60</ele>
        <time>2021-08-09T17:39:21.000Z</time>
      </trkpt>
      <trkpt lat="47.12668" lon="-1.61258">
        <ele>60</ele>
        <time>2021-08-09T17:39:23.000Z</time>
      </trkpt>
      <trkpt lat="47.12672" lon="-1.61275">
        <ele>61</ele>
        <time>2021-08-09T17:39:25.000Z</time>
      </trkpt>
      <trkpt lat="47.12677" lon="-1.61293">
        <ele>61</ele>
        <time>2021-08-09T17:39:27.000Z</time>
      </trkpt>
      <trkpt lat="47.12683" lon="-1.61311">
        <ele>61</ele>
        <time>2021-08-09T17:39:29.000Z</time>
      </trkpt>
      <trkpt lat="47.12688" lon="-1.61328">
        <ele>61</ele>
        <time>2021-08-09T17:39:31.000Z</time>
      </trkpt>
      <trkpt lat="47.12693" lon="-1.61344">
        <ele>62</ele>
        <time>2021-08-09T17:39:33.000Z</time>
      </trkpt>
      <trkpt lat="47.12699" lon="-1.6136">
        <ele>62</ele>
        <time>2021-08-09T17:39:35.000Z</time>
      </trkpt>
      <trkpt lat="47.12704" lon="-1.61375">
        <ele>62</ele>
        <time>2021-08-09T17:39:37.000Z</time>
      </trkpt>
      <trkpt lat="47.1271" lon="-1.61392">
        <ele>63</ele>
        <time>2021-08-09T17:39:39.000Z</time>
      </trkpt>
      <trkpt lat="47.12718" lon="-1.61409">
        <ele>63</ele>
        <time>2021-08-09T17:39:41.000Z</time>
      </trkpt>
      <trkpt lat="47.12726" lon="-1.61425">
        <ele>63</ele>
        <time>2021-08-09T17:39:43.000Z</time>
      </trkpt>
      <trkpt lat="47.12733" lon="-1.61442">
        <ele>64</ele>
        <time>2021-08-09T17:39:45.000Z</time>
      </trkpt>
      <trkpt lat="47.1274" lon="-1.61459">
        <ele>64</ele>
        <time>2021-08-09T17:39:47.000Z</time>
      </trkpt>
      <trkpt lat="47.12748" lon="-1.61476">
        <ele>63</ele>
        <time>2021-08-09T17:39:49.000Z</time>
      </trkpt>
      <trkpt lat="47.12755" lon="-1.61492">
        <ele>63</ele>
        <time>2021-08-09T17:39:51.000Z</time>
      </trkpt>
      <trkpt lat="47.12762" lon="-1.61507">
        <ele>62</ele>
        <time>2021-08-09T17:39:53.000Z</time>
      </trkpt>
      <trkpt lat="47.12769" lon="-1.61524">
        <ele>62</ele>
        <time>2021-08-09T17:39:55.000Z</time>
      </trkpt>
      <trkpt lat="47.12776" lon="-1.61541">
        <ele>61</ele>
        <time>2021-08-09T17:39:57.000Z</time>
      </trkpt>
      <trkpt lat="47.12782" lon="-1.61558">
        <ele>60</ele>
        <time>2021-08-09T17:39:59.000Z</time>
      </trkpt>
      <trkpt lat="47.12789" lon="-1.61574">
        <ele>60</ele>
        <time>2021-08-09T17:40:01.000Z</time>
      </trkpt>
      <trkpt lat="47.12794" lon="-1.61589">
        <ele>59</ele>
        <time>2021-08-09T17:40:03.000Z</time>
      </trkpt>
      <trkpt lat="47.128" lon="-1.61605">
        <ele>58</ele>
        <time>2021-08-09T17:40:05.000Z</time>
      </trkpt>
      <trkpt lat="47.12805" lon="-1.6162">
        <ele>58</ele>
        <time>2021-08-09T17:40:07.000Z</time>
      </trkpt>
      <trkpt lat="47.12811" lon="-1.61635">
        <ele>58</ele>
        <time>2021-08-09T17:40:09.000Z</time>
      </trkpt>
      <trkpt lat="47.12816" lon="-1.61648">
        <ele>59</ele>
        <time>2021-08-09T17:40:12.000Z</time>
      </trkpt>
      <trkpt lat="47.12821" lon="-1.61663">
        <ele>58</ele>
        <time>2021-08-09T17:40:15.000Z</time>
      </trkpt>
      <trkpt lat="47.12826" lon="-1.61677">
        <ele>58</ele>
        <time>2021-08-09T17:40:17.000Z</time>
      </trkpt>
      <trkpt lat="47.12832" lon="-1.61693">
        <ele>58</ele>
        <time>2021-08-09T17:40:19.000Z</time>
      </trkpt>
      <trkpt lat="47.12839" lon="-1.61707">
        <ele>58</ele>
        <time>2021-08-09T17:40:21.000Z</time>
      </trkpt>
      <trkpt lat="47.12847" lon="-1.61722">
        <ele>58</ele>
        <time>2021-08-09T17:40:23.000Z</time>
      </trkpt>
      <trkpt lat="47.12854" lon="-1.61736">
        <ele>58</ele>
        <time>2021-08-09T17:40:25.000Z</time>
      </trkpt>
      <trkpt lat="47.12861" lon="-1.61752">
        <ele>58</ele>
        <time>2021-08-09T17:40:27.000Z</time>
      </trkpt>
      <trkpt lat="47.12869" lon="-1.61768">
        <ele>57</ele>
        <time>2021-08-09T17:40:29.000Z</time>
      </trkpt>
      <trkpt lat="47.12877" lon="-1.61786">
        <ele>57</ele>
        <time>2021-08-09T17:40:31.000Z</time>
      </trkpt>
      <trkpt lat="47.12885" lon="-1.61805">
        <ele>57</ele>
        <time>2021-08-09T17:40:33.000Z</time>
      </trkpt>
      <trkpt lat="47.12891" lon="-1.61825">
        <ele>57</ele>
        <time>2021-08-09T17:40:35.000Z</time>
      </trkpt>
      <trkpt lat="47.12898" lon="-1.61843">
        <ele>56</ele>
        <time>2021-08-09T17:40:37.000Z</time>
      </trkpt>
      <trkpt lat="47.12903" lon="-1.61863">
        <ele>56</ele>
        <time>2021-08-09T17:40:39.000Z</time>
      </trkpt>
      <trkpt lat="47.12908" lon="-1.61883">
        <ele>56</ele>
        <time>2021-08-09T17:40:41.000Z</time>
      </trkpt>
      <trkpt lat="47.12912" lon="-1.61902">
        <ele>56</ele>
        <time>2021-08-09T17:40:43.000Z</time>
      </trkpt>
      <trkpt lat="47.12914" lon="-1.61923">
        <ele>56</ele>
        <time>2021-08-09T17:40:45.000Z</time>
      </trkpt>
      <trkpt lat="47.12917" lon="-1.61944">
        <ele>56</ele>
        <time>2021-08-09T17:40:47.000Z</time>
      </trkpt>
      <trkpt lat="47.12922" lon="-1.61962">
        <ele>56</ele>
        <time>2021-08-09T17:40:49.000Z</time>
      </trkpt>
      <trkpt lat="47.12927" lon="-1.6198">
        <ele>57</ele>
        <time>2021-08-09T17:40:51.000Z</time>
      </trkpt>
      <trkpt lat="47.12931" lon="-1.61998">
        <ele>57</ele>
        <time>2021-08-09T17:40:53.000Z</time>
      </trkpt>
      <trkpt lat="47.12936" lon="-1.62015">
        <ele>59</ele>
        <time>2021-08-09T17:40:55.000Z</time>
      </trkpt>
      <trkpt lat="47.12941" lon="-1.62034">
        <ele>60</ele>
        <time>2021-08-09T17:40:57.000Z</time>
      </trkpt>
      <trkpt lat="47.12947" lon="-1.6205">
        <ele>60</ele>
        <time>2021-08-09T17:40:59.000Z</time>
      </trkpt>
      <trkpt lat="47.12953" lon="-1.62065">
        <ele>60</ele>
        <time>2021-08-09T17:41:01.000Z</time>
      </trkpt>
      <trkpt lat="47.1296" lon="-1.6208">
        <ele>60</ele>
        <time>2021-08-09T17:41:03.000Z</time>
      </trkpt>
      <trkpt lat="47.12967" lon="-1.62094">
        <ele>60</ele>
        <time>2021-08-09T17:41:05.000Z</time>
      </trkpt>
      <trkpt lat="47.12976" lon="-1.62108">
        <ele>60</ele>
        <time>2021-08-09T17:41:07.000Z</time>
      </trkpt>
      <trkpt lat="47.12984" lon="-1.62122">
        <ele>59</ele>
        <time>2021-08-09T17:41:09.000Z</time>
      </trkpt>
      <trkpt lat="47.12992" lon="-1.62136">
        <ele>59</ele>
        <time>2021-08-09T17:41:11.000Z</time>
      </trkpt>
      <trkpt lat="47.13" lon="-1.62149">
        <ele>59</ele>
        <time>2021-08-09T17:41:13.000Z</time>
      </trkpt>
      <trkpt lat="47.13009" lon="-1.62163">
        <ele>59</ele>
        <time>2021-08-09T17:41:15.000Z</time>
      </trkpt>
      <trkpt lat="47.13017" lon="-1.62176">
        <ele>59</ele>
        <time>2021-08-09T17:41:17.000Z</time>
      </trkpt>
      <trkpt lat="47.13025" lon="-1.6219">
        <ele>60</ele>
        <time>2021-08-09T17:41:19.000Z</time>
      </trkpt>
      <trkpt lat="47.13034" lon="-1.62204">
        <ele>59</ele>
        <time>2021-08-09T17:41:21.000Z</time>
      </trkpt>
      <trkpt lat="47.13042" lon="-1.62217">
        <ele>58</ele>
        <time>2021-08-09T17:41:23.000Z</time>
      </trkpt>
      <trkpt lat="47.13049" lon="-1.6223">
        <ele>58</ele>
        <time>2021-08-09T17:41:25.000Z</time>
      </trkpt>
      <trkpt lat="47.13058" lon="-1.62242">
        <ele>58</ele>
        <time>2021-08-09T17:41:27.000Z</time>
      </trkpt>
      <trkpt lat="47.13066" lon="-1.62255">
        <ele>58</ele>
        <time>2021-08-09T17:41:29.000Z</time>
      </trkpt>
      <trkpt lat="47.13074" lon="-1.62267">
        <ele>57</ele>
        <time>2021-08-09T17:41:31.000Z</time>
      </trkpt>
      <trkpt lat="47.13082" lon="-1.62279">
        <ele>57</ele>
        <time>2021-08-09T17:41:33.000Z</time>
      </trkpt>
      <trkpt lat="47.13089" lon="-1.62288">
        <ele>58</ele>
        <time>2021-08-09T17:41:35.000Z</time>
      </trkpt>
      <trkpt lat="47.13097" lon="-1.62298">
        <ele>58</ele>
        <time>2021-08-09T17:41:37.000Z</time>
      </trkpt>
      <trkpt lat="47.13106" lon="-1.62303">
        <ele>58</ele>
        <time>2021-08-09T17:41:39.000Z</time>
      </trkpt>
      <trkpt lat="47.13113" lon="-1.6229">
        <ele>58</ele>
        <time>2021-08-09T17:41:41.000Z</time>
      </trkpt>
      <trkpt lat="47.13119" lon="-1.62275">
        <ele>59</ele>
        <time>2021-08-09T17:41:43.000Z</time>
      </trkpt>
      <trkpt lat="47.13126" lon="-1.6226">
        <ele>60</ele>
        <time>2021-08-09T17:41:45.000Z</time>
      </trkpt>
      <trkpt lat="47.13132" lon="-1.62245">
        <ele>60</ele>
        <time>2021-08-09T17:41:47.000Z</time>
      </trkpt>
      <trkpt lat="47.13139" lon="-1.62231">
        <ele>61</ele>
        <time>2021-08-09T17:41:49.000Z</time>
      </trkpt>
      <trkpt lat="47.13146" lon="-1.62216">
        <ele>61</ele>
        <time>2021-08-09T17:41:51.000Z</time>
      </trkpt>
      <trkpt lat="47.13153" lon="-1.62201">
        <ele>61</ele>
        <time>2021-08-09T17:41:53.000Z</time>
      </trkpt>
      <trkpt lat="47.13161" lon="-1.62186">
        <ele>61</ele>
        <time>2021-08-09T17:41:55.000Z</time>
      </trkpt>
      <trkpt lat="47.13168" lon="-1.62171">
        <ele>62</ele>
        <time>2021-08-09T17:41:57.000Z</time>
      </trkpt>
      <trkpt lat="47.13175" lon="-1.62156">
        <ele>62</ele>
        <time>2021-08-09T17:41:59.000Z</time>
      </trkpt>
      <trkpt lat="47.13183" lon="-1.62142">
        <ele>62</ele>
        <time>2021-08-09T17:42:01.000Z</time>
      </trkpt>
      <trkpt lat="47.13191" lon="-1.62129">
        <ele>62</ele>
        <time>2021-08-09T17:42:03.000Z</time>
      </trkpt>
      <trkpt lat="47.13199" lon="-1.62114">
        <ele>62</ele>
        <time>2021-08-09T17:42:05.000Z</time>
      </trkpt>
      <trkpt lat="47.13206" lon="-1.62099">
        <ele>62</ele>
        <time>2021-08-09T17:42:07.000Z</time>
      </trkpt>
      <trkpt lat="47.13215" lon="-1.62084">
        <ele>62</ele>
        <time>2021-08-09T17:42:09.000Z</time>
      </trkpt>
      <trkpt lat="47.13224" lon="-1.62069">
        <ele>62</ele>
        <time>2021-08-09T17:42:11.000Z</time>
      </trkpt>
      <trkpt lat="47.13234" lon="-1.62056">
        <ele>62</ele>
        <time>2021-08-09T17:42:13.000Z</time>
      </trkpt>
      <trkpt lat="47.13243" lon="-1.62042">
        <ele>62</ele>
        <time>2021-08-09T17:42:15.000Z</time>
      </trkpt>
      <trkpt lat="47.13252" lon="-1.6203">
        <ele>63</ele>
        <time>2021-08-09T17:42:17.000Z</time>
      </trkpt>
      <trkpt lat="47.13263" lon="-1.62018">
        <ele>63</ele>
        <time>2021-08-09T17:42:19.000Z</time>
      </trkpt>
      <trkpt lat="47.13274" lon="-1.62008">
        <ele>65</ele>
        <time>2021-08-09T17:42:21.000Z</time>
      </trkpt>
      <trkpt lat="47.13285" lon="-1.62">
        <ele>65</ele>
        <time>2021-08-09T17:42:23.000Z</time>
      </trkpt>
      <trkpt lat="47.13296" lon="-1.61991">
        <ele>65</ele>
        <time>2021-08-09T17:42:25.000Z</time>
      </trkpt>
      <trkpt lat="47.13307" lon="-1.61983">
        <ele>65</ele>
        <time>2021-08-09T17:42:27.000Z</time>
      </trkpt>
      <trkpt lat="47.13319" lon="-1.61974">
        <ele>66</ele>
        <time>2021-08-09T17:42:29.000Z</time>
      </trkpt>
      <trkpt lat="47.1333" lon="-1.61965">
        <ele>66</ele>
        <time>2021-08-09T17:42:31.000Z</time>
      </trkpt>
      <trkpt lat="47.13341" lon="-1.61957">
        <ele>67</ele>
        <time>2021-08-09T17:42:33.000Z</time>
      </trkpt>
      <trkpt lat="47.13352" lon="-1.61947">
        <ele>66</ele>
        <time>2021-08-09T17:42:35.000Z</time>
      </trkpt>
      <trkpt lat="47.13363" lon="-1.61938">
        <ele>67</ele>
        <time>2021-08-09T17:42:37.000Z</time>
      </trkpt>
      <trkpt lat="47.13375" lon="-1.6193">
        <ele>67</ele>
        <time>2021-08-09T17:42:39.000Z</time>
      </trkpt>
      <trkpt lat="47.13387" lon="-1.61922">
        <ele>67</ele>
        <time>2021-08-09T17:42:41.000Z</time>
      </trkpt>
      <trkpt lat="47.13398" lon="-1.61913">
        <ele>67</ele>
        <time>2021-08-09T17:42:43.000Z</time>
      </trkpt>
      <trkpt lat="47.1341" lon="-1.61904">
        <ele>66</ele>
        <time>2021-08-09T17:42:45.000Z</time>
      </trkpt>
      <trkpt lat="47.13421" lon="-1.61896">
        <ele>66</ele>
        <time>2021-08-09T17:42:47.000Z</time>
      </trkpt>
      <trkpt lat="47.13432" lon="-1.61886">
        <ele>66</ele>
        <time>2021-08-09T17:42:49.000Z</time>
      </trkpt>
      <trkpt lat="47.13444" lon="-1.61878">
        <ele>66</ele>
        <time>2021-08-09T17:42:51.000Z</time>
      </trkpt>
      <trkpt lat="47.13455" lon="-1.61869">
        <ele>66</ele>
        <time>2021-08-09T17:42:53.000Z</time>
      </trkpt>
      <trkpt lat="47.13466" lon="-1.61861">
        <ele>66</ele>
        <time>2021-08-09T17:42:55.000Z</time>
      </trkpt>
      <trkpt lat="47.13479" lon="-1.61853">
        <ele>65</ele>
        <time>2021-08-09T17:42:57.000Z</time>
      </trkpt>
      <trkpt lat="47.13492" lon="-1.61846">
        <ele>65</ele>
        <time>2021-08-09T17:42:59.000Z</time>
      </trkpt>
      <trkpt lat="47.13504" lon="-1.6184">
        <ele>64</ele>
        <time>2021-08-09T17:43:01.000Z</time>
      </trkpt>
      <trkpt lat="47.13517" lon="-1.61834">
        <ele>64</ele>
        <time>2021-08-09T17:43:03.000Z</time>
      </trkpt>
      <trkpt lat="47.1353" lon="-1.61828">
        <ele>64</ele>
        <time>2021-08-09T17:43:05.000Z</time>
      </trkpt>
      <trkpt lat="47.13543" lon="-1.61822">
        <ele>64</ele>
        <time>2021-08-09T17:43:07.000Z</time>
      </trkpt>
      <trkpt lat="47.13556" lon="-1.61816">
        <ele>64</ele>
        <time>2021-08-09T17:43:09.000Z</time>
      </trkpt>
      <trkpt lat="47.13567" lon="-1.61808">
        <ele>64</ele>
        <time>2021-08-09T17:43:11.000Z</time>
      </trkpt>
      <trkpt lat="47.1358" lon="-1.61803">
        <ele>64</ele>
        <time>2021-08-09T17:43:13.000Z</time>
      </trkpt>
      <trkpt lat="47.13594" lon="-1.61801">
        <ele>65</ele>
        <time>2021-08-09T17:43:15.000Z</time>
      </trkpt>
      <trkpt lat="47.13607" lon="-1.61795">
        <ele>65</ele>
        <time>2021-08-09T17:43:17.000Z</time>
      </trkpt>
      <trkpt lat="47.13619" lon="-1.61789">
        <ele>65</ele>
        <time>2021-08-09T17:43:19.000Z</time>
      </trkpt>
      <trkpt lat="47.13632" lon="-1.61783">
        <ele>65</ele>
        <time>2021-08-09T17:43:21.000Z</time>
      </trkpt>
      <trkpt lat="47.13645" lon="-1.61777">
        <ele>65</ele>
        <time>2021-08-09T17:43:23.000Z</time>
      </trkpt>
      <trkpt lat="47.13658" lon="-1.61771">
        <ele>64</ele>
        <time>2021-08-09T17:43:25.000Z</time>
      </trkpt>
      <trkpt lat="47.13671" lon="-1.61764">
        <ele>65</ele>
        <time>2021-08-09T17:43:27.000Z</time>
      </trkpt>
      <trkpt lat="47.13683" lon="-1.61756">
        <ele>65</ele>
        <time>2021-08-09T17:43:29.000Z</time>
      </trkpt>
      <trkpt lat="47.13695" lon="-1.61748">
        <ele>65</ele>
        <time>2021-08-09T17:43:31.000Z</time>
      </trkpt>
      <trkpt lat="47.13707" lon="-1.6174">
        <ele>65</ele>
        <time>2021-08-09T17:43:33.000Z</time>
      </trkpt>
      <trkpt lat="47.13717" lon="-1.61732">
        <ele>65</ele>
        <time>2021-08-09T17:43:35.000Z</time>
      </trkpt>
      <trkpt lat="47.13726" lon="-1.61724">
        <ele>65</ele>
        <time>2021-08-09T17:43:37.000Z</time>
      </trkpt>
      <trkpt lat="47.13734" lon="-1.61718">
        <ele>65</ele>
        <time>2021-08-09T17:43:39.000Z</time>
      </trkpt>
      <trkpt lat="47.13741" lon="-1.61731">
        <ele>65</ele>
        <time>2021-08-09T17:43:41.000Z</time>
      </trkpt>
      <trkpt lat="47.13739" lon="-1.61749">
        <ele>65</ele>
        <time>2021-08-09T17:43:43.000Z</time>
      </trkpt>
      <trkpt lat="47.13735" lon="-1.61767">
        <ele>65</ele>
        <time>2021-08-09T17:43:45.000Z</time>
      </trkpt>
      <trkpt lat="47.13732" lon="-1.61785">
        <ele>65</ele>
        <time>2021-08-09T17:43:47.000Z</time>
      </trkpt>
      <trkpt lat="47.13728" lon="-1.61804">
        <ele>64</ele>
        <time>2021-08-09T17:43:49.000Z</time>
      </trkpt>
      <trkpt lat="47.13725" lon="-1.61823">
        <ele>64</ele>
        <time>2021-08-09T17:43:51.000Z</time>
      </trkpt>
      <trkpt lat="47.13724" lon="-1.61842">
        <ele>64</ele>
        <time>2021-08-09T17:43:53.000Z</time>
      </trkpt>
      <trkpt lat="47.13723" lon="-1.6186">
        <ele>64</ele>
        <time>2021-08-09T17:43:55.000Z</time>
      </trkpt>
      <trkpt lat="47.13722" lon="-1.61878">
        <ele>64</ele>
        <time>2021-08-09T17:43:57.000Z</time>
      </trkpt>
      <trkpt lat="47.13721" lon="-1.61896">
        <ele>64</ele>
        <time>2021-08-09T17:43:59.000Z</time>
      </trkpt>
      <trkpt lat="47.1372" lon="-1.61915">
        <ele>64</ele>
        <time>2021-08-09T17:44:01.000Z</time>
      </trkpt>
      <trkpt lat="47.13719" lon="-1.61934">
        <ele>64</ele>
        <time>2021-08-09T17:44:03.000Z</time>
      </trkpt>
      <trkpt lat="47.1372" lon="-1.61953">
        <ele>65</ele>
        <time>2021-08-09T17:44:05.000Z</time>
      </trkpt>
      <trkpt lat="47.13723" lon="-1.61971">
        <ele>65</ele>
        <time>2021-08-09T17:44:07.000Z</time>
      </trkpt>
      <trkpt lat="47.13725" lon="-1.61989">
        <ele>65</ele>
        <time>2021-08-09T17:44:09.000Z</time>
      </trkpt>
      <trkpt lat="47.13728" lon="-1.62007">
        <ele>65</ele>
        <time>2021-08-09T17:44:11.000Z</time>
      </trkpt>
      <trkpt lat="47.13731" lon="-1.62024">
        <ele>66</ele>
        <time>2021-08-09T17:44:13.000Z</time>
      </trkpt>
      <trkpt lat="47.13733" lon="-1.62041">
        <ele>66</ele>
        <time>2021-08-09T17:44:15.000Z</time>
      </trkpt>
      <trkpt lat="47.13735" lon="-1.62058">
        <ele>66</ele>
        <time>2021-08-09T17:44:17.000Z</time>
      </trkpt>
      <trkpt lat="47.13737" lon="-1.62075">
        <ele>66</ele>
        <time>2021-08-09T17:44:19.000Z</time>
      </trkpt>
      <trkpt lat="47.1374" lon="-1.62094">
        <ele>66</ele>
        <time>2021-08-09T17:44:21.000Z</time>
      </trkpt>
      <trkpt lat="47.13743" lon="-1.62114">
        <ele>66</ele>
        <time>2021-08-09T17:44:23.000Z</time>
      </trkpt>
      <trkpt lat="47.13745" lon="-1.62133">
        <ele>65</ele>
        <time>2021-08-09T17:44:25.000Z</time>
      </trkpt>
      <trkpt lat="47.13748" lon="-1.62152">
        <ele>65</ele>
        <time>2021-08-09T17:44:27.000Z</time>
      </trkpt>
      <trkpt lat="47.13751" lon="-1.62171">
        <ele>65</ele>
        <time>2021-08-09T17:44:29.000Z</time>
      </trkpt>
      <trkpt lat="47.13753" lon="-1.6219">
        <ele>65</ele>
        <time>2021-08-09T17:44:31.000Z</time>
      </trkpt>
      <trkpt lat="47.13755" lon="-1.62209">
        <ele>65</ele>
        <time>2021-08-09T17:44:33.000Z</time>
      </trkpt>
      <trkpt lat="47.13756" lon="-1.62228">
        <ele>65</ele>
        <time>2021-08-09T17:44:35.000Z</time>
      </trkpt>
      <trkpt lat="47.13758" lon="-1.62247">
        <ele>65</ele>
        <time>2021-08-09T17:44:37.000Z</time>
      </trkpt>
      <trkpt lat="47.13761" lon="-1.62266">
        <ele>65</ele>
        <time>2021-08-09T17:44:39.000Z</time>
      </trkpt>
      <trkpt lat="47.13763" lon="-1.62283">
        <ele>64</ele>
        <time>2021-08-09T17:44:41.000Z</time>
      </trkpt>
      <trkpt lat="47.13764" lon="-1.62301">
        <ele>64</ele>
        <time>2021-08-09T17:44:43.000Z</time>
      </trkpt>
      <trkpt lat="47.13764" lon="-1.6232">
        <ele>64</ele>
        <time>2021-08-09T17:44:45.000Z</time>
      </trkpt>
      <trkpt lat="47.13762" lon="-1.6234">
        <ele>64</ele>
        <time>2021-08-09T17:44:47.000Z</time>
      </trkpt>
      <trkpt lat="47.13761" lon="-1.6236">
        <ele>64</ele>
        <time>2021-08-09T17:44:49.000Z</time>
      </trkpt>
      <trkpt lat="47.1376" lon="-1.62379">
        <ele>64</ele>
        <time>2021-08-09T17:44:51.000Z</time>
      </trkpt>
      <trkpt lat="47.1376" lon="-1.62399">
        <ele>64</ele>
        <time>2021-08-09T17:44:53.000Z</time>
      </trkpt>
      <trkpt lat="47.13762" lon="-1.62423">
        <ele>64</ele>
        <time>2021-08-09T17:44:55.000Z</time>
      </trkpt>
      <trkpt lat="47.13763" lon="-1.62445">
        <ele>65</ele>
        <time>2021-08-09T17:44:57.000Z</time>
      </trkpt>
      <trkpt lat="47.13765" lon="-1.62468">
        <ele>64</ele>
        <time>2021-08-09T17:44:59.000Z</time>
      </trkpt>
      <trkpt lat="47.13766" lon="-1.62491">
        <ele>65</ele>
        <time>2021-08-09T17:45:01.000Z</time>
      </trkpt>
      <trkpt lat="47.13768" lon="-1.62513">
        <ele>64</ele>
        <time>2021-08-09T17:45:03.000Z</time>
      </trkpt>
      <trkpt lat="47.1377" lon="-1.62535">
        <ele>63</ele>
        <time>2021-08-09T17:45:05.000Z</time>
      </trkpt>
      <trkpt lat="47.13772" lon="-1.62555">
        <ele>63</ele>
        <time>2021-08-09T17:45:07.000Z</time>
      </trkpt>
      <trkpt lat="47.13774" lon="-1.62576">
        <ele>63</ele>
        <time>2021-08-09T17:45:09.000Z</time>
      </trkpt>
      <trkpt lat="47.13776" lon="-1.62595">
        <ele>63</ele>
        <time>2021-08-09T17:45:11.000Z</time>
      </trkpt>
      <trkpt lat="47.13778" lon="-1.62615">
        <ele>64</ele>
        <time>2021-08-09T17:45:13.000Z</time>
      </trkpt>
      <trkpt lat="47.13781" lon="-1.62635">
        <ele>64</ele>
        <time>2021-08-09T17:45:15.000Z</time>
      </trkpt>
      <trkpt lat="47.13782" lon="-1.62655">
        <ele>64</ele>
        <time>2021-08-09T17:45:17.000Z</time>
      </trkpt>
      <trkpt lat="47.13783" lon="-1.62675">
        <ele>64</ele>
        <time>2021-08-09T17:45:19.000Z</time>
      </trkpt>
      <trkpt lat="47.13782" lon="-1.62695">
        <ele>64</ele>
        <time>2021-08-09T17:45:21.000Z</time>
      </trkpt>
      <trkpt lat="47.13781" lon="-1.62715">
        <ele>64</ele>
        <time>2021-08-09T17:45:23.000Z</time>
      </trkpt>
      <trkpt lat="47.1378" lon="-1.62734">
        <ele>64</ele>
        <time>2021-08-09T17:45:25.000Z</time>
      </trkpt>
      <trkpt lat="47.13781" lon="-1.62753">
        <ele>64</ele>
        <time>2021-08-09T17:45:27.000Z</time>
      </trkpt>
      <trkpt lat="47.13784" lon="-1.62772">
        <ele>63</ele>
        <time>2021-08-09T17:45:29.000Z</time>
      </trkpt>
      <trkpt lat="47.13788" lon="-1.62789">
        <ele>64</ele>
        <time>2021-08-09T17:45:31.000Z</time>
      </trkpt>
      <trkpt lat="47.13794" lon="-1.62805">
        <ele>64</ele>
        <time>2021-08-09T17:45:33.000Z</time>
      </trkpt>
      <trkpt lat="47.138" lon="-1.62822">
        <ele>64</ele>
        <time>2021-08-09T17:45:35.000Z</time>
      </trkpt>
      <trkpt lat="47.13805" lon="-1.62838">
        <ele>64</ele>
        <time>2021-08-09T17:45:37.000Z</time>
      </trkpt>
      <trkpt lat="47.13811" lon="-1.62853">
        <ele>64</ele>
        <time>2021-08-09T17:45:39.000Z</time>
      </trkpt>
      <trkpt lat="47.13817" lon="-1.62869">
        <ele>64</ele>
        <time>2021-08-09T17:45:41.000Z</time>
      </trkpt>
      <trkpt lat="47.13821" lon="-1.62885">
        <ele>64</ele>
        <time>2021-08-09T17:45:43.000Z</time>
      </trkpt>
      <trkpt lat="47.13823" lon="-1.62902">
        <ele>64</ele>
        <time>2021-08-09T17:45:45.000Z</time>
      </trkpt>
      <trkpt lat="47.13822" lon="-1.6292">
        <ele>64</ele>
        <time>2021-08-09T17:45:47.000Z</time>
      </trkpt>
      <trkpt lat="47.1382" lon="-1.62938">
        <ele>64</ele>
        <time>2021-08-09T17:45:49.000Z</time>
      </trkpt>
      <trkpt lat="47.13819" lon="-1.62955">
        <ele>63</ele>
        <time>2021-08-09T17:45:51.000Z</time>
      </trkpt>
      <trkpt lat="47.13817" lon="-1.62974">
        <ele>63</ele>
        <time>2021-08-09T17:45:53.000Z</time>
      </trkpt>
      <trkpt lat="47.13815" lon="-1.62993">
        <ele>62</ele>
        <time>2021-08-09T17:45:55.000Z</time>
      </trkpt>
      <trkpt lat="47.13815" lon="-1.63012">
        <ele>62</ele>
        <time>2021-08-09T17:45:57.000Z</time>
      </trkpt>
      <trkpt lat="47.13815" lon="-1.63032">
        <ele>61</ele>
        <time>2021-08-09T17:45:59.000Z</time>
      </trkpt>
      <trkpt lat="47.13817" lon="-1.63052">
        <ele>61</ele>
        <time>2021-08-09T17:46:01.000Z</time>
      </trkpt>
      <trkpt lat="47.13827" lon="-1.63063">
        <ele>61</ele>
        <time>2021-08-09T17:46:03.000Z</time>
      </trkpt>
      <trkpt lat="47.1384" lon="-1.63061">
        <ele>60</ele>
        <time>2021-08-09T17:46:05.000Z</time>
      </trkpt>
      <trkpt lat="47.13855" lon="-1.63058">
        <ele>61</ele>
        <time>2021-08-09T17:46:07.000Z</time>
      </trkpt>
      <trkpt lat="47.1387" lon="-1.63054">
        <ele>61</ele>
        <time>2021-08-09T17:46:09.000Z</time>
      </trkpt>
      <trkpt lat="47.13883" lon="-1.63051">
        <ele>61</ele>
        <time>2021-08-09T17:46:11.000Z</time>
      </trkpt>
      <trkpt lat="47.13897" lon="-1.63047">
        <ele>61</ele>
        <time>2021-08-09T17:46:13.000Z</time>
      </trkpt>
      <trkpt lat="47.13911" lon="-1.63042">
        <ele>61</ele>
        <time>2021-08-09T17:46:15.000Z</time>
      </trkpt>
      <trkpt lat="47.13924" lon="-1.63036">
        <ele>62</ele>
        <time>2021-08-09T17:46:17.000Z</time>
      </trkpt>
      <trkpt lat="47.13937" lon="-1.6303">
        <ele>62</ele>
        <time>2021-08-09T17:46:19.000Z</time>
      </trkpt>
      <trkpt lat="47.13949" lon="-1.63022">
        <ele>62</ele>
        <time>2021-08-09T17:46:21.000Z</time>
      </trkpt>
      <trkpt lat="47.13962" lon="-1.63015">
        <ele>63</ele>
        <time>2021-08-09T17:46:23.000Z</time>
      </trkpt>
      <trkpt lat="47.13974" lon="-1.63008">
        <ele>63</ele>
        <time>2021-08-09T17:46:25.000Z</time>
      </trkpt>
      <trkpt lat="47.13987" lon="-1.63001">
        <ele>64</ele>
        <time>2021-08-09T17:46:27.000Z</time>
      </trkpt>
      <trkpt lat="47.13999" lon="-1.62994">
        <ele>64</ele>
        <time>2021-08-09T17:46:29.000Z</time>
      </trkpt>
      <trkpt lat="47.14011" lon="-1.62988">
        <ele>65</ele>
        <time>2021-08-09T17:46:31.000Z</time>
      </trkpt>
      <trkpt lat="47.14024" lon="-1.62983">
        <ele>65</ele>
        <time>2021-08-09T17:46:33.000Z</time>
      </trkpt>
      <trkpt lat="47.14036" lon="-1.62979">
        <ele>65</ele>
        <time>2021-08-09T17:46:35.000Z</time>
      </trkpt>
      <trkpt lat="47.14049" lon="-1.62976">
        <ele>66</ele>
        <time>2021-08-09T17:46:37.000Z</time>
      </trkpt>
      <trkpt lat="47.14061" lon="-1.62975">
        <ele>67</ele>
        <time>2021-08-09T17:46:39.000Z</time>
      </trkpt>
      <trkpt lat="47.14074" lon="-1.62974">
        <ele>67</ele>
        <time>2021-08-09T17:46:41.000Z</time>
      </trkpt>
      <trkpt lat="47.14087" lon="-1.62973">
        <ele>68</ele>
        <time>2021-08-09T17:46:43.000Z</time>
      </trkpt>
      <trkpt lat="47.141" lon="-1.62976">
        <ele>68</ele>
        <time>2021-08-09T17:46:45.000Z</time>
      </trkpt>
      <trkpt lat="47.14113" lon="-1.62979">
        <ele>68</ele>
        <time>2021-08-09T17:46:47.000Z</time>
      </trkpt>
      <trkpt lat="47.14125" lon="-1.62984">
        <ele>68</ele>
        <time>2021-08-09T17:46:49.000Z</time>
      </trkpt>
      <trkpt lat="47.14136" lon="-1.62989">
        <ele>68</ele>
        <time>2021-08-09T17:46:51.000Z</time>
      </trkpt>
      <trkpt lat="47.14149" lon="-1.62995">
        <ele>67</ele>
        <time>2021-08-09T17:46:53.000Z</time>
      </trkpt>
      <trkpt lat="47.1416" lon="-1.63001">
        <ele>67</ele>
        <time>2021-08-09T17:46:55.000Z</time>
      </trkpt>
      <trkpt lat="47.14172" lon="-1.63006">
        <ele>67</ele>
        <time>2021-08-09T17:46:57.000Z</time>
      </trkpt>
      <trkpt lat="47.14184" lon="-1.63012">
        <ele>67</ele>
        <time>2021-08-09T17:46:59.000Z</time>
      </trkpt>
      <trkpt lat="47.14196" lon="-1.63018">
        <ele>67</ele>
        <time>2021-08-09T17:47:01.000Z</time>
      </trkpt>
      <trkpt lat="47.14209" lon="-1.63024">
        <ele>68</ele>
        <time>2021-08-09T17:47:03.000Z</time>
      </trkpt>
      <trkpt lat="47.14221" lon="-1.63031">
        <ele>68</ele>
        <time>2021-08-09T17:47:05.000Z</time>
      </trkpt>
      <trkpt lat="47.14232" lon="-1.63037">
        <ele>68</ele>
        <time>2021-08-09T17:47:07.000Z</time>
      </trkpt>
      <trkpt lat="47.14245" lon="-1.63043">
        <ele>69</ele>
        <time>2021-08-09T17:47:09.000Z</time>
      </trkpt>
      <trkpt lat="47.14257" lon="-1.63049">
        <ele>69</ele>
        <time>2021-08-09T17:47:11.000Z</time>
      </trkpt>
      <trkpt lat="47.14269" lon="-1.63055">
        <ele>69</ele>
        <time>2021-08-09T17:47:13.000Z</time>
      </trkpt>
      <trkpt lat="47.1428" lon="-1.63062">
        <ele>70</ele>
        <time>2021-08-09T17:47:15.000Z</time>
      </trkpt>
      <trkpt lat="47.14292" lon="-1.63067">
        <ele>70</ele>
        <time>2021-08-09T17:47:17.000Z</time>
      </trkpt>
      <trkpt lat="47.14304" lon="-1.63072">
        <ele>70</ele>
        <time>2021-08-09T17:47:19.000Z</time>
      </trkpt>
      <trkpt lat="47.14317" lon="-1.63078">
        <ele>71</ele>
        <time>2021-08-09T17:47:21.000Z</time>
      </trkpt>
      <trkpt lat="47.14329" lon="-1.63084">
        <ele>71</ele>
        <time>2021-08-09T17:47:23.000Z</time>
      </trkpt>
      <trkpt lat="47.1434" lon="-1.63092">
        <ele>71</ele>
        <time>2021-08-09T17:47:25.000Z</time>
      </trkpt>
      <trkpt lat="47.14352" lon="-1.63099">
        <ele>72</ele>
        <time>2021-08-09T17:47:27.000Z</time>
      </trkpt>
      <trkpt lat="47.14364" lon="-1.63106">
        <ele>71</ele>
        <time>2021-08-09T17:47:29.000Z</time>
      </trkpt>
      <trkpt lat="47.14377" lon="-1.63112">
        <ele>72</ele>
        <time>2021-08-09T17:47:31.000Z</time>
      </trkpt>
      <trkpt lat="47.14389" lon="-1.63116">
        <ele>71</ele>
        <time>2021-08-09T17:47:33.000Z</time>
      </trkpt>
      <trkpt lat="47.144" lon="-1.63122">
        <ele>72</ele>
        <time>2021-08-09T17:47:35.000Z</time>
      </trkpt>
      <trkpt lat="47.14412" lon="-1.63128">
        <ele>71</ele>
        <time>2021-08-09T17:47:37.000Z</time>
      </trkpt>
      <trkpt lat="47.14424" lon="-1.63134">
        <ele>71</ele>
        <time>2021-08-09T17:47:39.000Z</time>
      </trkpt>
      <trkpt lat="47.14435" lon="-1.6314">
        <ele>71</ele>
        <time>2021-08-09T17:47:41.000Z</time>
      </trkpt>
      <trkpt lat="47.14448" lon="-1.63144">
        <ele>70</ele>
        <time>2021-08-09T17:47:43.000Z</time>
      </trkpt>
      <trkpt lat="47.14461" lon="-1.63144">
        <ele>70</ele>
        <time>2021-08-09T17:47:45.000Z</time>
      </trkpt>
      <trkpt lat="47.14474" lon="-1.63144">
        <ele>70</ele>
        <time>2021-08-09T17:47:47.000Z</time>
      </trkpt>
      <trkpt lat="47.14486" lon="-1.63144">
        <ele>70</ele>
        <time>2021-08-09T17:47:49.000Z</time>
      </trkpt>
      <trkpt lat="47.145" lon="-1.63145">
        <ele>70</ele>
        <time>2021-08-09T17:47:51.000Z</time>
      </trkpt>
      <trkpt lat="47.14513" lon="-1.63145">
        <ele>70</ele>
        <time>2021-08-09T17:47:53.000Z</time>
      </trkpt>
      <trkpt lat="47.14526" lon="-1.63145">
        <ele>69</ele>
        <time>2021-08-09T17:47:55.000Z</time>
      </trkpt>
      <trkpt lat="47.14538" lon="-1.63144">
        <ele>70</ele>
        <time>2021-08-09T17:47:57.000Z</time>
      </trkpt>
      <trkpt lat="47.14551" lon="-1.63142">
        <ele>71</ele>
        <time>2021-08-09T17:47:59.000Z</time>
      </trkpt>
      <trkpt lat="47.14563" lon="-1.63139">
        <ele>71</ele>
        <time>2021-08-09T17:48:01.000Z</time>
      </trkpt>
      <trkpt lat="47.14575" lon="-1.63132">
        <ele>71</ele>
        <time>2021-08-09T17:48:03.000Z</time>
      </trkpt>
      <trkpt lat="47.14593" lon="-1.63122">
        <ele>72</ele>
        <time>2021-08-09T17:48:06.000Z</time>
      </trkpt>
      <trkpt lat="47.14604" lon="-1.63114">
        <ele>72</ele>
        <time>2021-08-09T17:48:08.000Z</time>
      </trkpt>
      <trkpt lat="47.14616" lon="-1.63107">
        <ele>72</ele>
        <time>2021-08-09T17:48:10.000Z</time>
      </trkpt>
      <trkpt lat="47.14633" lon="-1.63096">
        <ele>72</ele>
        <time>2021-08-09T17:48:13.000Z</time>
      </trkpt>
      <trkpt lat="47.14651" lon="-1.63086">
        <ele>72</ele>
        <time>2021-08-09T17:48:16.000Z</time>
      </trkpt>
      <trkpt lat="47.14663" lon="-1.6308">
        <ele>72</ele>
        <time>2021-08-09T17:48:18.000Z</time>
      </trkpt>
      <trkpt lat="47.14675" lon="-1.63075">
        <ele>72</ele>
        <time>2021-08-09T17:48:20.000Z</time>
      </trkpt>
      <trkpt lat="47.14694" lon="-1.63071">
        <ele>72</ele>
        <time>2021-08-09T17:48:23.000Z</time>
      </trkpt>
      <trkpt lat="47.14707" lon="-1.6307">
        <ele>72</ele>
        <time>2021-08-09T17:48:25.000Z</time>
      </trkpt>
      <trkpt lat="47.14719" lon="-1.63069">
        <ele>73</ele>
        <time>2021-08-09T17:48:27.000Z</time>
      </trkpt>
      <trkpt lat="47.14731" lon="-1.63068">
        <ele>72</ele>
        <time>2021-08-09T17:48:29.000Z</time>
      </trkpt>
      <trkpt lat="47.14743" lon="-1.63068">
        <ele>72</ele>
        <time>2021-08-09T17:48:31.000Z</time>
      </trkpt>
      <trkpt lat="47.14756" lon="-1.63067">
        <ele>73</ele>
        <time>2021-08-09T17:48:33.000Z</time>
      </trkpt>
      <trkpt lat="47.14769" lon="-1.63066">
        <ele>73</ele>
        <time>2021-08-09T17:48:35.000Z</time>
      </trkpt>
      <trkpt lat="47.14782" lon="-1.63065">
        <ele>73</ele>
        <time>2021-08-09T17:48:37.000Z</time>
      </trkpt>
      <trkpt lat="47.14795" lon="-1.63064">
        <ele>73</ele>
        <time>2021-08-09T17:48:39.000Z</time>
      </trkpt>
      <trkpt lat="47.14808" lon="-1.63063">
        <ele>73</ele>
        <time>2021-08-09T17:48:41.000Z</time>
      </trkpt>
      <trkpt lat="47.14821" lon="-1.63063">
        <ele>74</ele>
        <time>2021-08-09T17:48:43.000Z</time>
      </trkpt>
      <trkpt lat="47.14834" lon="-1.63061">
        <ele>74</ele>
        <time>2021-08-09T17:48:45.000Z</time>
      </trkpt>
      <trkpt lat="47.14847" lon="-1.63061">
        <ele>75</ele>
        <time>2021-08-09T17:48:47.000Z</time>
      </trkpt>
      <trkpt lat="47.14859" lon="-1.63061">
        <ele>75</ele>
        <time>2021-08-09T17:48:49.000Z</time>
      </trkpt>
      <trkpt lat="47.1487" lon="-1.63059">
        <ele>74</ele>
        <time>2021-08-09T17:48:51.000Z</time>
      </trkpt>
      <trkpt lat="47.1488" lon="-1.63063">
        <ele>74</ele>
        <time>2021-08-09T17:48:53.000Z</time>
      </trkpt>
      <trkpt lat="47.14882" lon="-1.63078">
        <ele>74</ele>
        <time>2021-08-09T17:48:55.000Z</time>
      </trkpt>
      <trkpt lat="47.14882" lon="-1.63095">
        <ele>74</ele>
        <time>2021-08-09T17:48:57.000Z</time>
      </trkpt>
      <trkpt lat="47.14879" lon="-1.63113">
        <ele>74</ele>
        <time>2021-08-09T17:48:59.000Z</time>
      </trkpt>
      <trkpt lat="47.14877" lon="-1.63131">
        <ele>74</ele>
        <time>2021-08-09T17:49:01.000Z</time>
      </trkpt>
      <trkpt lat="47.14875" lon="-1.63149">
        <ele>74</ele>
        <time>2021-08-09T17:49:03.000Z</time>
      </trkpt>
      <trkpt lat="47.14873" lon="-1.63166">
        <ele>74</ele>
        <time>2021-08-09T17:49:05.000Z</time>
      </trkpt>
      <trkpt lat="47.14872" lon="-1.63183">
        <ele>74</ele>
        <time>2021-08-09T17:49:07.000Z</time>
      </trkpt>
      <trkpt lat="47.14872" lon="-1.63201">
        <ele>73</ele>
        <time>2021-08-09T17:49:09.000Z</time>
      </trkpt>
      <trkpt lat="47.14872" lon="-1.63219">
        <ele>73</ele>
        <time>2021-08-09T17:49:11.000Z</time>
      </trkpt>
      <trkpt lat="47.14871" lon="-1.63236">
        <ele>73</ele>
        <time>2021-08-09T17:49:13.000Z</time>
      </trkpt>
      <trkpt lat="47.14871" lon="-1.63254">
        <ele>73</ele>
        <time>2021-08-09T17:49:15.000Z</time>
      </trkpt>
      <trkpt lat="47.14871" lon="-1.63272">
        <ele>73</ele>
        <time>2021-08-09T17:49:17.000Z</time>
      </trkpt>
      <trkpt lat="47.14871" lon="-1.63288">
        <ele>73</ele>
        <time>2021-08-09T17:49:19.000Z</time>
      </trkpt>
      <trkpt lat="47.14871" lon="-1.63306">
        <ele>73</ele>
        <time>2021-08-09T17:49:21.000Z</time>
      </trkpt>
      <trkpt lat="47.14871" lon="-1.63324">
        <ele>73</ele>
        <time>2021-08-09T17:49:23.000Z</time>
      </trkpt>
      <trkpt lat="47.14871" lon="-1.63342">
        <ele>73</ele>
        <time>2021-08-09T17:49:25.000Z</time>
      </trkpt>
      <trkpt lat="47.14871" lon="-1.6336">
        <ele>73</ele>
        <time>2021-08-09T17:49:27.000Z</time>
      </trkpt>
      <trkpt lat="47.14871" lon="-1.63378">
        <ele>72</ele>
        <time>2021-08-09T17:49:29.000Z</time>
      </trkpt>
      <trkpt lat="47.14871" lon="-1.63395">
        <ele>72</ele>
        <time>2021-08-09T17:49:31.000Z</time>
      </trkpt>
      <trkpt lat="47.14872" lon="-1.63413">
        <ele>72</ele>
        <time>2021-08-09T17:49:33.000Z</time>
      </trkpt>
      <trkpt lat="47.14872" lon="-1.63432">
        <ele>72</ele>
        <time>2021-08-09T17:49:35.000Z</time>
      </trkpt>
      <trkpt lat="47.14872" lon="-1.63449">
        <ele>72</ele>
        <time>2021-08-09T17:49:37.000Z</time>
      </trkpt>
      <trkpt lat="47.14872" lon="-1.63468">
        <ele>72</ele>
        <time>2021-08-09T17:49:39.000Z</time>
      </trkpt>
      <trkpt lat="47.14871" lon="-1.63487">
        <ele>72</ele>
        <time>2021-08-09T17:49:41.000Z</time>
      </trkpt>
      <trkpt lat="47.14872" lon="-1.63505">
        <ele>72</ele>
        <time>2021-08-09T17:49:43.000Z</time>
      </trkpt>
      <trkpt lat="47.14872" lon="-1.63524">
        <ele>72</ele>
        <time>2021-08-09T17:49:45.000Z</time>
      </trkpt>
      <trkpt lat="47.14871" lon="-1.63542">
        <ele>72</ele>
        <time>2021-08-09T17:49:47.000Z</time>
      </trkpt>
      <trkpt lat="47.14871" lon="-1.6356">
        <ele>72</ele>
        <time>2021-08-09T17:49:49.000Z</time>
      </trkpt>
      <trkpt lat="47.14871" lon="-1.63578">
        <ele>72</ele>
        <time>2021-08-09T17:49:51.000Z</time>
      </trkpt>
      <trkpt lat="47.14872" lon="-1.63597">
        <ele>71</ele>
        <time>2021-08-09T17:49:53.000Z</time>
      </trkpt>
      <trkpt lat="47.14871" lon="-1.63616">
        <ele>72</ele>
        <time>2021-08-09T17:49:55.000Z</time>
      </trkpt>
      <trkpt lat="47.14871" lon="-1.63634">
        <ele>72</ele>
        <time>2021-08-09T17:49:57.000Z</time>
      </trkpt>
      <trkpt lat="47.14871" lon="-1.63653">
        <ele>72</ele>
        <time>2021-08-09T17:49:59.000Z</time>
      </trkpt>
      <trkpt lat="47.14871" lon="-1.63672">
        <ele>71</ele>
        <time>2021-08-09T17:50:01.000Z</time>
      </trkpt>
      <trkpt lat="47.14871" lon="-1.6369">
        <ele>71</ele>
        <time>2021-08-09T17:50:03.000Z</time>
      </trkpt>
      <trkpt lat="47.14871" lon="-1.63708">
        <ele>71</ele>
        <time>2021-08-09T17:50:05.000Z</time>
      </trkpt>
      <trkpt lat="47.14871" lon="-1.63727">
        <ele>71</ele>
        <time>2021-08-09T17:50:07.000Z</time>
      </trkpt>
      <trkpt lat="47.14871" lon="-1.63745">
        <ele>71</ele>
        <time>2021-08-09T17:50:09.000Z</time>
      </trkpt>
      <trkpt lat="47.14871" lon="-1.63763">
        <ele>71</ele>
        <time>2021-08-09T17:50:11.000Z</time>
      </trkpt>
      <trkpt lat="47.14871" lon="-1.63781">
        <ele>71</ele>
        <time>2021-08-09T17:50:13.000Z</time>
      </trkpt>
      <trkpt lat="47.14871" lon="-1.63799">
        <ele>71</ele>
        <time>2021-08-09T17:50:15.000Z</time>
      </trkpt>
      <trkpt lat="47.14871" lon="-1.63818">
        <ele>71</ele>
        <time>2021-08-09T17:50:17.000Z</time>
      </trkpt>
      <trkpt lat="47.1487" lon="-1.63835">
        <ele>71</ele>
        <time>2021-08-09T17:50:19.000Z</time>
      </trkpt>
      <trkpt lat="47.14869" lon="-1.63853">
        <ele>71</ele>
        <time>2021-08-09T17:50:21.000Z</time>
      </trkpt>
      <trkpt lat="47.14867" lon="-1.63871">
        <ele>70</ele>
        <time>2021-08-09T17:50:23.000Z</time>
      </trkpt>
      <trkpt lat="47.14865" lon="-1.63889">
        <ele>70</ele>
        <time>2021-08-09T17:50:25.000Z</time>
      </trkpt>
      <trkpt lat="47.14863" lon="-1.63906">
        <ele>71</ele>
        <time>2021-08-09T17:50:27.000Z</time>
      </trkpt>
      <trkpt lat="47.1486" lon="-1.63923">
        <ele>71</ele>
        <time>2021-08-09T17:50:29.000Z</time>
      </trkpt>
      <trkpt lat="47.14858" lon="-1.6394">
        <ele>71</ele>
        <time>2021-08-09T17:50:31.000Z</time>
      </trkpt>
      <trkpt lat="47.14856" lon="-1.63957">
        <ele>71</ele>
        <time>2021-08-09T17:50:33.000Z</time>
      </trkpt>
      <trkpt lat="47.14858" lon="-1.63974">
        <ele>71</ele>
        <time>2021-08-09T17:50:35.000Z</time>
      </trkpt>
      <trkpt lat="47.14861" lon="-1.63989">
        <ele>71</ele>
        <time>2021-08-09T17:50:37.000Z</time>
      </trkpt>
      <trkpt lat="47.1487" lon="-1.64">
        <ele>71</ele>
        <time>2021-08-09T17:50:39.000Z</time>
      </trkpt>
      <trkpt lat="47.14878" lon="-1.64012">
        <ele>71</ele>
        <time>2021-08-09T17:50:41.000Z</time>
      </trkpt>
      <trkpt lat="47.14888" lon="-1.6402">
        <ele>71</ele>
        <time>2021-08-09T17:50:43.000Z</time>
      </trkpt>
      <trkpt lat="47.149" lon="-1.6402">
        <ele>72</ele>
        <time>2021-08-09T17:50:45.000Z</time>
      </trkpt>
      <trkpt lat="47.14909" lon="-1.64009">
        <ele>73</ele>
        <time>2021-08-09T17:50:47.000Z</time>
      </trkpt>
      <trkpt lat="47.14915" lon="-1.63993">
        <ele>73</ele>
        <time>2021-08-09T17:50:49.000Z</time>
      </trkpt>
      <trkpt lat="47.14922" lon="-1.63977">
        <ele>74</ele>
        <time>2021-08-09T17:50:51.000Z</time>
      </trkpt>
      <trkpt lat="47.14929" lon="-1.63962">
        <ele>74</ele>
        <time>2021-08-09T17:50:53.000Z</time>
      </trkpt>
      <trkpt lat="47.14938" lon="-1.63948">
        <ele>74</ele>
        <time>2021-08-09T17:50:55.000Z</time>
      </trkpt>
      <trkpt lat="47.14949" lon="-1.63935">
        <ele>74</ele>
        <time>2021-08-09T17:50:57.000Z</time>
      </trkpt>
      <trkpt lat="47.14959" lon="-1.63921">
        <ele>74</ele>
        <time>2021-08-09T17:50:59.000Z</time>
      </trkpt>
      <trkpt lat="47.14969" lon="-1.63906">
        <ele>75</ele>
        <time>2021-08-09T17:51:01.000Z</time>
      </trkpt>
      <trkpt lat="47.14979" lon="-1.63891">
        <ele>74</ele>
        <time>2021-08-09T17:51:03.000Z</time>
      </trkpt>
      <trkpt lat="47.1499" lon="-1.63877">
        <ele>75</ele>
        <time>2021-08-09T17:51:05.000Z</time>
      </trkpt>
      <trkpt lat="47.15" lon="-1.63862">
        <ele>74</ele>
        <time>2021-08-09T17:51:07.000Z</time>
      </trkpt>
      <trkpt lat="47.1501" lon="-1.63848">
        <ele>74</ele>
        <time>2021-08-09T17:51:09.000Z</time>
      </trkpt>
      <trkpt lat="47.15021" lon="-1.63834">
        <ele>74</ele>
        <time>2021-08-09T17:51:11.000Z</time>
      </trkpt>
      <trkpt lat="47.15031" lon="-1.6382">
        <ele>74</ele>
        <time>2021-08-09T17:51:13.000Z</time>
      </trkpt>
      <trkpt lat="47.15041" lon="-1.63806">
        <ele>74</ele>
        <time>2021-08-09T17:51:15.000Z</time>
      </trkpt>
      <trkpt lat="47.15052" lon="-1.63793">
        <ele>74</ele>
        <time>2021-08-09T17:51:17.000Z</time>
      </trkpt>
      <trkpt lat="47.15062" lon="-1.63779">
        <ele>74</ele>
        <time>2021-08-09T17:51:19.000Z</time>
      </trkpt>
      <trkpt lat="47.15072" lon="-1.63766">
        <ele>74</ele>
        <time>2021-08-09T17:51:21.000Z</time>
      </trkpt>
      <trkpt lat="47.15083" lon="-1.63754">
        <ele>74</ele>
        <time>2021-08-09T17:51:23.000Z</time>
      </trkpt>
      <trkpt lat="47.15094" lon="-1.63742">
        <ele>75</ele>
        <time>2021-08-09T17:51:25.000Z</time>
      </trkpt>
      <trkpt lat="47.15105" lon="-1.63729">
        <ele>75</ele>
        <time>2021-08-09T17:51:27.000Z</time>
      </trkpt>
      <trkpt lat="47.15116" lon="-1.63717">
        <ele>75</ele>
        <time>2021-08-09T17:51:29.000Z</time>
      </trkpt>
      <trkpt lat="47.15127" lon="-1.63704">
        <ele>75</ele>
        <time>2021-08-09T17:51:31.000Z</time>
      </trkpt>
      <trkpt lat="47.15138" lon="-1.63693">
        <ele>75</ele>
        <time>2021-08-09T17:51:33.000Z</time>
      </trkpt>
      <trkpt lat="47.1515" lon="-1.63681">
        <ele>76</ele>
        <time>2021-08-09T17:51:35.000Z</time>
      </trkpt>
      <trkpt lat="47.15162" lon="-1.63671">
        <ele>76</ele>
        <time>2021-08-09T17:51:37.000Z</time>
      </trkpt>
      <trkpt lat="47.15174" lon="-1.6366">
        <ele>75</ele>
        <time>2021-08-09T17:51:39.000Z</time>
      </trkpt>
      <trkpt lat="47.15186" lon="-1.63649">
        <ele>75</ele>
        <time>2021-08-09T17:51:41.000Z</time>
      </trkpt>
      <trkpt lat="47.15198" lon="-1.6364">
        <ele>75</ele>
        <time>2021-08-09T17:51:43.000Z</time>
      </trkpt>
      <trkpt lat="47.15209" lon="-1.6363">
        <ele>75</ele>
        <time>2021-08-09T17:51:45.000Z</time>
      </trkpt>
      <trkpt lat="47.15221" lon="-1.63619">
        <ele>75</ele>
        <time>2021-08-09T17:51:47.000Z</time>
      </trkpt>
      <trkpt lat="47.15231" lon="-1.63609">
        <ele>76</ele>
        <time>2021-08-09T17:51:49.000Z</time>
      </trkpt>
      <trkpt lat="47.15243" lon="-1.63598">
        <ele>76</ele>
        <time>2021-08-09T17:51:51.000Z</time>
      </trkpt>
      <trkpt lat="47.15254" lon="-1.63588">
        <ele>76</ele>
        <time>2021-08-09T17:51:53.000Z</time>
      </trkpt>
      <trkpt lat="47.15265" lon="-1.63578">
        <ele>76</ele>
        <time>2021-08-09T17:51:55.000Z</time>
      </trkpt>
      <trkpt lat="47.15276" lon="-1.63568">
        <ele>76</ele>
        <time>2021-08-09T17:51:57.000Z</time>
      </trkpt>
      <trkpt lat="47.15288" lon="-1.63557">
        <ele>76</ele>
        <time>2021-08-09T17:51:59.000Z</time>
      </trkpt>
      <trkpt lat="47.15299" lon="-1.63547">
        <ele>76</ele>
        <time>2021-08-09T17:52:01.000Z</time>
      </trkpt>
      <trkpt lat="47.15311" lon="-1.63536">
        <ele>76</ele>
        <time>2021-08-09T17:52:03.000Z</time>
      </trkpt>
      <trkpt lat="47.15322" lon="-1.63527">
        <ele>76</ele>
        <time>2021-08-09T17:52:05.000Z</time>
      </trkpt>
      <trkpt lat="47.15334" lon="-1.63516">
        <ele>76</ele>
        <time>2021-08-09T17:52:07.000Z</time>
      </trkpt>
      <trkpt lat="47.15346" lon="-1.63506">
        <ele>75</ele>
        <time>2021-08-09T17:52:09.000Z</time>
      </trkpt>
      <trkpt lat="47.15358" lon="-1.63496">
        <ele>75</ele>
        <time>2021-08-09T17:52:11.000Z</time>
      </trkpt>
      <trkpt lat="47.1537" lon="-1.63486">
        <ele>75</ele>
        <time>2021-08-09T17:52:13.000Z</time>
      </trkpt>
      <trkpt lat="47.15381" lon="-1.63476">
        <ele>74</ele>
        <time>2021-08-09T17:52:15.000Z</time>
      </trkpt>
      <trkpt lat="47.15393" lon="-1.63465">
        <ele>74</ele>
        <time>2021-08-09T17:52:17.000Z</time>
      </trkpt>
      <trkpt lat="47.15405" lon="-1.63455">
        <ele>74</ele>
        <time>2021-08-09T17:52:19.000Z</time>
      </trkpt>
      <trkpt lat="47.15417" lon="-1.63444">
        <ele>74</ele>
        <time>2021-08-09T17:52:21.000Z</time>
      </trkpt>
      <trkpt lat="47.15429" lon="-1.63434">
        <ele>74</ele>
        <time>2021-08-09T17:52:23.000Z</time>
      </trkpt>
      <trkpt lat="47.1544" lon="-1.63421">
        <ele>74</ele>
        <time>2021-08-09T17:52:25.000Z</time>
      </trkpt>
      <trkpt lat="47.15452" lon="-1.6341">
        <ele>74</ele>
        <time>2021-08-09T17:52:27.000Z</time>
      </trkpt>
      <trkpt lat="47.15465" lon="-1.63399">
        <ele>73</ele>
        <time>2021-08-09T17:52:29.000Z</time>
      </trkpt>
      <trkpt lat="47.15479" lon="-1.6339">
        <ele>72</ele>
        <time>2021-08-09T17:52:31.000Z</time>
      </trkpt>
      <trkpt lat="47.15492" lon="-1.6338">
        <ele>72</ele>
        <time>2021-08-09T17:52:33.000Z</time>
      </trkpt>
      <trkpt lat="47.15505" lon="-1.63369">
        <ele>71</ele>
        <time>2021-08-09T17:52:35.000Z</time>
      </trkpt>
      <trkpt lat="47.15519" lon="-1.63358">
        <ele>71</ele>
        <time>2021-08-09T17:52:37.000Z</time>
      </trkpt>
      <trkpt lat="47.15532" lon="-1.63346">
        <ele>71</ele>
        <time>2021-08-09T17:52:39.000Z</time>
      </trkpt>
      <trkpt lat="47.15546" lon="-1.63334">
        <ele>70</ele>
        <time>2021-08-09T17:52:41.000Z</time>
      </trkpt>
      <trkpt lat="47.1556" lon="-1.63321">
        <ele>69</ele>
        <time>2021-08-09T17:52:43.000Z</time>
      </trkpt>
      <trkpt lat="47.15574" lon="-1.63309">
        <ele>69</ele>
        <time>2021-08-09T17:52:45.000Z</time>
      </trkpt>
      <trkpt lat="47.15589" lon="-1.63296">
        <ele>68</ele>
        <time>2021-08-09T17:52:47.000Z</time>
      </trkpt>
      <trkpt lat="47.15603" lon="-1.63283">
        <ele>68</ele>
        <time>2021-08-09T17:52:49.000Z</time>
      </trkpt>
      <trkpt lat="47.15617" lon="-1.63271">
        <ele>68</ele>
        <time>2021-08-09T17:52:51.000Z</time>
      </trkpt>
      <trkpt lat="47.15631" lon="-1.63258">
        <ele>68</ele>
        <time>2021-08-09T17:52:53.000Z</time>
      </trkpt>
      <trkpt lat="47.15644" lon="-1.63246">
        <ele>68</ele>
        <time>2021-08-09T17:52:55.000Z</time>
      </trkpt>
      <trkpt lat="47.15658" lon="-1.63234">
        <ele>68</ele>
        <time>2021-08-09T17:52:57.000Z</time>
      </trkpt>
      <trkpt lat="47.1567" lon="-1.63222">
        <ele>68</ele>
        <time>2021-08-09T17:52:59.000Z</time>
      </trkpt>
      <trkpt lat="47.15683" lon="-1.63209">
        <ele>68</ele>
        <time>2021-08-09T17:53:01.000Z</time>
      </trkpt>
      <trkpt lat="47.15697" lon="-1.63198">
        <ele>69</ele>
        <time>2021-08-09T17:53:03.000Z</time>
      </trkpt>
      <trkpt lat="47.15709" lon="-1.63187">
        <ele>69</ele>
        <time>2021-08-09T17:53:05.000Z</time>
      </trkpt>
      <trkpt lat="47.15723" lon="-1.63176">
        <ele>69</ele>
        <time>2021-08-09T17:53:07.000Z</time>
      </trkpt>
      <trkpt lat="47.15735" lon="-1.63165">
        <ele>68</ele>
        <time>2021-08-09T17:53:09.000Z</time>
      </trkpt>
      <trkpt lat="47.15742" lon="-1.63151">
        <ele>68</ele>
        <time>2021-08-09T17:53:11.000Z</time>
      </trkpt>
      <trkpt lat="47.15752" lon="-1.63144">
        <ele>68</ele>
        <time>2021-08-09T17:53:13.000Z</time>
      </trkpt>
      <trkpt lat="47.15765" lon="-1.6314">
        <ele>67</ele>
        <time>2021-08-09T17:53:15.000Z</time>
      </trkpt>
      <trkpt lat="47.15777" lon="-1.63129">
        <ele>67</ele>
        <time>2021-08-09T17:53:17.000Z</time>
      </trkpt>
      <trkpt lat="47.15789" lon="-1.63118">
        <ele>66</ele>
        <time>2021-08-09T17:53:19.000Z</time>
      </trkpt>
      <trkpt lat="47.15802" lon="-1.63107">
        <ele>66</ele>
        <time>2021-08-09T17:53:21.000Z</time>
      </trkpt>
      <trkpt lat="47.15815" lon="-1.63095">
        <ele>65</ele>
        <time>2021-08-09T17:53:23.000Z</time>
      </trkpt>
      <trkpt lat="47.15829" lon="-1.63083">
        <ele>64</ele>
        <time>2021-08-09T17:53:25.000Z</time>
      </trkpt>
      <trkpt lat="47.15842" lon="-1.63072">
        <ele>64</ele>
        <time>2021-08-09T17:53:27.000Z</time>
      </trkpt>
      <trkpt lat="47.15856" lon="-1.63059">
        <ele>63</ele>
        <time>2021-08-09T17:53:29.000Z</time>
      </trkpt>
      <trkpt lat="47.15869" lon="-1.63047">
        <ele>63</ele>
        <time>2021-08-09T17:53:31.000Z</time>
      </trkpt>
      <trkpt lat="47.15883" lon="-1.63034">
        <ele>63</ele>
        <time>2021-08-09T17:53:33.000Z</time>
      </trkpt>
      <trkpt lat="47.15897" lon="-1.63021">
        <ele>63</ele>
        <time>2021-08-09T17:53:35.000Z</time>
      </trkpt>
      <trkpt lat="47.1591" lon="-1.6301">
        <ele>63</ele>
        <time>2021-08-09T17:53:37.000Z</time>
      </trkpt>
      <trkpt lat="47.15923" lon="-1.62998">
        <ele>63</ele>
        <time>2021-08-09T17:53:39.000Z</time>
      </trkpt>
      <trkpt lat="47.15936" lon="-1.62986">
        <ele>63</ele>
        <time>2021-08-09T17:53:41.000Z</time>
      </trkpt>
      <trkpt lat="47.15948" lon="-1.62975">
        <ele>64</ele>
        <time>2021-08-09T17:53:43.000Z</time>
      </trkpt>
      <trkpt lat="47.15961" lon="-1.62963">
        <ele>65</ele>
        <time>2021-08-09T17:53:45.000Z</time>
      </trkpt>
      <trkpt lat="47.15972" lon="-1.62952">
        <ele>65</ele>
        <time>2021-08-09T17:53:47.000Z</time>
      </trkpt>
      <trkpt lat="47.15985" lon="-1.6294">
        <ele>66</ele>
        <time>2021-08-09T17:53:49.000Z</time>
      </trkpt>
      <trkpt lat="47.15998" lon="-1.62928">
        <ele>67</ele>
        <time>2021-08-09T17:53:51.000Z</time>
      </trkpt>
      <trkpt lat="47.1601" lon="-1.62918">
        <ele>67</ele>
        <time>2021-08-09T17:53:53.000Z</time>
      </trkpt>
      <trkpt lat="47.16021" lon="-1.62909">
        <ele>67</ele>
        <time>2021-08-09T17:53:55.000Z</time>
      </trkpt>
      <trkpt lat="47.16032" lon="-1.629">
        <ele>68</ele>
        <time>2021-08-09T17:53:57.000Z</time>
      </trkpt>
      <trkpt lat="47.16042" lon="-1.6289">
        <ele>69</ele>
        <time>2021-08-09T17:53:59.000Z</time>
      </trkpt>
      <trkpt lat="47.16053" lon="-1.62881">
        <ele>69</ele>
        <time>2021-08-09T17:54:01.000Z</time>
      </trkpt>
      <trkpt lat="47.16063" lon="-1.62872">
        <ele>69</ele>
        <time>2021-08-09T17:54:03.000Z</time>
      </trkpt>
      <trkpt lat="47.16073" lon="-1.62863">
        <ele>70</ele>
        <time>2021-08-09T17:54:05.000Z</time>
      </trkpt>
      <trkpt lat="47.16083" lon="-1.62854">
        <ele>70</ele>
        <time>2021-08-09T17:54:07.000Z</time>
      </trkpt>
      <trkpt lat="47.16093" lon="-1.62845">
        <ele>70</ele>
        <time>2021-08-09T17:54:09.000Z</time>
      </trkpt>
      <trkpt lat="47.16103" lon="-1.62837">
        <ele>70</ele>
        <time>2021-08-09T17:54:11.000Z</time>
      </trkpt>
      <trkpt lat="47.16113" lon="-1.62828">
        <ele>71</ele>
        <time>2021-08-09T17:54:13.000Z</time>
      </trkpt>
      <trkpt lat="47.16122" lon="-1.6282">
        <ele>71</ele>
        <time>2021-08-09T17:54:15.000Z</time>
      </trkpt>
      <trkpt lat="47.16132" lon="-1.62812">
        <ele>71</ele>
        <time>2021-08-09T17:54:17.000Z</time>
      </trkpt>
      <trkpt lat="47.16142" lon="-1.62803">
        <ele>71</ele>
        <time>2021-08-09T17:54:19.000Z</time>
      </trkpt>
      <trkpt lat="47.16151" lon="-1.62794">
        <ele>72</ele>
        <time>2021-08-09T17:54:21.000Z</time>
      </trkpt>
      <trkpt lat="47.16161" lon="-1.62786">
        <ele>72</ele>
        <time>2021-08-09T17:54:23.000Z</time>
      </trkpt>
      <trkpt lat="47.1617" lon="-1.62777">
        <ele>72</ele>
        <time>2021-08-09T17:54:25.000Z</time>
      </trkpt>
      <trkpt lat="47.16179" lon="-1.62769">
        <ele>73</ele>
        <time>2021-08-09T17:54:27.000Z</time>
      </trkpt>
      <trkpt lat="47.16189" lon="-1.6276">
        <ele>73</ele>
        <time>2021-08-09T17:54:29.000Z</time>
      </trkpt>
      <trkpt lat="47.16198" lon="-1.62751">
        <ele>74</ele>
        <time>2021-08-09T17:54:31.000Z</time>
      </trkpt>
      <trkpt lat="47.16208" lon="-1.62744">
        <ele>75</ele>
        <time>2021-08-09T17:54:33.000Z</time>
      </trkpt>
      <trkpt lat="47.16218" lon="-1.62736">
        <ele>75</ele>
        <time>2021-08-09T17:54:35.000Z</time>
      </trkpt>
      <trkpt lat="47.16227" lon="-1.62728">
        <ele>75</ele>
        <time>2021-08-09T17:54:37.000Z</time>
      </trkpt>
      <trkpt lat="47.16237" lon="-1.62721">
        <ele>76</ele>
        <time>2021-08-09T17:54:39.000Z</time>
      </trkpt>
      <trkpt lat="47.16246" lon="-1.62714">
        <ele>76</ele>
        <time>2021-08-09T17:54:41.000Z</time>
      </trkpt>
      <trkpt lat="47.16256" lon="-1.62706">
        <ele>76</ele>
        <time>2021-08-09T17:54:43.000Z</time>
      </trkpt>
      <trkpt lat="47.16264" lon="-1.62699">
        <ele>76</ele>
        <time>2021-08-09T17:54:45.000Z</time>
      </trkpt>
      <trkpt lat="47.16273" lon="-1.62692">
        <ele>76</ele>
        <time>2021-08-09T17:54:47.000Z</time>
      </trkpt>
      <trkpt lat="47.16275" lon="-1.62673">
        <ele>76</ele>
        <time>2021-08-09T17:54:50.000Z</time>
      </trkpt>
      <trkpt lat="47.16276" lon="-1.62656">
        <ele>76</ele>
        <time>2021-08-09T17:54:52.000Z</time>
      </trkpt>
      <trkpt lat="47.16277" lon="-1.62639">
        <ele>76</ele>
        <time>2021-08-09T17:54:54.000Z</time>
      </trkpt>
      <trkpt lat="47.1628" lon="-1.62622">
        <ele>76</ele>
        <time>2021-08-09T17:54:56.000Z</time>
      </trkpt>
      <trkpt lat="47.16284" lon="-1.62607">
        <ele>76</ele>
        <time>2021-08-09T17:54:58.000Z</time>
      </trkpt>
      <trkpt lat="47.1629" lon="-1.62592">
        <ele>76</ele>
        <time>2021-08-09T17:55:00.000Z</time>
      </trkpt>
      <trkpt lat="47.16297" lon="-1.6258">
        <ele>76</ele>
        <time>2021-08-09T17:55:02.000Z</time>
      </trkpt>
      <trkpt lat="47.16306" lon="-1.62572">
        <ele>76</ele>
        <time>2021-08-09T17:55:04.000Z</time>
      </trkpt>
      <trkpt lat="47.16318" lon="-1.62569">
        <ele>76</ele>
        <time>2021-08-09T17:55:06.000Z</time>
      </trkpt>
      <trkpt lat="47.16329" lon="-1.62571">
        <ele>76</ele>
        <time>2021-08-09T17:55:08.000Z</time>
      </trkpt>
      <trkpt lat="47.16341" lon="-1.62576">
        <ele>76</ele>
        <time>2021-08-09T17:55:10.000Z</time>
      </trkpt>
      <trkpt lat="47.16352" lon="-1.6258">
        <ele>76</ele>
        <time>2021-08-09T17:55:12.000Z</time>
      </trkpt>
      <trkpt lat="47.16364" lon="-1.62583">
        <ele>76</ele>
        <time>2021-08-09T17:55:14.000Z</time>
      </trkpt>
      <trkpt lat="47.16376" lon="-1.62583">
        <ele>76</ele>
        <time>2021-08-09T17:55:16.000Z</time>
      </trkpt>
      <trkpt lat="47.16388" lon="-1.62579">
        <ele>76</ele>
        <time>2021-08-09T17:55:18.000Z</time>
      </trkpt>
      <trkpt lat="47.16398" lon="-1.62572">
        <ele>77</ele>
        <time>2021-08-09T17:55:20.000Z</time>
      </trkpt>
      <trkpt lat="47.16408" lon="-1.62563">
        <ele>77</ele>
        <time>2021-08-09T17:55:22.000Z</time>
      </trkpt>
      <trkpt lat="47.16418" lon="-1.62553">
        <ele>78</ele>
        <time>2021-08-09T17:55:24.000Z</time>
      </trkpt>
      <trkpt lat="47.16427" lon="-1.62543">
        <ele>78</ele>
        <time>2021-08-09T17:55:26.000Z</time>
      </trkpt>
      <trkpt lat="47.16438" lon="-1.62539">
        <ele>78</ele>
        <time>2021-08-09T17:55:28.000Z</time>
      </trkpt>
      <trkpt lat="47.1645" lon="-1.62541">
        <ele>78</ele>
        <time>2021-08-09T17:55:30.000Z</time>
      </trkpt>
      <trkpt lat="47.16461" lon="-1.62545">
        <ele>78</ele>
        <time>2021-08-09T17:55:32.000Z</time>
      </trkpt>
      <trkpt lat="47.16473" lon="-1.62549">
        <ele>77</ele>
        <time>2021-08-09T17:55:34.000Z</time>
      </trkpt>
      <trkpt lat="47.16485" lon="-1.62553">
        <ele>77</ele>
        <time>2021-08-09T17:55:36.000Z</time>
      </trkpt>
      <trkpt lat="47.16497" lon="-1.62557">
        <ele>77</ele>
        <time>2021-08-09T17:55:38.000Z</time>
      </trkpt>
      <trkpt lat="47.16509" lon="-1.6256">
        <ele>76</ele>
        <time>2021-08-09T17:55:40.000Z</time>
      </trkpt>
      <trkpt lat="47.16522" lon="-1.62563">
        <ele>76</ele>
        <time>2021-08-09T17:55:42.000Z</time>
      </trkpt>
      <trkpt lat="47.16534" lon="-1.62561">
        <ele>76</ele>
        <time>2021-08-09T17:55:44.000Z</time>
      </trkpt>
      <trkpt lat="47.16545" lon="-1.62551">
        <ele>76</ele>
        <time>2021-08-09T17:55:46.000Z</time>
      </trkpt>
      <trkpt lat="47.16554" lon="-1.62537">
        <ele>76</ele>
        <time>2021-08-09T17:55:48.000Z</time>
      </trkpt>
      <trkpt lat="47.16563" lon="-1.62522">
        <ele>76</ele>
        <time>2021-08-09T17:55:50.000Z</time>
      </trkpt>
      <trkpt lat="47.1657" lon="-1.62504">
        <ele>76</ele>
        <time>2021-08-09T17:55:52.000Z</time>
      </trkpt>
      <trkpt lat="47.16578" lon="-1.62485">
        <ele>76</ele>
        <time>2021-08-09T17:55:54.000Z</time>
      </trkpt>
      <trkpt lat="47.16585" lon="-1.62466">
        <ele>76</ele>
        <time>2021-08-09T17:55:56.000Z</time>
      </trkpt>
      <trkpt lat="47.16594" lon="-1.62448">
        <ele>75</ele>
        <time>2021-08-09T17:55:58.000Z</time>
      </trkpt>
      <trkpt lat="47.16602" lon="-1.62429">
        <ele>75</ele>
        <time>2021-08-09T17:56:00.000Z</time>
      </trkpt>
      <trkpt lat="47.16611" lon="-1.62412">
        <ele>75</ele>
        <time>2021-08-09T17:56:02.000Z</time>
      </trkpt>
      <trkpt lat="47.16621" lon="-1.62396">
        <ele>74</ele>
        <time>2021-08-09T17:56:04.000Z</time>
      </trkpt>
      <trkpt lat="47.16632" lon="-1.62381">
        <ele>74</ele>
        <time>2021-08-09T17:56:06.000Z</time>
      </trkpt>
      <trkpt lat="47.16644" lon="-1.62369">
        <ele>74</ele>
        <time>2021-08-09T17:56:08.000Z</time>
      </trkpt>
      <trkpt lat="47.16658" lon="-1.62359">
        <ele>74</ele>
        <time>2021-08-09T17:56:10.000Z</time>
      </trkpt>
      <trkpt lat="47.16672" lon="-1.62357">
        <ele>74</ele>
        <time>2021-08-09T17:56:12.000Z</time>
      </trkpt>
      <trkpt lat="47.16687" lon="-1.62361">
        <ele>73</ele>
        <time>2021-08-09T17:56:14.000Z</time>
      </trkpt>
      <trkpt lat="47.16701" lon="-1.62373">
        <ele>72</ele>
        <time>2021-08-09T17:56:16.000Z</time>
      </trkpt>
      <trkpt lat="47.1671" lon="-1.62389">
        <ele>72</ele>
        <time>2021-08-09T17:56:18.000Z</time>
      </trkpt>
      <trkpt lat="47.16716" lon="-1.62401">
        <ele>72</ele>
        <time>2021-08-09T17:56:20.000Z</time>
      </trkpt>
      <trkpt lat="47.16723" lon="-1.62409">
        <ele>70</ele>
        <time>2021-08-09T17:56:22.000Z</time>
      </trkpt>
      <trkpt lat="47.16726" lon="-1.62423">
        <ele>70</ele>
        <time>2021-08-09T17:56:24.000Z</time>
      </trkpt>
      <trkpt lat="47.16724" lon="-1.62439">
        <ele>69</ele>
        <time>2021-08-09T17:56:26.000Z</time>
      </trkpt>
      <trkpt lat="47.16721" lon="-1.62455">
        <ele>68</ele>
        <time>2021-08-09T17:56:28.000Z</time>
      </trkpt>
      <trkpt lat="47.16718" lon="-1.62473">
        <ele>68</ele>
        <time>2021-08-09T17:56:30.000Z</time>
      </trkpt>
      <trkpt lat="47.16715" lon="-1.62489">
        <ele>68</ele>
        <time>2021-08-09T17:56:32.000Z</time>
      </trkpt>
      <trkpt lat="47.16723" lon="-1.62499">
        <ele>68</ele>
        <time>2021-08-09T17:56:34.000Z</time>
      </trkpt>
      <trkpt lat="47.16734" lon="-1.62503">
        <ele>68</ele>
        <time>2021-08-09T17:56:36.000Z</time>
      </trkpt>
      <trkpt lat="47.16745" lon="-1.62509">
        <ele>68</ele>
        <time>2021-08-09T17:56:38.000Z</time>
      </trkpt>
      <trkpt lat="47.16755" lon="-1.62515">
        <ele>68</ele>
        <time>2021-08-09T17:56:40.000Z</time>
      </trkpt>
      <trkpt lat="47.16766" lon="-1.62523">
        <ele>69</ele>
        <time>2021-08-09T17:56:42.000Z</time>
      </trkpt>
      <trkpt lat="47.16778" lon="-1.62529">
        <ele>69</ele>
        <time>2021-08-09T17:56:44.000Z</time>
      </trkpt>
      <trkpt lat="47.16789" lon="-1.62535">
        <ele>70</ele>
        <time>2021-08-09T17:56:46.000Z</time>
      </trkpt>
      <trkpt lat="47.168" lon="-1.62542">
        <ele>70</ele>
        <time>2021-08-09T17:56:48.000Z</time>
      </trkpt>
      <trkpt lat="47.1681" lon="-1.62549">
        <ele>70</ele>
        <time>2021-08-09T17:56:50.000Z</time>
      </trkpt>
      <trkpt lat="47.1682" lon="-1.6256">
        <ele>70</ele>
        <time>2021-08-09T17:56:52.000Z</time>
      </trkpt>
      <trkpt lat="47.16828" lon="-1.62573">
        <ele>70</ele>
        <time>2021-08-09T17:56:54.000Z</time>
      </trkpt>
      <trkpt lat="47.16827" lon="-1.6259">
        <ele>70</ele>
        <time>2021-08-09T17:56:56.000Z</time>
      </trkpt>
      <trkpt lat="47.16819" lon="-1.62603">
        <ele>71</ele>
        <time>2021-08-09T17:56:58.000Z</time>
      </trkpt>
      <trkpt lat="47.16812" lon="-1.62615">
        <ele>70</ele>
        <time>2021-08-09T17:57:00.000Z</time>
      </trkpt>
      <trkpt lat="47.16804" lon="-1.62627">
        <ele>70</ele>
        <time>2021-08-09T17:57:02.000Z</time>
      </trkpt>
      <trkpt lat="47.16797" lon="-1.62639">
        <ele>70</ele>
        <time>2021-08-09T17:57:04.000Z</time>
      </trkpt>
      <trkpt lat="47.16791" lon="-1.6265">
        <ele>70</ele>
        <time>2021-08-09T17:57:06.000Z</time>
      </trkpt>
      <trkpt lat="47.16783" lon="-1.62662">
        <ele>70</ele>
        <time>2021-08-09T17:57:09.000Z</time>
      </trkpt>
      <trkpt lat="47.16775" lon="-1.62653">
        <ele>70</ele>
        <time>2021-08-09T17:57:13.000Z</time>
      </trkpt>
    </trkseg>
  </trk>
</gpx>